<?xml version="1.0" encoding="UTF-8" standalone="no" ?>
<gpx xmlns="http://www.topografix.com/GPX/1/1" xmlns:xsi="http://www.w3.org/2001/XMLSchema-instance" xsi:schemaLocation="http://www.topografix.com/GPX/1/1 http://www.topografix.com/GPX/1/1/gpx.xsd" version="1.1" creator="VisuGPX - https://www.visugpx.com">
  <metadata>
    <name>Pornichet 20/06/2021</name>
    <desc><![CDATA[Sortie VTT du dimanche 20 juin 2021]]></desc>
  </metadata>
  <trk>
    <name><![CDATA[Pornichet Cyclisme]]></name>
    <trkseg>
      <trkpt lat="47.2641" lon="-2.31573">
        <ele>10.800000190735</ele>
        <time>2021-06-20T06:54:25.000Z</time>
      </trkpt>
      <trkpt lat="47.26409" lon="-2.31576">
        <ele>10.800000190735</ele>
        <time>2021-06-20T06:54:26.000Z</time>
      </trkpt>
      <trkpt lat="47.26409" lon="-2.31584">
        <ele>10.800000190735</ele>
        <time>2021-06-20T06:54:28.000Z</time>
      </trkpt>
      <trkpt lat="47.2641" lon="-2.31589">
        <ele>10.199999809265</ele>
        <time>2021-06-20T06:54:29.000Z</time>
      </trkpt>
      <trkpt lat="47.2641" lon="-2.31594">
        <ele>9.8000001907349</ele>
        <time>2021-06-20T06:54:30.000Z</time>
      </trkpt>
      <trkpt lat="47.2641" lon="-2.31598">
        <ele>9.3999996185303</ele>
        <time>2021-06-20T06:54:31.000Z</time>
      </trkpt>
      <trkpt lat="47.2641" lon="-2.31603">
        <ele>9</ele>
        <time>2021-06-20T06:54:32.000Z</time>
      </trkpt>
      <trkpt lat="47.26409" lon="-2.31628">
        <ele>9</ele>
        <time>2021-06-20T06:54:36.000Z</time>
      </trkpt>
      <trkpt lat="47.26411" lon="-2.31661">
        <ele>9</ele>
        <time>2021-06-20T06:54:41.000Z</time>
      </trkpt>
      <trkpt lat="47.26412" lon="-2.31667">
        <ele>9</ele>
        <time>2021-06-20T06:54:42.000Z</time>
      </trkpt>
      <trkpt lat="47.26408" lon="-2.31684">
        <ele>9</ele>
        <time>2021-06-20T06:54:46.000Z</time>
      </trkpt>
      <trkpt lat="47.26394" lon="-2.31694">
        <ele>9</ele>
        <time>2021-06-20T06:54:50.000Z</time>
      </trkpt>
      <trkpt lat="47.2638" lon="-2.31704">
        <ele>9</ele>
        <time>2021-06-20T06:54:53.000Z</time>
      </trkpt>
      <trkpt lat="47.26369" lon="-2.31708">
        <ele>9</ele>
        <time>2021-06-20T06:54:55.000Z</time>
      </trkpt>
      <trkpt lat="47.26364" lon="-2.3171">
        <ele>9</ele>
        <time>2021-06-20T06:54:56.000Z</time>
      </trkpt>
      <trkpt lat="47.26344" lon="-2.31721">
        <ele>8.8000001907349</ele>
        <time>2021-06-20T06:55:00.000Z</time>
      </trkpt>
      <trkpt lat="47.26334" lon="-2.31724">
        <ele>8.6000003814697</ele>
        <time>2021-06-20T06:55:01.000Z</time>
      </trkpt>
      <trkpt lat="47.26328" lon="-2.31727">
        <ele>8.6000003814697</ele>
        <time>2021-06-20T06:55:03.000Z</time>
      </trkpt>
      <trkpt lat="47.26323" lon="-2.31729">
        <ele>8.6000003814697</ele>
        <time>2021-06-20T06:55:04.000Z</time>
      </trkpt>
      <trkpt lat="47.26314" lon="-2.31734">
        <ele>8.6000003814697</ele>
        <time>2021-06-20T06:55:06.000Z</time>
      </trkpt>
      <trkpt lat="47.2631" lon="-2.31738">
        <ele>8.6000003814697</ele>
        <time>2021-06-20T06:55:07.000Z</time>
      </trkpt>
      <trkpt lat="47.26308" lon="-2.31753">
        <ele>8.6000003814697</ele>
        <time>2021-06-20T06:55:10.000Z</time>
      </trkpt>
      <trkpt lat="47.26309" lon="-2.3176">
        <ele>8.6000003814697</ele>
        <time>2021-06-20T06:55:11.000Z</time>
      </trkpt>
      <trkpt lat="47.2631" lon="-2.31766">
        <ele>8.1999998092651</ele>
        <time>2021-06-20T06:55:12.000Z</time>
      </trkpt>
      <trkpt lat="47.26309" lon="-2.31772">
        <ele>7.8000001907349</ele>
        <time>2021-06-20T06:55:13.000Z</time>
      </trkpt>
      <trkpt lat="47.26309" lon="-2.31778">
        <ele>7.4000000953674</ele>
        <time>2021-06-20T06:55:14.000Z</time>
      </trkpt>
      <trkpt lat="47.26309" lon="-2.31785">
        <ele>7</ele>
        <time>2021-06-20T06:55:15.000Z</time>
      </trkpt>
      <trkpt lat="47.2631" lon="-2.31791">
        <ele>6.5999999046326</ele>
        <time>2021-06-20T06:55:16.000Z</time>
      </trkpt>
      <trkpt lat="47.26311" lon="-2.31818">
        <ele>6.5999999046326</ele>
        <time>2021-06-20T06:55:20.000Z</time>
      </trkpt>
      <trkpt lat="47.26309" lon="-2.31838">
        <ele>6.5999999046326</ele>
        <time>2021-06-20T06:55:23.000Z</time>
      </trkpt>
      <trkpt lat="47.26308" lon="-2.31859">
        <ele>6.5999999046326</ele>
        <time>2021-06-20T06:55:26.000Z</time>
      </trkpt>
      <trkpt lat="47.26301" lon="-2.31894">
        <ele>6.5999999046326</ele>
        <time>2021-06-20T06:55:32.000Z</time>
      </trkpt>
      <trkpt lat="47.26282" lon="-2.31912">
        <ele>6.5999999046326</ele>
        <time>2021-06-20T06:55:37.000Z</time>
      </trkpt>
      <trkpt lat="47.26268" lon="-2.31935">
        <ele>6.5999999046326</ele>
        <time>2021-06-20T06:55:42.000Z</time>
      </trkpt>
      <trkpt lat="47.26263" lon="-2.31947">
        <ele>6.5999999046326</ele>
        <time>2021-06-20T06:55:44.000Z</time>
      </trkpt>
      <trkpt lat="47.26252" lon="-2.31968">
        <ele>6.5999999046326</ele>
        <time>2021-06-20T06:55:48.000Z</time>
      </trkpt>
      <trkpt lat="47.26246" lon="-2.31975">
        <ele>6.5999999046326</ele>
        <time>2021-06-20T06:55:50.000Z</time>
      </trkpt>
      <trkpt lat="47.26243" lon="-2.31977">
        <ele>6.5999999046326</ele>
        <time>2021-06-20T06:55:51.000Z</time>
      </trkpt>
      <trkpt lat="47.26232" lon="-2.31994">
        <ele>6.5999999046326</ele>
        <time>2021-06-20T06:55:55.000Z</time>
      </trkpt>
      <trkpt lat="47.2623" lon="-2.31998">
        <ele>6.5999999046326</ele>
        <time>2021-06-20T06:55:56.000Z</time>
      </trkpt>
      <trkpt lat="47.26218" lon="-2.32011">
        <ele>6</ele>
        <time>2021-06-20T06:56:00.000Z</time>
      </trkpt>
      <trkpt lat="47.26215" lon="-2.32014">
        <ele>5.5999999046326</ele>
        <time>2021-06-20T06:56:01.000Z</time>
      </trkpt>
      <trkpt lat="47.26214" lon="-2.32018">
        <ele>5.1999998092651</ele>
        <time>2021-06-20T06:56:02.000Z</time>
      </trkpt>
      <trkpt lat="47.26213" lon="-2.32021">
        <ele>4.8000001907349</ele>
        <time>2021-06-20T06:56:03.000Z</time>
      </trkpt>
      <trkpt lat="47.26212" lon="-2.32025">
        <ele>4.4000000953674</ele>
        <time>2021-06-20T06:56:04.000Z</time>
      </trkpt>
      <trkpt lat="47.26209" lon="-2.32032">
        <ele>4.4000000953674</ele>
        <time>2021-06-20T06:56:06.000Z</time>
      </trkpt>
      <trkpt lat="47.26207" lon="-2.32034">
        <ele>4.4000000953674</ele>
        <time>2021-06-20T06:56:07.000Z</time>
      </trkpt>
      <trkpt lat="47.26201" lon="-2.32039">
        <ele>4.4000000953674</ele>
        <time>2021-06-20T06:56:10.000Z</time>
      </trkpt>
      <trkpt lat="47.26185" lon="-2.32045">
        <ele>4.4000000953674</ele>
        <time>2021-06-20T06:56:14.000Z</time>
      </trkpt>
      <trkpt lat="47.26168" lon="-2.32054">
        <ele>4.4000000953674</ele>
        <time>2021-06-20T06:56:18.000Z</time>
      </trkpt>
      <trkpt lat="47.26163" lon="-2.32065">
        <ele>4.4000000953674</ele>
        <time>2021-06-20T06:56:20.000Z</time>
      </trkpt>
      <trkpt lat="47.26161" lon="-2.3207">
        <ele>4.4000000953674</ele>
        <time>2021-06-20T06:56:21.000Z</time>
      </trkpt>
      <trkpt lat="47.26156" lon="-2.32084">
        <ele>4.4000000953674</ele>
        <time>2021-06-20T06:56:23.000Z</time>
      </trkpt>
      <trkpt lat="47.26154" lon="-2.3209">
        <ele>4.4000000953674</ele>
        <time>2021-06-20T06:56:24.000Z</time>
      </trkpt>
      <trkpt lat="47.26144" lon="-2.32123">
        <ele>4.4000000953674</ele>
        <time>2021-06-20T06:56:29.000Z</time>
      </trkpt>
      <trkpt lat="47.26136" lon="-2.32148">
        <ele>4.4000000953674</ele>
        <time>2021-06-20T06:56:33.000Z</time>
      </trkpt>
      <trkpt lat="47.26129" lon="-2.32168">
        <ele>4.4000000953674</ele>
        <time>2021-06-20T06:56:36.000Z</time>
      </trkpt>
      <trkpt lat="47.2611" lon="-2.32213">
        <ele>4.4000000953674</ele>
        <time>2021-06-20T06:56:43.000Z</time>
      </trkpt>
      <trkpt lat="47.26107" lon="-2.32219">
        <ele>4.4000000953674</ele>
        <time>2021-06-20T06:56:44.000Z</time>
      </trkpt>
      <trkpt lat="47.261" lon="-2.3223">
        <ele>4.4000000953674</ele>
        <time>2021-06-20T06:56:46.000Z</time>
      </trkpt>
      <trkpt lat="47.26089" lon="-2.32246">
        <ele>4.4000000953674</ele>
        <time>2021-06-20T06:56:49.000Z</time>
      </trkpt>
      <trkpt lat="47.26086" lon="-2.32251">
        <ele>4.4000000953674</ele>
        <time>2021-06-20T06:56:50.000Z</time>
      </trkpt>
      <trkpt lat="47.26066" lon="-2.32272">
        <ele>4.4000000953674</ele>
        <time>2021-06-20T06:56:55.000Z</time>
      </trkpt>
      <trkpt lat="47.26039" lon="-2.32309">
        <ele>4.4000000953674</ele>
        <time>2021-06-20T06:57:02.000Z</time>
      </trkpt>
      <trkpt lat="47.2601" lon="-2.32342">
        <ele>4.4000000953674</ele>
        <time>2021-06-20T06:57:09.000Z</time>
      </trkpt>
      <trkpt lat="47.25983" lon="-2.32381">
        <ele>4.4000000953674</ele>
        <time>2021-06-20T06:57:16.000Z</time>
      </trkpt>
      <trkpt lat="47.25951" lon="-2.32421">
        <ele>4.4000000953674</ele>
        <time>2021-06-20T06:57:24.000Z</time>
      </trkpt>
      <trkpt lat="47.25944" lon="-2.32432">
        <ele>4.4000000953674</ele>
        <time>2021-06-20T06:57:26.000Z</time>
      </trkpt>
      <trkpt lat="47.25929" lon="-2.32444">
        <ele>4.4000000953674</ele>
        <time>2021-06-20T06:57:30.000Z</time>
      </trkpt>
      <trkpt lat="47.25906" lon="-2.32468">
        <ele>4.4000000953674</ele>
        <time>2021-06-20T06:57:36.000Z</time>
      </trkpt>
      <trkpt lat="47.25894" lon="-2.3248">
        <ele>4.4000000953674</ele>
        <time>2021-06-20T06:57:39.000Z</time>
      </trkpt>
      <trkpt lat="47.25879" lon="-2.32484">
        <ele>4.4000000953674</ele>
        <time>2021-06-20T06:57:42.000Z</time>
      </trkpt>
      <trkpt lat="47.25874" lon="-2.32484">
        <ele>4.4000000953674</ele>
        <time>2021-06-20T06:57:43.000Z</time>
      </trkpt>
      <trkpt lat="47.25854" lon="-2.32484">
        <ele>4.4000000953674</ele>
        <time>2021-06-20T06:57:47.000Z</time>
      </trkpt>
      <trkpt lat="47.25848" lon="-2.32483">
        <ele>4.4000000953674</ele>
        <time>2021-06-20T06:57:48.000Z</time>
      </trkpt>
      <trkpt lat="47.25814" lon="-2.32467">
        <ele>4.4000000953674</ele>
        <time>2021-06-20T06:57:55.000Z</time>
      </trkpt>
      <trkpt lat="47.25809" lon="-2.32465">
        <ele>4.4000000953674</ele>
        <time>2021-06-20T06:57:56.000Z</time>
      </trkpt>
      <trkpt lat="47.258" lon="-2.32466">
        <ele>4.4000000953674</ele>
        <time>2021-06-20T06:57:58.000Z</time>
      </trkpt>
      <trkpt lat="47.25784" lon="-2.3246">
        <ele>4.4000000953674</ele>
        <time>2021-06-20T06:58:02.000Z</time>
      </trkpt>
      <trkpt lat="47.25773" lon="-2.32439">
        <ele>4.4000000953674</ele>
        <time>2021-06-20T06:58:06.000Z</time>
      </trkpt>
      <trkpt lat="47.25759" lon="-2.32432">
        <ele>4.4000000953674</ele>
        <time>2021-06-20T06:58:09.000Z</time>
      </trkpt>
      <trkpt lat="47.25742" lon="-2.32431">
        <ele>4.4000000953674</ele>
        <time>2021-06-20T06:58:12.000Z</time>
      </trkpt>
      <trkpt lat="47.25731" lon="-2.32431">
        <ele>4.4000000953674</ele>
        <time>2021-06-20T06:58:14.000Z</time>
      </trkpt>
      <trkpt lat="47.25685" lon="-2.32427">
        <ele>4.4000000953674</ele>
        <time>2021-06-20T06:58:22.000Z</time>
      </trkpt>
      <trkpt lat="47.25666" lon="-2.32427">
        <ele>4.4000000953674</ele>
        <time>2021-06-20T06:58:26.000Z</time>
      </trkpt>
      <trkpt lat="47.25662" lon="-2.3243">
        <ele>4.4000000953674</ele>
        <time>2021-06-20T06:58:27.000Z</time>
      </trkpt>
      <trkpt lat="47.25657" lon="-2.32445">
        <ele>4.4000000953674</ele>
        <time>2021-06-20T06:58:30.000Z</time>
      </trkpt>
      <trkpt lat="47.25663" lon="-2.32464">
        <ele>4.4000000953674</ele>
        <time>2021-06-20T06:58:33.000Z</time>
      </trkpt>
      <trkpt lat="47.25664" lon="-2.32471">
        <ele>4.8000001907349</ele>
        <time>2021-06-20T06:58:34.000Z</time>
      </trkpt>
      <trkpt lat="47.25666" lon="-2.32477">
        <ele>5.1999998092651</ele>
        <time>2021-06-20T06:58:35.000Z</time>
      </trkpt>
      <trkpt lat="47.25668" lon="-2.32483">
        <ele>5.5999999046326</ele>
        <time>2021-06-20T06:58:36.000Z</time>
      </trkpt>
      <trkpt lat="47.2567" lon="-2.32489">
        <ele>6.1999998092651</ele>
        <time>2021-06-20T06:58:37.000Z</time>
      </trkpt>
      <trkpt lat="47.25673" lon="-2.32495">
        <ele>6.5999999046326</ele>
        <time>2021-06-20T06:58:38.000Z</time>
      </trkpt>
      <trkpt lat="47.2568" lon="-2.32519">
        <ele>6.5999999046326</ele>
        <time>2021-06-20T06:58:42.000Z</time>
      </trkpt>
      <trkpt lat="47.25691" lon="-2.32554">
        <ele>7.4000000953674</ele>
        <time>2021-06-20T06:58:48.000Z</time>
      </trkpt>
      <trkpt lat="47.25693" lon="-2.32559">
        <ele>7.8000001907349</ele>
        <time>2021-06-20T06:58:49.000Z</time>
      </trkpt>
      <trkpt lat="47.25695" lon="-2.32565">
        <ele>8.1999998092651</ele>
        <time>2021-06-20T06:58:50.000Z</time>
      </trkpt>
      <trkpt lat="47.25697" lon="-2.3257">
        <ele>8.6000003814697</ele>
        <time>2021-06-20T06:58:51.000Z</time>
      </trkpt>
      <trkpt lat="47.25703" lon="-2.32593">
        <ele>8.6000003814697</ele>
        <time>2021-06-20T06:58:55.000Z</time>
      </trkpt>
      <trkpt lat="47.25704" lon="-2.32599">
        <ele>8.6000003814697</ele>
        <time>2021-06-20T06:58:56.000Z</time>
      </trkpt>
      <trkpt lat="47.25704" lon="-2.32606">
        <ele>8.6000003814697</ele>
        <time>2021-06-20T06:58:57.000Z</time>
      </trkpt>
      <trkpt lat="47.25701" lon="-2.32623">
        <ele>8.6000003814697</ele>
        <time>2021-06-20T06:59:00.000Z</time>
      </trkpt>
      <trkpt lat="47.25691" lon="-2.32631">
        <ele>8.6000003814697</ele>
        <time>2021-06-20T06:59:03.000Z</time>
      </trkpt>
      <trkpt lat="47.25678" lon="-2.32636">
        <ele>8.6000003814697</ele>
        <time>2021-06-20T06:59:06.000Z</time>
      </trkpt>
      <trkpt lat="47.25669" lon="-2.32641">
        <ele>9</ele>
        <time>2021-06-20T06:59:08.000Z</time>
      </trkpt>
      <trkpt lat="47.25665" lon="-2.32642">
        <ele>9.3999996185303</ele>
        <time>2021-06-20T06:59:09.000Z</time>
      </trkpt>
      <trkpt lat="47.2566" lon="-2.32644">
        <ele>9.8000001907349</ele>
        <time>2021-06-20T06:59:10.000Z</time>
      </trkpt>
      <trkpt lat="47.25656" lon="-2.32646">
        <ele>10.199999809265</ele>
        <time>2021-06-20T06:59:11.000Z</time>
      </trkpt>
      <trkpt lat="47.25651" lon="-2.32648">
        <ele>10.60000038147</ele>
        <time>2021-06-20T06:59:12.000Z</time>
      </trkpt>
      <trkpt lat="47.25628" lon="-2.32654">
        <ele>10.60000038147</ele>
        <time>2021-06-20T06:59:17.000Z</time>
      </trkpt>
      <trkpt lat="47.25606" lon="-2.32663">
        <ele>11.199999809265</ele>
        <time>2021-06-20T06:59:22.000Z</time>
      </trkpt>
      <trkpt lat="47.25602" lon="-2.32665">
        <ele>11.60000038147</ele>
        <time>2021-06-20T06:59:23.000Z</time>
      </trkpt>
      <trkpt lat="47.25598" lon="-2.32667">
        <ele>12</ele>
        <time>2021-06-20T06:59:24.000Z</time>
      </trkpt>
      <trkpt lat="47.25593" lon="-2.32668">
        <ele>12.39999961853</ele>
        <time>2021-06-20T06:59:25.000Z</time>
      </trkpt>
      <trkpt lat="47.25589" lon="-2.3267">
        <ele>12.800000190735</ele>
        <time>2021-06-20T06:59:26.000Z</time>
      </trkpt>
      <trkpt lat="47.2556" lon="-2.32682">
        <ele>12.800000190735</ele>
        <time>2021-06-20T06:59:32.000Z</time>
      </trkpt>
      <trkpt lat="47.25526" lon="-2.327">
        <ele>12.800000190735</ele>
        <time>2021-06-20T06:59:39.000Z</time>
      </trkpt>
      <trkpt lat="47.25509" lon="-2.32703">
        <ele>12.800000190735</ele>
        <time>2021-06-20T06:59:42.000Z</time>
      </trkpt>
      <trkpt lat="47.25498" lon="-2.32704">
        <ele>12.800000190735</ele>
        <time>2021-06-20T06:59:44.000Z</time>
      </trkpt>
      <trkpt lat="47.25487" lon="-2.32706">
        <ele>12.800000190735</ele>
        <time>2021-06-20T06:59:46.000Z</time>
      </trkpt>
      <trkpt lat="47.25472" lon="-2.32716">
        <ele>12.800000190735</ele>
        <time>2021-06-20T06:59:49.000Z</time>
      </trkpt>
      <trkpt lat="47.25464" lon="-2.32726">
        <ele>12.800000190735</ele>
        <time>2021-06-20T06:59:51.000Z</time>
      </trkpt>
      <trkpt lat="47.25447" lon="-2.32747">
        <ele>12.800000190735</ele>
        <time>2021-06-20T06:59:55.000Z</time>
      </trkpt>
      <trkpt lat="47.25436" lon="-2.32765">
        <ele>12.800000190735</ele>
        <time>2021-06-20T06:59:58.000Z</time>
      </trkpt>
      <trkpt lat="47.25432" lon="-2.32778">
        <ele>12.800000190735</ele>
        <time>2021-06-20T07:00:00.000Z</time>
      </trkpt>
      <trkpt lat="47.2542" lon="-2.32801">
        <ele>12.800000190735</ele>
        <time>2021-06-20T07:00:04.000Z</time>
      </trkpt>
      <trkpt lat="47.25411" lon="-2.32814">
        <ele>12.800000190735</ele>
        <time>2021-06-20T07:00:06.000Z</time>
      </trkpt>
      <trkpt lat="47.25393" lon="-2.32838">
        <ele>12.800000190735</ele>
        <time>2021-06-20T07:00:10.000Z</time>
      </trkpt>
      <trkpt lat="47.25359" lon="-2.32876">
        <ele>12.800000190735</ele>
        <time>2021-06-20T07:00:17.000Z</time>
      </trkpt>
      <trkpt lat="47.25323" lon="-2.32908">
        <ele>12.800000190735</ele>
        <time>2021-06-20T07:00:24.000Z</time>
      </trkpt>
      <trkpt lat="47.25314" lon="-2.32919">
        <ele>12.800000190735</ele>
        <time>2021-06-20T07:00:26.000Z</time>
      </trkpt>
      <trkpt lat="47.25307" lon="-2.32933">
        <ele>12.39999961853</ele>
        <time>2021-06-20T07:00:28.000Z</time>
      </trkpt>
      <trkpt lat="47.25306" lon="-2.32941">
        <ele>12</ele>
        <time>2021-06-20T07:00:29.000Z</time>
      </trkpt>
      <trkpt lat="47.25307" lon="-2.32948">
        <ele>11.60000038147</ele>
        <time>2021-06-20T07:00:30.000Z</time>
      </trkpt>
      <trkpt lat="47.25308" lon="-2.32955">
        <ele>11.199999809265</ele>
        <time>2021-06-20T07:00:31.000Z</time>
      </trkpt>
      <trkpt lat="47.2531" lon="-2.32962">
        <ele>10.800000190735</ele>
        <time>2021-06-20T07:00:32.000Z</time>
      </trkpt>
      <trkpt lat="47.25312" lon="-2.32969">
        <ele>10.800000190735</ele>
        <time>2021-06-20T07:00:33.000Z</time>
      </trkpt>
      <trkpt lat="47.25321" lon="-2.32999">
        <ele>10.800000190735</ele>
        <time>2021-06-20T07:00:37.000Z</time>
      </trkpt>
      <trkpt lat="47.2534" lon="-2.33048">
        <ele>10.800000190735</ele>
        <time>2021-06-20T07:00:43.000Z</time>
      </trkpt>
      <trkpt lat="47.25363" lon="-2.33103">
        <ele>10.800000190735</ele>
        <time>2021-06-20T07:00:50.000Z</time>
      </trkpt>
      <trkpt lat="47.25366" lon="-2.33107">
        <ele>10.800000190735</ele>
        <time>2021-06-20T07:00:53.000Z</time>
      </trkpt>
      <trkpt lat="47.25366" lon="-2.33107">
        <ele>10.800000190735</ele>
        <time>2021-06-20T07:00:54.000Z</time>
      </trkpt>
      <trkpt lat="47.25367" lon="-2.33099">
        <ele>8.3999996185303</ele>
        <time>2021-06-20T07:09:24.000Z</time>
      </trkpt>
      <trkpt lat="47.25365" lon="-2.33094">
        <ele>8.3999996185303</ele>
        <time>2021-06-20T07:09:26.000Z</time>
      </trkpt>
      <trkpt lat="47.25358" lon="-2.33076">
        <ele>8.3999996185303</ele>
        <time>2021-06-20T07:09:32.000Z</time>
      </trkpt>
      <trkpt lat="47.25346" lon="-2.33047">
        <ele>8.3999996185303</ele>
        <time>2021-06-20T07:09:40.000Z</time>
      </trkpt>
      <trkpt lat="47.25342" lon="-2.33039">
        <ele>8.8000001907349</ele>
        <time>2021-06-20T07:09:42.000Z</time>
      </trkpt>
      <trkpt lat="47.2534" lon="-2.33035">
        <ele>9.3999996185303</ele>
        <time>2021-06-20T07:09:43.000Z</time>
      </trkpt>
      <trkpt lat="47.25339" lon="-2.3303">
        <ele>9.8000001907349</ele>
        <time>2021-06-20T07:09:44.000Z</time>
      </trkpt>
      <trkpt lat="47.25337" lon="-2.33026">
        <ele>10.199999809265</ele>
        <time>2021-06-20T07:09:45.000Z</time>
      </trkpt>
      <trkpt lat="47.25335" lon="-2.33021">
        <ele>10.60000038147</ele>
        <time>2021-06-20T07:09:46.000Z</time>
      </trkpt>
      <trkpt lat="47.25332" lon="-2.33012">
        <ele>10.60000038147</ele>
        <time>2021-06-20T07:09:48.000Z</time>
      </trkpt>
      <trkpt lat="47.25313" lon="-2.32965">
        <ele>10.60000038147</ele>
        <time>2021-06-20T07:09:58.000Z</time>
      </trkpt>
      <trkpt lat="47.25296" lon="-2.32933">
        <ele>10.60000038147</ele>
        <time>2021-06-20T07:10:06.000Z</time>
      </trkpt>
      <trkpt lat="47.25292" lon="-2.32934">
        <ele>10.60000038147</ele>
        <time>2021-06-20T07:10:07.000Z</time>
      </trkpt>
      <trkpt lat="47.25285" lon="-2.32938">
        <ele>10.60000038147</ele>
        <time>2021-06-20T07:10:09.000Z</time>
      </trkpt>
      <trkpt lat="47.25277" lon="-2.32946">
        <ele>10.60000038147</ele>
        <time>2021-06-20T07:10:12.000Z</time>
      </trkpt>
      <trkpt lat="47.25265" lon="-2.32958">
        <ele>10.60000038147</ele>
        <time>2021-06-20T07:10:16.000Z</time>
      </trkpt>
      <trkpt lat="47.25246" lon="-2.32976">
        <ele>10.60000038147</ele>
        <time>2021-06-20T07:10:23.000Z</time>
      </trkpt>
      <trkpt lat="47.25232" lon="-2.32991">
        <ele>10.60000038147</ele>
        <time>2021-06-20T07:10:29.000Z</time>
      </trkpt>
      <trkpt lat="47.25212" lon="-2.33011">
        <ele>10.60000038147</ele>
        <time>2021-06-20T07:10:37.000Z</time>
      </trkpt>
      <trkpt lat="47.25204" lon="-2.3302">
        <ele>10.60000038147</ele>
        <time>2021-06-20T07:10:43.000Z</time>
      </trkpt>
      <trkpt lat="47.25203" lon="-2.3302">
        <ele>10.60000038147</ele>
        <time>2021-06-20T07:10:45.000Z</time>
      </trkpt>
      <trkpt lat="47.25201" lon="-2.33018">
        <ele>10.60000038147</ele>
        <time>2021-06-20T07:11:30.000Z</time>
      </trkpt>
      <trkpt lat="47.25202" lon="-2.33016">
        <ele>10.60000038147</ele>
        <time>2021-06-20T07:11:31.000Z</time>
      </trkpt>
      <trkpt lat="47.25202" lon="-2.33016">
        <ele>10.60000038147</ele>
        <time>2021-06-20T07:11:33.000Z</time>
      </trkpt>
      <trkpt lat="47.25203" lon="-2.33017">
        <ele>10.60000038147</ele>
        <time>2021-06-20T07:15:07.000Z</time>
      </trkpt>
      <trkpt lat="47.25194" lon="-2.33032">
        <ele>10.60000038147</ele>
        <time>2021-06-20T07:15:11.000Z</time>
      </trkpt>
      <trkpt lat="47.25191" lon="-2.33037">
        <ele>10.60000038147</ele>
        <time>2021-06-20T07:15:12.000Z</time>
      </trkpt>
      <trkpt lat="47.25172" lon="-2.33058">
        <ele>10.60000038147</ele>
        <time>2021-06-20T07:15:16.000Z</time>
      </trkpt>
      <trkpt lat="47.25156" lon="-2.33072">
        <ele>10.60000038147</ele>
        <time>2021-06-20T07:15:19.000Z</time>
      </trkpt>
      <trkpt lat="47.25139" lon="-2.33082">
        <ele>10.60000038147</ele>
        <time>2021-06-20T07:15:22.000Z</time>
      </trkpt>
      <trkpt lat="47.25117" lon="-2.33087">
        <ele>10.60000038147</ele>
        <time>2021-06-20T07:15:27.000Z</time>
      </trkpt>
      <trkpt lat="47.25114" lon="-2.33076">
        <ele>10.60000038147</ele>
        <time>2021-06-20T07:15:30.000Z</time>
      </trkpt>
      <trkpt lat="47.25118" lon="-2.3306">
        <ele>10.60000038147</ele>
        <time>2021-06-20T07:15:34.000Z</time>
      </trkpt>
      <trkpt lat="47.2512" lon="-2.33056">
        <ele>10.60000038147</ele>
        <time>2021-06-20T07:15:35.000Z</time>
      </trkpt>
      <trkpt lat="47.25133" lon="-2.33024">
        <ele>10.60000038147</ele>
        <time>2021-06-20T07:15:41.000Z</time>
      </trkpt>
      <trkpt lat="47.25137" lon="-2.33011">
        <ele>10.60000038147</ele>
        <time>2021-06-20T07:15:43.000Z</time>
      </trkpt>
      <trkpt lat="47.25134" lon="-2.32999">
        <ele>10.60000038147</ele>
        <time>2021-06-20T07:15:45.000Z</time>
      </trkpt>
      <trkpt lat="47.25123" lon="-2.32979">
        <ele>10.60000038147</ele>
        <time>2021-06-20T07:15:49.000Z</time>
      </trkpt>
      <trkpt lat="47.25113" lon="-2.32963">
        <ele>10.60000038147</ele>
        <time>2021-06-20T07:15:52.000Z</time>
      </trkpt>
      <trkpt lat="47.25107" lon="-2.32951">
        <ele>10.60000038147</ele>
        <time>2021-06-20T07:15:54.000Z</time>
      </trkpt>
      <trkpt lat="47.25092" lon="-2.32923">
        <ele>10.60000038147</ele>
        <time>2021-06-20T07:16:00.000Z</time>
      </trkpt>
      <trkpt lat="47.25088" lon="-2.32907">
        <ele>10.60000038147</ele>
        <time>2021-06-20T07:16:04.000Z</time>
      </trkpt>
      <trkpt lat="47.25085" lon="-2.32899">
        <ele>10.60000038147</ele>
        <time>2021-06-20T07:16:07.000Z</time>
      </trkpt>
      <trkpt lat="47.25083" lon="-2.32897">
        <ele>10.60000038147</ele>
        <time>2021-06-20T07:16:09.000Z</time>
      </trkpt>
      <trkpt lat="47.25082" lon="-2.32895">
        <ele>10.60000038147</ele>
        <time>2021-06-20T07:16:10.000Z</time>
      </trkpt>
      <trkpt lat="47.25078" lon="-2.32881">
        <ele>10.60000038147</ele>
        <time>2021-06-20T07:16:14.000Z</time>
      </trkpt>
      <trkpt lat="47.25077" lon="-2.32866">
        <ele>10.60000038147</ele>
        <time>2021-06-20T07:16:17.000Z</time>
      </trkpt>
      <trkpt lat="47.25077" lon="-2.32861">
        <ele>10.60000038147</ele>
        <time>2021-06-20T07:16:18.000Z</time>
      </trkpt>
      <trkpt lat="47.25076" lon="-2.32851">
        <ele>10.60000038147</ele>
        <time>2021-06-20T07:16:21.000Z</time>
      </trkpt>
      <trkpt lat="47.25075" lon="-2.32849">
        <ele>10.60000038147</ele>
        <time>2021-06-20T07:16:22.000Z</time>
      </trkpt>
      <trkpt lat="47.25069" lon="-2.32838">
        <ele>10.60000038147</ele>
        <time>2021-06-20T07:16:25.000Z</time>
      </trkpt>
      <trkpt lat="47.25062" lon="-2.32831">
        <ele>10.60000038147</ele>
        <time>2021-06-20T07:16:27.000Z</time>
      </trkpt>
      <trkpt lat="47.25049" lon="-2.32801">
        <ele>10.60000038147</ele>
        <time>2021-06-20T07:16:31.000Z</time>
      </trkpt>
      <trkpt lat="47.25039" lon="-2.32775">
        <ele>10.60000038147</ele>
        <time>2021-06-20T07:16:36.000Z</time>
      </trkpt>
      <trkpt lat="47.25028" lon="-2.32755">
        <ele>10.60000038147</ele>
        <time>2021-06-20T07:16:41.000Z</time>
      </trkpt>
      <trkpt lat="47.25028" lon="-2.3275">
        <ele>10.60000038147</ele>
        <time>2021-06-20T07:16:42.000Z</time>
      </trkpt>
      <trkpt lat="47.25031" lon="-2.32741">
        <ele>10.60000038147</ele>
        <time>2021-06-20T07:16:44.000Z</time>
      </trkpt>
      <trkpt lat="47.25043" lon="-2.32728">
        <ele>10.60000038147</ele>
        <time>2021-06-20T07:16:48.000Z</time>
      </trkpt>
      <trkpt lat="47.25046" lon="-2.32724">
        <ele>10.60000038147</ele>
        <time>2021-06-20T07:16:49.000Z</time>
      </trkpt>
      <trkpt lat="47.25064" lon="-2.32707">
        <ele>10.60000038147</ele>
        <time>2021-06-20T07:16:55.000Z</time>
      </trkpt>
      <trkpt lat="47.25066" lon="-2.32704">
        <ele>11.39999961853</ele>
        <time>2021-06-20T07:16:56.000Z</time>
      </trkpt>
      <trkpt lat="47.25068" lon="-2.32702">
        <ele>11.800000190735</ele>
        <time>2021-06-20T07:16:57.000Z</time>
      </trkpt>
      <trkpt lat="47.25071" lon="-2.32699">
        <ele>12.199999809265</ele>
        <time>2021-06-20T07:16:58.000Z</time>
      </trkpt>
      <trkpt lat="47.25073" lon="-2.32697">
        <ele>12.60000038147</ele>
        <time>2021-06-20T07:16:59.000Z</time>
      </trkpt>
      <trkpt lat="47.25078" lon="-2.32692">
        <ele>12.60000038147</ele>
        <time>2021-06-20T07:17:01.000Z</time>
      </trkpt>
      <trkpt lat="47.2508" lon="-2.32689">
        <ele>12.60000038147</ele>
        <time>2021-06-20T07:17:02.000Z</time>
      </trkpt>
      <trkpt lat="47.25081" lon="-2.32679">
        <ele>12.60000038147</ele>
        <time>2021-06-20T07:17:05.000Z</time>
      </trkpt>
      <trkpt lat="47.25075" lon="-2.32663">
        <ele>12.60000038147</ele>
        <time>2021-06-20T07:17:09.000Z</time>
      </trkpt>
      <trkpt lat="47.25072" lon="-2.32657">
        <ele>12.60000038147</ele>
        <time>2021-06-20T07:17:10.000Z</time>
      </trkpt>
      <trkpt lat="47.25059" lon="-2.3263">
        <ele>12.60000038147</ele>
        <time>2021-06-20T07:17:16.000Z</time>
      </trkpt>
      <trkpt lat="47.25056" lon="-2.32625">
        <ele>13</ele>
        <time>2021-06-20T07:17:17.000Z</time>
      </trkpt>
      <trkpt lat="47.25054" lon="-2.3262">
        <ele>13.39999961853</ele>
        <time>2021-06-20T07:17:18.000Z</time>
      </trkpt>
      <trkpt lat="47.25051" lon="-2.32615">
        <ele>13.800000190735</ele>
        <time>2021-06-20T07:17:19.000Z</time>
      </trkpt>
      <trkpt lat="47.2505" lon="-2.32611">
        <ele>14.199999809265</ele>
        <time>2021-06-20T07:17:20.000Z</time>
      </trkpt>
      <trkpt lat="47.25047" lon="-2.32606">
        <ele>14.60000038147</ele>
        <time>2021-06-20T07:17:21.000Z</time>
      </trkpt>
      <trkpt lat="47.25043" lon="-2.32597">
        <ele>14.60000038147</ele>
        <time>2021-06-20T07:17:23.000Z</time>
      </trkpt>
      <trkpt lat="47.25031" lon="-2.3257">
        <ele>14.60000038147</ele>
        <time>2021-06-20T07:17:29.000Z</time>
      </trkpt>
      <trkpt lat="47.25027" lon="-2.32559">
        <ele>14.60000038147</ele>
        <time>2021-06-20T07:17:31.000Z</time>
      </trkpt>
      <trkpt lat="47.25025" lon="-2.32552">
        <ele>15</ele>
        <time>2021-06-20T07:17:32.000Z</time>
      </trkpt>
      <trkpt lat="47.25024" lon="-2.32546">
        <ele>15.39999961853</ele>
        <time>2021-06-20T07:17:33.000Z</time>
      </trkpt>
      <trkpt lat="47.25023" lon="-2.3254">
        <ele>15.800000190735</ele>
        <time>2021-06-20T07:17:34.000Z</time>
      </trkpt>
      <trkpt lat="47.25024" lon="-2.32534">
        <ele>16.39999961853</ele>
        <time>2021-06-20T07:17:35.000Z</time>
      </trkpt>
      <trkpt lat="47.25024" lon="-2.32529">
        <ele>16.799999237061</ele>
        <time>2021-06-20T07:17:36.000Z</time>
      </trkpt>
      <trkpt lat="47.25025" lon="-2.32524">
        <ele>16.799999237061</ele>
        <time>2021-06-20T07:17:37.000Z</time>
      </trkpt>
      <trkpt lat="47.25027" lon="-2.3252">
        <ele>16.799999237061</ele>
        <time>2021-06-20T07:17:38.000Z</time>
      </trkpt>
      <trkpt lat="47.25037" lon="-2.32509">
        <ele>16.799999237061</ele>
        <time>2021-06-20T07:17:41.000Z</time>
      </trkpt>
      <trkpt lat="47.25042" lon="-2.32505">
        <ele>16.799999237061</ele>
        <time>2021-06-20T07:17:42.000Z</time>
      </trkpt>
      <trkpt lat="47.25046" lon="-2.32503">
        <ele>17.200000762939</ele>
        <time>2021-06-20T07:17:43.000Z</time>
      </trkpt>
      <trkpt lat="47.25049" lon="-2.32501">
        <ele>17.60000038147</ele>
        <time>2021-06-20T07:17:44.000Z</time>
      </trkpt>
      <trkpt lat="47.25054" lon="-2.32499">
        <ele>18</ele>
        <time>2021-06-20T07:17:45.000Z</time>
      </trkpt>
      <trkpt lat="47.25058" lon="-2.32497">
        <ele>18.799999237061</ele>
        <time>2021-06-20T07:17:46.000Z</time>
      </trkpt>
      <trkpt lat="47.25066" lon="-2.32494">
        <ele>18.799999237061</ele>
        <time>2021-06-20T07:17:48.000Z</time>
      </trkpt>
      <trkpt lat="47.2507" lon="-2.32492">
        <ele>18.799999237061</ele>
        <time>2021-06-20T07:17:49.000Z</time>
      </trkpt>
      <trkpt lat="47.25084" lon="-2.32487">
        <ele>18.799999237061</ele>
        <time>2021-06-20T07:17:52.000Z</time>
      </trkpt>
      <trkpt lat="47.25088" lon="-2.32484">
        <ele>18.799999237061</ele>
        <time>2021-06-20T07:17:53.000Z</time>
      </trkpt>
      <trkpt lat="47.25096" lon="-2.32478">
        <ele>18.799999237061</ele>
        <time>2021-06-20T07:17:55.000Z</time>
      </trkpt>
      <trkpt lat="47.25103" lon="-2.32469">
        <ele>18.799999237061</ele>
        <time>2021-06-20T07:17:57.000Z</time>
      </trkpt>
      <trkpt lat="47.25108" lon="-2.32444">
        <ele>19.200000762939</ele>
        <time>2021-06-20T07:18:01.000Z</time>
      </trkpt>
      <trkpt lat="47.25108" lon="-2.32438">
        <ele>19.799999237061</ele>
        <time>2021-06-20T07:18:02.000Z</time>
      </trkpt>
      <trkpt lat="47.25108" lon="-2.32431">
        <ele>20.200000762939</ele>
        <time>2021-06-20T07:18:03.000Z</time>
      </trkpt>
      <trkpt lat="47.25108" lon="-2.32425">
        <ele>20.60000038147</ele>
        <time>2021-06-20T07:18:04.000Z</time>
      </trkpt>
      <trkpt lat="47.25107" lon="-2.32419">
        <ele>21</ele>
        <time>2021-06-20T07:18:05.000Z</time>
      </trkpt>
      <trkpt lat="47.25106" lon="-2.32413">
        <ele>21</ele>
        <time>2021-06-20T07:18:06.000Z</time>
      </trkpt>
      <trkpt lat="47.25104" lon="-2.32374">
        <ele>21</ele>
        <time>2021-06-20T07:18:12.000Z</time>
      </trkpt>
      <trkpt lat="47.25105" lon="-2.32368">
        <ele>21</ele>
        <time>2021-06-20T07:18:13.000Z</time>
      </trkpt>
      <trkpt lat="47.25109" lon="-2.32351">
        <ele>21.39999961853</ele>
        <time>2021-06-20T07:18:16.000Z</time>
      </trkpt>
      <trkpt lat="47.25111" lon="-2.32346">
        <ele>21.799999237061</ele>
        <time>2021-06-20T07:18:17.000Z</time>
      </trkpt>
      <trkpt lat="47.25112" lon="-2.3234">
        <ele>22.200000762939</ele>
        <time>2021-06-20T07:18:18.000Z</time>
      </trkpt>
      <trkpt lat="47.25114" lon="-2.32334">
        <ele>22.60000038147</ele>
        <time>2021-06-20T07:18:19.000Z</time>
      </trkpt>
      <trkpt lat="47.25115" lon="-2.32328">
        <ele>23</ele>
        <time>2021-06-20T07:18:20.000Z</time>
      </trkpt>
      <trkpt lat="47.25118" lon="-2.32318">
        <ele>23</ele>
        <time>2021-06-20T07:18:22.000Z</time>
      </trkpt>
      <trkpt lat="47.2513" lon="-2.32298">
        <ele>23</ele>
        <time>2021-06-20T07:18:27.000Z</time>
      </trkpt>
      <trkpt lat="47.25132" lon="-2.32293">
        <ele>23.39999961853</ele>
        <time>2021-06-20T07:18:28.000Z</time>
      </trkpt>
      <trkpt lat="47.25132" lon="-2.32287">
        <ele>23.799999237061</ele>
        <time>2021-06-20T07:18:29.000Z</time>
      </trkpt>
      <trkpt lat="47.25132" lon="-2.32281">
        <ele>24.200000762939</ele>
        <time>2021-06-20T07:18:30.000Z</time>
      </trkpt>
      <trkpt lat="47.25132" lon="-2.32275">
        <ele>24.799999237061</ele>
        <time>2021-06-20T07:18:31.000Z</time>
      </trkpt>
      <trkpt lat="47.25131" lon="-2.32268">
        <ele>25.200000762939</ele>
        <time>2021-06-20T07:18:32.000Z</time>
      </trkpt>
      <trkpt lat="47.25128" lon="-2.32235">
        <ele>25.200000762939</ele>
        <time>2021-06-20T07:18:37.000Z</time>
      </trkpt>
      <trkpt lat="47.25123" lon="-2.32189">
        <ele>25.200000762939</ele>
        <time>2021-06-20T07:18:44.000Z</time>
      </trkpt>
      <trkpt lat="47.25118" lon="-2.32123">
        <ele>25.200000762939</ele>
        <time>2021-06-20T07:18:54.000Z</time>
      </trkpt>
      <trkpt lat="47.25114" lon="-2.32075">
        <ele>25.200000762939</ele>
        <time>2021-06-20T07:19:01.000Z</time>
      </trkpt>
      <trkpt lat="47.25113" lon="-2.32035">
        <ele>25.200000762939</ele>
        <time>2021-06-20T07:19:07.000Z</time>
      </trkpt>
      <trkpt lat="47.25112" lon="-2.32028">
        <ele>25.200000762939</ele>
        <time>2021-06-20T07:19:08.000Z</time>
      </trkpt>
      <trkpt lat="47.2511" lon="-2.31999">
        <ele>25.200000762939</ele>
        <time>2021-06-20T07:19:12.000Z</time>
      </trkpt>
      <trkpt lat="47.25105" lon="-2.31978">
        <ele>25.200000762939</ele>
        <time>2021-06-20T07:19:15.000Z</time>
      </trkpt>
      <trkpt lat="47.25105" lon="-2.31971">
        <ele>25.200000762939</ele>
        <time>2021-06-20T07:19:16.000Z</time>
      </trkpt>
      <trkpt lat="47.25105" lon="-2.31948">
        <ele>25.200000762939</ele>
        <time>2021-06-20T07:19:19.000Z</time>
      </trkpt>
      <trkpt lat="47.25103" lon="-2.31932">
        <ele>25.200000762939</ele>
        <time>2021-06-20T07:19:21.000Z</time>
      </trkpt>
      <trkpt lat="47.25101" lon="-2.31909">
        <ele>25.60000038147</ele>
        <time>2021-06-20T07:19:24.000Z</time>
      </trkpt>
      <trkpt lat="47.251" lon="-2.31901">
        <ele>26</ele>
        <time>2021-06-20T07:19:25.000Z</time>
      </trkpt>
      <trkpt lat="47.25099" lon="-2.31894">
        <ele>26.39999961853</ele>
        <time>2021-06-20T07:19:26.000Z</time>
      </trkpt>
      <trkpt lat="47.25098" lon="-2.31887">
        <ele>26.799999237061</ele>
        <time>2021-06-20T07:19:27.000Z</time>
      </trkpt>
      <trkpt lat="47.25097" lon="-2.31879">
        <ele>27.200000762939</ele>
        <time>2021-06-20T07:19:28.000Z</time>
      </trkpt>
      <trkpt lat="47.25095" lon="-2.31872">
        <ele>27.200000762939</ele>
        <time>2021-06-20T07:19:29.000Z</time>
      </trkpt>
      <trkpt lat="47.25085" lon="-2.31814">
        <ele>27.200000762939</ele>
        <time>2021-06-20T07:19:37.000Z</time>
      </trkpt>
      <trkpt lat="47.25073" lon="-2.31767">
        <ele>27.200000762939</ele>
        <time>2021-06-20T07:19:44.000Z</time>
      </trkpt>
      <trkpt lat="47.2506" lon="-2.31713">
        <ele>27.200000762939</ele>
        <time>2021-06-20T07:19:52.000Z</time>
      </trkpt>
      <trkpt lat="47.25047" lon="-2.31675">
        <ele>27.200000762939</ele>
        <time>2021-06-20T07:19:58.000Z</time>
      </trkpt>
      <trkpt lat="47.25038" lon="-2.31651">
        <ele>27.200000762939</ele>
        <time>2021-06-20T07:20:03.000Z</time>
      </trkpt>
      <trkpt lat="47.25027" lon="-2.31659">
        <ele>27.200000762939</ele>
        <time>2021-06-20T07:20:06.000Z</time>
      </trkpt>
      <trkpt lat="47.25023" lon="-2.31664">
        <ele>27.200000762939</ele>
        <time>2021-06-20T07:20:07.000Z</time>
      </trkpt>
      <trkpt lat="47.25015" lon="-2.31673">
        <ele>27.200000762939</ele>
        <time>2021-06-20T07:20:09.000Z</time>
      </trkpt>
      <trkpt lat="47.25003" lon="-2.31686">
        <ele>27.200000762939</ele>
        <time>2021-06-20T07:20:12.000Z</time>
      </trkpt>
      <trkpt lat="47.24979" lon="-2.31712">
        <ele>27.200000762939</ele>
        <time>2021-06-20T07:20:18.000Z</time>
      </trkpt>
      <trkpt lat="47.24947" lon="-2.31738">
        <ele>27.200000762939</ele>
        <time>2021-06-20T07:20:25.000Z</time>
      </trkpt>
      <trkpt lat="47.24912" lon="-2.3177">
        <ele>27.200000762939</ele>
        <time>2021-06-20T07:20:33.000Z</time>
      </trkpt>
      <trkpt lat="47.24872" lon="-2.31805">
        <ele>27.200000762939</ele>
        <time>2021-06-20T07:20:42.000Z</time>
      </trkpt>
      <trkpt lat="47.24846" lon="-2.3183">
        <ele>27.200000762939</ele>
        <time>2021-06-20T07:20:48.000Z</time>
      </trkpt>
      <trkpt lat="47.24842" lon="-2.31834">
        <ele>27.200000762939</ele>
        <time>2021-06-20T07:20:49.000Z</time>
      </trkpt>
      <trkpt lat="47.2481" lon="-2.3186">
        <ele>27.200000762939</ele>
        <time>2021-06-20T07:20:56.000Z</time>
      </trkpt>
      <trkpt lat="47.24801" lon="-2.31863">
        <ele>27.200000762939</ele>
        <time>2021-06-20T07:20:58.000Z</time>
      </trkpt>
      <trkpt lat="47.24792" lon="-2.31858">
        <ele>27.200000762939</ele>
        <time>2021-06-20T07:21:00.000Z</time>
      </trkpt>
      <trkpt lat="47.24785" lon="-2.31848">
        <ele>27.200000762939</ele>
        <time>2021-06-20T07:21:02.000Z</time>
      </trkpt>
      <trkpt lat="47.24769" lon="-2.31826">
        <ele>27.200000762939</ele>
        <time>2021-06-20T07:21:06.000Z</time>
      </trkpt>
      <trkpt lat="47.24748" lon="-2.31794">
        <ele>27.200000762939</ele>
        <time>2021-06-20T07:21:12.000Z</time>
      </trkpt>
      <trkpt lat="47.24724" lon="-2.31761">
        <ele>27.200000762939</ele>
        <time>2021-06-20T07:21:18.000Z</time>
      </trkpt>
      <trkpt lat="47.24698" lon="-2.3172">
        <ele>27.200000762939</ele>
        <time>2021-06-20T07:21:25.000Z</time>
      </trkpt>
      <trkpt lat="47.24672" lon="-2.31681">
        <ele>27.200000762939</ele>
        <time>2021-06-20T07:21:32.000Z</time>
      </trkpt>
      <trkpt lat="47.24654" lon="-2.31656">
        <ele>27.200000762939</ele>
        <time>2021-06-20T07:21:37.000Z</time>
      </trkpt>
      <trkpt lat="47.24651" lon="-2.31651">
        <ele>27.200000762939</ele>
        <time>2021-06-20T07:21:38.000Z</time>
      </trkpt>
      <trkpt lat="47.24626" lon="-2.31613">
        <ele>27.200000762939</ele>
        <time>2021-06-20T07:21:45.000Z</time>
      </trkpt>
      <trkpt lat="47.24601" lon="-2.31572">
        <ele>27.200000762939</ele>
        <time>2021-06-20T07:21:53.000Z</time>
      </trkpt>
      <trkpt lat="47.24595" lon="-2.31558">
        <ele>27.200000762939</ele>
        <time>2021-06-20T07:21:55.000Z</time>
      </trkpt>
      <trkpt lat="47.24591" lon="-2.31544">
        <ele>27.200000762939</ele>
        <time>2021-06-20T07:21:57.000Z</time>
      </trkpt>
      <trkpt lat="47.24585" lon="-2.31489">
        <ele>27.200000762939</ele>
        <time>2021-06-20T07:22:04.000Z</time>
      </trkpt>
      <trkpt lat="47.2458" lon="-2.31436">
        <ele>27.200000762939</ele>
        <time>2021-06-20T07:22:11.000Z</time>
      </trkpt>
      <trkpt lat="47.24577" lon="-2.31396">
        <ele>27.200000762939</ele>
        <time>2021-06-20T07:22:17.000Z</time>
      </trkpt>
      <trkpt lat="47.24576" lon="-2.31391">
        <ele>27.200000762939</ele>
        <time>2021-06-20T07:22:18.000Z</time>
      </trkpt>
      <trkpt lat="47.24569" lon="-2.31389">
        <ele>27.200000762939</ele>
        <time>2021-06-20T07:22:20.000Z</time>
      </trkpt>
      <trkpt lat="47.24562" lon="-2.3139">
        <ele>27.200000762939</ele>
        <time>2021-06-20T07:22:22.000Z</time>
      </trkpt>
      <trkpt lat="47.24554" lon="-2.31392">
        <ele>27.200000762939</ele>
        <time>2021-06-20T07:22:24.000Z</time>
      </trkpt>
      <trkpt lat="47.24536" lon="-2.31388">
        <ele>27.200000762939</ele>
        <time>2021-06-20T07:22:29.000Z</time>
      </trkpt>
      <trkpt lat="47.24516" lon="-2.31375">
        <ele>27.200000762939</ele>
        <time>2021-06-20T07:22:35.000Z</time>
      </trkpt>
      <trkpt lat="47.24511" lon="-2.31366">
        <ele>26.799999237061</ele>
        <time>2021-06-20T07:22:37.000Z</time>
      </trkpt>
      <trkpt lat="47.24508" lon="-2.31361">
        <ele>26.39999961853</ele>
        <time>2021-06-20T07:22:38.000Z</time>
      </trkpt>
      <trkpt lat="47.24506" lon="-2.31356">
        <ele>26</ele>
        <time>2021-06-20T07:22:39.000Z</time>
      </trkpt>
      <trkpt lat="47.24504" lon="-2.3135">
        <ele>25.39999961853</ele>
        <time>2021-06-20T07:22:40.000Z</time>
      </trkpt>
      <trkpt lat="47.24501" lon="-2.31345">
        <ele>24.60000038147</ele>
        <time>2021-06-20T07:22:41.000Z</time>
      </trkpt>
      <trkpt lat="47.24499" lon="-2.31339">
        <ele>24.200000762939</ele>
        <time>2021-06-20T07:22:42.000Z</time>
      </trkpt>
      <trkpt lat="47.24497" lon="-2.31334">
        <ele>23.799999237061</ele>
        <time>2021-06-20T07:22:43.000Z</time>
      </trkpt>
      <trkpt lat="47.24493" lon="-2.31326">
        <ele>23.39999961853</ele>
        <time>2021-06-20T07:22:44.000Z</time>
      </trkpt>
      <trkpt lat="47.24489" lon="-2.31316">
        <ele>23</ele>
        <time>2021-06-20T07:22:45.000Z</time>
      </trkpt>
      <trkpt lat="47.24485" lon="-2.31305">
        <ele>23</ele>
        <time>2021-06-20T07:22:46.000Z</time>
      </trkpt>
      <trkpt lat="47.24461" lon="-2.3125">
        <ele>23</ele>
        <time>2021-06-20T07:22:53.000Z</time>
      </trkpt>
      <trkpt lat="47.24458" lon="-2.31242">
        <ele>22.60000038147</ele>
        <time>2021-06-20T07:22:54.000Z</time>
      </trkpt>
      <trkpt lat="47.24455" lon="-2.31237">
        <ele>22.200000762939</ele>
        <time>2021-06-20T07:22:55.000Z</time>
      </trkpt>
      <trkpt lat="47.24452" lon="-2.31232">
        <ele>21.60000038147</ele>
        <time>2021-06-20T07:22:56.000Z</time>
      </trkpt>
      <trkpt lat="47.2445" lon="-2.31229">
        <ele>21.200000762939</ele>
        <time>2021-06-20T07:22:57.000Z</time>
      </trkpt>
      <trkpt lat="47.24447" lon="-2.31227">
        <ele>20.799999237061</ele>
        <time>2021-06-20T07:22:58.000Z</time>
      </trkpt>
      <trkpt lat="47.24441" lon="-2.31228">
        <ele>20.39999961853</ele>
        <time>2021-06-20T07:23:00.000Z</time>
      </trkpt>
      <trkpt lat="47.24437" lon="-2.3123">
        <ele>20</ele>
        <time>2021-06-20T07:23:01.000Z</time>
      </trkpt>
      <trkpt lat="47.24434" lon="-2.3123">
        <ele>19.60000038147</ele>
        <time>2021-06-20T07:23:02.000Z</time>
      </trkpt>
      <trkpt lat="47.24431" lon="-2.31229">
        <ele>19.200000762939</ele>
        <time>2021-06-20T07:23:03.000Z</time>
      </trkpt>
      <trkpt lat="47.24429" lon="-2.31228">
        <ele>18.799999237061</ele>
        <time>2021-06-20T07:23:04.000Z</time>
      </trkpt>
      <trkpt lat="47.24427" lon="-2.31225">
        <ele>18.39999961853</ele>
        <time>2021-06-20T07:23:05.000Z</time>
      </trkpt>
      <trkpt lat="47.24425" lon="-2.31222">
        <ele>17.39999961853</ele>
        <time>2021-06-20T07:23:06.000Z</time>
      </trkpt>
      <trkpt lat="47.24424" lon="-2.31218">
        <ele>17</ele>
        <time>2021-06-20T07:23:07.000Z</time>
      </trkpt>
      <trkpt lat="47.24422" lon="-2.31214">
        <ele>16.60000038147</ele>
        <time>2021-06-20T07:23:08.000Z</time>
      </trkpt>
      <trkpt lat="47.24417" lon="-2.31203">
        <ele>16.60000038147</ele>
        <time>2021-06-20T07:23:11.000Z</time>
      </trkpt>
      <trkpt lat="47.24414" lon="-2.31196">
        <ele>17</ele>
        <time>2021-06-20T07:23:14.000Z</time>
      </trkpt>
      <trkpt lat="47.24413" lon="-2.31194">
        <ele>17.39999961853</ele>
        <time>2021-06-20T07:23:15.000Z</time>
      </trkpt>
      <trkpt lat="47.24412" lon="-2.31192">
        <ele>18</ele>
        <time>2021-06-20T07:23:16.000Z</time>
      </trkpt>
      <trkpt lat="47.2441" lon="-2.3119">
        <ele>18.39999961853</ele>
        <time>2021-06-20T07:23:17.000Z</time>
      </trkpt>
      <trkpt lat="47.24408" lon="-2.31188">
        <ele>18.799999237061</ele>
        <time>2021-06-20T07:23:18.000Z</time>
      </trkpt>
      <trkpt lat="47.244" lon="-2.31179">
        <ele>19.200000762939</ele>
        <time>2021-06-20T07:23:21.000Z</time>
      </trkpt>
      <trkpt lat="47.24397" lon="-2.31175">
        <ele>19.60000038147</ele>
        <time>2021-06-20T07:23:22.000Z</time>
      </trkpt>
      <trkpt lat="47.24394" lon="-2.3117">
        <ele>20</ele>
        <time>2021-06-20T07:23:23.000Z</time>
      </trkpt>
      <trkpt lat="47.2439" lon="-2.31164">
        <ele>20.39999961853</ele>
        <time>2021-06-20T07:23:24.000Z</time>
      </trkpt>
      <trkpt lat="47.24386" lon="-2.31159">
        <ele>20.799999237061</ele>
        <time>2021-06-20T07:23:25.000Z</time>
      </trkpt>
      <trkpt lat="47.24382" lon="-2.31154">
        <ele>20.799999237061</ele>
        <time>2021-06-20T07:23:26.000Z</time>
      </trkpt>
      <trkpt lat="47.24372" lon="-2.31139">
        <ele>20.799999237061</ele>
        <time>2021-06-20T07:23:29.000Z</time>
      </trkpt>
      <trkpt lat="47.24365" lon="-2.31129">
        <ele>20.799999237061</ele>
        <time>2021-06-20T07:23:31.000Z</time>
      </trkpt>
      <trkpt lat="47.2436" lon="-2.31116">
        <ele>20.799999237061</ele>
        <time>2021-06-20T07:23:33.000Z</time>
      </trkpt>
      <trkpt lat="47.24352" lon="-2.31097">
        <ele>20.799999237061</ele>
        <time>2021-06-20T07:23:36.000Z</time>
      </trkpt>
      <trkpt lat="47.24337" lon="-2.3106">
        <ele>20.799999237061</ele>
        <time>2021-06-20T07:23:43.000Z</time>
      </trkpt>
      <trkpt lat="47.24328" lon="-2.31044">
        <ele>20.799999237061</ele>
        <time>2021-06-20T07:23:47.000Z</time>
      </trkpt>
      <trkpt lat="47.2431" lon="-2.31039">
        <ele>20.799999237061</ele>
        <time>2021-06-20T07:23:51.000Z</time>
      </trkpt>
      <trkpt lat="47.24305" lon="-2.31039">
        <ele>20.799999237061</ele>
        <time>2021-06-20T07:23:52.000Z</time>
      </trkpt>
      <trkpt lat="47.24291" lon="-2.31038">
        <ele>20.39999961853</ele>
        <time>2021-06-20T07:23:55.000Z</time>
      </trkpt>
      <trkpt lat="47.24288" lon="-2.31035">
        <ele>20</ele>
        <time>2021-06-20T07:23:56.000Z</time>
      </trkpt>
      <trkpt lat="47.24286" lon="-2.31031">
        <ele>19.60000038147</ele>
        <time>2021-06-20T07:23:57.000Z</time>
      </trkpt>
      <trkpt lat="47.24284" lon="-2.31025">
        <ele>19.200000762939</ele>
        <time>2021-06-20T07:23:58.000Z</time>
      </trkpt>
      <trkpt lat="47.24284" lon="-2.31019">
        <ele>18.799999237061</ele>
        <time>2021-06-20T07:23:59.000Z</time>
      </trkpt>
      <trkpt lat="47.24284" lon="-2.31006">
        <ele>18.799999237061</ele>
        <time>2021-06-20T07:24:01.000Z</time>
      </trkpt>
      <trkpt lat="47.24287" lon="-2.30978">
        <ele>18.799999237061</ele>
        <time>2021-06-20T07:24:06.000Z</time>
      </trkpt>
      <trkpt lat="47.24289" lon="-2.3096">
        <ele>19.200000762939</ele>
        <time>2021-06-20T07:24:09.000Z</time>
      </trkpt>
      <trkpt lat="47.24289" lon="-2.30954">
        <ele>19.60000038147</ele>
        <time>2021-06-20T07:24:10.000Z</time>
      </trkpt>
      <trkpt lat="47.24289" lon="-2.30948">
        <ele>20</ele>
        <time>2021-06-20T07:24:11.000Z</time>
      </trkpt>
      <trkpt lat="47.24289" lon="-2.30942">
        <ele>20.39999961853</ele>
        <time>2021-06-20T07:24:12.000Z</time>
      </trkpt>
      <trkpt lat="47.2429" lon="-2.30936">
        <ele>21</ele>
        <time>2021-06-20T07:24:13.000Z</time>
      </trkpt>
      <trkpt lat="47.2429" lon="-2.30925">
        <ele>21.39999961853</ele>
        <time>2021-06-20T07:24:15.000Z</time>
      </trkpt>
      <trkpt lat="47.24289" lon="-2.30918">
        <ele>21.799999237061</ele>
        <time>2021-06-20T07:24:16.000Z</time>
      </trkpt>
      <trkpt lat="47.24289" lon="-2.30912">
        <ele>22.39999961853</ele>
        <time>2021-06-20T07:24:17.000Z</time>
      </trkpt>
      <trkpt lat="47.24289" lon="-2.30906">
        <ele>22.799999237061</ele>
        <time>2021-06-20T07:24:18.000Z</time>
      </trkpt>
      <trkpt lat="47.24289" lon="-2.309">
        <ele>23.200000762939</ele>
        <time>2021-06-20T07:24:19.000Z</time>
      </trkpt>
      <trkpt lat="47.24287" lon="-2.30887">
        <ele>23.200000762939</ele>
        <time>2021-06-20T07:24:21.000Z</time>
      </trkpt>
      <trkpt lat="47.24286" lon="-2.30868">
        <ele>23.200000762939</ele>
        <time>2021-06-20T07:24:24.000Z</time>
      </trkpt>
      <trkpt lat="47.24286" lon="-2.30861">
        <ele>23.200000762939</ele>
        <time>2021-06-20T07:24:25.000Z</time>
      </trkpt>
      <trkpt lat="47.24287" lon="-2.30848">
        <ele>23.60000038147</ele>
        <time>2021-06-20T07:24:27.000Z</time>
      </trkpt>
      <trkpt lat="47.24288" lon="-2.30843">
        <ele>24</ele>
        <time>2021-06-20T07:24:28.000Z</time>
      </trkpt>
      <trkpt lat="47.24289" lon="-2.30838">
        <ele>24.39999961853</ele>
        <time>2021-06-20T07:24:29.000Z</time>
      </trkpt>
      <trkpt lat="47.24291" lon="-2.30832">
        <ele>24.799999237061</ele>
        <time>2021-06-20T07:24:30.000Z</time>
      </trkpt>
      <trkpt lat="47.24293" lon="-2.30827">
        <ele>25.200000762939</ele>
        <time>2021-06-20T07:24:31.000Z</time>
      </trkpt>
      <trkpt lat="47.24303" lon="-2.30812">
        <ele>25.200000762939</ele>
        <time>2021-06-20T07:24:35.000Z</time>
      </trkpt>
      <trkpt lat="47.24318" lon="-2.30804">
        <ele>25.200000762939</ele>
        <time>2021-06-20T07:24:39.000Z</time>
      </trkpt>
      <trkpt lat="47.24337" lon="-2.30797">
        <ele>25.60000038147</ele>
        <time>2021-06-20T07:24:43.000Z</time>
      </trkpt>
      <trkpt lat="47.24341" lon="-2.30795">
        <ele>26.200000762939</ele>
        <time>2021-06-20T07:24:44.000Z</time>
      </trkpt>
      <trkpt lat="47.24345" lon="-2.30794">
        <ele>27</ele>
        <time>2021-06-20T07:24:45.000Z</time>
      </trkpt>
      <trkpt lat="47.24349" lon="-2.30793">
        <ele>27.39999961853</ele>
        <time>2021-06-20T07:24:46.000Z</time>
      </trkpt>
      <trkpt lat="47.24356" lon="-2.30789">
        <ele>27.39999961853</ele>
        <time>2021-06-20T07:24:48.000Z</time>
      </trkpt>
      <trkpt lat="47.24371" lon="-2.30777">
        <ele>27.799999237061</ele>
        <time>2021-06-20T07:24:53.000Z</time>
      </trkpt>
      <trkpt lat="47.24373" lon="-2.30773">
        <ele>28.200000762939</ele>
        <time>2021-06-20T07:24:54.000Z</time>
      </trkpt>
      <trkpt lat="47.24376" lon="-2.30769">
        <ele>28.60000038147</ele>
        <time>2021-06-20T07:24:55.000Z</time>
      </trkpt>
      <trkpt lat="47.24379" lon="-2.30765">
        <ele>29</ele>
        <time>2021-06-20T07:24:56.000Z</time>
      </trkpt>
      <trkpt lat="47.24381" lon="-2.30761">
        <ele>29.39999961853</ele>
        <time>2021-06-20T07:24:57.000Z</time>
      </trkpt>
      <trkpt lat="47.24383" lon="-2.30758">
        <ele>29.39999961853</ele>
        <time>2021-06-20T07:24:58.000Z</time>
      </trkpt>
      <trkpt lat="47.24392" lon="-2.30745">
        <ele>30</ele>
        <time>2021-06-20T07:25:02.000Z</time>
      </trkpt>
      <trkpt lat="47.24393" lon="-2.30741">
        <ele>30.39999961853</ele>
        <time>2021-06-20T07:25:03.000Z</time>
      </trkpt>
      <trkpt lat="47.24394" lon="-2.30737">
        <ele>30.799999237061</ele>
        <time>2021-06-20T07:25:04.000Z</time>
      </trkpt>
      <trkpt lat="47.24395" lon="-2.30732">
        <ele>31.200000762939</ele>
        <time>2021-06-20T07:25:05.000Z</time>
      </trkpt>
      <trkpt lat="47.24396" lon="-2.30727">
        <ele>31.60000038147</ele>
        <time>2021-06-20T07:25:06.000Z</time>
      </trkpt>
      <trkpt lat="47.24397" lon="-2.30712">
        <ele>31.60000038147</ele>
        <time>2021-06-20T07:25:09.000Z</time>
      </trkpt>
      <trkpt lat="47.24406" lon="-2.30684">
        <ele>31.60000038147</ele>
        <time>2021-06-20T07:25:14.000Z</time>
      </trkpt>
      <trkpt lat="47.24414" lon="-2.30652">
        <ele>31.60000038147</ele>
        <time>2021-06-20T07:25:20.000Z</time>
      </trkpt>
      <trkpt lat="47.24419" lon="-2.30635">
        <ele>31.60000038147</ele>
        <time>2021-06-20T07:25:23.000Z</time>
      </trkpt>
      <trkpt lat="47.24425" lon="-2.30625">
        <ele>31.60000038147</ele>
        <time>2021-06-20T07:25:25.000Z</time>
      </trkpt>
      <trkpt lat="47.24428" lon="-2.30621">
        <ele>31.60000038147</ele>
        <time>2021-06-20T07:25:26.000Z</time>
      </trkpt>
      <trkpt lat="47.24443" lon="-2.30606">
        <ele>31.60000038147</ele>
        <time>2021-06-20T07:25:30.000Z</time>
      </trkpt>
      <trkpt lat="47.24468" lon="-2.30575">
        <ele>31.60000038147</ele>
        <time>2021-06-20T07:25:36.000Z</time>
      </trkpt>
      <trkpt lat="47.24471" lon="-2.3057">
        <ele>31.60000038147</ele>
        <time>2021-06-20T07:25:37.000Z</time>
      </trkpt>
      <trkpt lat="47.24474" lon="-2.30564">
        <ele>31.200000762939</ele>
        <time>2021-06-20T07:25:38.000Z</time>
      </trkpt>
      <trkpt lat="47.24476" lon="-2.30559">
        <ele>30.799999237061</ele>
        <time>2021-06-20T07:25:39.000Z</time>
      </trkpt>
      <trkpt lat="47.24477" lon="-2.30553">
        <ele>30.39999961853</ele>
        <time>2021-06-20T07:25:40.000Z</time>
      </trkpt>
      <trkpt lat="47.24476" lon="-2.30549">
        <ele>30</ele>
        <time>2021-06-20T07:25:41.000Z</time>
      </trkpt>
      <trkpt lat="47.24473" lon="-2.30547">
        <ele>29.60000038147</ele>
        <time>2021-06-20T07:25:42.000Z</time>
      </trkpt>
      <trkpt lat="47.2447" lon="-2.30547">
        <ele>29.60000038147</ele>
        <time>2021-06-20T07:25:43.000Z</time>
      </trkpt>
      <trkpt lat="47.24458" lon="-2.30554">
        <ele>29.60000038147</ele>
        <time>2021-06-20T07:25:46.000Z</time>
      </trkpt>
      <trkpt lat="47.24455" lon="-2.30559">
        <ele>29.200000762939</ele>
        <time>2021-06-20T07:25:47.000Z</time>
      </trkpt>
      <trkpt lat="47.24451" lon="-2.30563">
        <ele>28.799999237061</ele>
        <time>2021-06-20T07:25:48.000Z</time>
      </trkpt>
      <trkpt lat="47.24447" lon="-2.30567">
        <ele>28.39999961853</ele>
        <time>2021-06-20T07:25:49.000Z</time>
      </trkpt>
      <trkpt lat="47.24443" lon="-2.3057">
        <ele>28</ele>
        <time>2021-06-20T07:25:50.000Z</time>
      </trkpt>
      <trkpt lat="47.24438" lon="-2.30572">
        <ele>27.60000038147</ele>
        <time>2021-06-20T07:25:51.000Z</time>
      </trkpt>
      <trkpt lat="47.24419" lon="-2.3058">
        <ele>27.200000762939</ele>
        <time>2021-06-20T07:25:55.000Z</time>
      </trkpt>
      <trkpt lat="47.24416" lon="-2.30581">
        <ele>26.60000038147</ele>
        <time>2021-06-20T07:25:56.000Z</time>
      </trkpt>
      <trkpt lat="47.24412" lon="-2.30581">
        <ele>26.200000762939</ele>
        <time>2021-06-20T07:25:57.000Z</time>
      </trkpt>
      <trkpt lat="47.24409" lon="-2.30581">
        <ele>25.39999961853</ele>
        <time>2021-06-20T07:25:58.000Z</time>
      </trkpt>
      <trkpt lat="47.24402" lon="-2.30579">
        <ele>25.39999961853</ele>
        <time>2021-06-20T07:26:00.000Z</time>
      </trkpt>
      <trkpt lat="47.24384" lon="-2.30565">
        <ele>25.39999961853</ele>
        <time>2021-06-20T07:26:05.000Z</time>
      </trkpt>
      <trkpt lat="47.24376" lon="-2.30549">
        <ele>25.39999961853</ele>
        <time>2021-06-20T07:26:08.000Z</time>
      </trkpt>
      <trkpt lat="47.24372" lon="-2.30536">
        <ele>25.39999961853</ele>
        <time>2021-06-20T07:26:10.000Z</time>
      </trkpt>
      <trkpt lat="47.2437" lon="-2.30521">
        <ele>25.39999961853</ele>
        <time>2021-06-20T07:26:13.000Z</time>
      </trkpt>
      <trkpt lat="47.2437" lon="-2.30512">
        <ele>25.39999961853</ele>
        <time>2021-06-20T07:26:15.000Z</time>
      </trkpt>
      <trkpt lat="47.24371" lon="-2.30496">
        <ele>25.799999237061</ele>
        <time>2021-06-20T07:26:19.000Z</time>
      </trkpt>
      <trkpt lat="47.24372" lon="-2.30492">
        <ele>26.200000762939</ele>
        <time>2021-06-20T07:26:20.000Z</time>
      </trkpt>
      <trkpt lat="47.24373" lon="-2.30487">
        <ele>26.60000038147</ele>
        <time>2021-06-20T07:26:21.000Z</time>
      </trkpt>
      <trkpt lat="47.24374" lon="-2.30482">
        <ele>27</ele>
        <time>2021-06-20T07:26:22.000Z</time>
      </trkpt>
      <trkpt lat="47.24375" lon="-2.30475">
        <ele>27.39999961853</ele>
        <time>2021-06-20T07:26:23.000Z</time>
      </trkpt>
      <trkpt lat="47.24377" lon="-2.30463">
        <ele>27.799999237061</ele>
        <time>2021-06-20T07:26:25.000Z</time>
      </trkpt>
      <trkpt lat="47.24378" lon="-2.30458">
        <ele>28.200000762939</ele>
        <time>2021-06-20T07:26:26.000Z</time>
      </trkpt>
      <trkpt lat="47.24378" lon="-2.30454">
        <ele>28.60000038147</ele>
        <time>2021-06-20T07:26:27.000Z</time>
      </trkpt>
      <trkpt lat="47.24377" lon="-2.30451">
        <ele>29</ele>
        <time>2021-06-20T07:26:28.000Z</time>
      </trkpt>
      <trkpt lat="47.24376" lon="-2.3045">
        <ele>29.39999961853</ele>
        <time>2021-06-20T07:26:29.000Z</time>
      </trkpt>
      <trkpt lat="47.24363" lon="-2.3045">
        <ele>29.39999961853</ele>
        <time>2021-06-20T07:26:33.000Z</time>
      </trkpt>
      <trkpt lat="47.24359" lon="-2.30449">
        <ele>29.39999961853</ele>
        <time>2021-06-20T07:26:34.000Z</time>
      </trkpt>
      <trkpt lat="47.24345" lon="-2.30444">
        <ele>29.799999237061</ele>
        <time>2021-06-20T07:26:38.000Z</time>
      </trkpt>
      <trkpt lat="47.24341" lon="-2.30442">
        <ele>30.200000762939</ele>
        <time>2021-06-20T07:26:39.000Z</time>
      </trkpt>
      <trkpt lat="47.24336" lon="-2.30441">
        <ele>30.60000038147</ele>
        <time>2021-06-20T07:26:40.000Z</time>
      </trkpt>
      <trkpt lat="47.24331" lon="-2.30439">
        <ele>31</ele>
        <time>2021-06-20T07:26:41.000Z</time>
      </trkpt>
      <trkpt lat="47.24327" lon="-2.30436">
        <ele>31.60000038147</ele>
        <time>2021-06-20T07:26:42.000Z</time>
      </trkpt>
      <trkpt lat="47.24316" lon="-2.30428">
        <ele>31.60000038147</ele>
        <time>2021-06-20T07:26:45.000Z</time>
      </trkpt>
      <trkpt lat="47.24299" lon="-2.30417">
        <ele>31.60000038147</ele>
        <time>2021-06-20T07:26:50.000Z</time>
      </trkpt>
      <trkpt lat="47.24282" lon="-2.30398">
        <ele>31.60000038147</ele>
        <time>2021-06-20T07:26:55.000Z</time>
      </trkpt>
      <trkpt lat="47.24267" lon="-2.30377">
        <ele>31.60000038147</ele>
        <time>2021-06-20T07:26:59.000Z</time>
      </trkpt>
      <trkpt lat="47.24258" lon="-2.30362">
        <ele>31.60000038147</ele>
        <time>2021-06-20T07:27:02.000Z</time>
      </trkpt>
      <trkpt lat="47.24244" lon="-2.30331">
        <ele>31.60000038147</ele>
        <time>2021-06-20T07:27:08.000Z</time>
      </trkpt>
      <trkpt lat="47.24235" lon="-2.30328">
        <ele>31.60000038147</ele>
        <time>2021-06-20T07:27:11.000Z</time>
      </trkpt>
      <trkpt lat="47.24232" lon="-2.30329">
        <ele>31.60000038147</ele>
        <time>2021-06-20T07:27:12.000Z</time>
      </trkpt>
      <trkpt lat="47.24219" lon="-2.30333">
        <ele>31.60000038147</ele>
        <time>2021-06-20T07:27:16.000Z</time>
      </trkpt>
      <trkpt lat="47.24216" lon="-2.30332">
        <ele>31</ele>
        <time>2021-06-20T07:27:17.000Z</time>
      </trkpt>
      <trkpt lat="47.24213" lon="-2.3033">
        <ele>30.60000038147</ele>
        <time>2021-06-20T07:27:18.000Z</time>
      </trkpt>
      <trkpt lat="47.24209" lon="-2.30326">
        <ele>30.200000762939</ele>
        <time>2021-06-20T07:27:19.000Z</time>
      </trkpt>
      <trkpt lat="47.24205" lon="-2.3032">
        <ele>29.799999237061</ele>
        <time>2021-06-20T07:27:20.000Z</time>
      </trkpt>
      <trkpt lat="47.24201" lon="-2.30316">
        <ele>29.200000762939</ele>
        <time>2021-06-20T07:27:21.000Z</time>
      </trkpt>
      <trkpt lat="47.24198" lon="-2.30309">
        <ele>29.200000762939</ele>
        <time>2021-06-20T07:27:22.000Z</time>
      </trkpt>
      <trkpt lat="47.24197" lon="-2.30299">
        <ele>29.200000762939</ele>
        <time>2021-06-20T07:27:23.000Z</time>
      </trkpt>
      <trkpt lat="47.24194" lon="-2.30257">
        <ele>28.799999237061</ele>
        <time>2021-06-20T07:27:27.000Z</time>
      </trkpt>
      <trkpt lat="47.24193" lon="-2.30251">
        <ele>28.39999961853</ele>
        <time>2021-06-20T07:27:28.000Z</time>
      </trkpt>
      <trkpt lat="47.24192" lon="-2.30246">
        <ele>28</ele>
        <time>2021-06-20T07:27:29.000Z</time>
      </trkpt>
      <trkpt lat="47.2419" lon="-2.30245">
        <ele>27.60000038147</ele>
        <time>2021-06-20T07:27:30.000Z</time>
      </trkpt>
      <trkpt lat="47.24187" lon="-2.30246">
        <ele>27.200000762939</ele>
        <time>2021-06-20T07:27:31.000Z</time>
      </trkpt>
      <trkpt lat="47.24176" lon="-2.3025">
        <ele>27.200000762939</ele>
        <time>2021-06-20T07:27:34.000Z</time>
      </trkpt>
      <trkpt lat="47.2417" lon="-2.30247">
        <ele>27.200000762939</ele>
        <time>2021-06-20T07:27:36.000Z</time>
      </trkpt>
      <trkpt lat="47.24154" lon="-2.30229">
        <ele>27.200000762939</ele>
        <time>2021-06-20T07:27:41.000Z</time>
      </trkpt>
      <trkpt lat="47.24144" lon="-2.30212">
        <ele>27.60000038147</ele>
        <time>2021-06-20T07:27:45.000Z</time>
      </trkpt>
      <trkpt lat="47.24143" lon="-2.30208">
        <ele>28</ele>
        <time>2021-06-20T07:27:46.000Z</time>
      </trkpt>
      <trkpt lat="47.24142" lon="-2.30205">
        <ele>28.39999961853</ele>
        <time>2021-06-20T07:27:47.000Z</time>
      </trkpt>
      <trkpt lat="47.24141" lon="-2.30201">
        <ele>28.799999237061</ele>
        <time>2021-06-20T07:27:48.000Z</time>
      </trkpt>
      <trkpt lat="47.2414" lon="-2.30198">
        <ele>29.200000762939</ele>
        <time>2021-06-20T07:27:49.000Z</time>
      </trkpt>
      <trkpt lat="47.24137" lon="-2.30186">
        <ele>29.200000762939</ele>
        <time>2021-06-20T07:27:53.000Z</time>
      </trkpt>
      <trkpt lat="47.24134" lon="-2.30176">
        <ele>29.60000038147</ele>
        <time>2021-06-20T07:27:56.000Z</time>
      </trkpt>
      <trkpt lat="47.24133" lon="-2.30173">
        <ele>30</ele>
        <time>2021-06-20T07:27:57.000Z</time>
      </trkpt>
      <trkpt lat="47.24132" lon="-2.30171">
        <ele>30.60000038147</ele>
        <time>2021-06-20T07:27:58.000Z</time>
      </trkpt>
      <trkpt lat="47.24131" lon="-2.30169">
        <ele>31</ele>
        <time>2021-06-20T07:27:59.000Z</time>
      </trkpt>
      <trkpt lat="47.2413" lon="-2.30168">
        <ele>31.39999961853</ele>
        <time>2021-06-20T07:28:00.000Z</time>
      </trkpt>
      <trkpt lat="47.24129" lon="-2.30167">
        <ele>32</ele>
        <time>2021-06-20T07:28:01.000Z</time>
      </trkpt>
      <trkpt lat="47.24129" lon="-2.30166">
        <ele>33</ele>
        <time>2021-06-20T07:28:02.000Z</time>
      </trkpt>
      <trkpt lat="47.24128" lon="-2.30166">
        <ele>33.599998474121</ele>
        <time>2021-06-20T07:28:03.000Z</time>
      </trkpt>
      <trkpt lat="47.24127" lon="-2.30165">
        <ele>33.599998474121</ele>
        <time>2021-06-20T07:28:04.000Z</time>
      </trkpt>
      <trkpt lat="47.24121" lon="-2.3017">
        <ele>33.599998474121</ele>
        <time>2021-06-20T07:28:17.000Z</time>
      </trkpt>
      <trkpt lat="47.24112" lon="-2.3017">
        <ele>33.599998474121</ele>
        <time>2021-06-20T07:28:21.000Z</time>
      </trkpt>
      <trkpt lat="47.2411" lon="-2.30169">
        <ele>33.599998474121</ele>
        <time>2021-06-20T07:28:22.000Z</time>
      </trkpt>
      <trkpt lat="47.24108" lon="-2.30169">
        <ele>34</ele>
        <time>2021-06-20T07:28:23.000Z</time>
      </trkpt>
      <trkpt lat="47.24105" lon="-2.30169">
        <ele>34.400001525879</ele>
        <time>2021-06-20T07:28:24.000Z</time>
      </trkpt>
      <trkpt lat="47.24102" lon="-2.30169">
        <ele>34.799999237061</ele>
        <time>2021-06-20T07:28:25.000Z</time>
      </trkpt>
      <trkpt lat="47.24099" lon="-2.3017">
        <ele>35.200000762939</ele>
        <time>2021-06-20T07:28:26.000Z</time>
      </trkpt>
      <trkpt lat="47.24096" lon="-2.30172">
        <ele>35.599998474121</ele>
        <time>2021-06-20T07:28:27.000Z</time>
      </trkpt>
      <trkpt lat="47.24081" lon="-2.30183">
        <ele>35.599998474121</ele>
        <time>2021-06-20T07:28:32.000Z</time>
      </trkpt>
      <trkpt lat="47.24056" lon="-2.30193">
        <ele>35.599998474121</ele>
        <time>2021-06-20T07:28:38.000Z</time>
      </trkpt>
      <trkpt lat="47.24046" lon="-2.30193">
        <ele>35.599998474121</ele>
        <time>2021-06-20T07:28:42.000Z</time>
      </trkpt>
      <trkpt lat="47.24039" lon="-2.30181">
        <ele>35.599998474121</ele>
        <time>2021-06-20T07:28:46.000Z</time>
      </trkpt>
      <trkpt lat="47.24023" lon="-2.30168">
        <ele>35.599998474121</ele>
        <time>2021-06-20T07:28:51.000Z</time>
      </trkpt>
      <trkpt lat="47.24003" lon="-2.30159">
        <ele>35.599998474121</ele>
        <time>2021-06-20T07:28:57.000Z</time>
      </trkpt>
      <trkpt lat="47.23985" lon="-2.30151">
        <ele>35.599998474121</ele>
        <time>2021-06-20T07:29:03.000Z</time>
      </trkpt>
      <trkpt lat="47.23977" lon="-2.30142">
        <ele>35.599998474121</ele>
        <time>2021-06-20T07:29:08.000Z</time>
      </trkpt>
      <trkpt lat="47.23973" lon="-2.30127">
        <ele>35.599998474121</ele>
        <time>2021-06-20T07:29:14.000Z</time>
      </trkpt>
      <trkpt lat="47.23972" lon="-2.3012">
        <ele>35.599998474121</ele>
        <time>2021-06-20T07:29:17.000Z</time>
      </trkpt>
      <trkpt lat="47.23971" lon="-2.30117">
        <ele>36</ele>
        <time>2021-06-20T07:29:18.000Z</time>
      </trkpt>
      <trkpt lat="47.23972" lon="-2.3011">
        <ele>36.599998474121</ele>
        <time>2021-06-20T07:29:19.000Z</time>
      </trkpt>
      <trkpt lat="47.23974" lon="-2.30104">
        <ele>37</ele>
        <time>2021-06-20T07:29:20.000Z</time>
      </trkpt>
      <trkpt lat="47.23975" lon="-2.30098">
        <ele>37.400001525879</ele>
        <time>2021-06-20T07:29:21.000Z</time>
      </trkpt>
      <trkpt lat="47.23977" lon="-2.30093">
        <ele>37.799999237061</ele>
        <time>2021-06-20T07:29:22.000Z</time>
      </trkpt>
      <trkpt lat="47.23985" lon="-2.30064">
        <ele>37.799999237061</ele>
        <time>2021-06-20T07:29:29.000Z</time>
      </trkpt>
      <trkpt lat="47.23996" lon="-2.30035">
        <ele>37.799999237061</ele>
        <time>2021-06-20T07:29:35.000Z</time>
      </trkpt>
      <trkpt lat="47.2401" lon="-2.3001">
        <ele>37.799999237061</ele>
        <time>2021-06-20T07:29:40.000Z</time>
      </trkpt>
      <trkpt lat="47.24016" lon="-2.30003">
        <ele>38.599998474121</ele>
        <time>2021-06-20T07:29:41.000Z</time>
      </trkpt>
      <trkpt lat="47.24021" lon="-2.29999">
        <ele>39</ele>
        <time>2021-06-20T07:29:42.000Z</time>
      </trkpt>
      <trkpt lat="47.24027" lon="-2.29995">
        <ele>39.400001525879</ele>
        <time>2021-06-20T07:29:43.000Z</time>
      </trkpt>
      <trkpt lat="47.24032" lon="-2.29993">
        <ele>39.799999237061</ele>
        <time>2021-06-20T07:29:44.000Z</time>
      </trkpt>
      <trkpt lat="47.24039" lon="-2.29994">
        <ele>39.799999237061</ele>
        <time>2021-06-20T07:29:46.000Z</time>
      </trkpt>
      <trkpt lat="47.24052" lon="-2.29994">
        <ele>39.799999237061</ele>
        <time>2021-06-20T07:29:49.000Z</time>
      </trkpt>
      <trkpt lat="47.24055" lon="-2.29996">
        <ele>39.799999237061</ele>
        <time>2021-06-20T07:29:50.000Z</time>
      </trkpt>
      <trkpt lat="47.24073" lon="-2.30006">
        <ele>39.799999237061</ele>
        <time>2021-06-20T07:29:55.000Z</time>
      </trkpt>
      <trkpt lat="47.24086" lon="-2.30012">
        <ele>39.799999237061</ele>
        <time>2021-06-20T07:30:00.000Z</time>
      </trkpt>
      <trkpt lat="47.24108" lon="-2.30012">
        <ele>39.799999237061</ele>
        <time>2021-06-20T07:30:06.000Z</time>
      </trkpt>
      <trkpt lat="47.24119" lon="-2.29994">
        <ele>39.799999237061</ele>
        <time>2021-06-20T07:30:12.000Z</time>
      </trkpt>
      <trkpt lat="47.24141" lon="-2.29983">
        <ele>39.799999237061</ele>
        <time>2021-06-20T07:30:18.000Z</time>
      </trkpt>
      <trkpt lat="47.24153" lon="-2.2998">
        <ele>39.799999237061</ele>
        <time>2021-06-20T07:30:23.000Z</time>
      </trkpt>
      <trkpt lat="47.24164" lon="-2.29993">
        <ele>39.799999237061</ele>
        <time>2021-06-20T07:30:28.000Z</time>
      </trkpt>
      <trkpt lat="47.24184" lon="-2.30019">
        <ele>39.799999237061</ele>
        <time>2021-06-20T07:30:34.000Z</time>
      </trkpt>
      <trkpt lat="47.24186" lon="-2.30023">
        <ele>39.400001525879</ele>
        <time>2021-06-20T07:30:35.000Z</time>
      </trkpt>
      <trkpt lat="47.24187" lon="-2.30025">
        <ele>39</ele>
        <time>2021-06-20T07:30:36.000Z</time>
      </trkpt>
      <trkpt lat="47.24188" lon="-2.30028">
        <ele>38.599998474121</ele>
        <time>2021-06-20T07:30:37.000Z</time>
      </trkpt>
      <trkpt lat="47.24187" lon="-2.30031">
        <ele>38</ele>
        <time>2021-06-20T07:30:38.000Z</time>
      </trkpt>
      <trkpt lat="47.24186" lon="-2.30032">
        <ele>37.599998474121</ele>
        <time>2021-06-20T07:30:39.000Z</time>
      </trkpt>
      <trkpt lat="47.24182" lon="-2.30034">
        <ele>37.599998474121</ele>
        <time>2021-06-20T07:30:43.000Z</time>
      </trkpt>
      <trkpt lat="47.2418" lon="-2.30034">
        <ele>37.599998474121</ele>
        <time>2021-06-20T07:30:44.000Z</time>
      </trkpt>
      <trkpt lat="47.24175" lon="-2.30031">
        <ele>37.599998474121</ele>
        <time>2021-06-20T07:30:47.000Z</time>
      </trkpt>
      <trkpt lat="47.24168" lon="-2.30033">
        <ele>37.599998474121</ele>
        <time>2021-06-20T07:30:51.000Z</time>
      </trkpt>
      <trkpt lat="47.24165" lon="-2.30036">
        <ele>37.599998474121</ele>
        <time>2021-06-20T07:30:53.000Z</time>
      </trkpt>
      <trkpt lat="47.24164" lon="-2.30037">
        <ele>38</ele>
        <time>2021-06-20T07:30:54.000Z</time>
      </trkpt>
      <trkpt lat="47.24164" lon="-2.30039">
        <ele>38.799999237061</ele>
        <time>2021-06-20T07:30:55.000Z</time>
      </trkpt>
      <trkpt lat="47.24164" lon="-2.30041">
        <ele>39.200000762939</ele>
        <time>2021-06-20T07:30:56.000Z</time>
      </trkpt>
      <trkpt lat="47.24164" lon="-2.30043">
        <ele>39.599998474121</ele>
        <time>2021-06-20T07:30:57.000Z</time>
      </trkpt>
      <trkpt lat="47.24164" lon="-2.30045">
        <ele>39.599998474121</ele>
        <time>2021-06-20T07:30:58.000Z</time>
      </trkpt>
      <trkpt lat="47.24166" lon="-2.30051">
        <ele>39.599998474121</ele>
        <time>2021-06-20T07:31:00.000Z</time>
      </trkpt>
      <trkpt lat="47.24167" lon="-2.30054">
        <ele>39.200000762939</ele>
        <time>2021-06-20T07:31:01.000Z</time>
      </trkpt>
      <trkpt lat="47.24167" lon="-2.30056">
        <ele>38.799999237061</ele>
        <time>2021-06-20T07:31:02.000Z</time>
      </trkpt>
      <trkpt lat="47.24166" lon="-2.30058">
        <ele>38.200000762939</ele>
        <time>2021-06-20T07:31:03.000Z</time>
      </trkpt>
      <trkpt lat="47.24165" lon="-2.3006">
        <ele>37.799999237061</ele>
        <time>2021-06-20T07:31:04.000Z</time>
      </trkpt>
      <trkpt lat="47.24165" lon="-2.30061">
        <ele>37.400001525879</ele>
        <time>2021-06-20T07:31:05.000Z</time>
      </trkpt>
      <trkpt lat="47.24164" lon="-2.30068">
        <ele>37.400001525879</ele>
        <time>2021-06-20T07:31:09.000Z</time>
      </trkpt>
      <trkpt lat="47.24163" lon="-2.30081">
        <ele>37.400001525879</ele>
        <time>2021-06-20T07:31:16.000Z</time>
      </trkpt>
      <trkpt lat="47.24159" lon="-2.30091">
        <ele>37</ele>
        <time>2021-06-20T07:31:20.000Z</time>
      </trkpt>
      <trkpt lat="47.24158" lon="-2.30093">
        <ele>36.400001525879</ele>
        <time>2021-06-20T07:31:21.000Z</time>
      </trkpt>
      <trkpt lat="47.24157" lon="-2.30096">
        <ele>36</ele>
        <time>2021-06-20T07:31:22.000Z</time>
      </trkpt>
      <trkpt lat="47.24157" lon="-2.30098">
        <ele>35.599998474121</ele>
        <time>2021-06-20T07:31:23.000Z</time>
      </trkpt>
      <trkpt lat="47.24156" lon="-2.30101">
        <ele>35.200000762939</ele>
        <time>2021-06-20T07:31:24.000Z</time>
      </trkpt>
      <trkpt lat="47.24151" lon="-2.30118">
        <ele>35.200000762939</ele>
        <time>2021-06-20T07:31:32.000Z</time>
      </trkpt>
      <trkpt lat="47.24146" lon="-2.30121">
        <ele>35.200000762939</ele>
        <time>2021-06-20T07:31:37.000Z</time>
      </trkpt>
      <trkpt lat="47.2414" lon="-2.30112">
        <ele>35.200000762939</ele>
        <time>2021-06-20T07:31:42.000Z</time>
      </trkpt>
      <trkpt lat="47.2414" lon="-2.30109">
        <ele>35.599998474121</ele>
        <time>2021-06-20T07:31:43.000Z</time>
      </trkpt>
      <trkpt lat="47.2414" lon="-2.30106">
        <ele>36</ele>
        <time>2021-06-20T07:31:44.000Z</time>
      </trkpt>
      <trkpt lat="47.2414" lon="-2.30105">
        <ele>37</ele>
        <time>2021-06-20T07:31:45.000Z</time>
      </trkpt>
      <trkpt lat="47.2414" lon="-2.30104">
        <ele>37.400001525879</ele>
        <time>2021-06-20T07:31:46.000Z</time>
      </trkpt>
      <trkpt lat="47.24138" lon="-2.30103">
        <ele>37.400001525879</ele>
        <time>2021-06-20T07:31:48.000Z</time>
      </trkpt>
      <trkpt lat="47.24131" lon="-2.30097">
        <ele>37.400001525879</ele>
        <time>2021-06-20T07:31:54.000Z</time>
      </trkpt>
      <trkpt lat="47.24126" lon="-2.30087">
        <ele>37.400001525879</ele>
        <time>2021-06-20T07:32:00.000Z</time>
      </trkpt>
      <trkpt lat="47.24122" lon="-2.30086">
        <ele>37.400001525879</ele>
        <time>2021-06-20T07:32:04.000Z</time>
      </trkpt>
      <trkpt lat="47.24119" lon="-2.30086">
        <ele>37.400001525879</ele>
        <time>2021-06-20T07:32:05.000Z</time>
      </trkpt>
      <trkpt lat="47.24101" lon="-2.30084">
        <ele>37.400001525879</ele>
        <time>2021-06-20T07:32:10.000Z</time>
      </trkpt>
      <trkpt lat="47.24094" lon="-2.30084">
        <ele>37.799999237061</ele>
        <time>2021-06-20T07:32:12.000Z</time>
      </trkpt>
      <trkpt lat="47.24092" lon="-2.30083">
        <ele>38.200000762939</ele>
        <time>2021-06-20T07:32:13.000Z</time>
      </trkpt>
      <trkpt lat="47.24089" lon="-2.30082">
        <ele>38.599998474121</ele>
        <time>2021-06-20T07:32:14.000Z</time>
      </trkpt>
      <trkpt lat="47.24087" lon="-2.30081">
        <ele>39</ele>
        <time>2021-06-20T07:32:15.000Z</time>
      </trkpt>
      <trkpt lat="47.24085" lon="-2.3008">
        <ele>39.400001525879</ele>
        <time>2021-06-20T07:32:16.000Z</time>
      </trkpt>
      <trkpt lat="47.24078" lon="-2.30078">
        <ele>39.400001525879</ele>
        <time>2021-06-20T07:32:19.000Z</time>
      </trkpt>
      <trkpt lat="47.24073" lon="-2.30075">
        <ele>39.400001525879</ele>
        <time>2021-06-20T07:32:21.000Z</time>
      </trkpt>
      <trkpt lat="47.24063" lon="-2.30075">
        <ele>39.400001525879</ele>
        <time>2021-06-20T07:32:25.000Z</time>
      </trkpt>
      <trkpt lat="47.24059" lon="-2.30063">
        <ele>39.400001525879</ele>
        <time>2021-06-20T07:32:29.000Z</time>
      </trkpt>
      <trkpt lat="47.2406" lon="-2.30059">
        <ele>39.400001525879</ele>
        <time>2021-06-20T07:32:30.000Z</time>
      </trkpt>
      <trkpt lat="47.2406" lon="-2.30045">
        <ele>39.400001525879</ele>
        <time>2021-06-20T07:32:35.000Z</time>
      </trkpt>
      <trkpt lat="47.24055" lon="-2.3004">
        <ele>39.400001525879</ele>
        <time>2021-06-20T07:32:39.000Z</time>
      </trkpt>
      <trkpt lat="47.24053" lon="-2.3004">
        <ele>39.400001525879</ele>
        <time>2021-06-20T07:32:41.000Z</time>
      </trkpt>
      <trkpt lat="47.24047" lon="-2.30038">
        <ele>39.400001525879</ele>
        <time>2021-06-20T07:32:48.000Z</time>
      </trkpt>
      <trkpt lat="47.24044" lon="-2.30034">
        <ele>39.400001525879</ele>
        <time>2021-06-20T07:32:52.000Z</time>
      </trkpt>
      <trkpt lat="47.24047" lon="-2.30024">
        <ele>39.400001525879</ele>
        <time>2021-06-20T07:33:01.000Z</time>
      </trkpt>
      <trkpt lat="47.24047" lon="-2.3002">
        <ele>39.400001525879</ele>
        <time>2021-06-20T07:33:02.000Z</time>
      </trkpt>
      <trkpt lat="47.24042" lon="-2.30006">
        <ele>39.400001525879</ele>
        <time>2021-06-20T07:33:05.000Z</time>
      </trkpt>
      <trkpt lat="47.24038" lon="-2.29992">
        <ele>39.400001525879</ele>
        <time>2021-06-20T07:33:08.000Z</time>
      </trkpt>
      <trkpt lat="47.24042" lon="-2.29975">
        <ele>39.799999237061</ele>
        <time>2021-06-20T07:33:12.000Z</time>
      </trkpt>
      <trkpt lat="47.24042" lon="-2.2997">
        <ele>40.200000762939</ele>
        <time>2021-06-20T07:33:13.000Z</time>
      </trkpt>
      <trkpt lat="47.24042" lon="-2.29967">
        <ele>40.599998474121</ele>
        <time>2021-06-20T07:33:14.000Z</time>
      </trkpt>
      <trkpt lat="47.24042" lon="-2.29963">
        <ele>41</ele>
        <time>2021-06-20T07:33:15.000Z</time>
      </trkpt>
      <trkpt lat="47.24043" lon="-2.29961">
        <ele>41.400001525879</ele>
        <time>2021-06-20T07:33:16.000Z</time>
      </trkpt>
      <trkpt lat="47.24045" lon="-2.29958">
        <ele>41.400001525879</ele>
        <time>2021-06-20T07:33:18.000Z</time>
      </trkpt>
      <trkpt lat="47.24049" lon="-2.29954">
        <ele>41.400001525879</ele>
        <time>2021-06-20T07:33:24.000Z</time>
      </trkpt>
      <trkpt lat="47.24052" lon="-2.29941">
        <ele>41.400001525879</ele>
        <time>2021-06-20T07:33:30.000Z</time>
      </trkpt>
      <trkpt lat="47.24058" lon="-2.29927">
        <ele>41.400001525879</ele>
        <time>2021-06-20T07:33:36.000Z</time>
      </trkpt>
      <trkpt lat="47.24066" lon="-2.29908">
        <ele>41.400001525879</ele>
        <time>2021-06-20T07:33:41.000Z</time>
      </trkpt>
      <trkpt lat="47.24069" lon="-2.29883">
        <ele>41.400001525879</ele>
        <time>2021-06-20T07:33:47.000Z</time>
      </trkpt>
      <trkpt lat="47.24073" lon="-2.29857">
        <ele>41.400001525879</ele>
        <time>2021-06-20T07:33:53.000Z</time>
      </trkpt>
      <trkpt lat="47.24077" lon="-2.29852">
        <ele>41.400001525879</ele>
        <time>2021-06-20T07:33:56.000Z</time>
      </trkpt>
      <trkpt lat="47.2408" lon="-2.29851">
        <ele>41.400001525879</ele>
        <time>2021-06-20T07:33:58.000Z</time>
      </trkpt>
      <trkpt lat="47.24083" lon="-2.29852">
        <ele>41.400001525879</ele>
        <time>2021-06-20T07:33:59.000Z</time>
      </trkpt>
      <trkpt lat="47.24095" lon="-2.29855">
        <ele>41.400001525879</ele>
        <time>2021-06-20T07:34:02.000Z</time>
      </trkpt>
      <trkpt lat="47.24115" lon="-2.29851">
        <ele>41.400001525879</ele>
        <time>2021-06-20T07:34:07.000Z</time>
      </trkpt>
      <trkpt lat="47.24136" lon="-2.29841">
        <ele>41.400001525879</ele>
        <time>2021-06-20T07:34:11.000Z</time>
      </trkpt>
      <trkpt lat="47.24151" lon="-2.29841">
        <ele>41.400001525879</ele>
        <time>2021-06-20T07:34:14.000Z</time>
      </trkpt>
      <trkpt lat="47.24156" lon="-2.29844">
        <ele>41.400001525879</ele>
        <time>2021-06-20T07:34:15.000Z</time>
      </trkpt>
      <trkpt lat="47.24168" lon="-2.2985">
        <ele>41.400001525879</ele>
        <time>2021-06-20T07:34:19.000Z</time>
      </trkpt>
      <trkpt lat="47.24178" lon="-2.29863">
        <ele>41.400001525879</ele>
        <time>2021-06-20T07:34:25.000Z</time>
      </trkpt>
      <trkpt lat="47.24184" lon="-2.29884">
        <ele>41.400001525879</ele>
        <time>2021-06-20T07:34:32.000Z</time>
      </trkpt>
      <trkpt lat="47.24183" lon="-2.29896">
        <ele>41.400001525879</ele>
        <time>2021-06-20T07:34:35.000Z</time>
      </trkpt>
      <trkpt lat="47.24182" lon="-2.29903">
        <ele>41.400001525879</ele>
        <time>2021-06-20T07:34:37.000Z</time>
      </trkpt>
      <trkpt lat="47.2418" lon="-2.29929">
        <ele>41.400001525879</ele>
        <time>2021-06-20T07:34:43.000Z</time>
      </trkpt>
      <trkpt lat="47.24179" lon="-2.29962">
        <ele>41.400001525879</ele>
        <time>2021-06-20T07:34:51.000Z</time>
      </trkpt>
      <trkpt lat="47.2418" lon="-2.29964">
        <ele>41.400001525879</ele>
        <time>2021-06-20T07:34:52.000Z</time>
      </trkpt>
      <trkpt lat="47.24185" lon="-2.29965">
        <ele>41.400001525879</ele>
        <time>2021-06-20T07:34:54.000Z</time>
      </trkpt>
      <trkpt lat="47.24203" lon="-2.29962">
        <ele>41.400001525879</ele>
        <time>2021-06-20T07:34:59.000Z</time>
      </trkpt>
      <trkpt lat="47.24207" lon="-2.2996">
        <ele>41.400001525879</ele>
        <time>2021-06-20T07:35:00.000Z</time>
      </trkpt>
      <trkpt lat="47.24226" lon="-2.29954">
        <ele>41.400001525879</ele>
        <time>2021-06-20T07:35:04.000Z</time>
      </trkpt>
      <trkpt lat="47.24232" lon="-2.29953">
        <ele>41.400001525879</ele>
        <time>2021-06-20T07:35:05.000Z</time>
      </trkpt>
      <trkpt lat="47.2424" lon="-2.2995">
        <ele>41.400001525879</ele>
        <time>2021-06-20T07:35:07.000Z</time>
      </trkpt>
      <trkpt lat="47.24246" lon="-2.29942">
        <ele>41</ele>
        <time>2021-06-20T07:35:09.000Z</time>
      </trkpt>
      <trkpt lat="47.24249" lon="-2.29938">
        <ele>40.599998474121</ele>
        <time>2021-06-20T07:35:10.000Z</time>
      </trkpt>
      <trkpt lat="47.24253" lon="-2.29933">
        <ele>40.200000762939</ele>
        <time>2021-06-20T07:35:11.000Z</time>
      </trkpt>
      <trkpt lat="47.24259" lon="-2.29925">
        <ele>39.799999237061</ele>
        <time>2021-06-20T07:35:12.000Z</time>
      </trkpt>
      <trkpt lat="47.24264" lon="-2.29921">
        <ele>39.400001525879</ele>
        <time>2021-06-20T07:35:13.000Z</time>
      </trkpt>
      <trkpt lat="47.24269" lon="-2.29916">
        <ele>39.400001525879</ele>
        <time>2021-06-20T07:35:14.000Z</time>
      </trkpt>
      <trkpt lat="47.24279" lon="-2.29907">
        <ele>39.400001525879</ele>
        <time>2021-06-20T07:35:16.000Z</time>
      </trkpt>
      <trkpt lat="47.24303" lon="-2.29885">
        <ele>39.400001525879</ele>
        <time>2021-06-20T07:35:20.000Z</time>
      </trkpt>
      <trkpt lat="47.24313" lon="-2.29862">
        <ele>39.400001525879</ele>
        <time>2021-06-20T07:35:23.000Z</time>
      </trkpt>
      <trkpt lat="47.24315" lon="-2.29836">
        <ele>39.400001525879</ele>
        <time>2021-06-20T07:35:26.000Z</time>
      </trkpt>
      <trkpt lat="47.24316" lon="-2.29827">
        <ele>39.400001525879</ele>
        <time>2021-06-20T07:35:27.000Z</time>
      </trkpt>
      <trkpt lat="47.24324" lon="-2.29813">
        <ele>39.400001525879</ele>
        <time>2021-06-20T07:35:29.000Z</time>
      </trkpt>
      <trkpt lat="47.2433" lon="-2.2981">
        <ele>39.799999237061</ele>
        <time>2021-06-20T07:35:30.000Z</time>
      </trkpt>
      <trkpt lat="47.24336" lon="-2.29807">
        <ele>40.200000762939</ele>
        <time>2021-06-20T07:35:31.000Z</time>
      </trkpt>
      <trkpt lat="47.24341" lon="-2.29806">
        <ele>40.799999237061</ele>
        <time>2021-06-20T07:35:32.000Z</time>
      </trkpt>
      <trkpt lat="47.24347" lon="-2.29804">
        <ele>41.200000762939</ele>
        <time>2021-06-20T07:35:33.000Z</time>
      </trkpt>
      <trkpt lat="47.24351" lon="-2.29801">
        <ele>41.599998474121</ele>
        <time>2021-06-20T07:35:34.000Z</time>
      </trkpt>
      <trkpt lat="47.24361" lon="-2.29793">
        <ele>41.599998474121</ele>
        <time>2021-06-20T07:35:36.000Z</time>
      </trkpt>
      <trkpt lat="47.24375" lon="-2.29766">
        <ele>41.599998474121</ele>
        <time>2021-06-20T07:35:40.000Z</time>
      </trkpt>
      <trkpt lat="47.24378" lon="-2.29759">
        <ele>41.599998474121</ele>
        <time>2021-06-20T07:35:41.000Z</time>
      </trkpt>
      <trkpt lat="47.24389" lon="-2.29731">
        <ele>41.599998474121</ele>
        <time>2021-06-20T07:35:45.000Z</time>
      </trkpt>
      <trkpt lat="47.24394" lon="-2.29716">
        <ele>41.599998474121</ele>
        <time>2021-06-20T07:35:47.000Z</time>
      </trkpt>
      <trkpt lat="47.24406" lon="-2.29701">
        <ele>41.599998474121</ele>
        <time>2021-06-20T07:35:50.000Z</time>
      </trkpt>
      <trkpt lat="47.24428" lon="-2.29694">
        <ele>41.599998474121</ele>
        <time>2021-06-20T07:35:54.000Z</time>
      </trkpt>
      <trkpt lat="47.2444" lon="-2.29697">
        <ele>41.599998474121</ele>
        <time>2021-06-20T07:35:57.000Z</time>
      </trkpt>
      <trkpt lat="47.2445" lon="-2.29717">
        <ele>41.599998474121</ele>
        <time>2021-06-20T07:36:01.000Z</time>
      </trkpt>
      <trkpt lat="47.24452" lon="-2.29723">
        <ele>41.599998474121</ele>
        <time>2021-06-20T07:36:02.000Z</time>
      </trkpt>
      <trkpt lat="47.24456" lon="-2.29735">
        <ele>41.599998474121</ele>
        <time>2021-06-20T07:36:04.000Z</time>
      </trkpt>
      <trkpt lat="47.24464" lon="-2.29754">
        <ele>41.599998474121</ele>
        <time>2021-06-20T07:36:07.000Z</time>
      </trkpt>
      <trkpt lat="47.24465" lon="-2.2976">
        <ele>41.599998474121</ele>
        <time>2021-06-20T07:36:08.000Z</time>
      </trkpt>
      <trkpt lat="47.2447" lon="-2.29781">
        <ele>41.599998474121</ele>
        <time>2021-06-20T07:36:11.000Z</time>
      </trkpt>
      <trkpt lat="47.24484" lon="-2.29823">
        <ele>41.599998474121</ele>
        <time>2021-06-20T07:36:17.000Z</time>
      </trkpt>
      <trkpt lat="47.24487" lon="-2.29829">
        <ele>41.599998474121</ele>
        <time>2021-06-20T07:36:18.000Z</time>
      </trkpt>
      <trkpt lat="47.24502" lon="-2.29847">
        <ele>41.599998474121</ele>
        <time>2021-06-20T07:36:22.000Z</time>
      </trkpt>
      <trkpt lat="47.24507" lon="-2.29851">
        <ele>41.599998474121</ele>
        <time>2021-06-20T07:36:23.000Z</time>
      </trkpt>
      <trkpt lat="47.24535" lon="-2.29865">
        <ele>41.599998474121</ele>
        <time>2021-06-20T07:36:29.000Z</time>
      </trkpt>
      <trkpt lat="47.24539" lon="-2.29867">
        <ele>42</ele>
        <time>2021-06-20T07:36:30.000Z</time>
      </trkpt>
      <trkpt lat="47.24543" lon="-2.29868">
        <ele>42.400001525879</ele>
        <time>2021-06-20T07:36:31.000Z</time>
      </trkpt>
      <trkpt lat="47.24547" lon="-2.2987">
        <ele>42.799999237061</ele>
        <time>2021-06-20T07:36:32.000Z</time>
      </trkpt>
      <trkpt lat="47.2455" lon="-2.29871">
        <ele>43.200000762939</ele>
        <time>2021-06-20T07:36:33.000Z</time>
      </trkpt>
      <trkpt lat="47.24554" lon="-2.29874">
        <ele>43.599998474121</ele>
        <time>2021-06-20T07:36:34.000Z</time>
      </trkpt>
      <trkpt lat="47.2456" lon="-2.29879">
        <ele>43.599998474121</ele>
        <time>2021-06-20T07:36:36.000Z</time>
      </trkpt>
      <trkpt lat="47.24567" lon="-2.29894">
        <ele>43.599998474121</ele>
        <time>2021-06-20T07:36:39.000Z</time>
      </trkpt>
      <trkpt lat="47.2457" lon="-2.29898">
        <ele>43.599998474121</ele>
        <time>2021-06-20T07:36:40.000Z</time>
      </trkpt>
      <trkpt lat="47.24593" lon="-2.29936">
        <ele>43.599998474121</ele>
        <time>2021-06-20T07:36:47.000Z</time>
      </trkpt>
      <trkpt lat="47.246" lon="-2.29944">
        <ele>43.599998474121</ele>
        <time>2021-06-20T07:36:49.000Z</time>
      </trkpt>
      <trkpt lat="47.24611" lon="-2.29942">
        <ele>43.599998474121</ele>
        <time>2021-06-20T07:36:51.000Z</time>
      </trkpt>
      <trkpt lat="47.24622" lon="-2.29937">
        <ele>43.599998474121</ele>
        <time>2021-06-20T07:36:53.000Z</time>
      </trkpt>
      <trkpt lat="47.24651" lon="-2.29927">
        <ele>43.599998474121</ele>
        <time>2021-06-20T07:36:58.000Z</time>
      </trkpt>
      <trkpt lat="47.24692" lon="-2.29914">
        <ele>43.599998474121</ele>
        <time>2021-06-20T07:37:05.000Z</time>
      </trkpt>
      <trkpt lat="47.24703" lon="-2.2991">
        <ele>44</ele>
        <time>2021-06-20T07:37:07.000Z</time>
      </trkpt>
      <trkpt lat="47.24708" lon="-2.29908">
        <ele>44.400001525879</ele>
        <time>2021-06-20T07:37:08.000Z</time>
      </trkpt>
      <trkpt lat="47.24714" lon="-2.29906">
        <ele>44.799999237061</ele>
        <time>2021-06-20T07:37:09.000Z</time>
      </trkpt>
      <trkpt lat="47.2472" lon="-2.29904">
        <ele>45.200000762939</ele>
        <time>2021-06-20T07:37:10.000Z</time>
      </trkpt>
      <trkpt lat="47.24725" lon="-2.29902">
        <ele>45.799999237061</ele>
        <time>2021-06-20T07:37:11.000Z</time>
      </trkpt>
      <trkpt lat="47.2473" lon="-2.299">
        <ele>45.799999237061</ele>
        <time>2021-06-20T07:37:12.000Z</time>
      </trkpt>
      <trkpt lat="47.24752" lon="-2.29888">
        <ele>45.799999237061</ele>
        <time>2021-06-20T07:37:16.000Z</time>
      </trkpt>
      <trkpt lat="47.24767" lon="-2.29876">
        <ele>45.799999237061</ele>
        <time>2021-06-20T07:37:19.000Z</time>
      </trkpt>
      <trkpt lat="47.248" lon="-2.29855">
        <ele>45.799999237061</ele>
        <time>2021-06-20T07:37:25.000Z</time>
      </trkpt>
      <trkpt lat="47.24806" lon="-2.29852">
        <ele>45.799999237061</ele>
        <time>2021-06-20T07:37:26.000Z</time>
      </trkpt>
      <trkpt lat="47.24811" lon="-2.2985">
        <ele>45.799999237061</ele>
        <time>2021-06-20T07:37:27.000Z</time>
      </trkpt>
      <trkpt lat="47.24841" lon="-2.29842">
        <ele>45.799999237061</ele>
        <time>2021-06-20T07:37:32.000Z</time>
      </trkpt>
      <trkpt lat="47.24856" lon="-2.29835">
        <ele>45.799999237061</ele>
        <time>2021-06-20T07:37:35.000Z</time>
      </trkpt>
      <trkpt lat="47.2486" lon="-2.29832">
        <ele>45.799999237061</ele>
        <time>2021-06-20T07:37:36.000Z</time>
      </trkpt>
      <trkpt lat="47.24869" lon="-2.29837">
        <ele>45.799999237061</ele>
        <time>2021-06-20T07:37:39.000Z</time>
      </trkpt>
      <trkpt lat="47.24874" lon="-2.29855">
        <ele>45.799999237061</ele>
        <time>2021-06-20T07:37:42.000Z</time>
      </trkpt>
      <trkpt lat="47.24877" lon="-2.29864">
        <ele>45.799999237061</ele>
        <time>2021-06-20T07:37:43.000Z</time>
      </trkpt>
      <trkpt lat="47.24884" lon="-2.29919">
        <ele>45.799999237061</ele>
        <time>2021-06-20T07:37:49.000Z</time>
      </trkpt>
      <trkpt lat="47.24894" lon="-2.29974">
        <ele>45.799999237061</ele>
        <time>2021-06-20T07:37:55.000Z</time>
      </trkpt>
      <trkpt lat="47.24906" lon="-2.30022">
        <ele>45.799999237061</ele>
        <time>2021-06-20T07:38:01.000Z</time>
      </trkpt>
      <trkpt lat="47.24908" lon="-2.30042">
        <ele>45.799999237061</ele>
        <time>2021-06-20T07:38:04.000Z</time>
      </trkpt>
      <trkpt lat="47.24908" lon="-2.30053">
        <ele>45.799999237061</ele>
        <time>2021-06-20T07:38:06.000Z</time>
      </trkpt>
      <trkpt lat="47.24917" lon="-2.30055">
        <ele>45.799999237061</ele>
        <time>2021-06-20T07:38:09.000Z</time>
      </trkpt>
      <trkpt lat="47.24934" lon="-2.30055">
        <ele>45.799999237061</ele>
        <time>2021-06-20T07:38:13.000Z</time>
      </trkpt>
      <trkpt lat="47.24939" lon="-2.30055">
        <ele>45.799999237061</ele>
        <time>2021-06-20T07:38:14.000Z</time>
      </trkpt>
      <trkpt lat="47.24977" lon="-2.30055">
        <ele>45.799999237061</ele>
        <time>2021-06-20T07:38:21.000Z</time>
      </trkpt>
      <trkpt lat="47.24992" lon="-2.30053">
        <ele>45.799999237061</ele>
        <time>2021-06-20T07:38:24.000Z</time>
      </trkpt>
      <trkpt lat="47.25008" lon="-2.3005">
        <ele>45.799999237061</ele>
        <time>2021-06-20T07:38:27.000Z</time>
      </trkpt>
      <trkpt lat="47.25033" lon="-2.30052">
        <ele>45.799999237061</ele>
        <time>2021-06-20T07:38:33.000Z</time>
      </trkpt>
      <trkpt lat="47.25065" lon="-2.30056">
        <ele>45.799999237061</ele>
        <time>2021-06-20T07:38:41.000Z</time>
      </trkpt>
      <trkpt lat="47.25075" lon="-2.30067">
        <ele>45.799999237061</ele>
        <time>2021-06-20T07:38:45.000Z</time>
      </trkpt>
      <trkpt lat="47.25075" lon="-2.30073">
        <ele>45.799999237061</ele>
        <time>2021-06-20T07:38:46.000Z</time>
      </trkpt>
      <trkpt lat="47.25075" lon="-2.30088">
        <ele>45.799999237061</ele>
        <time>2021-06-20T07:38:48.000Z</time>
      </trkpt>
      <trkpt lat="47.25073" lon="-2.30112">
        <ele>45.799999237061</ele>
        <time>2021-06-20T07:38:51.000Z</time>
      </trkpt>
      <trkpt lat="47.25073" lon="-2.30133">
        <ele>45.799999237061</ele>
        <time>2021-06-20T07:38:54.000Z</time>
      </trkpt>
      <trkpt lat="47.25084" lon="-2.30138">
        <ele>45.799999237061</ele>
        <time>2021-06-20T07:38:57.000Z</time>
      </trkpt>
      <trkpt lat="47.25099" lon="-2.30136">
        <ele>45.799999237061</ele>
        <time>2021-06-20T07:39:00.000Z</time>
      </trkpt>
      <trkpt lat="47.25105" lon="-2.30134">
        <ele>45.799999237061</ele>
        <time>2021-06-20T07:39:01.000Z</time>
      </trkpt>
      <trkpt lat="47.25111" lon="-2.30132">
        <ele>45.799999237061</ele>
        <time>2021-06-20T07:39:02.000Z</time>
      </trkpt>
      <trkpt lat="47.25141" lon="-2.30127">
        <ele>45.400001525879</ele>
        <time>2021-06-20T07:39:07.000Z</time>
      </trkpt>
      <trkpt lat="47.25147" lon="-2.30126">
        <ele>45</ele>
        <time>2021-06-20T07:39:08.000Z</time>
      </trkpt>
      <trkpt lat="47.25152" lon="-2.30124">
        <ele>44.599998474121</ele>
        <time>2021-06-20T07:39:09.000Z</time>
      </trkpt>
      <trkpt lat="47.25157" lon="-2.30122">
        <ele>43.799999237061</ele>
        <time>2021-06-20T07:39:10.000Z</time>
      </trkpt>
      <trkpt lat="47.25181" lon="-2.30117">
        <ele>43.799999237061</ele>
        <time>2021-06-20T07:39:14.000Z</time>
      </trkpt>
      <trkpt lat="47.25198" lon="-2.30128">
        <ele>43.799999237061</ele>
        <time>2021-06-20T07:39:17.000Z</time>
      </trkpt>
      <trkpt lat="47.25205" lon="-2.30142">
        <ele>43.799999237061</ele>
        <time>2021-06-20T07:39:19.000Z</time>
      </trkpt>
      <trkpt lat="47.25209" lon="-2.30147">
        <ele>43.400001525879</ele>
        <time>2021-06-20T07:39:20.000Z</time>
      </trkpt>
      <trkpt lat="47.25212" lon="-2.30153">
        <ele>42.799999237061</ele>
        <time>2021-06-20T07:39:21.000Z</time>
      </trkpt>
      <trkpt lat="47.25217" lon="-2.30159">
        <ele>42.400001525879</ele>
        <time>2021-06-20T07:39:22.000Z</time>
      </trkpt>
      <trkpt lat="47.25221" lon="-2.30165">
        <ele>42</ele>
        <time>2021-06-20T07:39:23.000Z</time>
      </trkpt>
      <trkpt lat="47.25225" lon="-2.3017">
        <ele>41.599998474121</ele>
        <time>2021-06-20T07:39:24.000Z</time>
      </trkpt>
      <trkpt lat="47.2523" lon="-2.30175">
        <ele>41.599998474121</ele>
        <time>2021-06-20T07:39:25.000Z</time>
      </trkpt>
      <trkpt lat="47.25235" lon="-2.30178">
        <ele>41.599998474121</ele>
        <time>2021-06-20T07:39:26.000Z</time>
      </trkpt>
      <trkpt lat="47.25257" lon="-2.30187">
        <ele>41.599998474121</ele>
        <time>2021-06-20T07:39:30.000Z</time>
      </trkpt>
      <trkpt lat="47.25262" lon="-2.30191">
        <ele>41.599998474121</ele>
        <time>2021-06-20T07:39:31.000Z</time>
      </trkpt>
      <trkpt lat="47.25273" lon="-2.30196">
        <ele>41.200000762939</ele>
        <time>2021-06-20T07:39:33.000Z</time>
      </trkpt>
      <trkpt lat="47.25279" lon="-2.30199">
        <ele>40.799999237061</ele>
        <time>2021-06-20T07:39:34.000Z</time>
      </trkpt>
      <trkpt lat="47.25285" lon="-2.30202">
        <ele>39.799999237061</ele>
        <time>2021-06-20T07:39:35.000Z</time>
      </trkpt>
      <trkpt lat="47.2529" lon="-2.30203">
        <ele>39.400001525879</ele>
        <time>2021-06-20T07:39:36.000Z</time>
      </trkpt>
      <trkpt lat="47.25307" lon="-2.30212">
        <ele>39.400001525879</ele>
        <time>2021-06-20T07:39:40.000Z</time>
      </trkpt>
      <trkpt lat="47.25309" lon="-2.3021">
        <ele>39.400001525879</ele>
        <time>2021-06-20T07:39:41.000Z</time>
      </trkpt>
      <trkpt lat="47.25312" lon="-2.30205">
        <ele>39.400001525879</ele>
        <time>2021-06-20T07:39:43.000Z</time>
      </trkpt>
      <trkpt lat="47.25324" lon="-2.30207">
        <ele>39.400001525879</ele>
        <time>2021-06-20T07:39:46.000Z</time>
      </trkpt>
      <trkpt lat="47.2533" lon="-2.30208">
        <ele>39.400001525879</ele>
        <time>2021-06-20T07:39:47.000Z</time>
      </trkpt>
      <trkpt lat="47.25335" lon="-2.30209">
        <ele>39</ele>
        <time>2021-06-20T07:39:48.000Z</time>
      </trkpt>
      <trkpt lat="47.2534" lon="-2.30209">
        <ele>38.599998474121</ele>
        <time>2021-06-20T07:39:49.000Z</time>
      </trkpt>
      <trkpt lat="47.25346" lon="-2.30209">
        <ele>38.200000762939</ele>
        <time>2021-06-20T07:39:50.000Z</time>
      </trkpt>
      <trkpt lat="47.25351" lon="-2.30209">
        <ele>37.799999237061</ele>
        <time>2021-06-20T07:39:51.000Z</time>
      </trkpt>
      <trkpt lat="47.25356" lon="-2.3021">
        <ele>37.400001525879</ele>
        <time>2021-06-20T07:39:52.000Z</time>
      </trkpt>
      <trkpt lat="47.25382" lon="-2.30212">
        <ele>37.400001525879</ele>
        <time>2021-06-20T07:39:57.000Z</time>
      </trkpt>
      <trkpt lat="47.25386" lon="-2.30213">
        <ele>37.400001525879</ele>
        <time>2021-06-20T07:39:58.000Z</time>
      </trkpt>
      <trkpt lat="47.25391" lon="-2.30216">
        <ele>37.400001525879</ele>
        <time>2021-06-20T07:39:59.000Z</time>
      </trkpt>
      <trkpt lat="47.25407" lon="-2.30226">
        <ele>37.400001525879</ele>
        <time>2021-06-20T07:40:03.000Z</time>
      </trkpt>
      <trkpt lat="47.25415" lon="-2.30229">
        <ele>37</ele>
        <time>2021-06-20T07:40:05.000Z</time>
      </trkpt>
      <trkpt lat="47.2542" lon="-2.3023">
        <ele>36.599998474121</ele>
        <time>2021-06-20T07:40:06.000Z</time>
      </trkpt>
      <trkpt lat="47.25424" lon="-2.30231">
        <ele>36.200000762939</ele>
        <time>2021-06-20T07:40:07.000Z</time>
      </trkpt>
      <trkpt lat="47.25428" lon="-2.30233">
        <ele>35.799999237061</ele>
        <time>2021-06-20T07:40:08.000Z</time>
      </trkpt>
      <trkpt lat="47.25433" lon="-2.30235">
        <ele>35.400001525879</ele>
        <time>2021-06-20T07:40:09.000Z</time>
      </trkpt>
      <trkpt lat="47.25447" lon="-2.30241">
        <ele>35.400001525879</ele>
        <time>2021-06-20T07:40:12.000Z</time>
      </trkpt>
      <trkpt lat="47.25463" lon="-2.30247">
        <ele>35.400001525879</ele>
        <time>2021-06-20T07:40:15.000Z</time>
      </trkpt>
      <trkpt lat="47.25472" lon="-2.30251">
        <ele>35.400001525879</ele>
        <time>2021-06-20T07:40:17.000Z</time>
      </trkpt>
      <trkpt lat="47.25479" lon="-2.30244">
        <ele>35.400001525879</ele>
        <time>2021-06-20T07:40:20.000Z</time>
      </trkpt>
      <trkpt lat="47.25481" lon="-2.30234">
        <ele>35.400001525879</ele>
        <time>2021-06-20T07:40:22.000Z</time>
      </trkpt>
      <trkpt lat="47.25484" lon="-2.3022">
        <ele>35.400001525879</ele>
        <time>2021-06-20T07:40:25.000Z</time>
      </trkpt>
      <trkpt lat="47.25495" lon="-2.30204">
        <ele>34.799999237061</ele>
        <time>2021-06-20T07:40:30.000Z</time>
      </trkpt>
      <trkpt lat="47.25499" lon="-2.30204">
        <ele>34.400001525879</ele>
        <time>2021-06-20T07:40:31.000Z</time>
      </trkpt>
      <trkpt lat="47.25504" lon="-2.30204">
        <ele>34</ele>
        <time>2021-06-20T07:40:32.000Z</time>
      </trkpt>
      <trkpt lat="47.25508" lon="-2.30206">
        <ele>33.599998474121</ele>
        <time>2021-06-20T07:40:33.000Z</time>
      </trkpt>
      <trkpt lat="47.25512" lon="-2.30206">
        <ele>33.200000762939</ele>
        <time>2021-06-20T07:40:34.000Z</time>
      </trkpt>
      <trkpt lat="47.25528" lon="-2.30197">
        <ele>33.200000762939</ele>
        <time>2021-06-20T07:40:38.000Z</time>
      </trkpt>
      <trkpt lat="47.25542" lon="-2.3019">
        <ele>33.200000762939</ele>
        <time>2021-06-20T07:40:41.000Z</time>
      </trkpt>
      <trkpt lat="47.25553" lon="-2.30189">
        <ele>33.200000762939</ele>
        <time>2021-06-20T07:40:43.000Z</time>
      </trkpt>
      <trkpt lat="47.2556" lon="-2.3019">
        <ele>33.200000762939</ele>
        <time>2021-06-20T07:40:44.000Z</time>
      </trkpt>
      <trkpt lat="47.25566" lon="-2.30192">
        <ele>33.200000762939</ele>
        <time>2021-06-20T07:40:45.000Z</time>
      </trkpt>
      <trkpt lat="47.25584" lon="-2.30206">
        <ele>33.200000762939</ele>
        <time>2021-06-20T07:40:48.000Z</time>
      </trkpt>
      <trkpt lat="47.2559" lon="-2.30211">
        <ele>33.200000762939</ele>
        <time>2021-06-20T07:40:49.000Z</time>
      </trkpt>
      <trkpt lat="47.25605" lon="-2.3023">
        <ele>33.200000762939</ele>
        <time>2021-06-20T07:40:52.000Z</time>
      </trkpt>
      <trkpt lat="47.25611" lon="-2.30243">
        <ele>33.200000762939</ele>
        <time>2021-06-20T07:40:54.000Z</time>
      </trkpt>
      <trkpt lat="47.25621" lon="-2.30265">
        <ele>32.799999237061</ele>
        <time>2021-06-20T07:40:58.000Z</time>
      </trkpt>
      <trkpt lat="47.25622" lon="-2.3027">
        <ele>32.400001525879</ele>
        <time>2021-06-20T07:40:59.000Z</time>
      </trkpt>
      <trkpt lat="47.25623" lon="-2.30276">
        <ele>32</ele>
        <time>2021-06-20T07:41:00.000Z</time>
      </trkpt>
      <trkpt lat="47.25623" lon="-2.30282">
        <ele>31.60000038147</ele>
        <time>2021-06-20T07:41:01.000Z</time>
      </trkpt>
      <trkpt lat="47.25623" lon="-2.30288">
        <ele>31.200000762939</ele>
        <time>2021-06-20T07:41:02.000Z</time>
      </trkpt>
      <trkpt lat="47.25624" lon="-2.30311">
        <ele>31.200000762939</ele>
        <time>2021-06-20T07:41:06.000Z</time>
      </trkpt>
      <trkpt lat="47.25635" lon="-2.30336">
        <ele>31.200000762939</ele>
        <time>2021-06-20T07:41:12.000Z</time>
      </trkpt>
      <trkpt lat="47.25643" lon="-2.30327">
        <ele>31.200000762939</ele>
        <time>2021-06-20T07:41:15.000Z</time>
      </trkpt>
      <trkpt lat="47.25646" lon="-2.30322">
        <ele>31.200000762939</ele>
        <time>2021-06-20T07:41:16.000Z</time>
      </trkpt>
      <trkpt lat="47.25648" lon="-2.30317">
        <ele>31.200000762939</ele>
        <time>2021-06-20T07:41:17.000Z</time>
      </trkpt>
      <trkpt lat="47.25655" lon="-2.30301">
        <ele>31.200000762939</ele>
        <time>2021-06-20T07:41:20.000Z</time>
      </trkpt>
      <trkpt lat="47.25656" lon="-2.30284">
        <ele>31.200000762939</ele>
        <time>2021-06-20T07:41:23.000Z</time>
      </trkpt>
      <trkpt lat="47.25666" lon="-2.30267">
        <ele>31.200000762939</ele>
        <time>2021-06-20T07:41:27.000Z</time>
      </trkpt>
      <trkpt lat="47.2567" lon="-2.30263">
        <ele>31.200000762939</ele>
        <time>2021-06-20T07:41:28.000Z</time>
      </trkpt>
      <trkpt lat="47.25676" lon="-2.30254">
        <ele>31.200000762939</ele>
        <time>2021-06-20T07:41:30.000Z</time>
      </trkpt>
      <trkpt lat="47.25681" lon="-2.3024">
        <ele>31.200000762939</ele>
        <time>2021-06-20T07:41:32.000Z</time>
      </trkpt>
      <trkpt lat="47.2569" lon="-2.3022">
        <ele>31.200000762939</ele>
        <time>2021-06-20T07:41:35.000Z</time>
      </trkpt>
      <trkpt lat="47.257" lon="-2.3021">
        <ele>31.200000762939</ele>
        <time>2021-06-20T07:41:37.000Z</time>
      </trkpt>
      <trkpt lat="47.25725" lon="-2.30205">
        <ele>31.200000762939</ele>
        <time>2021-06-20T07:41:41.000Z</time>
      </trkpt>
      <trkpt lat="47.25745" lon="-2.30214">
        <ele>31.200000762939</ele>
        <time>2021-06-20T07:41:44.000Z</time>
      </trkpt>
      <trkpt lat="47.25751" lon="-2.30217">
        <ele>31.200000762939</ele>
        <time>2021-06-20T07:41:45.000Z</time>
      </trkpt>
      <trkpt lat="47.25789" lon="-2.30237">
        <ele>30.799999237061</ele>
        <time>2021-06-20T07:41:51.000Z</time>
      </trkpt>
      <trkpt lat="47.25795" lon="-2.3024">
        <ele>30.39999961853</ele>
        <time>2021-06-20T07:41:52.000Z</time>
      </trkpt>
      <trkpt lat="47.25801" lon="-2.30243">
        <ele>30</ele>
        <time>2021-06-20T07:41:53.000Z</time>
      </trkpt>
      <trkpt lat="47.25807" lon="-2.30247">
        <ele>29.60000038147</ele>
        <time>2021-06-20T07:41:54.000Z</time>
      </trkpt>
      <trkpt lat="47.25814" lon="-2.3025">
        <ele>29.200000762939</ele>
        <time>2021-06-20T07:41:55.000Z</time>
      </trkpt>
      <trkpt lat="47.25837" lon="-2.30262">
        <ele>29.200000762939</ele>
        <time>2021-06-20T07:41:59.000Z</time>
      </trkpt>
      <trkpt lat="47.25866" lon="-2.30272">
        <ele>29.200000762939</ele>
        <time>2021-06-20T07:42:05.000Z</time>
      </trkpt>
      <trkpt lat="47.2587" lon="-2.30272">
        <ele>29.200000762939</ele>
        <time>2021-06-20T07:42:06.000Z</time>
      </trkpt>
      <trkpt lat="47.25877" lon="-2.30265">
        <ele>29.200000762939</ele>
        <time>2021-06-20T07:42:08.000Z</time>
      </trkpt>
      <trkpt lat="47.25888" lon="-2.30252">
        <ele>29.200000762939</ele>
        <time>2021-06-20T07:42:11.000Z</time>
      </trkpt>
      <trkpt lat="47.2589" lon="-2.30245">
        <ele>29.200000762939</ele>
        <time>2021-06-20T07:42:12.000Z</time>
      </trkpt>
      <trkpt lat="47.25891" lon="-2.30224">
        <ele>29.200000762939</ele>
        <time>2021-06-20T07:42:15.000Z</time>
      </trkpt>
      <trkpt lat="47.2589" lon="-2.30217">
        <ele>29.200000762939</ele>
        <time>2021-06-20T07:42:16.000Z</time>
      </trkpt>
      <trkpt lat="47.25888" lon="-2.30192">
        <ele>29.200000762939</ele>
        <time>2021-06-20T07:42:20.000Z</time>
      </trkpt>
      <trkpt lat="47.2589" lon="-2.30186">
        <ele>29.200000762939</ele>
        <time>2021-06-20T07:42:21.000Z</time>
      </trkpt>
      <trkpt lat="47.25907" lon="-2.30173">
        <ele>29.200000762939</ele>
        <time>2021-06-20T07:42:25.000Z</time>
      </trkpt>
      <trkpt lat="47.25918" lon="-2.3017">
        <ele>29.200000762939</ele>
        <time>2021-06-20T07:42:27.000Z</time>
      </trkpt>
      <trkpt lat="47.25937" lon="-2.30166">
        <ele>29.200000762939</ele>
        <time>2021-06-20T07:42:30.000Z</time>
      </trkpt>
      <trkpt lat="47.25949" lon="-2.30162">
        <ele>29.200000762939</ele>
        <time>2021-06-20T07:42:32.000Z</time>
      </trkpt>
      <trkpt lat="47.25959" lon="-2.30152">
        <ele>28.799999237061</ele>
        <time>2021-06-20T07:42:34.000Z</time>
      </trkpt>
      <trkpt lat="47.25963" lon="-2.30145">
        <ele>28.200000762939</ele>
        <time>2021-06-20T07:42:35.000Z</time>
      </trkpt>
      <trkpt lat="47.25966" lon="-2.30139">
        <ele>27.799999237061</ele>
        <time>2021-06-20T07:42:36.000Z</time>
      </trkpt>
      <trkpt lat="47.25969" lon="-2.30134">
        <ele>27.39999961853</ele>
        <time>2021-06-20T07:42:37.000Z</time>
      </trkpt>
      <trkpt lat="47.25972" lon="-2.30133">
        <ele>26.799999237061</ele>
        <time>2021-06-20T07:42:38.000Z</time>
      </trkpt>
      <trkpt lat="47.25977" lon="-2.3013">
        <ele>26.799999237061</ele>
        <time>2021-06-20T07:42:40.000Z</time>
      </trkpt>
      <trkpt lat="47.25981" lon="-2.30129">
        <ele>26.799999237061</ele>
        <time>2021-06-20T07:42:42.000Z</time>
      </trkpt>
      <trkpt lat="47.25992" lon="-2.30129">
        <ele>26.799999237061</ele>
        <time>2021-06-20T07:42:46.000Z</time>
      </trkpt>
      <trkpt lat="47.26006" lon="-2.30128">
        <ele>26.799999237061</ele>
        <time>2021-06-20T07:42:51.000Z</time>
      </trkpt>
      <trkpt lat="47.2602" lon="-2.30133">
        <ele>27.200000762939</ele>
        <time>2021-06-20T07:42:55.000Z</time>
      </trkpt>
      <trkpt lat="47.26025" lon="-2.30134">
        <ele>27.799999237061</ele>
        <time>2021-06-20T07:42:56.000Z</time>
      </trkpt>
      <trkpt lat="47.2603" lon="-2.30134">
        <ele>28.200000762939</ele>
        <time>2021-06-20T07:42:57.000Z</time>
      </trkpt>
      <trkpt lat="47.26035" lon="-2.30134">
        <ele>28.60000038147</ele>
        <time>2021-06-20T07:42:58.000Z</time>
      </trkpt>
      <trkpt lat="47.26039" lon="-2.30133">
        <ele>29</ele>
        <time>2021-06-20T07:42:59.000Z</time>
      </trkpt>
      <trkpt lat="47.26043" lon="-2.30132">
        <ele>29</ele>
        <time>2021-06-20T07:43:00.000Z</time>
      </trkpt>
      <trkpt lat="47.26047" lon="-2.30132">
        <ele>29</ele>
        <time>2021-06-20T07:43:01.000Z</time>
      </trkpt>
      <trkpt lat="47.26064" lon="-2.3014">
        <ele>29</ele>
        <time>2021-06-20T07:43:06.000Z</time>
      </trkpt>
      <trkpt lat="47.26077" lon="-2.30144">
        <ele>29.39999961853</ele>
        <time>2021-06-20T07:43:10.000Z</time>
      </trkpt>
      <trkpt lat="47.2608" lon="-2.30143">
        <ele>29.799999237061</ele>
        <time>2021-06-20T07:43:11.000Z</time>
      </trkpt>
      <trkpt lat="47.26083" lon="-2.30143">
        <ele>30.200000762939</ele>
        <time>2021-06-20T07:43:12.000Z</time>
      </trkpt>
      <trkpt lat="47.26086" lon="-2.30143">
        <ele>30.60000038147</ele>
        <time>2021-06-20T07:43:13.000Z</time>
      </trkpt>
      <trkpt lat="47.26089" lon="-2.30144">
        <ele>31</ele>
        <time>2021-06-20T07:43:14.000Z</time>
      </trkpt>
      <trkpt lat="47.26091" lon="-2.30146">
        <ele>31</ele>
        <time>2021-06-20T07:43:15.000Z</time>
      </trkpt>
      <trkpt lat="47.26093" lon="-2.30149">
        <ele>31</ele>
        <time>2021-06-20T07:43:16.000Z</time>
      </trkpt>
      <trkpt lat="47.26099" lon="-2.30156">
        <ele>31</ele>
        <time>2021-06-20T07:43:20.000Z</time>
      </trkpt>
      <trkpt lat="47.26103" lon="-2.30157">
        <ele>31.39999961853</ele>
        <time>2021-06-20T07:43:21.000Z</time>
      </trkpt>
      <trkpt lat="47.26107" lon="-2.30155">
        <ele>31.799999237061</ele>
        <time>2021-06-20T07:43:22.000Z</time>
      </trkpt>
      <trkpt lat="47.26111" lon="-2.30154">
        <ele>32.400001525879</ele>
        <time>2021-06-20T07:43:23.000Z</time>
      </trkpt>
      <trkpt lat="47.26116" lon="-2.30154">
        <ele>32.799999237061</ele>
        <time>2021-06-20T07:43:24.000Z</time>
      </trkpt>
      <trkpt lat="47.2612" lon="-2.30153">
        <ele>33.200000762939</ele>
        <time>2021-06-20T07:43:25.000Z</time>
      </trkpt>
      <trkpt lat="47.26142" lon="-2.30149">
        <ele>33.599998474121</ele>
        <time>2021-06-20T07:43:30.000Z</time>
      </trkpt>
      <trkpt lat="47.26146" lon="-2.30149">
        <ele>34</ele>
        <time>2021-06-20T07:43:31.000Z</time>
      </trkpt>
      <trkpt lat="47.26149" lon="-2.30147">
        <ele>34.400001525879</ele>
        <time>2021-06-20T07:43:32.000Z</time>
      </trkpt>
      <trkpt lat="47.26153" lon="-2.30146">
        <ele>34.799999237061</ele>
        <time>2021-06-20T07:43:33.000Z</time>
      </trkpt>
      <trkpt lat="47.26156" lon="-2.30145">
        <ele>35.200000762939</ele>
        <time>2021-06-20T07:43:34.000Z</time>
      </trkpt>
      <trkpt lat="47.26163" lon="-2.30142">
        <ele>35.200000762939</ele>
        <time>2021-06-20T07:43:37.000Z</time>
      </trkpt>
      <trkpt lat="47.26166" lon="-2.30142">
        <ele>35.200000762939</ele>
        <time>2021-06-20T07:43:39.000Z</time>
      </trkpt>
      <trkpt lat="47.26167" lon="-2.30147">
        <ele>35.200000762939</ele>
        <time>2021-06-20T07:43:41.000Z</time>
      </trkpt>
      <trkpt lat="47.26178" lon="-2.30147">
        <ele>35.200000762939</ele>
        <time>2021-06-20T07:43:44.000Z</time>
      </trkpt>
      <trkpt lat="47.26182" lon="-2.30146">
        <ele>35.599998474121</ele>
        <time>2021-06-20T07:43:45.000Z</time>
      </trkpt>
      <trkpt lat="47.26186" lon="-2.30144">
        <ele>36</ele>
        <time>2021-06-20T07:43:46.000Z</time>
      </trkpt>
      <trkpt lat="47.2619" lon="-2.30143">
        <ele>36.400001525879</ele>
        <time>2021-06-20T07:43:47.000Z</time>
      </trkpt>
      <trkpt lat="47.26194" lon="-2.30142">
        <ele>36.799999237061</ele>
        <time>2021-06-20T07:43:48.000Z</time>
      </trkpt>
      <trkpt lat="47.26198" lon="-2.30141">
        <ele>37.200000762939</ele>
        <time>2021-06-20T07:43:49.000Z</time>
      </trkpt>
      <trkpt lat="47.26202" lon="-2.30139">
        <ele>37.200000762939</ele>
        <time>2021-06-20T07:43:50.000Z</time>
      </trkpt>
      <trkpt lat="47.26229" lon="-2.30131">
        <ele>37.200000762939</ele>
        <time>2021-06-20T07:43:57.000Z</time>
      </trkpt>
      <trkpt lat="47.26245" lon="-2.30132">
        <ele>37.599998474121</ele>
        <time>2021-06-20T07:44:02.000Z</time>
      </trkpt>
      <trkpt lat="47.26248" lon="-2.30137">
        <ele>38</ele>
        <time>2021-06-20T07:44:03.000Z</time>
      </trkpt>
      <trkpt lat="47.26251" lon="-2.30143">
        <ele>38.400001525879</ele>
        <time>2021-06-20T07:44:04.000Z</time>
      </trkpt>
      <trkpt lat="47.26254" lon="-2.3015">
        <ele>38.799999237061</ele>
        <time>2021-06-20T07:44:05.000Z</time>
      </trkpt>
      <trkpt lat="47.26256" lon="-2.30156">
        <ele>39.400001525879</ele>
        <time>2021-06-20T07:44:06.000Z</time>
      </trkpt>
      <trkpt lat="47.26268" lon="-2.30193">
        <ele>39.400001525879</ele>
        <time>2021-06-20T07:44:11.000Z</time>
      </trkpt>
      <trkpt lat="47.26269" lon="-2.30199">
        <ele>39.400001525879</ele>
        <time>2021-06-20T07:44:12.000Z</time>
      </trkpt>
      <trkpt lat="47.26273" lon="-2.30215">
        <ele>39.400001525879</ele>
        <time>2021-06-20T07:44:14.000Z</time>
      </trkpt>
      <trkpt lat="47.26279" lon="-2.30241">
        <ele>39.400001525879</ele>
        <time>2021-06-20T07:44:17.000Z</time>
      </trkpt>
      <trkpt lat="47.26288" lon="-2.30283">
        <ele>38.799999237061</ele>
        <time>2021-06-20T07:44:22.000Z</time>
      </trkpt>
      <trkpt lat="47.2629" lon="-2.30291">
        <ele>38.400001525879</ele>
        <time>2021-06-20T07:44:23.000Z</time>
      </trkpt>
      <trkpt lat="47.26291" lon="-2.30299">
        <ele>38</ele>
        <time>2021-06-20T07:44:24.000Z</time>
      </trkpt>
      <trkpt lat="47.26293" lon="-2.30306">
        <ele>37.599998474121</ele>
        <time>2021-06-20T07:44:25.000Z</time>
      </trkpt>
      <trkpt lat="47.26295" lon="-2.30314">
        <ele>37.200000762939</ele>
        <time>2021-06-20T07:44:26.000Z</time>
      </trkpt>
      <trkpt lat="47.26302" lon="-2.30335">
        <ele>37.200000762939</ele>
        <time>2021-06-20T07:44:29.000Z</time>
      </trkpt>
      <trkpt lat="47.26312" lon="-2.30371">
        <ele>37.200000762939</ele>
        <time>2021-06-20T07:44:34.000Z</time>
      </trkpt>
      <trkpt lat="47.26315" lon="-2.30387">
        <ele>37.200000762939</ele>
        <time>2021-06-20T07:44:36.000Z</time>
      </trkpt>
      <trkpt lat="47.26317" lon="-2.30403">
        <ele>37.200000762939</ele>
        <time>2021-06-20T07:44:38.000Z</time>
      </trkpt>
      <trkpt lat="47.26318" lon="-2.30429">
        <ele>37.200000762939</ele>
        <time>2021-06-20T07:44:41.000Z</time>
      </trkpt>
      <trkpt lat="47.26328" lon="-2.30486">
        <ele>37.200000762939</ele>
        <time>2021-06-20T07:44:48.000Z</time>
      </trkpt>
      <trkpt lat="47.26336" lon="-2.30523">
        <ele>37.200000762939</ele>
        <time>2021-06-20T07:44:53.000Z</time>
      </trkpt>
      <trkpt lat="47.26338" lon="-2.30529">
        <ele>37.200000762939</ele>
        <time>2021-06-20T07:44:54.000Z</time>
      </trkpt>
      <trkpt lat="47.26345" lon="-2.3056">
        <ele>37.200000762939</ele>
        <time>2021-06-20T07:44:59.000Z</time>
      </trkpt>
      <trkpt lat="47.26345" lon="-2.30583">
        <ele>37.200000762939</ele>
        <time>2021-06-20T07:45:03.000Z</time>
      </trkpt>
      <trkpt lat="47.26347" lon="-2.3059">
        <ele>37.200000762939</ele>
        <time>2021-06-20T07:45:04.000Z</time>
      </trkpt>
      <trkpt lat="47.26351" lon="-2.30603">
        <ele>37.200000762939</ele>
        <time>2021-06-20T07:45:06.000Z</time>
      </trkpt>
      <trkpt lat="47.26357" lon="-2.30615">
        <ele>37.200000762939</ele>
        <time>2021-06-20T07:45:08.000Z</time>
      </trkpt>
      <trkpt lat="47.2636" lon="-2.30621">
        <ele>37.200000762939</ele>
        <time>2021-06-20T07:45:09.000Z</time>
      </trkpt>
      <trkpt lat="47.26382" lon="-2.30654">
        <ele>37.200000762939</ele>
        <time>2021-06-20T07:45:15.000Z</time>
      </trkpt>
      <trkpt lat="47.26388" lon="-2.30663">
        <ele>36.799999237061</ele>
        <time>2021-06-20T07:45:17.000Z</time>
      </trkpt>
      <trkpt lat="47.26392" lon="-2.30666">
        <ele>36.400001525879</ele>
        <time>2021-06-20T07:45:18.000Z</time>
      </trkpt>
      <trkpt lat="47.26396" lon="-2.30668">
        <ele>36</ele>
        <time>2021-06-20T07:45:19.000Z</time>
      </trkpt>
      <trkpt lat="47.264" lon="-2.30671">
        <ele>35.599998474121</ele>
        <time>2021-06-20T07:45:20.000Z</time>
      </trkpt>
      <trkpt lat="47.26404" lon="-2.30674">
        <ele>35.200000762939</ele>
        <time>2021-06-20T07:45:21.000Z</time>
      </trkpt>
      <trkpt lat="47.26423" lon="-2.30691">
        <ele>35.200000762939</ele>
        <time>2021-06-20T07:45:27.000Z</time>
      </trkpt>
      <trkpt lat="47.26426" lon="-2.30696">
        <ele>35.200000762939</ele>
        <time>2021-06-20T07:45:28.000Z</time>
      </trkpt>
      <trkpt lat="47.26436" lon="-2.30715">
        <ele>35.200000762939</ele>
        <time>2021-06-20T07:45:32.000Z</time>
      </trkpt>
      <trkpt lat="47.26451" lon="-2.30751">
        <ele>35.200000762939</ele>
        <time>2021-06-20T07:45:38.000Z</time>
      </trkpt>
      <trkpt lat="47.26465" lon="-2.30787">
        <ele>35.200000762939</ele>
        <time>2021-06-20T07:45:43.000Z</time>
      </trkpt>
      <trkpt lat="47.26471" lon="-2.30802">
        <ele>34.799999237061</ele>
        <time>2021-06-20T07:45:45.000Z</time>
      </trkpt>
      <trkpt lat="47.26473" lon="-2.30807">
        <ele>34</ele>
        <time>2021-06-20T07:45:46.000Z</time>
      </trkpt>
      <trkpt lat="47.26477" lon="-2.30813">
        <ele>33.599998474121</ele>
        <time>2021-06-20T07:45:47.000Z</time>
      </trkpt>
      <trkpt lat="47.26481" lon="-2.30819">
        <ele>33.200000762939</ele>
        <time>2021-06-20T07:45:48.000Z</time>
      </trkpt>
      <trkpt lat="47.26486" lon="-2.30829">
        <ele>32.799999237061</ele>
        <time>2021-06-20T07:45:50.000Z</time>
      </trkpt>
      <trkpt lat="47.26488" lon="-2.30834">
        <ele>32.200000762939</ele>
        <time>2021-06-20T07:45:51.000Z</time>
      </trkpt>
      <trkpt lat="47.2649" lon="-2.30838">
        <ele>31.799999237061</ele>
        <time>2021-06-20T07:45:52.000Z</time>
      </trkpt>
      <trkpt lat="47.26492" lon="-2.30843">
        <ele>31.39999961853</ele>
        <time>2021-06-20T07:45:53.000Z</time>
      </trkpt>
      <trkpt lat="47.26494" lon="-2.30847">
        <ele>31</ele>
        <time>2021-06-20T07:45:54.000Z</time>
      </trkpt>
      <trkpt lat="47.26501" lon="-2.30859">
        <ele>30.60000038147</ele>
        <time>2021-06-20T07:45:57.000Z</time>
      </trkpt>
      <trkpt lat="47.26504" lon="-2.30864">
        <ele>30.200000762939</ele>
        <time>2021-06-20T07:45:58.000Z</time>
      </trkpt>
      <trkpt lat="47.26507" lon="-2.30868">
        <ele>29.60000038147</ele>
        <time>2021-06-20T07:45:59.000Z</time>
      </trkpt>
      <trkpt lat="47.26509" lon="-2.30873">
        <ele>29.200000762939</ele>
        <time>2021-06-20T07:46:00.000Z</time>
      </trkpt>
      <trkpt lat="47.26512" lon="-2.30877">
        <ele>28.60000038147</ele>
        <time>2021-06-20T07:46:01.000Z</time>
      </trkpt>
      <trkpt lat="47.26514" lon="-2.30879">
        <ele>28</ele>
        <time>2021-06-20T07:46:02.000Z</time>
      </trkpt>
      <trkpt lat="47.26515" lon="-2.30879">
        <ele>27.60000038147</ele>
        <time>2021-06-20T07:46:03.000Z</time>
      </trkpt>
      <trkpt lat="47.26517" lon="-2.30879">
        <ele>27</ele>
        <time>2021-06-20T07:46:04.000Z</time>
      </trkpt>
      <trkpt lat="47.26519" lon="-2.30878">
        <ele>26.39999961853</ele>
        <time>2021-06-20T07:46:05.000Z</time>
      </trkpt>
      <trkpt lat="47.26522" lon="-2.30871">
        <ele>26.39999961853</ele>
        <time>2021-06-20T07:46:08.000Z</time>
      </trkpt>
      <trkpt lat="47.26524" lon="-2.30866">
        <ele>26.39999961853</ele>
        <time>2021-06-20T07:46:11.000Z</time>
      </trkpt>
      <trkpt lat="47.26524" lon="-2.30858">
        <ele>26.39999961853</ele>
        <time>2021-06-20T07:46:13.000Z</time>
      </trkpt>
      <trkpt lat="47.26528" lon="-2.30848">
        <ele>26.39999961853</ele>
        <time>2021-06-20T07:46:18.000Z</time>
      </trkpt>
      <trkpt lat="47.26529" lon="-2.30844">
        <ele>26.39999961853</ele>
        <time>2021-06-20T07:46:20.000Z</time>
      </trkpt>
      <trkpt lat="47.26531" lon="-2.30834">
        <ele>26.39999961853</ele>
        <time>2021-06-20T07:46:23.000Z</time>
      </trkpt>
      <trkpt lat="47.26531" lon="-2.30829">
        <ele>26.799999237061</ele>
        <time>2021-06-20T07:46:24.000Z</time>
      </trkpt>
      <trkpt lat="47.26531" lon="-2.30826">
        <ele>27.200000762939</ele>
        <time>2021-06-20T07:46:25.000Z</time>
      </trkpt>
      <trkpt lat="47.26532" lon="-2.30823">
        <ele>27.60000038147</ele>
        <time>2021-06-20T07:46:26.000Z</time>
      </trkpt>
      <trkpt lat="47.26533" lon="-2.30819">
        <ele>28</ele>
        <time>2021-06-20T07:46:27.000Z</time>
      </trkpt>
      <trkpt lat="47.26535" lon="-2.30816">
        <ele>28.39999961853</ele>
        <time>2021-06-20T07:46:28.000Z</time>
      </trkpt>
      <trkpt lat="47.26536" lon="-2.30812">
        <ele>28.39999961853</ele>
        <time>2021-06-20T07:46:29.000Z</time>
      </trkpt>
      <trkpt lat="47.26551" lon="-2.30793">
        <ele>28.799999237061</ele>
        <time>2021-06-20T07:46:34.000Z</time>
      </trkpt>
      <trkpt lat="47.26554" lon="-2.3079">
        <ele>29.60000038147</ele>
        <time>2021-06-20T07:46:35.000Z</time>
      </trkpt>
      <trkpt lat="47.26557" lon="-2.30787">
        <ele>30</ele>
        <time>2021-06-20T07:46:36.000Z</time>
      </trkpt>
      <trkpt lat="47.26561" lon="-2.30784">
        <ele>30.39999961853</ele>
        <time>2021-06-20T07:46:37.000Z</time>
      </trkpt>
      <trkpt lat="47.26562" lon="-2.30779">
        <ele>30.39999961853</ele>
        <time>2021-06-20T07:46:38.000Z</time>
      </trkpt>
      <trkpt lat="47.26565" lon="-2.30771">
        <ele>30.39999961853</ele>
        <time>2021-06-20T07:46:40.000Z</time>
      </trkpt>
      <trkpt lat="47.26581" lon="-2.30746">
        <ele>30.39999961853</ele>
        <time>2021-06-20T07:46:46.000Z</time>
      </trkpt>
      <trkpt lat="47.26589" lon="-2.30726">
        <ele>31</ele>
        <time>2021-06-20T07:46:51.000Z</time>
      </trkpt>
      <trkpt lat="47.2659" lon="-2.3072">
        <ele>31.39999961853</ele>
        <time>2021-06-20T07:46:52.000Z</time>
      </trkpt>
      <trkpt lat="47.26592" lon="-2.30717">
        <ele>31.799999237061</ele>
        <time>2021-06-20T07:46:53.000Z</time>
      </trkpt>
      <trkpt lat="47.26651" lon="-2.30692">
        <ele>32.200000762939</ele>
        <time>2021-06-20T07:46:54.000Z</time>
      </trkpt>
      <trkpt lat="47.26649" lon="-2.30691">
        <ele>32.599998474121</ele>
        <time>2021-06-20T07:46:55.000Z</time>
      </trkpt>
      <trkpt lat="47.26649" lon="-2.30694">
        <ele>32.599998474121</ele>
        <time>2021-06-20T07:46:56.000Z</time>
      </trkpt>
      <trkpt lat="47.26657" lon="-2.30714">
        <ele>32.599998474121</ele>
        <time>2021-06-20T07:47:00.000Z</time>
      </trkpt>
      <trkpt lat="47.26661" lon="-2.3072">
        <ele>32.599998474121</ele>
        <time>2021-06-20T07:47:01.000Z</time>
      </trkpt>
      <trkpt lat="47.26675" lon="-2.30757">
        <ele>33</ele>
        <time>2021-06-20T07:47:07.000Z</time>
      </trkpt>
      <trkpt lat="47.26677" lon="-2.30762">
        <ele>33.400001525879</ele>
        <time>2021-06-20T07:47:08.000Z</time>
      </trkpt>
      <trkpt lat="47.26679" lon="-2.30768">
        <ele>34</ele>
        <time>2021-06-20T07:47:09.000Z</time>
      </trkpt>
      <trkpt lat="47.26681" lon="-2.30774">
        <ele>34.400001525879</ele>
        <time>2021-06-20T07:47:10.000Z</time>
      </trkpt>
      <trkpt lat="47.26683" lon="-2.3078">
        <ele>34.799999237061</ele>
        <time>2021-06-20T07:47:11.000Z</time>
      </trkpt>
      <trkpt lat="47.26691" lon="-2.30804">
        <ele>34.799999237061</ele>
        <time>2021-06-20T07:47:15.000Z</time>
      </trkpt>
      <trkpt lat="47.26697" lon="-2.30822">
        <ele>35.200000762939</ele>
        <time>2021-06-20T07:47:18.000Z</time>
      </trkpt>
      <trkpt lat="47.26699" lon="-2.30827">
        <ele>35.599998474121</ele>
        <time>2021-06-20T07:47:19.000Z</time>
      </trkpt>
      <trkpt lat="47.26702" lon="-2.30832">
        <ele>36</ele>
        <time>2021-06-20T07:47:20.000Z</time>
      </trkpt>
      <trkpt lat="47.26704" lon="-2.30837">
        <ele>36.400001525879</ele>
        <time>2021-06-20T07:47:21.000Z</time>
      </trkpt>
      <trkpt lat="47.26708" lon="-2.30842">
        <ele>36.799999237061</ele>
        <time>2021-06-20T07:47:22.000Z</time>
      </trkpt>
      <trkpt lat="47.26727" lon="-2.3087">
        <ele>36.799999237061</ele>
        <time>2021-06-20T07:47:28.000Z</time>
      </trkpt>
      <trkpt lat="47.26729" lon="-2.30872">
        <ele>36.799999237061</ele>
        <time>2021-06-20T07:47:29.000Z</time>
      </trkpt>
      <trkpt lat="47.26738" lon="-2.30866">
        <ele>36.799999237061</ele>
        <time>2021-06-20T07:47:31.000Z</time>
      </trkpt>
      <trkpt lat="47.26763" lon="-2.30844">
        <ele>36.799999237061</ele>
        <time>2021-06-20T07:47:36.000Z</time>
      </trkpt>
      <trkpt lat="47.26788" lon="-2.3082">
        <ele>36.799999237061</ele>
        <time>2021-06-20T07:47:42.000Z</time>
      </trkpt>
      <trkpt lat="47.26816" lon="-2.30796">
        <ele>36.799999237061</ele>
        <time>2021-06-20T07:47:50.000Z</time>
      </trkpt>
      <trkpt lat="47.2683" lon="-2.3079">
        <ele>36.799999237061</ele>
        <time>2021-06-20T07:47:55.000Z</time>
      </trkpt>
      <trkpt lat="47.26832" lon="-2.30786">
        <ele>36.799999237061</ele>
        <time>2021-06-20T07:47:57.000Z</time>
      </trkpt>
      <trkpt lat="47.26833" lon="-2.30778">
        <ele>36.799999237061</ele>
        <time>2021-06-20T07:47:59.000Z</time>
      </trkpt>
      <trkpt lat="47.26839" lon="-2.30767">
        <ele>36.799999237061</ele>
        <time>2021-06-20T07:48:02.000Z</time>
      </trkpt>
      <trkpt lat="47.26845" lon="-2.30748">
        <ele>36.799999237061</ele>
        <time>2021-06-20T07:48:06.000Z</time>
      </trkpt>
      <trkpt lat="47.26855" lon="-2.30716">
        <ele>36.799999237061</ele>
        <time>2021-06-20T07:48:11.000Z</time>
      </trkpt>
      <trkpt lat="47.26874" lon="-2.30678">
        <ele>36.799999237061</ele>
        <time>2021-06-20T07:48:18.000Z</time>
      </trkpt>
      <trkpt lat="47.26882" lon="-2.30668">
        <ele>36.799999237061</ele>
        <time>2021-06-20T07:48:20.000Z</time>
      </trkpt>
      <trkpt lat="47.26901" lon="-2.30651">
        <ele>36.799999237061</ele>
        <time>2021-06-20T07:48:24.000Z</time>
      </trkpt>
      <trkpt lat="47.26906" lon="-2.30648">
        <ele>36.799999237061</ele>
        <time>2021-06-20T07:48:25.000Z</time>
      </trkpt>
      <trkpt lat="47.26923" lon="-2.30635">
        <ele>36.799999237061</ele>
        <time>2021-06-20T07:48:29.000Z</time>
      </trkpt>
      <trkpt lat="47.2693" lon="-2.30634">
        <ele>36.799999237061</ele>
        <time>2021-06-20T07:48:30.000Z</time>
      </trkpt>
      <trkpt lat="47.26947" lon="-2.30629">
        <ele>36.799999237061</ele>
        <time>2021-06-20T07:48:33.000Z</time>
      </trkpt>
      <trkpt lat="47.2697" lon="-2.30619">
        <ele>36.799999237061</ele>
        <time>2021-06-20T07:48:37.000Z</time>
      </trkpt>
      <trkpt lat="47.26982" lon="-2.30612">
        <ele>36.799999237061</ele>
        <time>2021-06-20T07:48:39.000Z</time>
      </trkpt>
      <trkpt lat="47.26994" lon="-2.30605">
        <ele>36.799999237061</ele>
        <time>2021-06-20T07:48:41.000Z</time>
      </trkpt>
      <trkpt lat="47.27009" lon="-2.30587">
        <ele>36.799999237061</ele>
        <time>2021-06-20T07:48:44.000Z</time>
      </trkpt>
      <trkpt lat="47.27019" lon="-2.30554">
        <ele>36.799999237061</ele>
        <time>2021-06-20T07:48:48.000Z</time>
      </trkpt>
      <trkpt lat="47.27022" lon="-2.30546">
        <ele>36.799999237061</ele>
        <time>2021-06-20T07:48:49.000Z</time>
      </trkpt>
      <trkpt lat="47.27034" lon="-2.30498">
        <ele>36.799999237061</ele>
        <time>2021-06-20T07:48:55.000Z</time>
      </trkpt>
      <trkpt lat="47.27044" lon="-2.30457">
        <ele>36.799999237061</ele>
        <time>2021-06-20T07:49:00.000Z</time>
      </trkpt>
      <trkpt lat="47.27046" lon="-2.30449">
        <ele>36.799999237061</ele>
        <time>2021-06-20T07:49:01.000Z</time>
      </trkpt>
      <trkpt lat="47.27051" lon="-2.30389">
        <ele>36.799999237061</ele>
        <time>2021-06-20T07:49:08.000Z</time>
      </trkpt>
      <trkpt lat="47.27059" lon="-2.30342">
        <ele>36.799999237061</ele>
        <time>2021-06-20T07:49:14.000Z</time>
      </trkpt>
      <trkpt lat="47.27062" lon="-2.30321">
        <ele>36.799999237061</ele>
        <time>2021-06-20T07:49:17.000Z</time>
      </trkpt>
      <trkpt lat="47.27067" lon="-2.30295">
        <ele>36.799999237061</ele>
        <time>2021-06-20T07:49:21.000Z</time>
      </trkpt>
      <trkpt lat="47.27077" lon="-2.3027">
        <ele>36.400001525879</ele>
        <time>2021-06-20T07:49:26.000Z</time>
      </trkpt>
      <trkpt lat="47.27079" lon="-2.30267">
        <ele>36</ele>
        <time>2021-06-20T07:49:27.000Z</time>
      </trkpt>
      <trkpt lat="47.27082" lon="-2.30265">
        <ele>35.599998474121</ele>
        <time>2021-06-20T07:49:28.000Z</time>
      </trkpt>
      <trkpt lat="47.27085" lon="-2.30264">
        <ele>34.599998474121</ele>
        <time>2021-06-20T07:49:29.000Z</time>
      </trkpt>
      <trkpt lat="47.27091" lon="-2.30262">
        <ele>34.599998474121</ele>
        <time>2021-06-20T07:49:31.000Z</time>
      </trkpt>
      <trkpt lat="47.27105" lon="-2.30253">
        <ele>34.599998474121</ele>
        <time>2021-06-20T07:49:36.000Z</time>
      </trkpt>
      <trkpt lat="47.2711" lon="-2.30249">
        <ele>34.599998474121</ele>
        <time>2021-06-20T07:49:38.000Z</time>
      </trkpt>
      <trkpt lat="47.27113" lon="-2.30244">
        <ele>34.599998474121</ele>
        <time>2021-06-20T07:49:40.000Z</time>
      </trkpt>
      <trkpt lat="47.27132" lon="-2.30235">
        <ele>34.599998474121</ele>
        <time>2021-06-20T07:49:46.000Z</time>
      </trkpt>
      <trkpt lat="47.27143" lon="-2.30231">
        <ele>34.599998474121</ele>
        <time>2021-06-20T07:49:50.000Z</time>
      </trkpt>
      <trkpt lat="47.27146" lon="-2.30228">
        <ele>34.599998474121</ele>
        <time>2021-06-20T07:49:51.000Z</time>
      </trkpt>
      <trkpt lat="47.27152" lon="-2.3021">
        <ele>34.599998474121</ele>
        <time>2021-06-20T07:49:55.000Z</time>
      </trkpt>
      <trkpt lat="47.27152" lon="-2.30176">
        <ele>34.599998474121</ele>
        <time>2021-06-20T07:50:01.000Z</time>
      </trkpt>
      <trkpt lat="47.2715" lon="-2.30143">
        <ele>34.599998474121</ele>
        <time>2021-06-20T07:50:06.000Z</time>
      </trkpt>
      <trkpt lat="47.27147" lon="-2.30127">
        <ele>34.599998474121</ele>
        <time>2021-06-20T07:50:09.000Z</time>
      </trkpt>
      <trkpt lat="47.27144" lon="-2.30125">
        <ele>35</ele>
        <time>2021-06-20T07:50:10.000Z</time>
      </trkpt>
      <trkpt lat="47.27142" lon="-2.30122">
        <ele>35.400001525879</ele>
        <time>2021-06-20T07:50:11.000Z</time>
      </trkpt>
      <trkpt lat="47.27139" lon="-2.3012">
        <ele>35.799999237061</ele>
        <time>2021-06-20T07:50:12.000Z</time>
      </trkpt>
      <trkpt lat="47.27136" lon="-2.30119">
        <ele>36.200000762939</ele>
        <time>2021-06-20T07:50:13.000Z</time>
      </trkpt>
      <trkpt lat="47.27133" lon="-2.30118">
        <ele>36.599998474121</ele>
        <time>2021-06-20T07:50:14.000Z</time>
      </trkpt>
      <trkpt lat="47.27129" lon="-2.30117">
        <ele>36.599998474121</ele>
        <time>2021-06-20T07:50:15.000Z</time>
      </trkpt>
      <trkpt lat="47.27106" lon="-2.30105">
        <ele>36.599998474121</ele>
        <time>2021-06-20T07:50:21.000Z</time>
      </trkpt>
      <trkpt lat="47.27084" lon="-2.30083">
        <ele>37</ele>
        <time>2021-06-20T07:50:27.000Z</time>
      </trkpt>
      <trkpt lat="47.2708" lon="-2.3008">
        <ele>37.400001525879</ele>
        <time>2021-06-20T07:50:28.000Z</time>
      </trkpt>
      <trkpt lat="47.27077" lon="-2.30077">
        <ele>37.799999237061</ele>
        <time>2021-06-20T07:50:29.000Z</time>
      </trkpt>
      <trkpt lat="47.27073" lon="-2.30074">
        <ele>38.200000762939</ele>
        <time>2021-06-20T07:50:30.000Z</time>
      </trkpt>
      <trkpt lat="47.27069" lon="-2.30072">
        <ele>38.599998474121</ele>
        <time>2021-06-20T07:50:31.000Z</time>
      </trkpt>
      <trkpt lat="47.27065" lon="-2.30069">
        <ele>38.599998474121</ele>
        <time>2021-06-20T07:50:32.000Z</time>
      </trkpt>
      <trkpt lat="47.27038" lon="-2.30062">
        <ele>38.599998474121</ele>
        <time>2021-06-20T07:50:39.000Z</time>
      </trkpt>
      <trkpt lat="47.27022" lon="-2.30064">
        <ele>38.599998474121</ele>
        <time>2021-06-20T07:50:44.000Z</time>
      </trkpt>
      <trkpt lat="47.27019" lon="-2.30063">
        <ele>38.599998474121</ele>
        <time>2021-06-20T07:50:45.000Z</time>
      </trkpt>
      <trkpt lat="47.27015" lon="-2.30058">
        <ele>38.599998474121</ele>
        <time>2021-06-20T07:50:47.000Z</time>
      </trkpt>
      <trkpt lat="47.27013" lon="-2.30036">
        <ele>38.599998474121</ele>
        <time>2021-06-20T07:50:52.000Z</time>
      </trkpt>
      <trkpt lat="47.27013" lon="-2.30031">
        <ele>39</ele>
        <time>2021-06-20T07:50:53.000Z</time>
      </trkpt>
      <trkpt lat="47.27014" lon="-2.30025">
        <ele>39.400001525879</ele>
        <time>2021-06-20T07:50:54.000Z</time>
      </trkpt>
      <trkpt lat="47.27017" lon="-2.30019">
        <ele>39.799999237061</ele>
        <time>2021-06-20T07:50:55.000Z</time>
      </trkpt>
      <trkpt lat="47.27019" lon="-2.30013">
        <ele>40.200000762939</ele>
        <time>2021-06-20T07:50:56.000Z</time>
      </trkpt>
      <trkpt lat="47.2702" lon="-2.30007">
        <ele>40.599998474121</ele>
        <time>2021-06-20T07:50:57.000Z</time>
      </trkpt>
      <trkpt lat="47.27033" lon="-2.29971">
        <ele>40.599998474121</ele>
        <time>2021-06-20T07:51:04.000Z</time>
      </trkpt>
      <trkpt lat="47.27044" lon="-2.29937">
        <ele>40.599998474121</ele>
        <time>2021-06-20T07:51:11.000Z</time>
      </trkpt>
      <trkpt lat="47.2706" lon="-2.29911">
        <ele>40.599998474121</ele>
        <time>2021-06-20T07:51:17.000Z</time>
      </trkpt>
      <trkpt lat="47.27063" lon="-2.29906">
        <ele>40.599998474121</ele>
        <time>2021-06-20T07:51:18.000Z</time>
      </trkpt>
      <trkpt lat="47.27071" lon="-2.29885">
        <ele>40.599998474121</ele>
        <time>2021-06-20T07:51:22.000Z</time>
      </trkpt>
      <trkpt lat="47.27091" lon="-2.29843">
        <ele>40.599998474121</ele>
        <time>2021-06-20T07:51:29.000Z</time>
      </trkpt>
      <trkpt lat="47.271" lon="-2.29807">
        <ele>40.599998474121</ele>
        <time>2021-06-20T07:51:35.000Z</time>
      </trkpt>
      <trkpt lat="47.27106" lon="-2.2975">
        <ele>40.599998474121</ele>
        <time>2021-06-20T07:51:43.000Z</time>
      </trkpt>
      <trkpt lat="47.27111" lon="-2.29698">
        <ele>40.599998474121</ele>
        <time>2021-06-20T07:51:50.000Z</time>
      </trkpt>
      <trkpt lat="47.27112" lon="-2.29671">
        <ele>40.599998474121</ele>
        <time>2021-06-20T07:51:55.000Z</time>
      </trkpt>
      <trkpt lat="47.27112" lon="-2.29669">
        <ele>40.599998474121</ele>
        <time>2021-06-20T07:51:57.000Z</time>
      </trkpt>
      <trkpt lat="47.27113" lon="-2.29665">
        <ele>40.599998474121</ele>
        <time>2021-06-20T07:52:05.000Z</time>
      </trkpt>
      <trkpt lat="47.27115" lon="-2.29656">
        <ele>40.599998474121</ele>
        <time>2021-06-20T07:52:07.000Z</time>
      </trkpt>
      <trkpt lat="47.27121" lon="-2.29651">
        <ele>40.599998474121</ele>
        <time>2021-06-20T07:52:09.000Z</time>
      </trkpt>
      <trkpt lat="47.27145" lon="-2.29646">
        <ele>40.599998474121</ele>
        <time>2021-06-20T07:52:14.000Z</time>
      </trkpt>
      <trkpt lat="47.27152" lon="-2.29641">
        <ele>40.599998474121</ele>
        <time>2021-06-20T07:52:16.000Z</time>
      </trkpt>
      <trkpt lat="47.27159" lon="-2.29634">
        <ele>40.599998474121</ele>
        <time>2021-06-20T07:52:18.000Z</time>
      </trkpt>
      <trkpt lat="47.27177" lon="-2.29614">
        <ele>40.599998474121</ele>
        <time>2021-06-20T07:52:23.000Z</time>
      </trkpt>
      <trkpt lat="47.2718" lon="-2.2961">
        <ele>40.599998474121</ele>
        <time>2021-06-20T07:52:24.000Z</time>
      </trkpt>
      <trkpt lat="47.27191" lon="-2.29598">
        <ele>40.599998474121</ele>
        <time>2021-06-20T07:52:27.000Z</time>
      </trkpt>
      <trkpt lat="47.27207" lon="-2.2959">
        <ele>40.599998474121</ele>
        <time>2021-06-20T07:52:29.000Z</time>
      </trkpt>
      <trkpt lat="47.27212" lon="-2.29585">
        <ele>40.599998474121</ele>
        <time>2021-06-20T07:52:30.000Z</time>
      </trkpt>
      <trkpt lat="47.27226" lon="-2.29565">
        <ele>40.599998474121</ele>
        <time>2021-06-20T07:52:33.000Z</time>
      </trkpt>
      <trkpt lat="47.2724" lon="-2.2953">
        <ele>40.599998474121</ele>
        <time>2021-06-20T07:52:37.000Z</time>
      </trkpt>
      <trkpt lat="47.27242" lon="-2.29522">
        <ele>40.599998474121</ele>
        <time>2021-06-20T07:52:38.000Z</time>
      </trkpt>
      <trkpt lat="47.27243" lon="-2.29515">
        <ele>40.599998474121</ele>
        <time>2021-06-20T07:52:39.000Z</time>
      </trkpt>
      <trkpt lat="47.27243" lon="-2.29499">
        <ele>40.599998474121</ele>
        <time>2021-06-20T07:52:41.000Z</time>
      </trkpt>
      <trkpt lat="47.27239" lon="-2.29444">
        <ele>40.599998474121</ele>
        <time>2021-06-20T07:52:47.000Z</time>
      </trkpt>
      <trkpt lat="47.27227" lon="-2.29416">
        <ele>40.599998474121</ele>
        <time>2021-06-20T07:52:50.000Z</time>
      </trkpt>
      <trkpt lat="47.27216" lon="-2.29399">
        <ele>40.599998474121</ele>
        <time>2021-06-20T07:52:52.000Z</time>
      </trkpt>
      <trkpt lat="47.27188" lon="-2.29355">
        <ele>40.599998474121</ele>
        <time>2021-06-20T07:52:58.000Z</time>
      </trkpt>
      <trkpt lat="47.27183" lon="-2.29349">
        <ele>40.599998474121</ele>
        <time>2021-06-20T07:52:59.000Z</time>
      </trkpt>
      <trkpt lat="47.27161" lon="-2.2932">
        <ele>40.599998474121</ele>
        <time>2021-06-20T07:53:04.000Z</time>
      </trkpt>
      <trkpt lat="47.27153" lon="-2.29296">
        <ele>40.599998474121</ele>
        <time>2021-06-20T07:53:08.000Z</time>
      </trkpt>
      <trkpt lat="47.27146" lon="-2.29254">
        <ele>40.599998474121</ele>
        <time>2021-06-20T07:53:15.000Z</time>
      </trkpt>
      <trkpt lat="47.27144" lon="-2.29246">
        <ele>40.200000762939</ele>
        <time>2021-06-20T07:53:17.000Z</time>
      </trkpt>
      <trkpt lat="47.27143" lon="-2.29242">
        <ele>39.799999237061</ele>
        <time>2021-06-20T07:53:18.000Z</time>
      </trkpt>
      <trkpt lat="47.27141" lon="-2.29239">
        <ele>39.400001525879</ele>
        <time>2021-06-20T07:53:19.000Z</time>
      </trkpt>
      <trkpt lat="47.2714" lon="-2.29235">
        <ele>39</ele>
        <time>2021-06-20T07:53:20.000Z</time>
      </trkpt>
      <trkpt lat="47.27138" lon="-2.29231">
        <ele>38.599998474121</ele>
        <time>2021-06-20T07:53:21.000Z</time>
      </trkpt>
      <trkpt lat="47.27132" lon="-2.29212">
        <ele>38.599998474121</ele>
        <time>2021-06-20T07:53:25.000Z</time>
      </trkpt>
      <trkpt lat="47.2713" lon="-2.29182">
        <ele>38.599998474121</ele>
        <time>2021-06-20T07:53:31.000Z</time>
      </trkpt>
      <trkpt lat="47.27134" lon="-2.29167">
        <ele>38.599998474121</ele>
        <time>2021-06-20T07:53:36.000Z</time>
      </trkpt>
      <trkpt lat="47.27134" lon="-2.29144">
        <ele>38.599998474121</ele>
        <time>2021-06-20T07:53:42.000Z</time>
      </trkpt>
      <trkpt lat="47.27139" lon="-2.29134">
        <ele>38.599998474121</ele>
        <time>2021-06-20T07:53:44.000Z</time>
      </trkpt>
      <trkpt lat="47.27142" lon="-2.29129">
        <ele>38.599998474121</ele>
        <time>2021-06-20T07:53:45.000Z</time>
      </trkpt>
      <trkpt lat="47.27155" lon="-2.2911">
        <ele>38.599998474121</ele>
        <time>2021-06-20T07:53:48.000Z</time>
      </trkpt>
      <trkpt lat="47.27159" lon="-2.29106">
        <ele>38.599998474121</ele>
        <time>2021-06-20T07:53:49.000Z</time>
      </trkpt>
      <trkpt lat="47.27163" lon="-2.29101">
        <ele>38.599998474121</ele>
        <time>2021-06-20T07:53:50.000Z</time>
      </trkpt>
      <trkpt lat="47.27175" lon="-2.29085">
        <ele>38.599998474121</ele>
        <time>2021-06-20T07:53:53.000Z</time>
      </trkpt>
      <trkpt lat="47.27188" lon="-2.29073">
        <ele>38.599998474121</ele>
        <time>2021-06-20T07:53:56.000Z</time>
      </trkpt>
      <trkpt lat="47.27198" lon="-2.29063">
        <ele>38.599998474121</ele>
        <time>2021-06-20T07:53:58.000Z</time>
      </trkpt>
      <trkpt lat="47.27219" lon="-2.29038">
        <ele>38.599998474121</ele>
        <time>2021-06-20T07:54:02.000Z</time>
      </trkpt>
      <trkpt lat="47.27222" lon="-2.2903">
        <ele>38.599998474121</ele>
        <time>2021-06-20T07:54:03.000Z</time>
      </trkpt>
      <trkpt lat="47.27238" lon="-2.28995">
        <ele>38.599998474121</ele>
        <time>2021-06-20T07:54:08.000Z</time>
      </trkpt>
      <trkpt lat="47.27249" lon="-2.28978">
        <ele>38.599998474121</ele>
        <time>2021-06-20T07:54:12.000Z</time>
      </trkpt>
      <trkpt lat="47.27261" lon="-2.28956">
        <ele>38.599998474121</ele>
        <time>2021-06-20T07:54:17.000Z</time>
      </trkpt>
      <trkpt lat="47.27272" lon="-2.28962">
        <ele>38.599998474121</ele>
        <time>2021-06-20T07:54:20.000Z</time>
      </trkpt>
      <trkpt lat="47.27275" lon="-2.28963">
        <ele>38.599998474121</ele>
        <time>2021-06-20T07:54:21.000Z</time>
      </trkpt>
      <trkpt lat="47.2729" lon="-2.28957">
        <ele>38.200000762939</ele>
        <time>2021-06-20T07:54:23.000Z</time>
      </trkpt>
      <trkpt lat="47.27297" lon="-2.28952">
        <ele>37.799999237061</ele>
        <time>2021-06-20T07:54:24.000Z</time>
      </trkpt>
      <trkpt lat="47.27301" lon="-2.28947">
        <ele>37.400001525879</ele>
        <time>2021-06-20T07:54:25.000Z</time>
      </trkpt>
      <trkpt lat="47.27304" lon="-2.28942">
        <ele>36.599998474121</ele>
        <time>2021-06-20T07:54:26.000Z</time>
      </trkpt>
      <trkpt lat="47.27305" lon="-2.28936">
        <ele>36.599998474121</ele>
        <time>2021-06-20T07:54:27.000Z</time>
      </trkpt>
      <trkpt lat="47.2731" lon="-2.2891">
        <ele>36.599998474121</ele>
        <time>2021-06-20T07:54:30.000Z</time>
      </trkpt>
      <trkpt lat="47.27326" lon="-2.28851">
        <ele>36.599998474121</ele>
        <time>2021-06-20T07:54:36.000Z</time>
      </trkpt>
      <trkpt lat="47.2734" lon="-2.28788">
        <ele>36.599998474121</ele>
        <time>2021-06-20T07:54:43.000Z</time>
      </trkpt>
      <trkpt lat="47.27354" lon="-2.28746">
        <ele>36.599998474121</ele>
        <time>2021-06-20T07:54:48.000Z</time>
      </trkpt>
      <trkpt lat="47.2736" lon="-2.2873">
        <ele>36.599998474121</ele>
        <time>2021-06-20T07:54:50.000Z</time>
      </trkpt>
      <trkpt lat="47.27384" lon="-2.28682">
        <ele>36.599998474121</ele>
        <time>2021-06-20T07:54:56.000Z</time>
      </trkpt>
      <trkpt lat="47.27398" lon="-2.28659">
        <ele>36.599998474121</ele>
        <time>2021-06-20T07:54:59.000Z</time>
      </trkpt>
      <trkpt lat="47.27418" lon="-2.28634">
        <ele>36.599998474121</ele>
        <time>2021-06-20T07:55:02.000Z</time>
      </trkpt>
      <trkpt lat="47.27439" lon="-2.28607">
        <ele>36.599998474121</ele>
        <time>2021-06-20T07:55:05.000Z</time>
      </trkpt>
      <trkpt lat="47.27446" lon="-2.2859">
        <ele>36.599998474121</ele>
        <time>2021-06-20T07:55:07.000Z</time>
      </trkpt>
      <trkpt lat="47.27466" lon="-2.28547">
        <ele>36.599998474121</ele>
        <time>2021-06-20T07:55:12.000Z</time>
      </trkpt>
      <trkpt lat="47.27486" lon="-2.28502">
        <ele>36.599998474121</ele>
        <time>2021-06-20T07:55:18.000Z</time>
      </trkpt>
      <trkpt lat="47.27501" lon="-2.2846">
        <ele>36.599998474121</ele>
        <time>2021-06-20T07:55:24.000Z</time>
      </trkpt>
      <trkpt lat="47.27506" lon="-2.28447">
        <ele>36.599998474121</ele>
        <time>2021-06-20T07:55:26.000Z</time>
      </trkpt>
      <trkpt lat="47.27517" lon="-2.28423">
        <ele>36.599998474121</ele>
        <time>2021-06-20T07:55:30.000Z</time>
      </trkpt>
      <trkpt lat="47.2752" lon="-2.28417">
        <ele>37</ele>
        <time>2021-06-20T07:55:31.000Z</time>
      </trkpt>
      <trkpt lat="47.27524" lon="-2.28413">
        <ele>37.400001525879</ele>
        <time>2021-06-20T07:55:32.000Z</time>
      </trkpt>
      <trkpt lat="47.27527" lon="-2.28408">
        <ele>37.799999237061</ele>
        <time>2021-06-20T07:55:33.000Z</time>
      </trkpt>
      <trkpt lat="47.27531" lon="-2.28404">
        <ele>38.200000762939</ele>
        <time>2021-06-20T07:55:34.000Z</time>
      </trkpt>
      <trkpt lat="47.27534" lon="-2.28399">
        <ele>38.599998474121</ele>
        <time>2021-06-20T07:55:35.000Z</time>
      </trkpt>
      <trkpt lat="47.27538" lon="-2.28394">
        <ele>38.599998474121</ele>
        <time>2021-06-20T07:55:36.000Z</time>
      </trkpt>
      <trkpt lat="47.27545" lon="-2.28385">
        <ele>38.599998474121</ele>
        <time>2021-06-20T07:55:38.000Z</time>
      </trkpt>
      <trkpt lat="47.27559" lon="-2.28363">
        <ele>38.599998474121</ele>
        <time>2021-06-20T07:55:42.000Z</time>
      </trkpt>
      <trkpt lat="47.27587" lon="-2.28325">
        <ele>38.599998474121</ele>
        <time>2021-06-20T07:55:49.000Z</time>
      </trkpt>
      <trkpt lat="47.27608" lon="-2.28306">
        <ele>38.599998474121</ele>
        <time>2021-06-20T07:55:55.000Z</time>
      </trkpt>
      <trkpt lat="47.2762" lon="-2.28286">
        <ele>38.599998474121</ele>
        <time>2021-06-20T07:56:01.000Z</time>
      </trkpt>
      <trkpt lat="47.27623" lon="-2.28281">
        <ele>38.599998474121</ele>
        <time>2021-06-20T07:56:02.000Z</time>
      </trkpt>
      <trkpt lat="47.27632" lon="-2.28265">
        <ele>38.599998474121</ele>
        <time>2021-06-20T07:56:05.000Z</time>
      </trkpt>
      <trkpt lat="47.27646" lon="-2.28243">
        <ele>38.599998474121</ele>
        <time>2021-06-20T07:56:09.000Z</time>
      </trkpt>
      <trkpt lat="47.27655" lon="-2.2823">
        <ele>38.599998474121</ele>
        <time>2021-06-20T07:56:11.000Z</time>
      </trkpt>
      <trkpt lat="47.27678" lon="-2.28191">
        <ele>38.599998474121</ele>
        <time>2021-06-20T07:56:17.000Z</time>
      </trkpt>
      <trkpt lat="47.27689" lon="-2.28169">
        <ele>38.599998474121</ele>
        <time>2021-06-20T07:56:20.000Z</time>
      </trkpt>
      <trkpt lat="47.27698" lon="-2.28144">
        <ele>38.599998474121</ele>
        <time>2021-06-20T07:56:23.000Z</time>
      </trkpt>
      <trkpt lat="47.27715" lon="-2.28099">
        <ele>38.599998474121</ele>
        <time>2021-06-20T07:56:28.000Z</time>
      </trkpt>
      <trkpt lat="47.27729" lon="-2.28035">
        <ele>38.599998474121</ele>
        <time>2021-06-20T07:56:35.000Z</time>
      </trkpt>
      <trkpt lat="47.27745" lon="-2.27961">
        <ele>38.599998474121</ele>
        <time>2021-06-20T07:56:44.000Z</time>
      </trkpt>
      <trkpt lat="47.27751" lon="-2.27926">
        <ele>38.599998474121</ele>
        <time>2021-06-20T07:56:50.000Z</time>
      </trkpt>
      <trkpt lat="47.2776" lon="-2.27903">
        <ele>38.599998474121</ele>
        <time>2021-06-20T07:56:53.000Z</time>
      </trkpt>
      <trkpt lat="47.27768" lon="-2.27888">
        <ele>38.599998474121</ele>
        <time>2021-06-20T07:56:55.000Z</time>
      </trkpt>
      <trkpt lat="47.27795" lon="-2.27841">
        <ele>38.599998474121</ele>
        <time>2021-06-20T07:57:01.000Z</time>
      </trkpt>
      <trkpt lat="47.27818" lon="-2.27791">
        <ele>38.599998474121</ele>
        <time>2021-06-20T07:57:07.000Z</time>
      </trkpt>
      <trkpt lat="47.2785" lon="-2.27733">
        <ele>38.599998474121</ele>
        <time>2021-06-20T07:57:14.000Z</time>
      </trkpt>
      <trkpt lat="47.27881" lon="-2.27669">
        <ele>38.599998474121</ele>
        <time>2021-06-20T07:57:22.000Z</time>
      </trkpt>
      <trkpt lat="47.27898" lon="-2.27612">
        <ele>38.599998474121</ele>
        <time>2021-06-20T07:57:29.000Z</time>
      </trkpt>
      <trkpt lat="47.27909" lon="-2.27582">
        <ele>38.599998474121</ele>
        <time>2021-06-20T07:57:33.000Z</time>
      </trkpt>
      <trkpt lat="47.27913" lon="-2.27575">
        <ele>38.599998474121</ele>
        <time>2021-06-20T07:57:34.000Z</time>
      </trkpt>
      <trkpt lat="47.27917" lon="-2.2757">
        <ele>38.200000762939</ele>
        <time>2021-06-20T07:57:35.000Z</time>
      </trkpt>
      <trkpt lat="47.2792" lon="-2.27566">
        <ele>37.799999237061</ele>
        <time>2021-06-20T07:57:36.000Z</time>
      </trkpt>
      <trkpt lat="47.27925" lon="-2.27564">
        <ele>37.400001525879</ele>
        <time>2021-06-20T07:57:37.000Z</time>
      </trkpt>
      <trkpt lat="47.27929" lon="-2.27562">
        <ele>37</ele>
        <time>2021-06-20T07:57:38.000Z</time>
      </trkpt>
      <trkpt lat="47.27934" lon="-2.2756">
        <ele>36.599998474121</ele>
        <time>2021-06-20T07:57:39.000Z</time>
      </trkpt>
      <trkpt lat="47.27946" lon="-2.27556">
        <ele>36.599998474121</ele>
        <time>2021-06-20T07:57:42.000Z</time>
      </trkpt>
      <trkpt lat="47.27966" lon="-2.27554">
        <ele>36.599998474121</ele>
        <time>2021-06-20T07:57:46.000Z</time>
      </trkpt>
      <trkpt lat="47.27988" lon="-2.27554">
        <ele>37</ele>
        <time>2021-06-20T07:57:50.000Z</time>
      </trkpt>
      <trkpt lat="47.27993" lon="-2.27554">
        <ele>37.400001525879</ele>
        <time>2021-06-20T07:57:51.000Z</time>
      </trkpt>
      <trkpt lat="47.27999" lon="-2.27555">
        <ele>38</ele>
        <time>2021-06-20T07:57:52.000Z</time>
      </trkpt>
      <trkpt lat="47.28004" lon="-2.27555">
        <ele>38.400001525879</ele>
        <time>2021-06-20T07:57:53.000Z</time>
      </trkpt>
      <trkpt lat="47.2801" lon="-2.27556">
        <ele>38.799999237061</ele>
        <time>2021-06-20T07:57:54.000Z</time>
      </trkpt>
      <trkpt lat="47.28026" lon="-2.27555">
        <ele>38.799999237061</ele>
        <time>2021-06-20T07:57:57.000Z</time>
      </trkpt>
      <trkpt lat="47.28036" lon="-2.27554">
        <ele>39.200000762939</ele>
        <time>2021-06-20T07:57:59.000Z</time>
      </trkpt>
      <trkpt lat="47.28041" lon="-2.27554">
        <ele>39.599998474121</ele>
        <time>2021-06-20T07:58:00.000Z</time>
      </trkpt>
      <trkpt lat="47.28045" lon="-2.27552">
        <ele>40</ele>
        <time>2021-06-20T07:58:01.000Z</time>
      </trkpt>
      <trkpt lat="47.2805" lon="-2.27549">
        <ele>40.400001525879</ele>
        <time>2021-06-20T07:58:02.000Z</time>
      </trkpt>
      <trkpt lat="47.28055" lon="-2.27546">
        <ele>40.799999237061</ele>
        <time>2021-06-20T07:58:03.000Z</time>
      </trkpt>
      <trkpt lat="47.28059" lon="-2.27542">
        <ele>40.799999237061</ele>
        <time>2021-06-20T07:58:04.000Z</time>
      </trkpt>
      <trkpt lat="47.28063" lon="-2.27538">
        <ele>40.799999237061</ele>
        <time>2021-06-20T07:58:05.000Z</time>
      </trkpt>
      <trkpt lat="47.2807" lon="-2.27528">
        <ele>40.799999237061</ele>
        <time>2021-06-20T07:58:07.000Z</time>
      </trkpt>
      <trkpt lat="47.28072" lon="-2.27523">
        <ele>40.799999237061</ele>
        <time>2021-06-20T07:58:08.000Z</time>
      </trkpt>
      <trkpt lat="47.28075" lon="-2.27517">
        <ele>41.799999237061</ele>
        <time>2021-06-20T07:58:09.000Z</time>
      </trkpt>
      <trkpt lat="47.28078" lon="-2.27511">
        <ele>42.200000762939</ele>
        <time>2021-06-20T07:58:10.000Z</time>
      </trkpt>
      <trkpt lat="47.2808" lon="-2.27504">
        <ele>42.599998474121</ele>
        <time>2021-06-20T07:58:11.000Z</time>
      </trkpt>
      <trkpt lat="47.28082" lon="-2.27498">
        <ele>43</ele>
        <time>2021-06-20T07:58:12.000Z</time>
      </trkpt>
      <trkpt lat="47.28091" lon="-2.27473">
        <ele>43.400001525879</ele>
        <time>2021-06-20T07:58:16.000Z</time>
      </trkpt>
      <trkpt lat="47.28093" lon="-2.27466">
        <ele>43.799999237061</ele>
        <time>2021-06-20T07:58:17.000Z</time>
      </trkpt>
      <trkpt lat="47.28096" lon="-2.27459">
        <ele>44.400001525879</ele>
        <time>2021-06-20T07:58:18.000Z</time>
      </trkpt>
      <trkpt lat="47.28098" lon="-2.27452">
        <ele>44.799999237061</ele>
        <time>2021-06-20T07:58:19.000Z</time>
      </trkpt>
      <trkpt lat="47.28101" lon="-2.27446">
        <ele>45.200000762939</ele>
        <time>2021-06-20T07:58:20.000Z</time>
      </trkpt>
      <trkpt lat="47.28111" lon="-2.27418">
        <ele>45.599998474121</ele>
        <time>2021-06-20T07:58:24.000Z</time>
      </trkpt>
      <trkpt lat="47.28113" lon="-2.27412">
        <ele>46</ele>
        <time>2021-06-20T07:58:25.000Z</time>
      </trkpt>
      <trkpt lat="47.28116" lon="-2.27405">
        <ele>46.400001525879</ele>
        <time>2021-06-20T07:58:26.000Z</time>
      </trkpt>
      <trkpt lat="47.28118" lon="-2.27398">
        <ele>46.799999237061</ele>
        <time>2021-06-20T07:58:27.000Z</time>
      </trkpt>
      <trkpt lat="47.2812" lon="-2.27392">
        <ele>47.200000762939</ele>
        <time>2021-06-20T07:58:28.000Z</time>
      </trkpt>
      <trkpt lat="47.28128" lon="-2.27377">
        <ele>47.200000762939</ele>
        <time>2021-06-20T07:58:31.000Z</time>
      </trkpt>
      <trkpt lat="47.28142" lon="-2.27373">
        <ele>47.200000762939</ele>
        <time>2021-06-20T07:58:35.000Z</time>
      </trkpt>
      <trkpt lat="47.28176" lon="-2.27368">
        <ele>47.200000762939</ele>
        <time>2021-06-20T07:58:43.000Z</time>
      </trkpt>
      <trkpt lat="47.28198" lon="-2.27361">
        <ele>47.200000762939</ele>
        <time>2021-06-20T07:58:49.000Z</time>
      </trkpt>
      <trkpt lat="47.28223" lon="-2.27356">
        <ele>47.200000762939</ele>
        <time>2021-06-20T07:58:55.000Z</time>
      </trkpt>
      <trkpt lat="47.28256" lon="-2.2735">
        <ele>47.200000762939</ele>
        <time>2021-06-20T07:59:01.000Z</time>
      </trkpt>
      <trkpt lat="47.28298" lon="-2.2735">
        <ele>47.200000762939</ele>
        <time>2021-06-20T07:59:07.000Z</time>
      </trkpt>
      <trkpt lat="47.28332" lon="-2.27348">
        <ele>46.799999237061</ele>
        <time>2021-06-20T07:59:11.000Z</time>
      </trkpt>
      <trkpt lat="47.28341" lon="-2.27347">
        <ele>46.400001525879</ele>
        <time>2021-06-20T07:59:12.000Z</time>
      </trkpt>
      <trkpt lat="47.28349" lon="-2.27348">
        <ele>46</ele>
        <time>2021-06-20T07:59:13.000Z</time>
      </trkpt>
      <trkpt lat="47.28358" lon="-2.27348">
        <ele>45.400001525879</ele>
        <time>2021-06-20T07:59:14.000Z</time>
      </trkpt>
      <trkpt lat="47.28365" lon="-2.2735">
        <ele>44.799999237061</ele>
        <time>2021-06-20T07:59:15.000Z</time>
      </trkpt>
      <trkpt lat="47.28372" lon="-2.27351">
        <ele>44</ele>
        <time>2021-06-20T07:59:16.000Z</time>
      </trkpt>
      <trkpt lat="47.28378" lon="-2.27353">
        <ele>43.200000762939</ele>
        <time>2021-06-20T07:59:17.000Z</time>
      </trkpt>
      <trkpt lat="47.28382" lon="-2.27356">
        <ele>42.200000762939</ele>
        <time>2021-06-20T07:59:18.000Z</time>
      </trkpt>
      <trkpt lat="47.28386" lon="-2.2736">
        <ele>41.400001525879</ele>
        <time>2021-06-20T07:59:19.000Z</time>
      </trkpt>
      <trkpt lat="47.28389" lon="-2.27365">
        <ele>40.599998474121</ele>
        <time>2021-06-20T07:59:20.000Z</time>
      </trkpt>
      <trkpt lat="47.2839" lon="-2.27369">
        <ele>39.799999237061</ele>
        <time>2021-06-20T07:59:21.000Z</time>
      </trkpt>
      <trkpt lat="47.28392" lon="-2.27373">
        <ele>38.799999237061</ele>
        <time>2021-06-20T07:59:22.000Z</time>
      </trkpt>
      <trkpt lat="47.28393" lon="-2.27377">
        <ele>38</ele>
        <time>2021-06-20T07:59:23.000Z</time>
      </trkpt>
      <trkpt lat="47.2839" lon="-2.27401">
        <ele>38</ele>
        <time>2021-06-20T07:59:28.000Z</time>
      </trkpt>
      <trkpt lat="47.28381" lon="-2.27422">
        <ele>38.400001525879</ele>
        <time>2021-06-20T07:59:32.000Z</time>
      </trkpt>
      <trkpt lat="47.2838" lon="-2.27429">
        <ele>38.799999237061</ele>
        <time>2021-06-20T07:59:33.000Z</time>
      </trkpt>
      <trkpt lat="47.28379" lon="-2.27436">
        <ele>39.200000762939</ele>
        <time>2021-06-20T07:59:34.000Z</time>
      </trkpt>
      <trkpt lat="47.28377" lon="-2.27443">
        <ele>39.599998474121</ele>
        <time>2021-06-20T07:59:35.000Z</time>
      </trkpt>
      <trkpt lat="47.28376" lon="-2.2745">
        <ele>40</ele>
        <time>2021-06-20T07:59:36.000Z</time>
      </trkpt>
      <trkpt lat="47.28374" lon="-2.27464">
        <ele>40</ele>
        <time>2021-06-20T07:59:38.000Z</time>
      </trkpt>
      <trkpt lat="47.28371" lon="-2.27478">
        <ele>40</ele>
        <time>2021-06-20T07:59:40.000Z</time>
      </trkpt>
      <trkpt lat="47.28367" lon="-2.27501">
        <ele>40</ele>
        <time>2021-06-20T07:59:44.000Z</time>
      </trkpt>
      <trkpt lat="47.28362" lon="-2.2752">
        <ele>40.400001525879</ele>
        <time>2021-06-20T07:59:47.000Z</time>
      </trkpt>
      <trkpt lat="47.28361" lon="-2.27527">
        <ele>41</ele>
        <time>2021-06-20T07:59:48.000Z</time>
      </trkpt>
      <trkpt lat="47.28359" lon="-2.27534">
        <ele>41.400001525879</ele>
        <time>2021-06-20T07:59:49.000Z</time>
      </trkpt>
      <trkpt lat="47.28357" lon="-2.27543">
        <ele>41.799999237061</ele>
        <time>2021-06-20T07:59:50.000Z</time>
      </trkpt>
      <trkpt lat="47.28356" lon="-2.2755">
        <ele>42.200000762939</ele>
        <time>2021-06-20T07:59:51.000Z</time>
      </trkpt>
      <trkpt lat="47.28354" lon="-2.27565">
        <ele>42.200000762939</ele>
        <time>2021-06-20T07:59:53.000Z</time>
      </trkpt>
      <trkpt lat="47.28351" lon="-2.27578">
        <ele>42.200000762939</ele>
        <time>2021-06-20T07:59:55.000Z</time>
      </trkpt>
      <trkpt lat="47.2835" lon="-2.2759">
        <ele>42.200000762939</ele>
        <time>2021-06-20T07:59:57.000Z</time>
      </trkpt>
      <trkpt lat="47.28351" lon="-2.27603">
        <ele>42.200000762939</ele>
        <time>2021-06-20T07:59:59.000Z</time>
      </trkpt>
      <trkpt lat="47.2835" lon="-2.2761">
        <ele>42.200000762939</ele>
        <time>2021-06-20T08:00:00.000Z</time>
      </trkpt>
      <trkpt lat="47.2835" lon="-2.27625">
        <ele>42.200000762939</ele>
        <time>2021-06-20T08:00:02.000Z</time>
      </trkpt>
      <trkpt lat="47.28345" lon="-2.2767">
        <ele>42.200000762939</ele>
        <time>2021-06-20T08:00:08.000Z</time>
      </trkpt>
      <trkpt lat="47.28341" lon="-2.27701">
        <ele>41.599998474121</ele>
        <time>2021-06-20T08:00:12.000Z</time>
      </trkpt>
      <trkpt lat="47.2834" lon="-2.2771">
        <ele>41.200000762939</ele>
        <time>2021-06-20T08:00:13.000Z</time>
      </trkpt>
      <trkpt lat="47.2834" lon="-2.27718">
        <ele>40.799999237061</ele>
        <time>2021-06-20T08:00:14.000Z</time>
      </trkpt>
      <trkpt lat="47.28339" lon="-2.27726">
        <ele>40.200000762939</ele>
        <time>2021-06-20T08:00:15.000Z</time>
      </trkpt>
      <trkpt lat="47.28339" lon="-2.27733">
        <ele>39.799999237061</ele>
        <time>2021-06-20T08:00:16.000Z</time>
      </trkpt>
      <trkpt lat="47.28337" lon="-2.2776">
        <ele>39.799999237061</ele>
        <time>2021-06-20T08:00:20.000Z</time>
      </trkpt>
      <trkpt lat="47.28331" lon="-2.27816">
        <ele>39.799999237061</ele>
        <time>2021-06-20T08:00:28.000Z</time>
      </trkpt>
      <trkpt lat="47.28328" lon="-2.27851">
        <ele>39.799999237061</ele>
        <time>2021-06-20T08:00:33.000Z</time>
      </trkpt>
      <trkpt lat="47.28327" lon="-2.27866">
        <ele>39.799999237061</ele>
        <time>2021-06-20T08:00:35.000Z</time>
      </trkpt>
      <trkpt lat="47.28323" lon="-2.27931">
        <ele>39.799999237061</ele>
        <time>2021-06-20T08:00:44.000Z</time>
      </trkpt>
      <trkpt lat="47.28321" lon="-2.27975">
        <ele>39.799999237061</ele>
        <time>2021-06-20T08:00:51.000Z</time>
      </trkpt>
      <trkpt lat="47.28321" lon="-2.27996">
        <ele>39.799999237061</ele>
        <time>2021-06-20T08:00:55.000Z</time>
      </trkpt>
      <trkpt lat="47.28322" lon="-2.28003">
        <ele>39.799999237061</ele>
        <time>2021-06-20T08:00:56.000Z</time>
      </trkpt>
      <trkpt lat="47.28324" lon="-2.28026">
        <ele>39.400001525879</ele>
        <time>2021-06-20T08:00:59.000Z</time>
      </trkpt>
      <trkpt lat="47.28325" lon="-2.28035">
        <ele>38.799999237061</ele>
        <time>2021-06-20T08:01:00.000Z</time>
      </trkpt>
      <trkpt lat="47.28325" lon="-2.28045">
        <ele>38.400001525879</ele>
        <time>2021-06-20T08:01:01.000Z</time>
      </trkpt>
      <trkpt lat="47.28326" lon="-2.28054">
        <ele>38</ele>
        <time>2021-06-20T08:01:02.000Z</time>
      </trkpt>
      <trkpt lat="47.28327" lon="-2.28062">
        <ele>37.599998474121</ele>
        <time>2021-06-20T08:01:03.000Z</time>
      </trkpt>
      <trkpt lat="47.28329" lon="-2.28069">
        <ele>37</ele>
        <time>2021-06-20T08:01:04.000Z</time>
      </trkpt>
      <trkpt lat="47.2833" lon="-2.28074">
        <ele>36.400001525879</ele>
        <time>2021-06-20T08:01:05.000Z</time>
      </trkpt>
      <trkpt lat="47.2833" lon="-2.28078">
        <ele>36</ele>
        <time>2021-06-20T08:01:06.000Z</time>
      </trkpt>
      <trkpt lat="47.28331" lon="-2.2808">
        <ele>35.400001525879</ele>
        <time>2021-06-20T08:01:07.000Z</time>
      </trkpt>
      <trkpt lat="47.28331" lon="-2.28082">
        <ele>34.799999237061</ele>
        <time>2021-06-20T08:01:08.000Z</time>
      </trkpt>
      <trkpt lat="47.28331" lon="-2.28082">
        <ele>34.400001525879</ele>
        <time>2021-06-20T08:01:09.000Z</time>
      </trkpt>
      <trkpt lat="47.28331" lon="-2.28084">
        <ele>34</ele>
        <time>2021-06-20T08:01:10.000Z</time>
      </trkpt>
      <trkpt lat="47.2833" lon="-2.28084">
        <ele>33.599998474121</ele>
        <time>2021-06-20T08:01:11.000Z</time>
      </trkpt>
      <trkpt lat="47.2833" lon="-2.28084">
        <ele>33.200000762939</ele>
        <time>2021-06-20T08:01:12.000Z</time>
      </trkpt>
      <trkpt lat="47.28343" lon="-2.28063">
        <ele>32.799999237061</ele>
        <time>2021-06-20T08:02:06.000Z</time>
      </trkpt>
      <trkpt lat="47.28343" lon="-2.2806">
        <ele>32.799999237061</ele>
        <time>2021-06-20T08:02:07.000Z</time>
      </trkpt>
      <trkpt lat="47.28344" lon="-2.28057">
        <ele>33.200000762939</ele>
        <time>2021-06-20T08:02:09.000Z</time>
      </trkpt>
      <trkpt lat="47.28345" lon="-2.28056">
        <ele>33.799999237061</ele>
        <time>2021-06-20T08:02:10.000Z</time>
      </trkpt>
      <trkpt lat="47.28346" lon="-2.28056">
        <ele>34.200000762939</ele>
        <time>2021-06-20T08:02:11.000Z</time>
      </trkpt>
      <trkpt lat="47.28347" lon="-2.28056">
        <ele>34.599998474121</ele>
        <time>2021-06-20T08:02:12.000Z</time>
      </trkpt>
      <trkpt lat="47.28348" lon="-2.28059">
        <ele>35.200000762939</ele>
        <time>2021-06-20T08:02:13.000Z</time>
      </trkpt>
      <trkpt lat="47.28348" lon="-2.28067">
        <ele>35.200000762939</ele>
        <time>2021-06-20T08:02:16.000Z</time>
      </trkpt>
      <trkpt lat="47.28347" lon="-2.28069">
        <ele>35.200000762939</ele>
        <time>2021-06-20T08:02:17.000Z</time>
      </trkpt>
      <trkpt lat="47.28348" lon="-2.28071">
        <ele>35.200000762939</ele>
        <time>2021-06-20T08:02:18.000Z</time>
      </trkpt>
      <trkpt lat="47.28351" lon="-2.28074">
        <ele>35.200000762939</ele>
        <time>2021-06-20T08:02:21.000Z</time>
      </trkpt>
      <trkpt lat="47.28353" lon="-2.28073">
        <ele>35.200000762939</ele>
        <time>2021-06-20T08:02:23.000Z</time>
      </trkpt>
      <trkpt lat="47.28357" lon="-2.28072">
        <ele>35.200000762939</ele>
        <time>2021-06-20T08:02:27.000Z</time>
      </trkpt>
      <trkpt lat="47.28373" lon="-2.28075">
        <ele>35.200000762939</ele>
        <time>2021-06-20T08:02:34.000Z</time>
      </trkpt>
      <trkpt lat="47.28375" lon="-2.28077">
        <ele>35.200000762939</ele>
        <time>2021-06-20T08:02:35.000Z</time>
      </trkpt>
      <trkpt lat="47.28378" lon="-2.28079">
        <ele>35.200000762939</ele>
        <time>2021-06-20T08:02:37.000Z</time>
      </trkpt>
      <trkpt lat="47.2838" lon="-2.28078">
        <ele>35.200000762939</ele>
        <time>2021-06-20T08:02:38.000Z</time>
      </trkpt>
      <trkpt lat="47.28388" lon="-2.28082">
        <ele>35.200000762939</ele>
        <time>2021-06-20T08:02:42.000Z</time>
      </trkpt>
      <trkpt lat="47.28394" lon="-2.28081">
        <ele>35.200000762939</ele>
        <time>2021-06-20T08:02:45.000Z</time>
      </trkpt>
      <trkpt lat="47.28396" lon="-2.28082">
        <ele>35.200000762939</ele>
        <time>2021-06-20T08:02:46.000Z</time>
      </trkpt>
      <trkpt lat="47.28403" lon="-2.28089">
        <ele>35.200000762939</ele>
        <time>2021-06-20T08:02:51.000Z</time>
      </trkpt>
      <trkpt lat="47.28416" lon="-2.28091">
        <ele>35.200000762939</ele>
        <time>2021-06-20T08:02:56.000Z</time>
      </trkpt>
      <trkpt lat="47.28429" lon="-2.28082">
        <ele>35.200000762939</ele>
        <time>2021-06-20T08:03:00.000Z</time>
      </trkpt>
      <trkpt lat="47.28435" lon="-2.28076">
        <ele>35.200000762939</ele>
        <time>2021-06-20T08:03:02.000Z</time>
      </trkpt>
      <trkpt lat="47.28439" lon="-2.28067">
        <ele>35.200000762939</ele>
        <time>2021-06-20T08:03:06.000Z</time>
      </trkpt>
      <trkpt lat="47.28439" lon="-2.28065">
        <ele>35.200000762939</ele>
        <time>2021-06-20T08:03:07.000Z</time>
      </trkpt>
      <trkpt lat="47.28438" lon="-2.28056">
        <ele>35.599998474121</ele>
        <time>2021-06-20T08:03:10.000Z</time>
      </trkpt>
      <trkpt lat="47.28438" lon="-2.28053">
        <ele>36</ele>
        <time>2021-06-20T08:03:11.000Z</time>
      </trkpt>
      <trkpt lat="47.28438" lon="-2.28051">
        <ele>36.400001525879</ele>
        <time>2021-06-20T08:03:12.000Z</time>
      </trkpt>
      <trkpt lat="47.28438" lon="-2.2805">
        <ele>36.799999237061</ele>
        <time>2021-06-20T08:03:13.000Z</time>
      </trkpt>
      <trkpt lat="47.2844" lon="-2.28047">
        <ele>37.200000762939</ele>
        <time>2021-06-20T08:03:14.000Z</time>
      </trkpt>
      <trkpt lat="47.28443" lon="-2.28043">
        <ele>37.200000762939</ele>
        <time>2021-06-20T08:03:16.000Z</time>
      </trkpt>
      <trkpt lat="47.28444" lon="-2.28041">
        <ele>37.200000762939</ele>
        <time>2021-06-20T08:03:18.000Z</time>
      </trkpt>
      <trkpt lat="47.2845" lon="-2.28046">
        <ele>37.200000762939</ele>
        <time>2021-06-20T08:03:22.000Z</time>
      </trkpt>
      <trkpt lat="47.2846" lon="-2.28054">
        <ele>37.200000762939</ele>
        <time>2021-06-20T08:03:27.000Z</time>
      </trkpt>
      <trkpt lat="47.28461" lon="-2.28054">
        <ele>36.799999237061</ele>
        <time>2021-06-20T08:03:28.000Z</time>
      </trkpt>
      <trkpt lat="47.28463" lon="-2.28053">
        <ele>36.400001525879</ele>
        <time>2021-06-20T08:03:29.000Z</time>
      </trkpt>
      <trkpt lat="47.28463" lon="-2.28055">
        <ele>36</ele>
        <time>2021-06-20T08:03:30.000Z</time>
      </trkpt>
      <trkpt lat="47.28465" lon="-2.28056">
        <ele>35.599998474121</ele>
        <time>2021-06-20T08:03:31.000Z</time>
      </trkpt>
      <trkpt lat="47.28467" lon="-2.28057">
        <ele>35.200000762939</ele>
        <time>2021-06-20T08:03:32.000Z</time>
      </trkpt>
      <trkpt lat="47.28469" lon="-2.28057">
        <ele>34.599998474121</ele>
        <time>2021-06-20T08:03:33.000Z</time>
      </trkpt>
      <trkpt lat="47.28471" lon="-2.28058">
        <ele>34.200000762939</ele>
        <time>2021-06-20T08:03:34.000Z</time>
      </trkpt>
      <trkpt lat="47.28472" lon="-2.28059">
        <ele>33.799999237061</ele>
        <time>2021-06-20T08:03:35.000Z</time>
      </trkpt>
      <trkpt lat="47.28473" lon="-2.28061">
        <ele>33.400001525879</ele>
        <time>2021-06-20T08:03:36.000Z</time>
      </trkpt>
      <trkpt lat="47.28477" lon="-2.28062">
        <ele>33</ele>
        <time>2021-06-20T08:03:37.000Z</time>
      </trkpt>
      <trkpt lat="47.2848" lon="-2.2806">
        <ele>33</ele>
        <time>2021-06-20T08:03:38.000Z</time>
      </trkpt>
      <trkpt lat="47.28486" lon="-2.28056">
        <ele>32.599998474121</ele>
        <time>2021-06-20T08:03:39.000Z</time>
      </trkpt>
      <trkpt lat="47.28489" lon="-2.28054">
        <ele>32.200000762939</ele>
        <time>2021-06-20T08:03:40.000Z</time>
      </trkpt>
      <trkpt lat="47.28492" lon="-2.28052">
        <ele>31.60000038147</ele>
        <time>2021-06-20T08:03:41.000Z</time>
      </trkpt>
      <trkpt lat="47.28496" lon="-2.2805">
        <ele>31.200000762939</ele>
        <time>2021-06-20T08:03:42.000Z</time>
      </trkpt>
      <trkpt lat="47.28499" lon="-2.28048">
        <ele>30.799999237061</ele>
        <time>2021-06-20T08:03:43.000Z</time>
      </trkpt>
      <trkpt lat="47.28512" lon="-2.28037">
        <ele>30.799999237061</ele>
        <time>2021-06-20T08:03:47.000Z</time>
      </trkpt>
      <trkpt lat="47.28615" lon="-2.27983">
        <ele>30.799999237061</ele>
        <time>2021-06-20T08:03:55.000Z</time>
      </trkpt>
      <trkpt lat="47.28608" lon="-2.27957">
        <ele>30.799999237061</ele>
        <time>2021-06-20T08:03:59.000Z</time>
      </trkpt>
      <trkpt lat="47.2861" lon="-2.27947">
        <ele>30.799999237061</ele>
        <time>2021-06-20T08:04:01.000Z</time>
      </trkpt>
      <trkpt lat="47.28616" lon="-2.27945">
        <ele>30.799999237061</ele>
        <time>2021-06-20T08:04:05.000Z</time>
      </trkpt>
      <trkpt lat="47.28617" lon="-2.27945">
        <ele>30.39999961853</ele>
        <time>2021-06-20T08:04:06.000Z</time>
      </trkpt>
      <trkpt lat="47.28617" lon="-2.27945">
        <ele>30</ele>
        <time>2021-06-20T08:04:07.000Z</time>
      </trkpt>
      <trkpt lat="47.28618" lon="-2.27945">
        <ele>29.200000762939</ele>
        <time>2021-06-20T08:04:08.000Z</time>
      </trkpt>
      <trkpt lat="47.28618" lon="-2.27945">
        <ele>28.799999237061</ele>
        <time>2021-06-20T08:04:09.000Z</time>
      </trkpt>
      <trkpt lat="47.28618" lon="-2.27944">
        <ele>28.799999237061</ele>
        <time>2021-06-20T08:04:15.000Z</time>
      </trkpt>
      <trkpt lat="47.28623" lon="-2.27942">
        <ele>28.799999237061</ele>
        <time>2021-06-20T08:07:26.000Z</time>
      </trkpt>
      <trkpt lat="47.28627" lon="-2.27933">
        <ele>28.799999237061</ele>
        <time>2021-06-20T08:07:29.000Z</time>
      </trkpt>
      <trkpt lat="47.2863" lon="-2.27906">
        <ele>28.799999237061</ele>
        <time>2021-06-20T08:07:34.000Z</time>
      </trkpt>
      <trkpt lat="47.28634" lon="-2.27865">
        <ele>28.799999237061</ele>
        <time>2021-06-20T08:07:39.000Z</time>
      </trkpt>
      <trkpt lat="47.28646" lon="-2.27801">
        <ele>28.799999237061</ele>
        <time>2021-06-20T08:07:46.000Z</time>
      </trkpt>
      <trkpt lat="47.28661" lon="-2.27753">
        <ele>28.799999237061</ele>
        <time>2021-06-20T08:07:52.000Z</time>
      </trkpt>
      <trkpt lat="47.28665" lon="-2.27746">
        <ele>28.799999237061</ele>
        <time>2021-06-20T08:07:53.000Z</time>
      </trkpt>
      <trkpt lat="47.2869" lon="-2.27701">
        <ele>28.799999237061</ele>
        <time>2021-06-20T08:07:59.000Z</time>
      </trkpt>
      <trkpt lat="47.28716" lon="-2.2766">
        <ele>28.799999237061</ele>
        <time>2021-06-20T08:08:05.000Z</time>
      </trkpt>
      <trkpt lat="47.28743" lon="-2.27617">
        <ele>28.799999237061</ele>
        <time>2021-06-20T08:08:12.000Z</time>
      </trkpt>
      <trkpt lat="47.28776" lon="-2.27578">
        <ele>28.799999237061</ele>
        <time>2021-06-20T08:08:19.000Z</time>
      </trkpt>
      <trkpt lat="47.28793" lon="-2.27559">
        <ele>28.799999237061</ele>
        <time>2021-06-20T08:08:23.000Z</time>
      </trkpt>
      <trkpt lat="47.28796" lon="-2.27553">
        <ele>28.799999237061</ele>
        <time>2021-06-20T08:08:24.000Z</time>
      </trkpt>
      <trkpt lat="47.28801" lon="-2.27542">
        <ele>28.799999237061</ele>
        <time>2021-06-20T08:08:26.000Z</time>
      </trkpt>
      <trkpt lat="47.28809" lon="-2.27538">
        <ele>28.799999237061</ele>
        <time>2021-06-20T08:08:28.000Z</time>
      </trkpt>
      <trkpt lat="47.28832" lon="-2.27535">
        <ele>28.39999961853</ele>
        <time>2021-06-20T08:08:32.000Z</time>
      </trkpt>
      <trkpt lat="47.28838" lon="-2.27534">
        <ele>28</ele>
        <time>2021-06-20T08:08:33.000Z</time>
      </trkpt>
      <trkpt lat="47.28843" lon="-2.27533">
        <ele>27.60000038147</ele>
        <time>2021-06-20T08:08:34.000Z</time>
      </trkpt>
      <trkpt lat="47.28849" lon="-2.27532">
        <ele>27.200000762939</ele>
        <time>2021-06-20T08:08:35.000Z</time>
      </trkpt>
      <trkpt lat="47.28855" lon="-2.27532">
        <ele>26.799999237061</ele>
        <time>2021-06-20T08:08:36.000Z</time>
      </trkpt>
      <trkpt lat="47.28878" lon="-2.27529">
        <ele>26.799999237061</ele>
        <time>2021-06-20T08:08:40.000Z</time>
      </trkpt>
      <trkpt lat="47.28883" lon="-2.27529">
        <ele>26.799999237061</ele>
        <time>2021-06-20T08:08:41.000Z</time>
      </trkpt>
      <trkpt lat="47.28903" lon="-2.27527">
        <ele>26.799999237061</ele>
        <time>2021-06-20T08:08:46.000Z</time>
      </trkpt>
      <trkpt lat="47.2892" lon="-2.27523">
        <ele>26.799999237061</ele>
        <time>2021-06-20T08:08:50.000Z</time>
      </trkpt>
      <trkpt lat="47.28934" lon="-2.27521">
        <ele>26.799999237061</ele>
        <time>2021-06-20T08:08:53.000Z</time>
      </trkpt>
      <trkpt lat="47.28961" lon="-2.2752">
        <ele>26.799999237061</ele>
        <time>2021-06-20T08:08:58.000Z</time>
      </trkpt>
      <trkpt lat="47.28967" lon="-2.2752">
        <ele>26.799999237061</ele>
        <time>2021-06-20T08:08:59.000Z</time>
      </trkpt>
      <trkpt lat="47.29015" lon="-2.27519">
        <ele>26.799999237061</ele>
        <time>2021-06-20T08:09:07.000Z</time>
      </trkpt>
      <trkpt lat="47.29058" lon="-2.27523">
        <ele>26.799999237061</ele>
        <time>2021-06-20T08:09:14.000Z</time>
      </trkpt>
      <trkpt lat="47.29091" lon="-2.27527">
        <ele>26.799999237061</ele>
        <time>2021-06-20T08:09:20.000Z</time>
      </trkpt>
      <trkpt lat="47.29096" lon="-2.27526">
        <ele>26.799999237061</ele>
        <time>2021-06-20T08:09:21.000Z</time>
      </trkpt>
      <trkpt lat="47.29103" lon="-2.27519">
        <ele>26.799999237061</ele>
        <time>2021-06-20T08:09:24.000Z</time>
      </trkpt>
      <trkpt lat="47.29103" lon="-2.27509">
        <ele>26.799999237061</ele>
        <time>2021-06-20T08:09:26.000Z</time>
      </trkpt>
      <trkpt lat="47.29104" lon="-2.2749">
        <ele>26.799999237061</ele>
        <time>2021-06-20T08:09:29.000Z</time>
      </trkpt>
      <trkpt lat="47.29108" lon="-2.27447">
        <ele>26.799999237061</ele>
        <time>2021-06-20T08:09:35.000Z</time>
      </trkpt>
      <trkpt lat="47.29108" lon="-2.27421">
        <ele>26.799999237061</ele>
        <time>2021-06-20T08:09:38.000Z</time>
      </trkpt>
      <trkpt lat="47.29105" lon="-2.27405">
        <ele>26.799999237061</ele>
        <time>2021-06-20T08:09:40.000Z</time>
      </trkpt>
      <trkpt lat="47.29097" lon="-2.27362">
        <ele>26.799999237061</ele>
        <time>2021-06-20T08:09:46.000Z</time>
      </trkpt>
      <trkpt lat="47.291" lon="-2.27334">
        <ele>26.799999237061</ele>
        <time>2021-06-20T08:09:51.000Z</time>
      </trkpt>
      <trkpt lat="47.29105" lon="-2.27304">
        <ele>26.799999237061</ele>
        <time>2021-06-20T08:09:56.000Z</time>
      </trkpt>
      <trkpt lat="47.29116" lon="-2.27269">
        <ele>26.799999237061</ele>
        <time>2021-06-20T08:10:02.000Z</time>
      </trkpt>
      <trkpt lat="47.29122" lon="-2.27239">
        <ele>26.799999237061</ele>
        <time>2021-06-20T08:10:08.000Z</time>
      </trkpt>
      <trkpt lat="47.29127" lon="-2.27218">
        <ele>26.799999237061</ele>
        <time>2021-06-20T08:10:14.000Z</time>
      </trkpt>
      <trkpt lat="47.29131" lon="-2.27208">
        <ele>26.799999237061</ele>
        <time>2021-06-20T08:10:17.000Z</time>
      </trkpt>
      <trkpt lat="47.29132" lon="-2.27205">
        <ele>26.799999237061</ele>
        <time>2021-06-20T08:10:18.000Z</time>
      </trkpt>
      <trkpt lat="47.29139" lon="-2.27199">
        <ele>26.799999237061</ele>
        <time>2021-06-20T08:10:21.000Z</time>
      </trkpt>
      <trkpt lat="47.29147" lon="-2.27195">
        <ele>26.799999237061</ele>
        <time>2021-06-20T08:10:24.000Z</time>
      </trkpt>
      <trkpt lat="47.2915" lon="-2.27195">
        <ele>26.799999237061</ele>
        <time>2021-06-20T08:10:26.000Z</time>
      </trkpt>
      <trkpt lat="47.29153" lon="-2.27193">
        <ele>26.799999237061</ele>
        <time>2021-06-20T08:10:28.000Z</time>
      </trkpt>
      <trkpt lat="47.2917" lon="-2.27189">
        <ele>26.799999237061</ele>
        <time>2021-06-20T08:10:34.000Z</time>
      </trkpt>
      <trkpt lat="47.29195" lon="-2.27181">
        <ele>26.799999237061</ele>
        <time>2021-06-20T08:10:40.000Z</time>
      </trkpt>
      <trkpt lat="47.29211" lon="-2.27168">
        <ele>26.799999237061</ele>
        <time>2021-06-20T08:10:45.000Z</time>
      </trkpt>
      <trkpt lat="47.29213" lon="-2.27163">
        <ele>26.799999237061</ele>
        <time>2021-06-20T08:10:46.000Z</time>
      </trkpt>
      <trkpt lat="47.2922" lon="-2.27143">
        <ele>26.799999237061</ele>
        <time>2021-06-20T08:10:49.000Z</time>
      </trkpt>
      <trkpt lat="47.29227" lon="-2.27114">
        <ele>26.799999237061</ele>
        <time>2021-06-20T08:10:53.000Z</time>
      </trkpt>
      <trkpt lat="47.29227" lon="-2.27106">
        <ele>26.799999237061</ele>
        <time>2021-06-20T08:10:54.000Z</time>
      </trkpt>
      <trkpt lat="47.29225" lon="-2.27072">
        <ele>26.799999237061</ele>
        <time>2021-06-20T08:10:58.000Z</time>
      </trkpt>
      <trkpt lat="47.29225" lon="-2.27063">
        <ele>26.799999237061</ele>
        <time>2021-06-20T08:10:59.000Z</time>
      </trkpt>
      <trkpt lat="47.2922" lon="-2.27017">
        <ele>26.799999237061</ele>
        <time>2021-06-20T08:11:05.000Z</time>
      </trkpt>
      <trkpt lat="47.29221" lon="-2.26971">
        <ele>26.799999237061</ele>
        <time>2021-06-20T08:11:11.000Z</time>
      </trkpt>
      <trkpt lat="47.29224" lon="-2.26952">
        <ele>26.799999237061</ele>
        <time>2021-06-20T08:11:14.000Z</time>
      </trkpt>
      <trkpt lat="47.29227" lon="-2.26949">
        <ele>26.799999237061</ele>
        <time>2021-06-20T08:11:15.000Z</time>
      </trkpt>
      <trkpt lat="47.29233" lon="-2.26925">
        <ele>26.799999237061</ele>
        <time>2021-06-20T08:11:19.000Z</time>
      </trkpt>
      <trkpt lat="47.2923" lon="-2.26901">
        <ele>26.799999237061</ele>
        <time>2021-06-20T08:11:22.000Z</time>
      </trkpt>
      <trkpt lat="47.29227" lon="-2.26883">
        <ele>26.799999237061</ele>
        <time>2021-06-20T08:11:24.000Z</time>
      </trkpt>
      <trkpt lat="47.29214" lon="-2.26804">
        <ele>26.799999237061</ele>
        <time>2021-06-20T08:11:33.000Z</time>
      </trkpt>
      <trkpt lat="47.29209" lon="-2.26759">
        <ele>26.799999237061</ele>
        <time>2021-06-20T08:11:39.000Z</time>
      </trkpt>
      <trkpt lat="47.29207" lon="-2.26735">
        <ele>26.799999237061</ele>
        <time>2021-06-20T08:11:44.000Z</time>
      </trkpt>
      <trkpt lat="47.29205" lon="-2.26727">
        <ele>26.799999237061</ele>
        <time>2021-06-20T08:11:49.000Z</time>
      </trkpt>
      <trkpt lat="47.29206" lon="-2.26726">
        <ele>26.799999237061</ele>
        <time>2021-06-20T08:11:52.000Z</time>
      </trkpt>
      <trkpt lat="47.29207" lon="-2.26725">
        <ele>26.799999237061</ele>
        <time>2021-06-20T08:11:54.000Z</time>
      </trkpt>
      <trkpt lat="47.29215" lon="-2.26721">
        <ele>26.799999237061</ele>
        <time>2021-06-20T08:11:58.000Z</time>
      </trkpt>
      <trkpt lat="47.29232" lon="-2.26704">
        <ele>26.799999237061</ele>
        <time>2021-06-20T08:12:03.000Z</time>
      </trkpt>
      <trkpt lat="47.29248" lon="-2.26688">
        <ele>26.799999237061</ele>
        <time>2021-06-20T08:12:08.000Z</time>
      </trkpt>
      <trkpt lat="47.29275" lon="-2.26682">
        <ele>26.799999237061</ele>
        <time>2021-06-20T08:12:14.000Z</time>
      </trkpt>
      <trkpt lat="47.2928" lon="-2.26681">
        <ele>27.200000762939</ele>
        <time>2021-06-20T08:12:15.000Z</time>
      </trkpt>
      <trkpt lat="47.29285" lon="-2.2668">
        <ele>27.60000038147</ele>
        <time>2021-06-20T08:12:16.000Z</time>
      </trkpt>
      <trkpt lat="47.2929" lon="-2.26679">
        <ele>28</ele>
        <time>2021-06-20T08:12:17.000Z</time>
      </trkpt>
      <trkpt lat="47.29294" lon="-2.26677">
        <ele>28.39999961853</ele>
        <time>2021-06-20T08:12:18.000Z</time>
      </trkpt>
      <trkpt lat="47.29298" lon="-2.26676">
        <ele>28.799999237061</ele>
        <time>2021-06-20T08:12:19.000Z</time>
      </trkpt>
      <trkpt lat="47.29302" lon="-2.26674">
        <ele>28.799999237061</ele>
        <time>2021-06-20T08:12:20.000Z</time>
      </trkpt>
      <trkpt lat="47.29311" lon="-2.26669">
        <ele>28.799999237061</ele>
        <time>2021-06-20T08:12:22.000Z</time>
      </trkpt>
      <trkpt lat="47.29327" lon="-2.26659">
        <ele>28.799999237061</ele>
        <time>2021-06-20T08:12:26.000Z</time>
      </trkpt>
      <trkpt lat="47.29361" lon="-2.26647">
        <ele>28.799999237061</ele>
        <time>2021-06-20T08:12:33.000Z</time>
      </trkpt>
      <trkpt lat="47.2937" lon="-2.26643">
        <ele>28.799999237061</ele>
        <time>2021-06-20T08:12:35.000Z</time>
      </trkpt>
      <trkpt lat="47.29381" lon="-2.26636">
        <ele>28.799999237061</ele>
        <time>2021-06-20T08:12:38.000Z</time>
      </trkpt>
      <trkpt lat="47.29413" lon="-2.26622">
        <ele>28.799999237061</ele>
        <time>2021-06-20T08:12:45.000Z</time>
      </trkpt>
      <trkpt lat="47.29451" lon="-2.26608">
        <ele>28.799999237061</ele>
        <time>2021-06-20T08:12:53.000Z</time>
      </trkpt>
      <trkpt lat="47.29478" lon="-2.26593">
        <ele>28.799999237061</ele>
        <time>2021-06-20T08:12:59.000Z</time>
      </trkpt>
      <trkpt lat="47.29492" lon="-2.26586">
        <ele>28.799999237061</ele>
        <time>2021-06-20T08:13:02.000Z</time>
      </trkpt>
      <trkpt lat="47.29503" lon="-2.26576">
        <ele>28.799999237061</ele>
        <time>2021-06-20T08:13:05.000Z</time>
      </trkpt>
      <trkpt lat="47.29507" lon="-2.26573">
        <ele>28.799999237061</ele>
        <time>2021-06-20T08:13:06.000Z</time>
      </trkpt>
      <trkpt lat="47.29522" lon="-2.26558">
        <ele>28.799999237061</ele>
        <time>2021-06-20T08:13:10.000Z</time>
      </trkpt>
      <trkpt lat="47.29552" lon="-2.2653">
        <ele>28.799999237061</ele>
        <time>2021-06-20T08:13:17.000Z</time>
      </trkpt>
      <trkpt lat="47.29573" lon="-2.26515">
        <ele>28.39999961853</ele>
        <time>2021-06-20T08:13:22.000Z</time>
      </trkpt>
      <trkpt lat="47.29578" lon="-2.26512">
        <ele>27.799999237061</ele>
        <time>2021-06-20T08:13:23.000Z</time>
      </trkpt>
      <trkpt lat="47.29582" lon="-2.26508">
        <ele>27.39999961853</ele>
        <time>2021-06-20T08:13:24.000Z</time>
      </trkpt>
      <trkpt lat="47.29587" lon="-2.26505">
        <ele>27</ele>
        <time>2021-06-20T08:13:25.000Z</time>
      </trkpt>
      <trkpt lat="47.29591" lon="-2.26501">
        <ele>26.60000038147</ele>
        <time>2021-06-20T08:13:26.000Z</time>
      </trkpt>
      <trkpt lat="47.29595" lon="-2.26498">
        <ele>26.60000038147</ele>
        <time>2021-06-20T08:13:27.000Z</time>
      </trkpt>
      <trkpt lat="47.29599" lon="-2.26488">
        <ele>26.60000038147</ele>
        <time>2021-06-20T08:13:29.000Z</time>
      </trkpt>
      <trkpt lat="47.29601" lon="-2.26471">
        <ele>26.200000762939</ele>
        <time>2021-06-20T08:13:32.000Z</time>
      </trkpt>
      <trkpt lat="47.29601" lon="-2.26464">
        <ele>25.799999237061</ele>
        <time>2021-06-20T08:13:33.000Z</time>
      </trkpt>
      <trkpt lat="47.29602" lon="-2.26457">
        <ele>25.39999961853</ele>
        <time>2021-06-20T08:13:34.000Z</time>
      </trkpt>
      <trkpt lat="47.29603" lon="-2.2645">
        <ele>24.39999961853</ele>
        <time>2021-06-20T08:13:35.000Z</time>
      </trkpt>
      <trkpt lat="47.29604" lon="-2.26443">
        <ele>24.39999961853</ele>
        <time>2021-06-20T08:13:36.000Z</time>
      </trkpt>
      <trkpt lat="47.29609" lon="-2.26421">
        <ele>24</ele>
        <time>2021-06-20T08:13:39.000Z</time>
      </trkpt>
      <trkpt lat="47.29612" lon="-2.26416">
        <ele>23.60000038147</ele>
        <time>2021-06-20T08:13:40.000Z</time>
      </trkpt>
      <trkpt lat="47.29614" lon="-2.2641">
        <ele>23</ele>
        <time>2021-06-20T08:13:41.000Z</time>
      </trkpt>
      <trkpt lat="47.29616" lon="-2.26403">
        <ele>22.60000038147</ele>
        <time>2021-06-20T08:13:42.000Z</time>
      </trkpt>
      <trkpt lat="47.29617" lon="-2.26395">
        <ele>22</ele>
        <time>2021-06-20T08:13:43.000Z</time>
      </trkpt>
      <trkpt lat="47.29618" lon="-2.26387">
        <ele>21.60000038147</ele>
        <time>2021-06-20T08:13:44.000Z</time>
      </trkpt>
      <trkpt lat="47.29617" lon="-2.2638">
        <ele>21</ele>
        <time>2021-06-20T08:13:45.000Z</time>
      </trkpt>
      <trkpt lat="47.29616" lon="-2.26374">
        <ele>20.39999961853</ele>
        <time>2021-06-20T08:13:46.000Z</time>
      </trkpt>
      <trkpt lat="47.29613" lon="-2.26371">
        <ele>20</ele>
        <time>2021-06-20T08:13:47.000Z</time>
      </trkpt>
      <trkpt lat="47.2961" lon="-2.26369">
        <ele>19.60000038147</ele>
        <time>2021-06-20T08:13:48.000Z</time>
      </trkpt>
      <trkpt lat="47.29608" lon="-2.26367">
        <ele>19.200000762939</ele>
        <time>2021-06-20T08:13:49.000Z</time>
      </trkpt>
      <trkpt lat="47.29606" lon="-2.26364">
        <ele>18.799999237061</ele>
        <time>2021-06-20T08:13:50.000Z</time>
      </trkpt>
      <trkpt lat="47.29605" lon="-2.26361">
        <ele>18.39999961853</ele>
        <time>2021-06-20T08:13:51.000Z</time>
      </trkpt>
      <trkpt lat="47.29605" lon="-2.26358">
        <ele>18</ele>
        <time>2021-06-20T08:13:52.000Z</time>
      </trkpt>
      <trkpt lat="47.29611" lon="-2.2634">
        <ele>18</ele>
        <time>2021-06-20T08:13:58.000Z</time>
      </trkpt>
      <trkpt lat="47.29611" lon="-2.26336">
        <ele>18</ele>
        <time>2021-06-20T08:14:00.000Z</time>
      </trkpt>
      <trkpt lat="47.29609" lon="-2.26331">
        <ele>18</ele>
        <time>2021-06-20T08:14:03.000Z</time>
      </trkpt>
      <trkpt lat="47.29607" lon="-2.26329">
        <ele>18</ele>
        <time>2021-06-20T08:14:07.000Z</time>
      </trkpt>
      <trkpt lat="47.29598" lon="-2.26307">
        <ele>18</ele>
        <time>2021-06-20T08:14:56.000Z</time>
      </trkpt>
      <trkpt lat="47.29598" lon="-2.26304">
        <ele>18</ele>
        <time>2021-06-20T08:14:57.000Z</time>
      </trkpt>
      <trkpt lat="47.29602" lon="-2.2629">
        <ele>18</ele>
        <time>2021-06-20T08:15:02.000Z</time>
      </trkpt>
      <trkpt lat="47.29617" lon="-2.26271">
        <ele>18</ele>
        <time>2021-06-20T08:15:09.000Z</time>
      </trkpt>
      <trkpt lat="47.2962" lon="-2.26267">
        <ele>18</ele>
        <time>2021-06-20T08:15:13.000Z</time>
      </trkpt>
      <trkpt lat="47.2962" lon="-2.26266">
        <ele>18</ele>
        <time>2021-06-20T08:15:15.000Z</time>
      </trkpt>
      <trkpt lat="47.29619" lon="-2.26265">
        <ele>18</ele>
        <time>2021-06-20T08:15:26.000Z</time>
      </trkpt>
      <trkpt lat="47.29616" lon="-2.26264">
        <ele>18</ele>
        <time>2021-06-20T08:15:28.000Z</time>
      </trkpt>
      <trkpt lat="47.29603" lon="-2.26263">
        <ele>18</ele>
        <time>2021-06-20T08:15:33.000Z</time>
      </trkpt>
      <trkpt lat="47.29589" lon="-2.26261">
        <ele>18.39999961853</ele>
        <time>2021-06-20T08:15:38.000Z</time>
      </trkpt>
      <trkpt lat="47.29585" lon="-2.26261">
        <ele>18.799999237061</ele>
        <time>2021-06-20T08:15:39.000Z</time>
      </trkpt>
      <trkpt lat="47.29581" lon="-2.2626">
        <ele>19.60000038147</ele>
        <time>2021-06-20T08:15:40.000Z</time>
      </trkpt>
      <trkpt lat="47.29578" lon="-2.2626">
        <ele>20.200000762939</ele>
        <time>2021-06-20T08:15:41.000Z</time>
      </trkpt>
      <trkpt lat="47.2956" lon="-2.26257">
        <ele>20.200000762939</ele>
        <time>2021-06-20T08:15:46.000Z</time>
      </trkpt>
      <trkpt lat="47.29557" lon="-2.26256">
        <ele>20.60000038147</ele>
        <time>2021-06-20T08:15:47.000Z</time>
      </trkpt>
      <trkpt lat="47.29553" lon="-2.26255">
        <ele>21</ele>
        <time>2021-06-20T08:15:48.000Z</time>
      </trkpt>
      <trkpt lat="47.2955" lon="-2.26254">
        <ele>21.39999961853</ele>
        <time>2021-06-20T08:15:49.000Z</time>
      </trkpt>
      <trkpt lat="47.29547" lon="-2.26252">
        <ele>21.799999237061</ele>
        <time>2021-06-20T08:15:50.000Z</time>
      </trkpt>
      <trkpt lat="47.29544" lon="-2.2625">
        <ele>22.39999961853</ele>
        <time>2021-06-20T08:15:51.000Z</time>
      </trkpt>
      <trkpt lat="47.2954" lon="-2.26249">
        <ele>22.39999961853</ele>
        <time>2021-06-20T08:15:52.000Z</time>
      </trkpt>
      <trkpt lat="47.29535" lon="-2.26243">
        <ele>22.39999961853</ele>
        <time>2021-06-20T08:15:54.000Z</time>
      </trkpt>
      <trkpt lat="47.29534" lon="-2.26238">
        <ele>22.39999961853</ele>
        <time>2021-06-20T08:15:55.000Z</time>
      </trkpt>
      <trkpt lat="47.29533" lon="-2.26233">
        <ele>22.799999237061</ele>
        <time>2021-06-20T08:15:56.000Z</time>
      </trkpt>
      <trkpt lat="47.29534" lon="-2.26229">
        <ele>23.200000762939</ele>
        <time>2021-06-20T08:15:57.000Z</time>
      </trkpt>
      <trkpt lat="47.29536" lon="-2.26227">
        <ele>23.60000038147</ele>
        <time>2021-06-20T08:15:58.000Z</time>
      </trkpt>
      <trkpt lat="47.29539" lon="-2.26224">
        <ele>24</ele>
        <time>2021-06-20T08:15:59.000Z</time>
      </trkpt>
      <trkpt lat="47.29541" lon="-2.26222">
        <ele>24.39999961853</ele>
        <time>2021-06-20T08:16:00.000Z</time>
      </trkpt>
      <trkpt lat="47.2955" lon="-2.26214">
        <ele>24.39999961853</ele>
        <time>2021-06-20T08:16:03.000Z</time>
      </trkpt>
      <trkpt lat="47.29551" lon="-2.2621">
        <ele>24.39999961853</ele>
        <time>2021-06-20T08:16:04.000Z</time>
      </trkpt>
      <trkpt lat="47.2955" lon="-2.26203">
        <ele>24.39999961853</ele>
        <time>2021-06-20T08:16:06.000Z</time>
      </trkpt>
      <trkpt lat="47.29546" lon="-2.26203">
        <ele>24.39999961853</ele>
        <time>2021-06-20T08:16:09.000Z</time>
      </trkpt>
      <trkpt lat="47.29544" lon="-2.26203">
        <ele>24.39999961853</ele>
        <time>2021-06-20T08:16:10.000Z</time>
      </trkpt>
      <trkpt lat="47.29535" lon="-2.26201">
        <ele>24.39999961853</ele>
        <time>2021-06-20T08:16:13.000Z</time>
      </trkpt>
      <trkpt lat="47.29515" lon="-2.26198">
        <ele>24.799999237061</ele>
        <time>2021-06-20T08:16:19.000Z</time>
      </trkpt>
      <trkpt lat="47.29512" lon="-2.26197">
        <ele>25.200000762939</ele>
        <time>2021-06-20T08:16:20.000Z</time>
      </trkpt>
      <trkpt lat="47.29509" lon="-2.26195">
        <ele>25.60000038147</ele>
        <time>2021-06-20T08:16:21.000Z</time>
      </trkpt>
      <trkpt lat="47.29506" lon="-2.26194">
        <ele>26.200000762939</ele>
        <time>2021-06-20T08:16:22.000Z</time>
      </trkpt>
      <trkpt lat="47.29503" lon="-2.26192">
        <ele>26.60000038147</ele>
        <time>2021-06-20T08:16:23.000Z</time>
      </trkpt>
      <trkpt lat="47.29492" lon="-2.26186">
        <ele>26.60000038147</ele>
        <time>2021-06-20T08:16:26.000Z</time>
      </trkpt>
      <trkpt lat="47.29486" lon="-2.26183">
        <ele>27</ele>
        <time>2021-06-20T08:16:28.000Z</time>
      </trkpt>
      <trkpt lat="47.29482" lon="-2.26183">
        <ele>27.799999237061</ele>
        <time>2021-06-20T08:16:29.000Z</time>
      </trkpt>
      <trkpt lat="47.29477" lon="-2.26183">
        <ele>28.200000762939</ele>
        <time>2021-06-20T08:16:30.000Z</time>
      </trkpt>
      <trkpt lat="47.29473" lon="-2.26182">
        <ele>28.60000038147</ele>
        <time>2021-06-20T08:16:31.000Z</time>
      </trkpt>
      <trkpt lat="47.2946" lon="-2.26182">
        <ele>28.60000038147</ele>
        <time>2021-06-20T08:16:34.000Z</time>
      </trkpt>
      <trkpt lat="47.29449" lon="-2.26183">
        <ele>28.60000038147</ele>
        <time>2021-06-20T08:16:37.000Z</time>
      </trkpt>
      <trkpt lat="47.29435" lon="-2.2618">
        <ele>29</ele>
        <time>2021-06-20T08:16:41.000Z</time>
      </trkpt>
      <trkpt lat="47.29431" lon="-2.26179">
        <ele>29.39999961853</ele>
        <time>2021-06-20T08:16:42.000Z</time>
      </trkpt>
      <trkpt lat="47.29427" lon="-2.26177">
        <ele>29.799999237061</ele>
        <time>2021-06-20T08:16:43.000Z</time>
      </trkpt>
      <trkpt lat="47.29423" lon="-2.26175">
        <ele>30.39999961853</ele>
        <time>2021-06-20T08:16:44.000Z</time>
      </trkpt>
      <trkpt lat="47.2942" lon="-2.26172">
        <ele>30.799999237061</ele>
        <time>2021-06-20T08:16:45.000Z</time>
      </trkpt>
      <trkpt lat="47.29419" lon="-2.2617">
        <ele>30.799999237061</ele>
        <time>2021-06-20T08:16:46.000Z</time>
      </trkpt>
      <trkpt lat="47.29418" lon="-2.26167">
        <ele>30.799999237061</ele>
        <time>2021-06-20T08:16:47.000Z</time>
      </trkpt>
      <trkpt lat="47.29418" lon="-2.26155">
        <ele>30.799999237061</ele>
        <time>2021-06-20T08:16:50.000Z</time>
      </trkpt>
      <trkpt lat="47.29418" lon="-2.2615">
        <ele>30.799999237061</ele>
        <time>2021-06-20T08:16:51.000Z</time>
      </trkpt>
      <trkpt lat="47.29418" lon="-2.26109">
        <ele>30.39999961853</ele>
        <time>2021-06-20T08:16:57.000Z</time>
      </trkpt>
      <trkpt lat="47.29418" lon="-2.26102">
        <ele>29.799999237061</ele>
        <time>2021-06-20T08:16:58.000Z</time>
      </trkpt>
      <trkpt lat="47.29417" lon="-2.26097">
        <ele>29.39999961853</ele>
        <time>2021-06-20T08:16:59.000Z</time>
      </trkpt>
      <trkpt lat="47.29417" lon="-2.26092">
        <ele>29</ele>
        <time>2021-06-20T08:17:00.000Z</time>
      </trkpt>
      <trkpt lat="47.29416" lon="-2.26087">
        <ele>28.60000038147</ele>
        <time>2021-06-20T08:17:01.000Z</time>
      </trkpt>
      <trkpt lat="47.29414" lon="-2.26082">
        <ele>28.60000038147</ele>
        <time>2021-06-20T08:17:02.000Z</time>
      </trkpt>
      <trkpt lat="47.29395" lon="-2.26044">
        <ele>28.60000038147</ele>
        <time>2021-06-20T08:17:10.000Z</time>
      </trkpt>
      <trkpt lat="47.29381" lon="-2.26009">
        <ele>28.60000038147</ele>
        <time>2021-06-20T08:17:16.000Z</time>
      </trkpt>
      <trkpt lat="47.29386" lon="-2.25981">
        <ele>28.60000038147</ele>
        <time>2021-06-20T08:17:21.000Z</time>
      </trkpt>
      <trkpt lat="47.29388" lon="-2.25956">
        <ele>29</ele>
        <time>2021-06-20T08:17:27.000Z</time>
      </trkpt>
      <trkpt lat="47.29389" lon="-2.25955">
        <ele>29.39999961853</ele>
        <time>2021-06-20T08:17:28.000Z</time>
      </trkpt>
      <trkpt lat="47.2939" lon="-2.25956">
        <ele>29.799999237061</ele>
        <time>2021-06-20T08:17:29.000Z</time>
      </trkpt>
      <trkpt lat="47.29394" lon="-2.25956">
        <ele>30.799999237061</ele>
        <time>2021-06-20T08:17:31.000Z</time>
      </trkpt>
      <trkpt lat="47.29397" lon="-2.25954">
        <ele>30.799999237061</ele>
        <time>2021-06-20T08:17:32.000Z</time>
      </trkpt>
      <trkpt lat="47.29418" lon="-2.25944">
        <ele>30.799999237061</ele>
        <time>2021-06-20T08:17:37.000Z</time>
      </trkpt>
      <trkpt lat="47.29431" lon="-2.25933">
        <ele>30.39999961853</ele>
        <time>2021-06-20T08:17:40.000Z</time>
      </trkpt>
      <trkpt lat="47.29432" lon="-2.25929">
        <ele>29.799999237061</ele>
        <time>2021-06-20T08:17:41.000Z</time>
      </trkpt>
      <trkpt lat="47.29434" lon="-2.25925">
        <ele>29.39999961853</ele>
        <time>2021-06-20T08:17:42.000Z</time>
      </trkpt>
      <trkpt lat="47.29434" lon="-2.25922">
        <ele>28.60000038147</ele>
        <time>2021-06-20T08:17:43.000Z</time>
      </trkpt>
      <trkpt lat="47.29433" lon="-2.25914">
        <ele>28.60000038147</ele>
        <time>2021-06-20T08:17:45.000Z</time>
      </trkpt>
      <trkpt lat="47.29428" lon="-2.2588">
        <ele>28.60000038147</ele>
        <time>2021-06-20T08:17:50.000Z</time>
      </trkpt>
      <trkpt lat="47.2942" lon="-2.25862">
        <ele>28.60000038147</ele>
        <time>2021-06-20T08:17:54.000Z</time>
      </trkpt>
      <trkpt lat="47.29419" lon="-2.25859">
        <ele>28.60000038147</ele>
        <time>2021-06-20T08:17:55.000Z</time>
      </trkpt>
      <trkpt lat="47.2942" lon="-2.25845">
        <ele>28.60000038147</ele>
        <time>2021-06-20T08:17:58.000Z</time>
      </trkpt>
      <trkpt lat="47.29424" lon="-2.25827">
        <ele>28.60000038147</ele>
        <time>2021-06-20T08:18:01.000Z</time>
      </trkpt>
      <trkpt lat="47.29426" lon="-2.25815">
        <ele>28.60000038147</ele>
        <time>2021-06-20T08:18:03.000Z</time>
      </trkpt>
      <trkpt lat="47.29427" lon="-2.25798">
        <ele>28.60000038147</ele>
        <time>2021-06-20T08:18:08.000Z</time>
      </trkpt>
      <trkpt lat="47.29425" lon="-2.25785">
        <ele>28.60000038147</ele>
        <time>2021-06-20T08:18:15.000Z</time>
      </trkpt>
      <trkpt lat="47.29423" lon="-2.25779">
        <ele>28.60000038147</ele>
        <time>2021-06-20T08:18:18.000Z</time>
      </trkpt>
      <trkpt lat="47.29421" lon="-2.25775">
        <ele>29</ele>
        <time>2021-06-20T08:18:20.000Z</time>
      </trkpt>
      <trkpt lat="47.2942" lon="-2.25774">
        <ele>29.39999961853</ele>
        <time>2021-06-20T08:18:21.000Z</time>
      </trkpt>
      <trkpt lat="47.29418" lon="-2.25773">
        <ele>29.799999237061</ele>
        <time>2021-06-20T08:18:22.000Z</time>
      </trkpt>
      <trkpt lat="47.29417" lon="-2.25773">
        <ele>30.200000762939</ele>
        <time>2021-06-20T08:18:23.000Z</time>
      </trkpt>
      <trkpt lat="47.29415" lon="-2.25772">
        <ele>30.799999237061</ele>
        <time>2021-06-20T08:18:24.000Z</time>
      </trkpt>
      <trkpt lat="47.2941" lon="-2.25768">
        <ele>30.799999237061</ele>
        <time>2021-06-20T08:18:27.000Z</time>
      </trkpt>
      <trkpt lat="47.29404" lon="-2.25767">
        <ele>30.799999237061</ele>
        <time>2021-06-20T08:18:30.000Z</time>
      </trkpt>
      <trkpt lat="47.29396" lon="-2.2577">
        <ele>30.799999237061</ele>
        <time>2021-06-20T08:18:33.000Z</time>
      </trkpt>
      <trkpt lat="47.29383" lon="-2.25773">
        <ele>30.799999237061</ele>
        <time>2021-06-20T08:18:39.000Z</time>
      </trkpt>
      <trkpt lat="47.29382" lon="-2.25774">
        <ele>31.200000762939</ele>
        <time>2021-06-20T08:18:40.000Z</time>
      </trkpt>
      <trkpt lat="47.2938" lon="-2.25777">
        <ele>31.60000038147</ele>
        <time>2021-06-20T08:18:41.000Z</time>
      </trkpt>
      <trkpt lat="47.29379" lon="-2.25779">
        <ele>32</ele>
        <time>2021-06-20T08:18:42.000Z</time>
      </trkpt>
      <trkpt lat="47.29377" lon="-2.25782">
        <ele>32.400001525879</ele>
        <time>2021-06-20T08:18:43.000Z</time>
      </trkpt>
      <trkpt lat="47.29375" lon="-2.25784">
        <ele>32.799999237061</ele>
        <time>2021-06-20T08:18:44.000Z</time>
      </trkpt>
      <trkpt lat="47.29374" lon="-2.25787">
        <ele>32.799999237061</ele>
        <time>2021-06-20T08:18:45.000Z</time>
      </trkpt>
      <trkpt lat="47.29368" lon="-2.25793">
        <ele>32.799999237061</ele>
        <time>2021-06-20T08:18:48.000Z</time>
      </trkpt>
      <trkpt lat="47.29358" lon="-2.25798">
        <ele>32.799999237061</ele>
        <time>2021-06-20T08:18:51.000Z</time>
      </trkpt>
      <trkpt lat="47.29351" lon="-2.25798">
        <ele>32.799999237061</ele>
        <time>2021-06-20T08:18:53.000Z</time>
      </trkpt>
      <trkpt lat="47.29339" lon="-2.25793">
        <ele>32.799999237061</ele>
        <time>2021-06-20T08:18:57.000Z</time>
      </trkpt>
      <trkpt lat="47.29325" lon="-2.25787">
        <ele>32.799999237061</ele>
        <time>2021-06-20T08:19:03.000Z</time>
      </trkpt>
      <trkpt lat="47.29325" lon="-2.25786">
        <ele>32.799999237061</ele>
        <time>2021-06-20T08:19:04.000Z</time>
      </trkpt>
      <trkpt lat="47.29328" lon="-2.25777">
        <ele>32.799999237061</ele>
        <time>2021-06-20T08:19:21.000Z</time>
      </trkpt>
      <trkpt lat="47.29329" lon="-2.25773">
        <ele>33.599998474121</ele>
        <time>2021-06-20T08:19:22.000Z</time>
      </trkpt>
      <trkpt lat="47.2933" lon="-2.2577">
        <ele>34</ele>
        <time>2021-06-20T08:19:23.000Z</time>
      </trkpt>
      <trkpt lat="47.29331" lon="-2.25768">
        <ele>34.400001525879</ele>
        <time>2021-06-20T08:19:24.000Z</time>
      </trkpt>
      <trkpt lat="47.29333" lon="-2.25766">
        <ele>34.799999237061</ele>
        <time>2021-06-20T08:19:25.000Z</time>
      </trkpt>
      <trkpt lat="47.29338" lon="-2.25759">
        <ele>34.799999237061</ele>
        <time>2021-06-20T08:19:28.000Z</time>
      </trkpt>
      <trkpt lat="47.29352" lon="-2.25739">
        <ele>34.799999237061</ele>
        <time>2021-06-20T08:19:33.000Z</time>
      </trkpt>
      <trkpt lat="47.29368" lon="-2.25711">
        <ele>34.799999237061</ele>
        <time>2021-06-20T08:19:38.000Z</time>
      </trkpt>
      <trkpt lat="47.2937" lon="-2.25705">
        <ele>34.799999237061</ele>
        <time>2021-06-20T08:19:39.000Z</time>
      </trkpt>
      <trkpt lat="47.29381" lon="-2.25669">
        <ele>34.799999237061</ele>
        <time>2021-06-20T08:19:44.000Z</time>
      </trkpt>
      <trkpt lat="47.29388" lon="-2.25647">
        <ele>34.799999237061</ele>
        <time>2021-06-20T08:19:47.000Z</time>
      </trkpt>
      <trkpt lat="47.29397" lon="-2.25631">
        <ele>34.799999237061</ele>
        <time>2021-06-20T08:19:50.000Z</time>
      </trkpt>
      <trkpt lat="47.29421" lon="-2.25617">
        <ele>34.799999237061</ele>
        <time>2021-06-20T08:19:55.000Z</time>
      </trkpt>
      <trkpt lat="47.29459" lon="-2.25602">
        <ele>34.799999237061</ele>
        <time>2021-06-20T08:20:02.000Z</time>
      </trkpt>
      <trkpt lat="47.29506" lon="-2.25578">
        <ele>34.799999237061</ele>
        <time>2021-06-20T08:20:10.000Z</time>
      </trkpt>
      <trkpt lat="47.29561" lon="-2.2554">
        <ele>34.799999237061</ele>
        <time>2021-06-20T08:20:19.000Z</time>
      </trkpt>
      <trkpt lat="47.29572" lon="-2.25528">
        <ele>34.799999237061</ele>
        <time>2021-06-20T08:20:21.000Z</time>
      </trkpt>
      <trkpt lat="47.29582" lon="-2.25511">
        <ele>34.799999237061</ele>
        <time>2021-06-20T08:20:23.000Z</time>
      </trkpt>
      <trkpt lat="47.29588" lon="-2.25479">
        <ele>34.799999237061</ele>
        <time>2021-06-20T08:20:26.000Z</time>
      </trkpt>
      <trkpt lat="47.29588" lon="-2.25457">
        <ele>34.799999237061</ele>
        <time>2021-06-20T08:20:28.000Z</time>
      </trkpt>
      <trkpt lat="47.29586" lon="-2.25434">
        <ele>34.799999237061</ele>
        <time>2021-06-20T08:20:30.000Z</time>
      </trkpt>
      <trkpt lat="47.29585" lon="-2.25423">
        <ele>34.400001525879</ele>
        <time>2021-06-20T08:20:31.000Z</time>
      </trkpt>
      <trkpt lat="47.29584" lon="-2.25412">
        <ele>34</ele>
        <time>2021-06-20T08:20:32.000Z</time>
      </trkpt>
      <trkpt lat="47.29583" lon="-2.25401">
        <ele>33.599998474121</ele>
        <time>2021-06-20T08:20:33.000Z</time>
      </trkpt>
      <trkpt lat="47.29581" lon="-2.2539">
        <ele>33.200000762939</ele>
        <time>2021-06-20T08:20:34.000Z</time>
      </trkpt>
      <trkpt lat="47.29578" lon="-2.25379">
        <ele>32.799999237061</ele>
        <time>2021-06-20T08:20:35.000Z</time>
      </trkpt>
      <trkpt lat="47.29576" lon="-2.25369">
        <ele>32.799999237061</ele>
        <time>2021-06-20T08:20:36.000Z</time>
      </trkpt>
      <trkpt lat="47.29573" lon="-2.25359">
        <ele>32.799999237061</ele>
        <time>2021-06-20T08:20:37.000Z</time>
      </trkpt>
      <trkpt lat="47.2956" lon="-2.2533">
        <ele>32.799999237061</ele>
        <time>2021-06-20T08:20:40.000Z</time>
      </trkpt>
      <trkpt lat="47.29555" lon="-2.25321">
        <ele>32.200000762939</ele>
        <time>2021-06-20T08:20:41.000Z</time>
      </trkpt>
      <trkpt lat="47.29551" lon="-2.25313">
        <ele>31.799999237061</ele>
        <time>2021-06-20T08:20:42.000Z</time>
      </trkpt>
      <trkpt lat="47.29547" lon="-2.25303">
        <ele>31.39999961853</ele>
        <time>2021-06-20T08:20:43.000Z</time>
      </trkpt>
      <trkpt lat="47.29543" lon="-2.25293">
        <ele>31</ele>
        <time>2021-06-20T08:20:44.000Z</time>
      </trkpt>
      <trkpt lat="47.29541" lon="-2.25283">
        <ele>30.60000038147</ele>
        <time>2021-06-20T08:20:45.000Z</time>
      </trkpt>
      <trkpt lat="47.29539" lon="-2.25272">
        <ele>30.60000038147</ele>
        <time>2021-06-20T08:20:46.000Z</time>
      </trkpt>
      <trkpt lat="47.29538" lon="-2.25252">
        <ele>30.60000038147</ele>
        <time>2021-06-20T08:20:48.000Z</time>
      </trkpt>
      <trkpt lat="47.29538" lon="-2.25243">
        <ele>30.200000762939</ele>
        <time>2021-06-20T08:20:49.000Z</time>
      </trkpt>
      <trkpt lat="47.29538" lon="-2.25235">
        <ele>29.799999237061</ele>
        <time>2021-06-20T08:20:50.000Z</time>
      </trkpt>
      <trkpt lat="47.29539" lon="-2.25227">
        <ele>29.39999961853</ele>
        <time>2021-06-20T08:20:51.000Z</time>
      </trkpt>
      <trkpt lat="47.2954" lon="-2.25219">
        <ele>29</ele>
        <time>2021-06-20T08:20:52.000Z</time>
      </trkpt>
      <trkpt lat="47.29541" lon="-2.25211">
        <ele>28.60000038147</ele>
        <time>2021-06-20T08:20:53.000Z</time>
      </trkpt>
      <trkpt lat="47.29547" lon="-2.25191">
        <ele>28.60000038147</ele>
        <time>2021-06-20T08:20:56.000Z</time>
      </trkpt>
      <trkpt lat="47.29549" lon="-2.25178">
        <ele>28.60000038147</ele>
        <time>2021-06-20T08:20:59.000Z</time>
      </trkpt>
      <trkpt lat="47.29541" lon="-2.25175">
        <ele>28.60000038147</ele>
        <time>2021-06-20T08:21:03.000Z</time>
      </trkpt>
      <trkpt lat="47.29525" lon="-2.25181">
        <ele>28.60000038147</ele>
        <time>2021-06-20T08:21:07.000Z</time>
      </trkpt>
      <trkpt lat="47.29503" lon="-2.25189">
        <ele>28.60000038147</ele>
        <time>2021-06-20T08:21:11.000Z</time>
      </trkpt>
      <trkpt lat="47.29498" lon="-2.25191">
        <ele>28.60000038147</ele>
        <time>2021-06-20T08:21:12.000Z</time>
      </trkpt>
      <trkpt lat="47.2946" lon="-2.25203">
        <ele>28.60000038147</ele>
        <time>2021-06-20T08:21:18.000Z</time>
      </trkpt>
      <trkpt lat="47.29446" lon="-2.25208">
        <ele>28</ele>
        <time>2021-06-20T08:21:20.000Z</time>
      </trkpt>
      <trkpt lat="47.29438" lon="-2.2521">
        <ele>27.60000038147</ele>
        <time>2021-06-20T08:21:21.000Z</time>
      </trkpt>
      <trkpt lat="47.29431" lon="-2.25212">
        <ele>27.200000762939</ele>
        <time>2021-06-20T08:21:22.000Z</time>
      </trkpt>
      <trkpt lat="47.29425" lon="-2.25213">
        <ele>26.60000038147</ele>
        <time>2021-06-20T08:21:23.000Z</time>
      </trkpt>
      <trkpt lat="47.29418" lon="-2.25215">
        <ele>26.200000762939</ele>
        <time>2021-06-20T08:21:24.000Z</time>
      </trkpt>
      <trkpt lat="47.29393" lon="-2.25209">
        <ele>26.200000762939</ele>
        <time>2021-06-20T08:21:28.000Z</time>
      </trkpt>
      <trkpt lat="47.29347" lon="-2.25199">
        <ele>26.200000762939</ele>
        <time>2021-06-20T08:21:35.000Z</time>
      </trkpt>
      <trkpt lat="47.29326" lon="-2.25198">
        <ele>25.799999237061</ele>
        <time>2021-06-20T08:21:38.000Z</time>
      </trkpt>
      <trkpt lat="47.2932" lon="-2.25198">
        <ele>25.39999961853</ele>
        <time>2021-06-20T08:21:39.000Z</time>
      </trkpt>
      <trkpt lat="47.29316" lon="-2.25196">
        <ele>25</ele>
        <time>2021-06-20T08:21:40.000Z</time>
      </trkpt>
      <trkpt lat="47.29312" lon="-2.25191">
        <ele>24.60000038147</ele>
        <time>2021-06-20T08:21:41.000Z</time>
      </trkpt>
      <trkpt lat="47.29309" lon="-2.25184">
        <ele>24.200000762939</ele>
        <time>2021-06-20T08:21:42.000Z</time>
      </trkpt>
      <trkpt lat="47.29307" lon="-2.25176">
        <ele>24.200000762939</ele>
        <time>2021-06-20T08:21:43.000Z</time>
      </trkpt>
      <trkpt lat="47.29303" lon="-2.25152">
        <ele>24.200000762939</ele>
        <time>2021-06-20T08:21:46.000Z</time>
      </trkpt>
      <trkpt lat="47.29298" lon="-2.25127">
        <ele>24.200000762939</ele>
        <time>2021-06-20T08:21:49.000Z</time>
      </trkpt>
      <trkpt lat="47.29292" lon="-2.25095">
        <ele>24.60000038147</ele>
        <time>2021-06-20T08:21:53.000Z</time>
      </trkpt>
      <trkpt lat="47.29291" lon="-2.25086">
        <ele>25</ele>
        <time>2021-06-20T08:21:54.000Z</time>
      </trkpt>
      <trkpt lat="47.29289" lon="-2.25078">
        <ele>25.39999961853</ele>
        <time>2021-06-20T08:21:55.000Z</time>
      </trkpt>
      <trkpt lat="47.29287" lon="-2.2507">
        <ele>25.799999237061</ele>
        <time>2021-06-20T08:21:56.000Z</time>
      </trkpt>
      <trkpt lat="47.29285" lon="-2.25063">
        <ele>26.200000762939</ele>
        <time>2021-06-20T08:21:57.000Z</time>
      </trkpt>
      <trkpt lat="47.29276" lon="-2.25033">
        <ele>26.200000762939</ele>
        <time>2021-06-20T08:22:01.000Z</time>
      </trkpt>
      <trkpt lat="47.29274" lon="-2.25025">
        <ele>26.200000762939</ele>
        <time>2021-06-20T08:22:02.000Z</time>
      </trkpt>
      <trkpt lat="47.29267" lon="-2.24994">
        <ele>26.200000762939</ele>
        <time>2021-06-20T08:22:06.000Z</time>
      </trkpt>
      <trkpt lat="47.29264" lon="-2.2498">
        <ele>26.200000762939</ele>
        <time>2021-06-20T08:22:08.000Z</time>
      </trkpt>
      <trkpt lat="47.29259" lon="-2.24957">
        <ele>26.200000762939</ele>
        <time>2021-06-20T08:22:11.000Z</time>
      </trkpt>
      <trkpt lat="47.29258" lon="-2.2495">
        <ele>26.200000762939</ele>
        <time>2021-06-20T08:22:12.000Z</time>
      </trkpt>
      <trkpt lat="47.29261" lon="-2.24931">
        <ele>26.200000762939</ele>
        <time>2021-06-20T08:22:15.000Z</time>
      </trkpt>
      <trkpt lat="47.29271" lon="-2.24923">
        <ele>26.200000762939</ele>
        <time>2021-06-20T08:22:18.000Z</time>
      </trkpt>
      <trkpt lat="47.29288" lon="-2.2492">
        <ele>26.60000038147</ele>
        <time>2021-06-20T08:22:22.000Z</time>
      </trkpt>
      <trkpt lat="47.29292" lon="-2.2492">
        <ele>27</ele>
        <time>2021-06-20T08:22:23.000Z</time>
      </trkpt>
      <trkpt lat="47.29296" lon="-2.2492">
        <ele>27.39999961853</ele>
        <time>2021-06-20T08:22:24.000Z</time>
      </trkpt>
      <trkpt lat="47.29301" lon="-2.24919">
        <ele>27.799999237061</ele>
        <time>2021-06-20T08:22:25.000Z</time>
      </trkpt>
      <trkpt lat="47.29305" lon="-2.24919">
        <ele>28.39999961853</ele>
        <time>2021-06-20T08:22:26.000Z</time>
      </trkpt>
      <trkpt lat="47.2931" lon="-2.24918">
        <ele>28.39999961853</ele>
        <time>2021-06-20T08:22:27.000Z</time>
      </trkpt>
      <trkpt lat="47.2932" lon="-2.24917">
        <ele>28.39999961853</ele>
        <time>2021-06-20T08:22:29.000Z</time>
      </trkpt>
      <trkpt lat="47.29333" lon="-2.24909">
        <ele>28.39999961853</ele>
        <time>2021-06-20T08:22:33.000Z</time>
      </trkpt>
      <trkpt lat="47.29334" lon="-2.24892">
        <ele>28.39999961853</ele>
        <time>2021-06-20T08:22:36.000Z</time>
      </trkpt>
      <trkpt lat="47.29331" lon="-2.24864">
        <ele>28.39999961853</ele>
        <time>2021-06-20T08:22:40.000Z</time>
      </trkpt>
      <trkpt lat="47.29326" lon="-2.24825">
        <ele>28.39999961853</ele>
        <time>2021-06-20T08:22:46.000Z</time>
      </trkpt>
      <trkpt lat="47.29323" lon="-2.24811">
        <ele>27.799999237061</ele>
        <time>2021-06-20T08:22:48.000Z</time>
      </trkpt>
      <trkpt lat="47.29322" lon="-2.24804">
        <ele>27.39999961853</ele>
        <time>2021-06-20T08:22:49.000Z</time>
      </trkpt>
      <trkpt lat="47.2932" lon="-2.24797">
        <ele>27</ele>
        <time>2021-06-20T08:22:50.000Z</time>
      </trkpt>
      <trkpt lat="47.29318" lon="-2.24791">
        <ele>26.60000038147</ele>
        <time>2021-06-20T08:22:51.000Z</time>
      </trkpt>
      <trkpt lat="47.29317" lon="-2.24784">
        <ele>26.200000762939</ele>
        <time>2021-06-20T08:22:52.000Z</time>
      </trkpt>
      <trkpt lat="47.29314" lon="-2.24777">
        <ele>26.200000762939</ele>
        <time>2021-06-20T08:22:53.000Z</time>
      </trkpt>
      <trkpt lat="47.29307" lon="-2.24756">
        <ele>26.200000762939</ele>
        <time>2021-06-20T08:22:56.000Z</time>
      </trkpt>
      <trkpt lat="47.29304" lon="-2.24741">
        <ele>26.200000762939</ele>
        <time>2021-06-20T08:22:58.000Z</time>
      </trkpt>
      <trkpt lat="47.29296" lon="-2.24698">
        <ele>26.200000762939</ele>
        <time>2021-06-20T08:23:04.000Z</time>
      </trkpt>
      <trkpt lat="47.29291" lon="-2.24666">
        <ele>26.200000762939</ele>
        <time>2021-06-20T08:23:08.000Z</time>
      </trkpt>
      <trkpt lat="47.29291" lon="-2.24649">
        <ele>25.799999237061</ele>
        <time>2021-06-20T08:23:10.000Z</time>
      </trkpt>
      <trkpt lat="47.29291" lon="-2.2464">
        <ele>25.39999961853</ele>
        <time>2021-06-20T08:23:11.000Z</time>
      </trkpt>
      <trkpt lat="47.29292" lon="-2.24631">
        <ele>25</ele>
        <time>2021-06-20T08:23:12.000Z</time>
      </trkpt>
      <trkpt lat="47.29293" lon="-2.24622">
        <ele>24.60000038147</ele>
        <time>2021-06-20T08:23:13.000Z</time>
      </trkpt>
      <trkpt lat="47.29294" lon="-2.24613">
        <ele>24.200000762939</ele>
        <time>2021-06-20T08:23:14.000Z</time>
      </trkpt>
      <trkpt lat="47.29294" lon="-2.24605">
        <ele>24.200000762939</ele>
        <time>2021-06-20T08:23:15.000Z</time>
      </trkpt>
      <trkpt lat="47.29294" lon="-2.24595">
        <ele>24.200000762939</ele>
        <time>2021-06-20T08:23:16.000Z</time>
      </trkpt>
      <trkpt lat="47.29291" lon="-2.24557">
        <ele>24.200000762939</ele>
        <time>2021-06-20T08:23:20.000Z</time>
      </trkpt>
      <trkpt lat="47.29288" lon="-2.24488">
        <ele>24.200000762939</ele>
        <time>2021-06-20T08:23:28.000Z</time>
      </trkpt>
      <trkpt lat="47.29288" lon="-2.24469">
        <ele>24.200000762939</ele>
        <time>2021-06-20T08:23:31.000Z</time>
      </trkpt>
      <trkpt lat="47.29289" lon="-2.24466">
        <ele>24.200000762939</ele>
        <time>2021-06-20T08:23:32.000Z</time>
      </trkpt>
      <trkpt lat="47.29295" lon="-2.24453">
        <ele>24.200000762939</ele>
        <time>2021-06-20T08:23:36.000Z</time>
      </trkpt>
      <trkpt lat="47.29299" lon="-2.24449">
        <ele>24.200000762939</ele>
        <time>2021-06-20T08:23:37.000Z</time>
      </trkpt>
      <trkpt lat="47.29308" lon="-2.24439">
        <ele>24.200000762939</ele>
        <time>2021-06-20T08:23:39.000Z</time>
      </trkpt>
      <trkpt lat="47.29335" lon="-2.24411">
        <ele>24.200000762939</ele>
        <time>2021-06-20T08:23:44.000Z</time>
      </trkpt>
      <trkpt lat="47.29384" lon="-2.24362">
        <ele>24.200000762939</ele>
        <time>2021-06-20T08:23:52.000Z</time>
      </trkpt>
      <trkpt lat="47.29417" lon="-2.24331">
        <ele>24.200000762939</ele>
        <time>2021-06-20T08:23:58.000Z</time>
      </trkpt>
      <trkpt lat="47.29432" lon="-2.24318">
        <ele>24.200000762939</ele>
        <time>2021-06-20T08:24:01.000Z</time>
      </trkpt>
      <trkpt lat="47.29449" lon="-2.24311">
        <ele>24.200000762939</ele>
        <time>2021-06-20T08:24:04.000Z</time>
      </trkpt>
      <trkpt lat="47.29491" lon="-2.24296">
        <ele>23.60000038147</ele>
        <time>2021-06-20T08:24:11.000Z</time>
      </trkpt>
      <trkpt lat="47.29498" lon="-2.24293">
        <ele>23.200000762939</ele>
        <time>2021-06-20T08:24:12.000Z</time>
      </trkpt>
      <trkpt lat="47.29504" lon="-2.2429">
        <ele>22.799999237061</ele>
        <time>2021-06-20T08:24:13.000Z</time>
      </trkpt>
      <trkpt lat="47.29511" lon="-2.24287">
        <ele>22.39999961853</ele>
        <time>2021-06-20T08:24:14.000Z</time>
      </trkpt>
      <trkpt lat="47.29517" lon="-2.24284">
        <ele>22</ele>
        <time>2021-06-20T08:24:15.000Z</time>
      </trkpt>
      <trkpt lat="47.29536" lon="-2.24278">
        <ele>21.60000038147</ele>
        <time>2021-06-20T08:24:18.000Z</time>
      </trkpt>
      <trkpt lat="47.29541" lon="-2.2428">
        <ele>20.60000038147</ele>
        <time>2021-06-20T08:24:19.000Z</time>
      </trkpt>
      <trkpt lat="47.29545" lon="-2.24282">
        <ele>20</ele>
        <time>2021-06-20T08:24:20.000Z</time>
      </trkpt>
      <trkpt lat="47.2955" lon="-2.24284">
        <ele>19.39999961853</ele>
        <time>2021-06-20T08:24:21.000Z</time>
      </trkpt>
      <trkpt lat="47.29554" lon="-2.24288">
        <ele>18.60000038147</ele>
        <time>2021-06-20T08:24:22.000Z</time>
      </trkpt>
      <trkpt lat="47.29557" lon="-2.24293">
        <ele>18</ele>
        <time>2021-06-20T08:24:23.000Z</time>
      </trkpt>
      <trkpt lat="47.29561" lon="-2.24298">
        <ele>17.39999961853</ele>
        <time>2021-06-20T08:24:24.000Z</time>
      </trkpt>
      <trkpt lat="47.29564" lon="-2.24303">
        <ele>17.39999961853</ele>
        <time>2021-06-20T08:24:25.000Z</time>
      </trkpt>
      <trkpt lat="47.29568" lon="-2.24308">
        <ele>17.39999961853</ele>
        <time>2021-06-20T08:24:26.000Z</time>
      </trkpt>
      <trkpt lat="47.29583" lon="-2.24316">
        <ele>17.39999961853</ele>
        <time>2021-06-20T08:24:29.000Z</time>
      </trkpt>
      <trkpt lat="47.29593" lon="-2.24315">
        <ele>17.39999961853</ele>
        <time>2021-06-20T08:24:31.000Z</time>
      </trkpt>
      <trkpt lat="47.29599" lon="-2.24313">
        <ele>17.799999237061</ele>
        <time>2021-06-20T08:24:32.000Z</time>
      </trkpt>
      <trkpt lat="47.29604" lon="-2.24312">
        <ele>18.200000762939</ele>
        <time>2021-06-20T08:24:33.000Z</time>
      </trkpt>
      <trkpt lat="47.29609" lon="-2.2431">
        <ele>18.60000038147</ele>
        <time>2021-06-20T08:24:34.000Z</time>
      </trkpt>
      <trkpt lat="47.29615" lon="-2.24309">
        <ele>19</ele>
        <time>2021-06-20T08:24:35.000Z</time>
      </trkpt>
      <trkpt lat="47.29621" lon="-2.24307">
        <ele>19.39999961853</ele>
        <time>2021-06-20T08:24:36.000Z</time>
      </trkpt>
      <trkpt lat="47.29638" lon="-2.243">
        <ele>19.39999961853</ele>
        <time>2021-06-20T08:24:39.000Z</time>
      </trkpt>
      <trkpt lat="47.29666" lon="-2.24285">
        <ele>19.799999237061</ele>
        <time>2021-06-20T08:24:44.000Z</time>
      </trkpt>
      <trkpt lat="47.29672" lon="-2.24282">
        <ele>20.39999961853</ele>
        <time>2021-06-20T08:24:45.000Z</time>
      </trkpt>
      <trkpt lat="47.29677" lon="-2.2428">
        <ele>20.799999237061</ele>
        <time>2021-06-20T08:24:46.000Z</time>
      </trkpt>
      <trkpt lat="47.29682" lon="-2.24278">
        <ele>21.200000762939</ele>
        <time>2021-06-20T08:24:47.000Z</time>
      </trkpt>
      <trkpt lat="47.29687" lon="-2.24275">
        <ele>21.60000038147</ele>
        <time>2021-06-20T08:24:48.000Z</time>
      </trkpt>
      <trkpt lat="47.29714" lon="-2.2426">
        <ele>22</ele>
        <time>2021-06-20T08:24:53.000Z</time>
      </trkpt>
      <trkpt lat="47.29719" lon="-2.24256">
        <ele>22.39999961853</ele>
        <time>2021-06-20T08:24:54.000Z</time>
      </trkpt>
      <trkpt lat="47.29724" lon="-2.24253">
        <ele>22.799999237061</ele>
        <time>2021-06-20T08:24:55.000Z</time>
      </trkpt>
      <trkpt lat="47.29729" lon="-2.2425">
        <ele>23.200000762939</ele>
        <time>2021-06-20T08:24:56.000Z</time>
      </trkpt>
      <trkpt lat="47.29735" lon="-2.24247">
        <ele>23.60000038147</ele>
        <time>2021-06-20T08:24:57.000Z</time>
      </trkpt>
      <trkpt lat="47.29756" lon="-2.24237">
        <ele>23.60000038147</ele>
        <time>2021-06-20T08:25:01.000Z</time>
      </trkpt>
      <trkpt lat="47.29761" lon="-2.24234">
        <ele>24</ele>
        <time>2021-06-20T08:25:02.000Z</time>
      </trkpt>
      <trkpt lat="47.29767" lon="-2.24231">
        <ele>24.39999961853</ele>
        <time>2021-06-20T08:25:03.000Z</time>
      </trkpt>
      <trkpt lat="47.29772" lon="-2.24229">
        <ele>25</ele>
        <time>2021-06-20T08:25:04.000Z</time>
      </trkpt>
      <trkpt lat="47.29777" lon="-2.24226">
        <ele>25.39999961853</ele>
        <time>2021-06-20T08:25:05.000Z</time>
      </trkpt>
      <trkpt lat="47.29782" lon="-2.24223">
        <ele>25.799999237061</ele>
        <time>2021-06-20T08:25:06.000Z</time>
      </trkpt>
      <trkpt lat="47.29797" lon="-2.24217">
        <ele>25.799999237061</ele>
        <time>2021-06-20T08:25:09.000Z</time>
      </trkpt>
      <trkpt lat="47.29802" lon="-2.24216">
        <ele>26.200000762939</ele>
        <time>2021-06-20T08:25:10.000Z</time>
      </trkpt>
      <trkpt lat="47.29806" lon="-2.24218">
        <ele>26.60000038147</ele>
        <time>2021-06-20T08:25:11.000Z</time>
      </trkpt>
      <trkpt lat="47.2981" lon="-2.2422">
        <ele>27.200000762939</ele>
        <time>2021-06-20T08:25:12.000Z</time>
      </trkpt>
      <trkpt lat="47.29814" lon="-2.24223">
        <ele>27.60000038147</ele>
        <time>2021-06-20T08:25:13.000Z</time>
      </trkpt>
      <trkpt lat="47.29819" lon="-2.24225">
        <ele>28</ele>
        <time>2021-06-20T08:25:14.000Z</time>
      </trkpt>
      <trkpt lat="47.29838" lon="-2.24238">
        <ele>28</ele>
        <time>2021-06-20T08:25:19.000Z</time>
      </trkpt>
      <trkpt lat="47.29865" lon="-2.24247">
        <ele>28</ele>
        <time>2021-06-20T08:25:25.000Z</time>
      </trkpt>
      <trkpt lat="47.29886" lon="-2.2426">
        <ele>28</ele>
        <time>2021-06-20T08:25:30.000Z</time>
      </trkpt>
      <trkpt lat="47.29894" lon="-2.24267">
        <ele>28</ele>
        <time>2021-06-20T08:25:32.000Z</time>
      </trkpt>
      <trkpt lat="47.2991" lon="-2.2428">
        <ele>28</ele>
        <time>2021-06-20T08:25:36.000Z</time>
      </trkpt>
      <trkpt lat="47.29922" lon="-2.24287">
        <ele>28</ele>
        <time>2021-06-20T08:25:39.000Z</time>
      </trkpt>
      <trkpt lat="47.29934" lon="-2.24295">
        <ele>28</ele>
        <time>2021-06-20T08:25:42.000Z</time>
      </trkpt>
      <trkpt lat="47.29943" lon="-2.2431">
        <ele>28</ele>
        <time>2021-06-20T08:25:45.000Z</time>
      </trkpt>
      <trkpt lat="47.29953" lon="-2.24323">
        <ele>28</ele>
        <time>2021-06-20T08:25:48.000Z</time>
      </trkpt>
      <trkpt lat="47.29961" lon="-2.2433">
        <ele>28</ele>
        <time>2021-06-20T08:25:50.000Z</time>
      </trkpt>
      <trkpt lat="47.29966" lon="-2.24335">
        <ele>28</ele>
        <time>2021-06-20T08:25:51.000Z</time>
      </trkpt>
      <trkpt lat="47.29983" lon="-2.24354">
        <ele>28</ele>
        <time>2021-06-20T08:25:55.000Z</time>
      </trkpt>
      <trkpt lat="47.29993" lon="-2.24361">
        <ele>28</ele>
        <time>2021-06-20T08:25:58.000Z</time>
      </trkpt>
      <trkpt lat="47.29996" lon="-2.24359">
        <ele>28</ele>
        <time>2021-06-20T08:25:59.000Z</time>
      </trkpt>
      <trkpt lat="47.3" lon="-2.24347">
        <ele>28</ele>
        <time>2021-06-20T08:26:02.000Z</time>
      </trkpt>
      <trkpt lat="47.30003" lon="-2.24338">
        <ele>28.39999961853</ele>
        <time>2021-06-20T08:26:04.000Z</time>
      </trkpt>
      <trkpt lat="47.30004" lon="-2.24334">
        <ele>28.799999237061</ele>
        <time>2021-06-20T08:26:05.000Z</time>
      </trkpt>
      <trkpt lat="47.30005" lon="-2.24329">
        <ele>29.200000762939</ele>
        <time>2021-06-20T08:26:06.000Z</time>
      </trkpt>
      <trkpt lat="47.30006" lon="-2.24324">
        <ele>29.60000038147</ele>
        <time>2021-06-20T08:26:07.000Z</time>
      </trkpt>
      <trkpt lat="47.30007" lon="-2.24319">
        <ele>30</ele>
        <time>2021-06-20T08:26:08.000Z</time>
      </trkpt>
      <trkpt lat="47.30016" lon="-2.24301">
        <ele>30</ele>
        <time>2021-06-20T08:26:12.000Z</time>
      </trkpt>
      <trkpt lat="47.30022" lon="-2.24286">
        <ele>30</ele>
        <time>2021-06-20T08:26:16.000Z</time>
      </trkpt>
      <trkpt lat="47.30023" lon="-2.24284">
        <ele>30</ele>
        <time>2021-06-20T08:26:17.000Z</time>
      </trkpt>
      <trkpt lat="47.30025" lon="-2.24269">
        <ele>30</ele>
        <time>2021-06-20T08:26:21.000Z</time>
      </trkpt>
      <trkpt lat="47.30021" lon="-2.24257">
        <ele>30</ele>
        <time>2021-06-20T08:26:24.000Z</time>
      </trkpt>
      <trkpt lat="47.3002" lon="-2.24252">
        <ele>29.60000038147</ele>
        <time>2021-06-20T08:26:25.000Z</time>
      </trkpt>
      <trkpt lat="47.3002" lon="-2.24246">
        <ele>29.200000762939</ele>
        <time>2021-06-20T08:26:26.000Z</time>
      </trkpt>
      <trkpt lat="47.3002" lon="-2.24238">
        <ele>28.60000038147</ele>
        <time>2021-06-20T08:26:27.000Z</time>
      </trkpt>
      <trkpt lat="47.3002" lon="-2.24231">
        <ele>28.200000762939</ele>
        <time>2021-06-20T08:26:28.000Z</time>
      </trkpt>
      <trkpt lat="47.30021" lon="-2.24223">
        <ele>27.799999237061</ele>
        <time>2021-06-20T08:26:29.000Z</time>
      </trkpt>
      <trkpt lat="47.30021" lon="-2.24216">
        <ele>27.799999237061</ele>
        <time>2021-06-20T08:26:30.000Z</time>
      </trkpt>
      <trkpt lat="47.30021" lon="-2.24209">
        <ele>27.799999237061</ele>
        <time>2021-06-20T08:26:31.000Z</time>
      </trkpt>
      <trkpt lat="47.30022" lon="-2.24194">
        <ele>27.200000762939</ele>
        <time>2021-06-20T08:26:33.000Z</time>
      </trkpt>
      <trkpt lat="47.30023" lon="-2.24187">
        <ele>26.799999237061</ele>
        <time>2021-06-20T08:26:34.000Z</time>
      </trkpt>
      <trkpt lat="47.30023" lon="-2.24182">
        <ele>26.39999961853</ele>
        <time>2021-06-20T08:26:35.000Z</time>
      </trkpt>
      <trkpt lat="47.30023" lon="-2.24177">
        <ele>25.799999237061</ele>
        <time>2021-06-20T08:26:36.000Z</time>
      </trkpt>
      <trkpt lat="47.30022" lon="-2.24173">
        <ele>25.39999961853</ele>
        <time>2021-06-20T08:26:37.000Z</time>
      </trkpt>
      <trkpt lat="47.30022" lon="-2.24169">
        <ele>25</ele>
        <time>2021-06-20T08:26:38.000Z</time>
      </trkpt>
      <trkpt lat="47.30021" lon="-2.24166">
        <ele>24.39999961853</ele>
        <time>2021-06-20T08:26:39.000Z</time>
      </trkpt>
      <trkpt lat="47.30021" lon="-2.24163">
        <ele>24</ele>
        <time>2021-06-20T08:26:40.000Z</time>
      </trkpt>
      <trkpt lat="47.30022" lon="-2.24161">
        <ele>23.60000038147</ele>
        <time>2021-06-20T08:26:41.000Z</time>
      </trkpt>
      <trkpt lat="47.30022" lon="-2.24159">
        <ele>23</ele>
        <time>2021-06-20T08:26:42.000Z</time>
      </trkpt>
      <trkpt lat="47.30034" lon="-2.24146">
        <ele>23</ele>
        <time>2021-06-20T08:26:50.000Z</time>
      </trkpt>
      <trkpt lat="47.30052" lon="-2.24131">
        <ele>23.39999961853</ele>
        <time>2021-06-20T08:26:57.000Z</time>
      </trkpt>
      <trkpt lat="47.30056" lon="-2.24129">
        <ele>23.799999237061</ele>
        <time>2021-06-20T08:26:58.000Z</time>
      </trkpt>
      <trkpt lat="47.3006" lon="-2.24126">
        <ele>24.200000762939</ele>
        <time>2021-06-20T08:26:59.000Z</time>
      </trkpt>
      <trkpt lat="47.30064" lon="-2.24123">
        <ele>24.60000038147</ele>
        <time>2021-06-20T08:27:00.000Z</time>
      </trkpt>
      <trkpt lat="47.30068" lon="-2.2412">
        <ele>25</ele>
        <time>2021-06-20T08:27:01.000Z</time>
      </trkpt>
      <trkpt lat="47.30077" lon="-2.24116">
        <ele>25</ele>
        <time>2021-06-20T08:27:03.000Z</time>
      </trkpt>
      <trkpt lat="47.30107" lon="-2.24097">
        <ele>25</ele>
        <time>2021-06-20T08:27:09.000Z</time>
      </trkpt>
      <trkpt lat="47.30142" lon="-2.24076">
        <ele>25</ele>
        <time>2021-06-20T08:27:16.000Z</time>
      </trkpt>
      <trkpt lat="47.30181" lon="-2.24063">
        <ele>25</ele>
        <time>2021-06-20T08:27:22.000Z</time>
      </trkpt>
      <trkpt lat="47.30227" lon="-2.24063">
        <ele>25</ele>
        <time>2021-06-20T08:27:29.000Z</time>
      </trkpt>
      <trkpt lat="47.30258" lon="-2.24067">
        <ele>25</ele>
        <time>2021-06-20T08:27:34.000Z</time>
      </trkpt>
      <trkpt lat="47.30263" lon="-2.24066">
        <ele>25</ele>
        <time>2021-06-20T08:27:35.000Z</time>
      </trkpt>
      <trkpt lat="47.30273" lon="-2.24058">
        <ele>25</ele>
        <time>2021-06-20T08:27:37.000Z</time>
      </trkpt>
      <trkpt lat="47.30276" lon="-2.24033">
        <ele>25</ele>
        <time>2021-06-20T08:27:40.000Z</time>
      </trkpt>
      <trkpt lat="47.30273" lon="-2.24013">
        <ele>24.60000038147</ele>
        <time>2021-06-20T08:27:42.000Z</time>
      </trkpt>
      <trkpt lat="47.30272" lon="-2.24001">
        <ele>24.200000762939</ele>
        <time>2021-06-20T08:27:43.000Z</time>
      </trkpt>
      <trkpt lat="47.3027" lon="-2.2399">
        <ele>23.799999237061</ele>
        <time>2021-06-20T08:27:44.000Z</time>
      </trkpt>
      <trkpt lat="47.30267" lon="-2.23979">
        <ele>23.39999961853</ele>
        <time>2021-06-20T08:27:45.000Z</time>
      </trkpt>
      <trkpt lat="47.30263" lon="-2.23967">
        <ele>23</ele>
        <time>2021-06-20T08:27:46.000Z</time>
      </trkpt>
      <trkpt lat="47.3026" lon="-2.23957">
        <ele>22.60000038147</ele>
        <time>2021-06-20T08:27:47.000Z</time>
      </trkpt>
      <trkpt lat="47.30258" lon="-2.23946">
        <ele>22.200000762939</ele>
        <time>2021-06-20T08:27:48.000Z</time>
      </trkpt>
      <trkpt lat="47.30256" lon="-2.23935">
        <ele>21.799999237061</ele>
        <time>2021-06-20T08:27:49.000Z</time>
      </trkpt>
      <trkpt lat="47.30256" lon="-2.23925">
        <ele>21.39999961853</ele>
        <time>2021-06-20T08:27:50.000Z</time>
      </trkpt>
      <trkpt lat="47.30256" lon="-2.23916">
        <ele>21</ele>
        <time>2021-06-20T08:27:51.000Z</time>
      </trkpt>
      <trkpt lat="47.30256" lon="-2.23908">
        <ele>21</ele>
        <time>2021-06-20T08:27:52.000Z</time>
      </trkpt>
      <trkpt lat="47.30257" lon="-2.23902">
        <ele>20.60000038147</ele>
        <time>2021-06-20T08:27:53.000Z</time>
      </trkpt>
      <trkpt lat="47.30259" lon="-2.23899">
        <ele>20</ele>
        <time>2021-06-20T08:27:54.000Z</time>
      </trkpt>
      <trkpt lat="47.30262" lon="-2.23895">
        <ele>19.60000038147</ele>
        <time>2021-06-20T08:27:55.000Z</time>
      </trkpt>
      <trkpt lat="47.30265" lon="-2.23891">
        <ele>19.200000762939</ele>
        <time>2021-06-20T08:27:56.000Z</time>
      </trkpt>
      <trkpt lat="47.30268" lon="-2.23888">
        <ele>18.60000038147</ele>
        <time>2021-06-20T08:27:57.000Z</time>
      </trkpt>
      <trkpt lat="47.30276" lon="-2.23888">
        <ele>18.60000038147</ele>
        <time>2021-06-20T08:27:59.000Z</time>
      </trkpt>
      <trkpt lat="47.30281" lon="-2.23888">
        <ele>18.60000038147</ele>
        <time>2021-06-20T08:28:00.000Z</time>
      </trkpt>
      <trkpt lat="47.303" lon="-2.23884">
        <ele>18.60000038147</ele>
        <time>2021-06-20T08:28:05.000Z</time>
      </trkpt>
      <trkpt lat="47.30319" lon="-2.23877">
        <ele>18.60000038147</ele>
        <time>2021-06-20T08:28:12.000Z</time>
      </trkpt>
      <trkpt lat="47.30335" lon="-2.23866">
        <ele>18.60000038147</ele>
        <time>2021-06-20T08:28:18.000Z</time>
      </trkpt>
      <trkpt lat="47.3035" lon="-2.23858">
        <ele>18.60000038147</ele>
        <time>2021-06-20T08:28:23.000Z</time>
      </trkpt>
      <trkpt lat="47.30364" lon="-2.23855">
        <ele>18.60000038147</ele>
        <time>2021-06-20T08:28:29.000Z</time>
      </trkpt>
      <trkpt lat="47.30368" lon="-2.23855">
        <ele>18.200000762939</ele>
        <time>2021-06-20T08:28:31.000Z</time>
      </trkpt>
      <trkpt lat="47.3037" lon="-2.23854">
        <ele>17.799999237061</ele>
        <time>2021-06-20T08:28:32.000Z</time>
      </trkpt>
      <trkpt lat="47.30372" lon="-2.23853">
        <ele>17.39999961853</ele>
        <time>2021-06-20T08:28:33.000Z</time>
      </trkpt>
      <trkpt lat="47.30375" lon="-2.23852">
        <ele>17</ele>
        <time>2021-06-20T08:28:34.000Z</time>
      </trkpt>
      <trkpt lat="47.30378" lon="-2.23851">
        <ele>16.60000038147</ele>
        <time>2021-06-20T08:28:35.000Z</time>
      </trkpt>
      <trkpt lat="47.30383" lon="-2.23851">
        <ele>16.60000038147</ele>
        <time>2021-06-20T08:28:37.000Z</time>
      </trkpt>
      <trkpt lat="47.30396" lon="-2.23857">
        <ele>16.60000038147</ele>
        <time>2021-06-20T08:28:43.000Z</time>
      </trkpt>
      <trkpt lat="47.30393" lon="-2.23858">
        <ele>16.60000038147</ele>
        <time>2021-06-20T08:28:46.000Z</time>
      </trkpt>
      <trkpt lat="47.30389" lon="-2.23852">
        <ele>16.60000038147</ele>
        <time>2021-06-20T08:28:51.000Z</time>
      </trkpt>
      <trkpt lat="47.30391" lon="-2.23851">
        <ele>16.60000038147</ele>
        <time>2021-06-20T08:31:03.000Z</time>
      </trkpt>
      <trkpt lat="47.30397" lon="-2.23851">
        <ele>16.60000038147</ele>
        <time>2021-06-20T08:31:06.000Z</time>
      </trkpt>
      <trkpt lat="47.30415" lon="-2.2385">
        <ele>16.60000038147</ele>
        <time>2021-06-20T08:31:11.000Z</time>
      </trkpt>
      <trkpt lat="47.30448" lon="-2.23845">
        <ele>16.60000038147</ele>
        <time>2021-06-20T08:31:18.000Z</time>
      </trkpt>
      <trkpt lat="47.30485" lon="-2.23844">
        <ele>16.60000038147</ele>
        <time>2021-06-20T08:31:25.000Z</time>
      </trkpt>
      <trkpt lat="47.30501" lon="-2.23859">
        <ele>16.60000038147</ele>
        <time>2021-06-20T08:31:28.000Z</time>
      </trkpt>
      <trkpt lat="47.30505" lon="-2.23865">
        <ele>16.60000038147</ele>
        <time>2021-06-20T08:31:29.000Z</time>
      </trkpt>
      <trkpt lat="47.30531" lon="-2.23899">
        <ele>16.60000038147</ele>
        <time>2021-06-20T08:31:35.000Z</time>
      </trkpt>
      <trkpt lat="47.3055" lon="-2.23926">
        <ele>16.60000038147</ele>
        <time>2021-06-20T08:31:40.000Z</time>
      </trkpt>
      <trkpt lat="47.30551" lon="-2.23933">
        <ele>16.60000038147</ele>
        <time>2021-06-20T08:31:41.000Z</time>
      </trkpt>
      <trkpt lat="47.30546" lon="-2.23951">
        <ele>16.60000038147</ele>
        <time>2021-06-20T08:31:44.000Z</time>
      </trkpt>
      <trkpt lat="47.30539" lon="-2.2396">
        <ele>17</ele>
        <time>2021-06-20T08:31:46.000Z</time>
      </trkpt>
      <trkpt lat="47.30535" lon="-2.23964">
        <ele>17.60000038147</ele>
        <time>2021-06-20T08:31:47.000Z</time>
      </trkpt>
      <trkpt lat="47.30531" lon="-2.23968">
        <ele>18</ele>
        <time>2021-06-20T08:31:48.000Z</time>
      </trkpt>
      <trkpt lat="47.30527" lon="-2.23973">
        <ele>18.39999961853</ele>
        <time>2021-06-20T08:31:49.000Z</time>
      </trkpt>
      <trkpt lat="47.30523" lon="-2.23977">
        <ele>18.799999237061</ele>
        <time>2021-06-20T08:31:50.000Z</time>
      </trkpt>
      <trkpt lat="47.30517" lon="-2.23986">
        <ele>19.200000762939</ele>
        <time>2021-06-20T08:31:52.000Z</time>
      </trkpt>
      <trkpt lat="47.30514" lon="-2.23989">
        <ele>19.60000038147</ele>
        <time>2021-06-20T08:31:53.000Z</time>
      </trkpt>
      <trkpt lat="47.30511" lon="-2.23993">
        <ele>20</ele>
        <time>2021-06-20T08:31:54.000Z</time>
      </trkpt>
      <trkpt lat="47.30507" lon="-2.23998">
        <ele>20.39999961853</ele>
        <time>2021-06-20T08:31:55.000Z</time>
      </trkpt>
      <trkpt lat="47.30504" lon="-2.24002">
        <ele>20.799999237061</ele>
        <time>2021-06-20T08:31:56.000Z</time>
      </trkpt>
      <trkpt lat="47.30496" lon="-2.24014">
        <ele>20.799999237061</ele>
        <time>2021-06-20T08:31:59.000Z</time>
      </trkpt>
      <trkpt lat="47.30493" lon="-2.24018">
        <ele>21.39999961853</ele>
        <time>2021-06-20T08:32:00.000Z</time>
      </trkpt>
      <trkpt lat="47.3049" lon="-2.24022">
        <ele>21.799999237061</ele>
        <time>2021-06-20T08:32:01.000Z</time>
      </trkpt>
      <trkpt lat="47.30487" lon="-2.24025">
        <ele>22.200000762939</ele>
        <time>2021-06-20T08:32:02.000Z</time>
      </trkpt>
      <trkpt lat="47.30484" lon="-2.24027">
        <ele>22.60000038147</ele>
        <time>2021-06-20T08:32:03.000Z</time>
      </trkpt>
      <trkpt lat="47.30481" lon="-2.24029">
        <ele>23</ele>
        <time>2021-06-20T08:32:04.000Z</time>
      </trkpt>
      <trkpt lat="47.30478" lon="-2.24032">
        <ele>23</ele>
        <time>2021-06-20T08:32:05.000Z</time>
      </trkpt>
      <trkpt lat="47.30475" lon="-2.24034">
        <ele>23.39999961853</ele>
        <time>2021-06-20T08:32:06.000Z</time>
      </trkpt>
      <trkpt lat="47.30472" lon="-2.24036">
        <ele>24</ele>
        <time>2021-06-20T08:32:07.000Z</time>
      </trkpt>
      <trkpt lat="47.30469" lon="-2.24037">
        <ele>24.39999961853</ele>
        <time>2021-06-20T08:32:08.000Z</time>
      </trkpt>
      <trkpt lat="47.30466" lon="-2.24038">
        <ele>25.200000762939</ele>
        <time>2021-06-20T08:32:09.000Z</time>
      </trkpt>
      <trkpt lat="47.30459" lon="-2.24042">
        <ele>25.200000762939</ele>
        <time>2021-06-20T08:32:11.000Z</time>
      </trkpt>
      <trkpt lat="47.30454" lon="-2.24048">
        <ele>25.799999237061</ele>
        <time>2021-06-20T08:32:13.000Z</time>
      </trkpt>
      <trkpt lat="47.30451" lon="-2.24051">
        <ele>26.200000762939</ele>
        <time>2021-06-20T08:32:14.000Z</time>
      </trkpt>
      <trkpt lat="47.30448" lon="-2.24055">
        <ele>26.60000038147</ele>
        <time>2021-06-20T08:32:15.000Z</time>
      </trkpt>
      <trkpt lat="47.30445" lon="-2.24059">
        <ele>27</ele>
        <time>2021-06-20T08:32:16.000Z</time>
      </trkpt>
      <trkpt lat="47.30443" lon="-2.24063">
        <ele>27.39999961853</ele>
        <time>2021-06-20T08:32:17.000Z</time>
      </trkpt>
      <trkpt lat="47.30422" lon="-2.24087">
        <ele>27.799999237061</ele>
        <time>2021-06-20T08:32:24.000Z</time>
      </trkpt>
      <trkpt lat="47.30419" lon="-2.2409">
        <ele>28.200000762939</ele>
        <time>2021-06-20T08:32:25.000Z</time>
      </trkpt>
      <trkpt lat="47.30417" lon="-2.24094">
        <ele>28.60000038147</ele>
        <time>2021-06-20T08:32:26.000Z</time>
      </trkpt>
      <trkpt lat="47.30413" lon="-2.24097">
        <ele>29</ele>
        <time>2021-06-20T08:32:27.000Z</time>
      </trkpt>
      <trkpt lat="47.30411" lon="-2.241">
        <ele>29.60000038147</ele>
        <time>2021-06-20T08:32:28.000Z</time>
      </trkpt>
      <trkpt lat="47.30403" lon="-2.24109">
        <ele>29.60000038147</ele>
        <time>2021-06-20T08:32:31.000Z</time>
      </trkpt>
      <trkpt lat="47.30398" lon="-2.24115">
        <ele>30.39999961853</ele>
        <time>2021-06-20T08:32:33.000Z</time>
      </trkpt>
      <trkpt lat="47.30395" lon="-2.24118">
        <ele>30.799999237061</ele>
        <time>2021-06-20T08:32:34.000Z</time>
      </trkpt>
      <trkpt lat="47.30392" lon="-2.24121">
        <ele>31.200000762939</ele>
        <time>2021-06-20T08:32:35.000Z</time>
      </trkpt>
      <trkpt lat="47.30389" lon="-2.24123">
        <ele>31.60000038147</ele>
        <time>2021-06-20T08:32:36.000Z</time>
      </trkpt>
      <trkpt lat="47.30381" lon="-2.2413">
        <ele>31.60000038147</ele>
        <time>2021-06-20T08:32:38.000Z</time>
      </trkpt>
      <trkpt lat="47.30377" lon="-2.24135">
        <ele>31.60000038147</ele>
        <time>2021-06-20T08:32:39.000Z</time>
      </trkpt>
      <trkpt lat="47.30363" lon="-2.24157">
        <ele>31.60000038147</ele>
        <time>2021-06-20T08:32:43.000Z</time>
      </trkpt>
      <trkpt lat="47.30354" lon="-2.24178">
        <ele>31.60000038147</ele>
        <time>2021-06-20T08:32:46.000Z</time>
      </trkpt>
      <trkpt lat="47.30353" lon="-2.24187">
        <ele>31.60000038147</ele>
        <time>2021-06-20T08:32:47.000Z</time>
      </trkpt>
      <trkpt lat="47.3036" lon="-2.24207">
        <ele>31.60000038147</ele>
        <time>2021-06-20T08:32:50.000Z</time>
      </trkpt>
      <trkpt lat="47.30377" lon="-2.24225">
        <ele>31.60000038147</ele>
        <time>2021-06-20T08:32:54.000Z</time>
      </trkpt>
      <trkpt lat="47.30381" lon="-2.24229">
        <ele>31.60000038147</ele>
        <time>2021-06-20T08:32:55.000Z</time>
      </trkpt>
      <trkpt lat="47.30405" lon="-2.24256">
        <ele>31.60000038147</ele>
        <time>2021-06-20T08:33:01.000Z</time>
      </trkpt>
      <trkpt lat="47.30408" lon="-2.24259">
        <ele>31.60000038147</ele>
        <time>2021-06-20T08:33:02.000Z</time>
      </trkpt>
      <trkpt lat="47.30427" lon="-2.24272">
        <ele>31.60000038147</ele>
        <time>2021-06-20T08:33:06.000Z</time>
      </trkpt>
      <trkpt lat="47.30454" lon="-2.24279">
        <ele>31.60000038147</ele>
        <time>2021-06-20T08:33:11.000Z</time>
      </trkpt>
      <trkpt lat="47.3047" lon="-2.24285">
        <ele>31.60000038147</ele>
        <time>2021-06-20T08:33:14.000Z</time>
      </trkpt>
      <trkpt lat="47.30479" lon="-2.24289">
        <ele>31.60000038147</ele>
        <time>2021-06-20T08:33:16.000Z</time>
      </trkpt>
      <trkpt lat="47.30484" lon="-2.24292">
        <ele>31.60000038147</ele>
        <time>2021-06-20T08:33:17.000Z</time>
      </trkpt>
      <trkpt lat="47.30493" lon="-2.24298">
        <ele>31.60000038147</ele>
        <time>2021-06-20T08:33:19.000Z</time>
      </trkpt>
      <trkpt lat="47.30507" lon="-2.2431">
        <ele>31.60000038147</ele>
        <time>2021-06-20T08:33:22.000Z</time>
      </trkpt>
      <trkpt lat="47.30511" lon="-2.24314">
        <ele>31.60000038147</ele>
        <time>2021-06-20T08:33:23.000Z</time>
      </trkpt>
      <trkpt lat="47.30546" lon="-2.24351">
        <ele>31.60000038147</ele>
        <time>2021-06-20T08:33:31.000Z</time>
      </trkpt>
      <trkpt lat="47.30577" lon="-2.24386">
        <ele>31.60000038147</ele>
        <time>2021-06-20T08:33:38.000Z</time>
      </trkpt>
      <trkpt lat="47.30587" lon="-2.24396">
        <ele>31.60000038147</ele>
        <time>2021-06-20T08:33:40.000Z</time>
      </trkpt>
      <trkpt lat="47.30607" lon="-2.24413">
        <ele>31.60000038147</ele>
        <time>2021-06-20T08:33:44.000Z</time>
      </trkpt>
      <trkpt lat="47.30617" lon="-2.2442">
        <ele>31.60000038147</ele>
        <time>2021-06-20T08:33:46.000Z</time>
      </trkpt>
      <trkpt lat="47.30627" lon="-2.24424">
        <ele>30.60000038147</ele>
        <time>2021-06-20T08:33:48.000Z</time>
      </trkpt>
      <trkpt lat="47.30631" lon="-2.24426">
        <ele>30.200000762939</ele>
        <time>2021-06-20T08:33:49.000Z</time>
      </trkpt>
      <trkpt lat="47.30634" lon="-2.24429">
        <ele>29.799999237061</ele>
        <time>2021-06-20T08:33:50.000Z</time>
      </trkpt>
      <trkpt lat="47.30637" lon="-2.24435">
        <ele>29.39999961853</ele>
        <time>2021-06-20T08:33:51.000Z</time>
      </trkpt>
      <trkpt lat="47.30639" lon="-2.2444">
        <ele>28.799999237061</ele>
        <time>2021-06-20T08:33:52.000Z</time>
      </trkpt>
      <trkpt lat="47.3064" lon="-2.24446">
        <ele>28.39999961853</ele>
        <time>2021-06-20T08:33:53.000Z</time>
      </trkpt>
      <trkpt lat="47.3064" lon="-2.24452">
        <ele>27.799999237061</ele>
        <time>2021-06-20T08:33:54.000Z</time>
      </trkpt>
      <trkpt lat="47.3064" lon="-2.24458">
        <ele>27.39999961853</ele>
        <time>2021-06-20T08:33:55.000Z</time>
      </trkpt>
      <trkpt lat="47.3064" lon="-2.24465">
        <ele>27</ele>
        <time>2021-06-20T08:33:56.000Z</time>
      </trkpt>
      <trkpt lat="47.3064" lon="-2.24473">
        <ele>27</ele>
        <time>2021-06-20T08:33:57.000Z</time>
      </trkpt>
      <trkpt lat="47.30639" lon="-2.24483">
        <ele>27</ele>
        <time>2021-06-20T08:33:58.000Z</time>
      </trkpt>
      <trkpt lat="47.30635" lon="-2.24519">
        <ele>26.39999961853</ele>
        <time>2021-06-20T08:34:01.000Z</time>
      </trkpt>
      <trkpt lat="47.30634" lon="-2.24532">
        <ele>26</ele>
        <time>2021-06-20T08:34:02.000Z</time>
      </trkpt>
      <trkpt lat="47.30632" lon="-2.24546">
        <ele>25.60000038147</ele>
        <time>2021-06-20T08:34:03.000Z</time>
      </trkpt>
      <trkpt lat="47.3063" lon="-2.2456">
        <ele>25</ele>
        <time>2021-06-20T08:34:04.000Z</time>
      </trkpt>
      <trkpt lat="47.30628" lon="-2.24574">
        <ele>24.60000038147</ele>
        <time>2021-06-20T08:34:05.000Z</time>
      </trkpt>
      <trkpt lat="47.30626" lon="-2.24604">
        <ele>24.200000762939</ele>
        <time>2021-06-20T08:34:07.000Z</time>
      </trkpt>
      <trkpt lat="47.30626" lon="-2.24619">
        <ele>23.60000038147</ele>
        <time>2021-06-20T08:34:08.000Z</time>
      </trkpt>
      <trkpt lat="47.30628" lon="-2.24633">
        <ele>23.200000762939</ele>
        <time>2021-06-20T08:34:09.000Z</time>
      </trkpt>
      <trkpt lat="47.30631" lon="-2.24646">
        <ele>22.799999237061</ele>
        <time>2021-06-20T08:34:10.000Z</time>
      </trkpt>
      <trkpt lat="47.30634" lon="-2.24658">
        <ele>22.200000762939</ele>
        <time>2021-06-20T08:34:11.000Z</time>
      </trkpt>
      <trkpt lat="47.30647" lon="-2.24713">
        <ele>22.200000762939</ele>
        <time>2021-06-20T08:34:16.000Z</time>
      </trkpt>
      <trkpt lat="47.30652" lon="-2.24733">
        <ele>21.799999237061</ele>
        <time>2021-06-20T08:34:18.000Z</time>
      </trkpt>
      <trkpt lat="47.30653" lon="-2.24742">
        <ele>21.39999961853</ele>
        <time>2021-06-20T08:34:19.000Z</time>
      </trkpt>
      <trkpt lat="47.30653" lon="-2.2475">
        <ele>20.799999237061</ele>
        <time>2021-06-20T08:34:20.000Z</time>
      </trkpt>
      <trkpt lat="47.30652" lon="-2.24758">
        <ele>20.39999961853</ele>
        <time>2021-06-20T08:34:21.000Z</time>
      </trkpt>
      <trkpt lat="47.30648" lon="-2.24767">
        <ele>20</ele>
        <time>2021-06-20T08:34:22.000Z</time>
      </trkpt>
      <trkpt lat="47.30638" lon="-2.24783">
        <ele>20</ele>
        <time>2021-06-20T08:34:24.000Z</time>
      </trkpt>
      <trkpt lat="47.30633" lon="-2.24789">
        <ele>20</ele>
        <time>2021-06-20T08:34:25.000Z</time>
      </trkpt>
      <trkpt lat="47.30607" lon="-2.24826">
        <ele>20</ele>
        <time>2021-06-20T08:34:30.000Z</time>
      </trkpt>
      <trkpt lat="47.30594" lon="-2.24851">
        <ele>20</ele>
        <time>2021-06-20T08:34:33.000Z</time>
      </trkpt>
      <trkpt lat="47.30582" lon="-2.24878">
        <ele>20</ele>
        <time>2021-06-20T08:34:36.000Z</time>
      </trkpt>
      <trkpt lat="47.30569" lon="-2.24924">
        <ele>20</ele>
        <time>2021-06-20T08:34:41.000Z</time>
      </trkpt>
      <trkpt lat="47.30568" lon="-2.24932">
        <ele>20</ele>
        <time>2021-06-20T08:34:42.000Z</time>
      </trkpt>
      <trkpt lat="47.30566" lon="-2.24961">
        <ele>20</ele>
        <time>2021-06-20T08:34:45.000Z</time>
      </trkpt>
      <trkpt lat="47.3057" lon="-2.25014">
        <ele>20</ele>
        <time>2021-06-20T08:34:50.000Z</time>
      </trkpt>
      <trkpt lat="47.30583" lon="-2.25088">
        <ele>20</ele>
        <time>2021-06-20T08:34:57.000Z</time>
      </trkpt>
      <trkpt lat="47.30595" lon="-2.25126">
        <ele>20</ele>
        <time>2021-06-20T08:35:01.000Z</time>
      </trkpt>
      <trkpt lat="47.30601" lon="-2.25143">
        <ele>20</ele>
        <time>2021-06-20T08:35:03.000Z</time>
      </trkpt>
      <trkpt lat="47.30605" lon="-2.25151">
        <ele>20</ele>
        <time>2021-06-20T08:35:04.000Z</time>
      </trkpt>
      <trkpt lat="47.3062" lon="-2.25182">
        <ele>20</ele>
        <time>2021-06-20T08:35:08.000Z</time>
      </trkpt>
      <trkpt lat="47.30641" lon="-2.25238">
        <ele>20</ele>
        <time>2021-06-20T08:35:15.000Z</time>
      </trkpt>
      <trkpt lat="47.30653" lon="-2.2529">
        <ele>20</ele>
        <time>2021-06-20T08:35:21.000Z</time>
      </trkpt>
      <trkpt lat="47.30661" lon="-2.25329">
        <ele>20</ele>
        <time>2021-06-20T08:35:26.000Z</time>
      </trkpt>
      <trkpt lat="47.30662" lon="-2.25337">
        <ele>20</ele>
        <time>2021-06-20T08:35:27.000Z</time>
      </trkpt>
      <trkpt lat="47.30664" lon="-2.25345">
        <ele>20</ele>
        <time>2021-06-20T08:35:28.000Z</time>
      </trkpt>
      <trkpt lat="47.30666" lon="-2.25379">
        <ele>20</ele>
        <time>2021-06-20T08:35:32.000Z</time>
      </trkpt>
      <trkpt lat="47.30666" lon="-2.25388">
        <ele>20</ele>
        <time>2021-06-20T08:35:33.000Z</time>
      </trkpt>
      <trkpt lat="47.30668" lon="-2.25396">
        <ele>20</ele>
        <time>2021-06-20T08:35:34.000Z</time>
      </trkpt>
      <trkpt lat="47.30672" lon="-2.25409">
        <ele>20</ele>
        <time>2021-06-20T08:35:36.000Z</time>
      </trkpt>
      <trkpt lat="47.30688" lon="-2.25428">
        <ele>20</ele>
        <time>2021-06-20T08:35:40.000Z</time>
      </trkpt>
      <trkpt lat="47.30709" lon="-2.2543">
        <ele>20</ele>
        <time>2021-06-20T08:35:44.000Z</time>
      </trkpt>
      <trkpt lat="47.30738" lon="-2.25432">
        <ele>20</ele>
        <time>2021-06-20T08:35:49.000Z</time>
      </trkpt>
      <trkpt lat="47.30749" lon="-2.25431">
        <ele>20</ele>
        <time>2021-06-20T08:35:51.000Z</time>
      </trkpt>
      <trkpt lat="47.30778" lon="-2.25424">
        <ele>20.39999961853</ele>
        <time>2021-06-20T08:35:57.000Z</time>
      </trkpt>
      <trkpt lat="47.30782" lon="-2.25423">
        <ele>20.799999237061</ele>
        <time>2021-06-20T08:35:58.000Z</time>
      </trkpt>
      <trkpt lat="47.30786" lon="-2.25422">
        <ele>21.200000762939</ele>
        <time>2021-06-20T08:35:59.000Z</time>
      </trkpt>
      <trkpt lat="47.3079" lon="-2.25421">
        <ele>21.60000038147</ele>
        <time>2021-06-20T08:36:00.000Z</time>
      </trkpt>
      <trkpt lat="47.30794" lon="-2.2542">
        <ele>22</ele>
        <time>2021-06-20T08:36:01.000Z</time>
      </trkpt>
      <trkpt lat="47.30809" lon="-2.25415">
        <ele>22</ele>
        <time>2021-06-20T08:36:05.000Z</time>
      </trkpt>
      <trkpt lat="47.30818" lon="-2.25413">
        <ele>22.39999961853</ele>
        <time>2021-06-20T08:36:07.000Z</time>
      </trkpt>
      <trkpt lat="47.30822" lon="-2.25413">
        <ele>22.799999237061</ele>
        <time>2021-06-20T08:36:08.000Z</time>
      </trkpt>
      <trkpt lat="47.30827" lon="-2.25412">
        <ele>23.39999961853</ele>
        <time>2021-06-20T08:36:09.000Z</time>
      </trkpt>
      <trkpt lat="47.30831" lon="-2.25411">
        <ele>23.799999237061</ele>
        <time>2021-06-20T08:36:10.000Z</time>
      </trkpt>
      <trkpt lat="47.30835" lon="-2.2541">
        <ele>24.200000762939</ele>
        <time>2021-06-20T08:36:11.000Z</time>
      </trkpt>
      <trkpt lat="47.30864" lon="-2.25403">
        <ele>24.200000762939</ele>
        <time>2021-06-20T08:36:17.000Z</time>
      </trkpt>
      <trkpt lat="47.30875" lon="-2.25401">
        <ele>24.60000038147</ele>
        <time>2021-06-20T08:36:19.000Z</time>
      </trkpt>
      <trkpt lat="47.3088" lon="-2.254">
        <ele>25</ele>
        <time>2021-06-20T08:36:20.000Z</time>
      </trkpt>
      <trkpt lat="47.30885" lon="-2.254">
        <ele>25.39999961853</ele>
        <time>2021-06-20T08:36:21.000Z</time>
      </trkpt>
      <trkpt lat="47.3089" lon="-2.254">
        <ele>25.799999237061</ele>
        <time>2021-06-20T08:36:22.000Z</time>
      </trkpt>
      <trkpt lat="47.30895" lon="-2.25399">
        <ele>26.200000762939</ele>
        <time>2021-06-20T08:36:23.000Z</time>
      </trkpt>
      <trkpt lat="47.30933" lon="-2.254">
        <ele>26.200000762939</ele>
        <time>2021-06-20T08:36:31.000Z</time>
      </trkpt>
      <trkpt lat="47.30941" lon="-2.25398">
        <ele>26.200000762939</ele>
        <time>2021-06-20T08:36:33.000Z</time>
      </trkpt>
      <trkpt lat="47.30946" lon="-2.25389">
        <ele>26.200000762939</ele>
        <time>2021-06-20T08:36:35.000Z</time>
      </trkpt>
      <trkpt lat="47.3095" lon="-2.25377">
        <ele>26.200000762939</ele>
        <time>2021-06-20T08:36:37.000Z</time>
      </trkpt>
      <trkpt lat="47.30954" lon="-2.25359">
        <ele>26.200000762939</ele>
        <time>2021-06-20T08:36:40.000Z</time>
      </trkpt>
      <trkpt lat="47.30962" lon="-2.25313">
        <ele>25.799999237061</ele>
        <time>2021-06-20T08:36:46.000Z</time>
      </trkpt>
      <trkpt lat="47.30964" lon="-2.25306">
        <ele>25.39999961853</ele>
        <time>2021-06-20T08:36:47.000Z</time>
      </trkpt>
      <trkpt lat="47.30966" lon="-2.25299">
        <ele>25</ele>
        <time>2021-06-20T08:36:48.000Z</time>
      </trkpt>
      <trkpt lat="47.30967" lon="-2.25293">
        <ele>24.60000038147</ele>
        <time>2021-06-20T08:36:49.000Z</time>
      </trkpt>
      <trkpt lat="47.3097" lon="-2.25287">
        <ele>24.200000762939</ele>
        <time>2021-06-20T08:36:50.000Z</time>
      </trkpt>
      <trkpt lat="47.30977" lon="-2.25276">
        <ele>24.200000762939</ele>
        <time>2021-06-20T08:36:52.000Z</time>
      </trkpt>
      <trkpt lat="47.30987" lon="-2.25253">
        <ele>24.200000762939</ele>
        <time>2021-06-20T08:36:55.000Z</time>
      </trkpt>
      <trkpt lat="47.30989" lon="-2.25246">
        <ele>24.200000762939</ele>
        <time>2021-06-20T08:36:56.000Z</time>
      </trkpt>
      <trkpt lat="47.30992" lon="-2.25225">
        <ele>24.200000762939</ele>
        <time>2021-06-20T08:36:59.000Z</time>
      </trkpt>
      <trkpt lat="47.30996" lon="-2.25207">
        <ele>24.200000762939</ele>
        <time>2021-06-20T08:37:01.000Z</time>
      </trkpt>
      <trkpt lat="47.31008" lon="-2.25161">
        <ele>24.200000762939</ele>
        <time>2021-06-20T08:37:06.000Z</time>
      </trkpt>
      <trkpt lat="47.31012" lon="-2.25153">
        <ele>24.200000762939</ele>
        <time>2021-06-20T08:37:07.000Z</time>
      </trkpt>
      <trkpt lat="47.31027" lon="-2.25132">
        <ele>24.200000762939</ele>
        <time>2021-06-20T08:37:10.000Z</time>
      </trkpt>
      <trkpt lat="47.31032" lon="-2.25124">
        <ele>24.200000762939</ele>
        <time>2021-06-20T08:37:11.000Z</time>
      </trkpt>
      <trkpt lat="47.31036" lon="-2.25116">
        <ele>23.799999237061</ele>
        <time>2021-06-20T08:37:12.000Z</time>
      </trkpt>
      <trkpt lat="47.3104" lon="-2.25108">
        <ele>23.39999961853</ele>
        <time>2021-06-20T08:37:13.000Z</time>
      </trkpt>
      <trkpt lat="47.31044" lon="-2.251">
        <ele>23</ele>
        <time>2021-06-20T08:37:14.000Z</time>
      </trkpt>
      <trkpt lat="47.31048" lon="-2.25093">
        <ele>22.60000038147</ele>
        <time>2021-06-20T08:37:15.000Z</time>
      </trkpt>
      <trkpt lat="47.31053" lon="-2.25086">
        <ele>22.200000762939</ele>
        <time>2021-06-20T08:37:16.000Z</time>
      </trkpt>
      <trkpt lat="47.31057" lon="-2.2508">
        <ele>22.200000762939</ele>
        <time>2021-06-20T08:37:17.000Z</time>
      </trkpt>
      <trkpt lat="47.31061" lon="-2.25075">
        <ele>22.200000762939</ele>
        <time>2021-06-20T08:37:18.000Z</time>
      </trkpt>
      <trkpt lat="47.31078" lon="-2.25063">
        <ele>22.200000762939</ele>
        <time>2021-06-20T08:37:21.000Z</time>
      </trkpt>
      <trkpt lat="47.31084" lon="-2.2506">
        <ele>22.200000762939</ele>
        <time>2021-06-20T08:37:22.000Z</time>
      </trkpt>
      <trkpt lat="47.31117" lon="-2.25042">
        <ele>22.200000762939</ele>
        <time>2021-06-20T08:37:27.000Z</time>
      </trkpt>
      <trkpt lat="47.31156" lon="-2.25009">
        <ele>22.200000762939</ele>
        <time>2021-06-20T08:37:33.000Z</time>
      </trkpt>
      <trkpt lat="47.3118" lon="-2.24989">
        <ele>22.200000762939</ele>
        <time>2021-06-20T08:37:37.000Z</time>
      </trkpt>
      <trkpt lat="47.31186" lon="-2.24991">
        <ele>21.799999237061</ele>
        <time>2021-06-20T08:37:38.000Z</time>
      </trkpt>
      <trkpt lat="47.31192" lon="-2.24995">
        <ele>21.39999961853</ele>
        <time>2021-06-20T08:37:39.000Z</time>
      </trkpt>
      <trkpt lat="47.31197" lon="-2.25003">
        <ele>21</ele>
        <time>2021-06-20T08:37:40.000Z</time>
      </trkpt>
      <trkpt lat="47.31201" lon="-2.25012">
        <ele>20.60000038147</ele>
        <time>2021-06-20T08:37:41.000Z</time>
      </trkpt>
      <trkpt lat="47.31205" lon="-2.25021">
        <ele>20.200000762939</ele>
        <time>2021-06-20T08:37:42.000Z</time>
      </trkpt>
      <trkpt lat="47.31209" lon="-2.2503">
        <ele>20.200000762939</ele>
        <time>2021-06-20T08:37:43.000Z</time>
      </trkpt>
      <trkpt lat="47.3122" lon="-2.25061">
        <ele>20.200000762939</ele>
        <time>2021-06-20T08:37:46.000Z</time>
      </trkpt>
      <trkpt lat="47.31242" lon="-2.25117">
        <ele>20.200000762939</ele>
        <time>2021-06-20T08:37:52.000Z</time>
      </trkpt>
      <trkpt lat="47.3127" lon="-2.25171">
        <ele>20.200000762939</ele>
        <time>2021-06-20T08:37:58.000Z</time>
      </trkpt>
      <trkpt lat="47.31294" lon="-2.2521">
        <ele>20.200000762939</ele>
        <time>2021-06-20T08:38:03.000Z</time>
      </trkpt>
      <trkpt lat="47.31299" lon="-2.25217">
        <ele>20.200000762939</ele>
        <time>2021-06-20T08:38:04.000Z</time>
      </trkpt>
      <trkpt lat="47.31336" lon="-2.25262">
        <ele>20.200000762939</ele>
        <time>2021-06-20T08:38:11.000Z</time>
      </trkpt>
      <trkpt lat="47.31344" lon="-2.25278">
        <ele>20.200000762939</ele>
        <time>2021-06-20T08:38:13.000Z</time>
      </trkpt>
      <trkpt lat="47.31348" lon="-2.25297">
        <ele>20.200000762939</ele>
        <time>2021-06-20T08:38:15.000Z</time>
      </trkpt>
      <trkpt lat="47.31351" lon="-2.25329">
        <ele>20.200000762939</ele>
        <time>2021-06-20T08:38:18.000Z</time>
      </trkpt>
      <trkpt lat="47.31354" lon="-2.2535">
        <ele>20.200000762939</ele>
        <time>2021-06-20T08:38:20.000Z</time>
      </trkpt>
      <trkpt lat="47.31361" lon="-2.25382">
        <ele>20.200000762939</ele>
        <time>2021-06-20T08:38:23.000Z</time>
      </trkpt>
      <trkpt lat="47.3137" lon="-2.25398">
        <ele>20.200000762939</ele>
        <time>2021-06-20T08:38:25.000Z</time>
      </trkpt>
      <trkpt lat="47.31383" lon="-2.25411">
        <ele>20.200000762939</ele>
        <time>2021-06-20T08:38:27.000Z</time>
      </trkpt>
      <trkpt lat="47.31396" lon="-2.25423">
        <ele>20.200000762939</ele>
        <time>2021-06-20T08:38:29.000Z</time>
      </trkpt>
      <trkpt lat="47.31401" lon="-2.2543">
        <ele>20.200000762939</ele>
        <time>2021-06-20T08:38:30.000Z</time>
      </trkpt>
      <trkpt lat="47.31411" lon="-2.25447">
        <ele>20.200000762939</ele>
        <time>2021-06-20T08:38:32.000Z</time>
      </trkpt>
      <trkpt lat="47.31415" lon="-2.25457">
        <ele>20.200000762939</ele>
        <time>2021-06-20T08:38:33.000Z</time>
      </trkpt>
      <trkpt lat="47.31426" lon="-2.25486">
        <ele>20.200000762939</ele>
        <time>2021-06-20T08:38:36.000Z</time>
      </trkpt>
      <trkpt lat="47.31433" lon="-2.25502">
        <ele>20.200000762939</ele>
        <time>2021-06-20T08:38:38.000Z</time>
      </trkpt>
      <trkpt lat="47.31454" lon="-2.25535">
        <ele>20.200000762939</ele>
        <time>2021-06-20T08:38:42.000Z</time>
      </trkpt>
      <trkpt lat="47.3146" lon="-2.25541">
        <ele>20.200000762939</ele>
        <time>2021-06-20T08:38:43.000Z</time>
      </trkpt>
      <trkpt lat="47.31496" lon="-2.25579">
        <ele>20.200000762939</ele>
        <time>2021-06-20T08:38:49.000Z</time>
      </trkpt>
      <trkpt lat="47.31512" lon="-2.25615">
        <ele>20.200000762939</ele>
        <time>2021-06-20T08:38:53.000Z</time>
      </trkpt>
      <trkpt lat="47.31519" lon="-2.25644">
        <ele>20.200000762939</ele>
        <time>2021-06-20T08:38:56.000Z</time>
      </trkpt>
      <trkpt lat="47.31523" lon="-2.25663">
        <ele>20.200000762939</ele>
        <time>2021-06-20T08:38:58.000Z</time>
      </trkpt>
      <trkpt lat="47.31541" lon="-2.2573">
        <ele>20.200000762939</ele>
        <time>2021-06-20T08:39:05.000Z</time>
      </trkpt>
      <trkpt lat="47.31551" lon="-2.25791">
        <ele>20.200000762939</ele>
        <time>2021-06-20T08:39:11.000Z</time>
      </trkpt>
      <trkpt lat="47.31557" lon="-2.2587">
        <ele>20.200000762939</ele>
        <time>2021-06-20T08:39:19.000Z</time>
      </trkpt>
      <trkpt lat="47.31552" lon="-2.2589">
        <ele>20.200000762939</ele>
        <time>2021-06-20T08:39:22.000Z</time>
      </trkpt>
      <trkpt lat="47.31548" lon="-2.25903">
        <ele>20.200000762939</ele>
        <time>2021-06-20T08:39:26.000Z</time>
      </trkpt>
      <trkpt lat="47.31547" lon="-2.25903">
        <ele>20.200000762939</ele>
        <time>2021-06-20T08:39:29.000Z</time>
      </trkpt>
      <trkpt lat="47.31533" lon="-2.25914">
        <ele>20.200000762939</ele>
        <time>2021-06-20T08:55:58.000Z</time>
      </trkpt>
      <trkpt lat="47.31524" lon="-2.25929">
        <ele>20.200000762939</ele>
        <time>2021-06-20T08:56:04.000Z</time>
      </trkpt>
      <trkpt lat="47.31514" lon="-2.25946">
        <ele>20.200000762939</ele>
        <time>2021-06-20T08:56:09.000Z</time>
      </trkpt>
      <trkpt lat="47.31503" lon="-2.25968">
        <ele>20.200000762939</ele>
        <time>2021-06-20T08:56:15.000Z</time>
      </trkpt>
      <trkpt lat="47.31489" lon="-2.25995">
        <ele>20.200000762939</ele>
        <time>2021-06-20T08:56:21.000Z</time>
      </trkpt>
      <trkpt lat="47.31474" lon="-2.2602">
        <ele>20.200000762939</ele>
        <time>2021-06-20T08:56:25.000Z</time>
      </trkpt>
      <trkpt lat="47.31466" lon="-2.26032">
        <ele>20.200000762939</ele>
        <time>2021-06-20T08:56:27.000Z</time>
      </trkpt>
      <trkpt lat="47.31438" lon="-2.26074">
        <ele>20.200000762939</ele>
        <time>2021-06-20T08:56:34.000Z</time>
      </trkpt>
      <trkpt lat="47.31426" lon="-2.26103">
        <ele>20.200000762939</ele>
        <time>2021-06-20T08:56:38.000Z</time>
      </trkpt>
      <trkpt lat="47.31422" lon="-2.2611">
        <ele>20.200000762939</ele>
        <time>2021-06-20T08:56:39.000Z</time>
      </trkpt>
      <trkpt lat="47.31411" lon="-2.26129">
        <ele>20.200000762939</ele>
        <time>2021-06-20T08:56:42.000Z</time>
      </trkpt>
      <trkpt lat="47.31396" lon="-2.26142">
        <ele>20.200000762939</ele>
        <time>2021-06-20T08:56:45.000Z</time>
      </trkpt>
      <trkpt lat="47.31374" lon="-2.26156">
        <ele>20.200000762939</ele>
        <time>2021-06-20T08:56:49.000Z</time>
      </trkpt>
      <trkpt lat="47.31368" lon="-2.26157">
        <ele>20.200000762939</ele>
        <time>2021-06-20T08:56:50.000Z</time>
      </trkpt>
      <trkpt lat="47.31337" lon="-2.2615">
        <ele>20.200000762939</ele>
        <time>2021-06-20T08:56:55.000Z</time>
      </trkpt>
      <trkpt lat="47.31296" lon="-2.26131">
        <ele>20.60000038147</ele>
        <time>2021-06-20T08:57:02.000Z</time>
      </trkpt>
      <trkpt lat="47.3129" lon="-2.26129">
        <ele>21</ele>
        <time>2021-06-20T08:57:03.000Z</time>
      </trkpt>
      <trkpt lat="47.31284" lon="-2.26126">
        <ele>21.39999961853</ele>
        <time>2021-06-20T08:57:04.000Z</time>
      </trkpt>
      <trkpt lat="47.31278" lon="-2.26122">
        <ele>21.799999237061</ele>
        <time>2021-06-20T08:57:05.000Z</time>
      </trkpt>
      <trkpt lat="47.31272" lon="-2.26119">
        <ele>22.200000762939</ele>
        <time>2021-06-20T08:57:06.000Z</time>
      </trkpt>
      <trkpt lat="47.3126" lon="-2.26112">
        <ele>22.200000762939</ele>
        <time>2021-06-20T08:57:08.000Z</time>
      </trkpt>
      <trkpt lat="47.31219" lon="-2.26086">
        <ele>22.200000762939</ele>
        <time>2021-06-20T08:57:15.000Z</time>
      </trkpt>
      <trkpt lat="47.31182" lon="-2.26061">
        <ele>22.200000762939</ele>
        <time>2021-06-20T08:57:22.000Z</time>
      </trkpt>
      <trkpt lat="47.31147" lon="-2.26038">
        <ele>22.200000762939</ele>
        <time>2021-06-20T08:57:29.000Z</time>
      </trkpt>
      <trkpt lat="47.31116" lon="-2.2602">
        <ele>22.200000762939</ele>
        <time>2021-06-20T08:57:36.000Z</time>
      </trkpt>
      <trkpt lat="47.31089" lon="-2.26006">
        <ele>22.200000762939</ele>
        <time>2021-06-20T08:57:42.000Z</time>
      </trkpt>
      <trkpt lat="47.31084" lon="-2.26005">
        <ele>22.200000762939</ele>
        <time>2021-06-20T08:57:43.000Z</time>
      </trkpt>
      <trkpt lat="47.31067" lon="-2.26015">
        <ele>22.200000762939</ele>
        <time>2021-06-20T08:57:47.000Z</time>
      </trkpt>
      <trkpt lat="47.31063" lon="-2.26019">
        <ele>22.200000762939</ele>
        <time>2021-06-20T08:57:48.000Z</time>
      </trkpt>
      <trkpt lat="47.31052" lon="-2.26036">
        <ele>22.60000038147</ele>
        <time>2021-06-20T08:57:51.000Z</time>
      </trkpt>
      <trkpt lat="47.31049" lon="-2.26042">
        <ele>23</ele>
        <time>2021-06-20T08:57:52.000Z</time>
      </trkpt>
      <trkpt lat="47.31046" lon="-2.26049">
        <ele>23.39999961853</ele>
        <time>2021-06-20T08:57:53.000Z</time>
      </trkpt>
      <trkpt lat="47.31044" lon="-2.26057">
        <ele>23.799999237061</ele>
        <time>2021-06-20T08:57:54.000Z</time>
      </trkpt>
      <trkpt lat="47.31043" lon="-2.26066">
        <ele>24.200000762939</ele>
        <time>2021-06-20T08:57:55.000Z</time>
      </trkpt>
      <trkpt lat="47.3104" lon="-2.26092">
        <ele>24.200000762939</ele>
        <time>2021-06-20T08:57:58.000Z</time>
      </trkpt>
      <trkpt lat="47.31032" lon="-2.26163">
        <ele>23.799999237061</ele>
        <time>2021-06-20T08:58:06.000Z</time>
      </trkpt>
      <trkpt lat="47.31031" lon="-2.26173">
        <ele>23.39999961853</ele>
        <time>2021-06-20T08:58:07.000Z</time>
      </trkpt>
      <trkpt lat="47.3103" lon="-2.26182">
        <ele>23</ele>
        <time>2021-06-20T08:58:08.000Z</time>
      </trkpt>
      <trkpt lat="47.31029" lon="-2.26191">
        <ele>22.60000038147</ele>
        <time>2021-06-20T08:58:09.000Z</time>
      </trkpt>
      <trkpt lat="47.31027" lon="-2.262">
        <ele>22.200000762939</ele>
        <time>2021-06-20T08:58:10.000Z</time>
      </trkpt>
      <trkpt lat="47.31018" lon="-2.2626">
        <ele>22.200000762939</ele>
        <time>2021-06-20T08:58:17.000Z</time>
      </trkpt>
      <trkpt lat="47.31007" lon="-2.26323">
        <ele>22.200000762939</ele>
        <time>2021-06-20T08:58:24.000Z</time>
      </trkpt>
      <trkpt lat="47.30995" lon="-2.26384">
        <ele>22.200000762939</ele>
        <time>2021-06-20T08:58:31.000Z</time>
      </trkpt>
      <trkpt lat="47.30985" lon="-2.26442">
        <ele>22.200000762939</ele>
        <time>2021-06-20T08:58:38.000Z</time>
      </trkpt>
      <trkpt lat="47.30974" lon="-2.26498">
        <ele>22.200000762939</ele>
        <time>2021-06-20T08:58:45.000Z</time>
      </trkpt>
      <trkpt lat="47.30964" lon="-2.26555">
        <ele>22.200000762939</ele>
        <time>2021-06-20T08:58:52.000Z</time>
      </trkpt>
      <trkpt lat="47.3095" lon="-2.26629">
        <ele>22.200000762939</ele>
        <time>2021-06-20T08:59:01.000Z</time>
      </trkpt>
      <trkpt lat="47.30937" lon="-2.2669">
        <ele>22.200000762939</ele>
        <time>2021-06-20T08:59:09.000Z</time>
      </trkpt>
      <trkpt lat="47.3093" lon="-2.26736">
        <ele>22.200000762939</ele>
        <time>2021-06-20T08:59:15.000Z</time>
      </trkpt>
      <trkpt lat="47.30919" lon="-2.26801">
        <ele>22.200000762939</ele>
        <time>2021-06-20T08:59:23.000Z</time>
      </trkpt>
      <trkpt lat="47.30909" lon="-2.26858">
        <ele>22.200000762939</ele>
        <time>2021-06-20T08:59:30.000Z</time>
      </trkpt>
      <trkpt lat="47.30904" lon="-2.26879">
        <ele>21.799999237061</ele>
        <time>2021-06-20T08:59:33.000Z</time>
      </trkpt>
      <trkpt lat="47.30903" lon="-2.26886">
        <ele>21.39999961853</ele>
        <time>2021-06-20T08:59:34.000Z</time>
      </trkpt>
      <trkpt lat="47.30903" lon="-2.26893">
        <ele>21</ele>
        <time>2021-06-20T08:59:35.000Z</time>
      </trkpt>
      <trkpt lat="47.30903" lon="-2.26899">
        <ele>20.60000038147</ele>
        <time>2021-06-20T08:59:36.000Z</time>
      </trkpt>
      <trkpt lat="47.30904" lon="-2.26906">
        <ele>20.200000762939</ele>
        <time>2021-06-20T08:59:37.000Z</time>
      </trkpt>
      <trkpt lat="47.30904" lon="-2.26912">
        <ele>20.200000762939</ele>
        <time>2021-06-20T08:59:38.000Z</time>
      </trkpt>
      <trkpt lat="47.30908" lon="-2.26924">
        <ele>20.200000762939</ele>
        <time>2021-06-20T08:59:40.000Z</time>
      </trkpt>
      <trkpt lat="47.30926" lon="-2.2694">
        <ele>20.200000762939</ele>
        <time>2021-06-20T08:59:44.000Z</time>
      </trkpt>
      <trkpt lat="47.30969" lon="-2.26965">
        <ele>20.200000762939</ele>
        <time>2021-06-20T08:59:51.000Z</time>
      </trkpt>
      <trkpt lat="47.30986" lon="-2.2698">
        <ele>20.200000762939</ele>
        <time>2021-06-20T08:59:54.000Z</time>
      </trkpt>
      <trkpt lat="47.30995" lon="-2.26992">
        <ele>20.200000762939</ele>
        <time>2021-06-20T08:59:56.000Z</time>
      </trkpt>
      <trkpt lat="47.31001" lon="-2.27014">
        <ele>20.200000762939</ele>
        <time>2021-06-20T08:59:59.000Z</time>
      </trkpt>
      <trkpt lat="47.31002" lon="-2.27022">
        <ele>20.200000762939</ele>
        <time>2021-06-20T09:00:00.000Z</time>
      </trkpt>
      <trkpt lat="47.31002" lon="-2.27048">
        <ele>20.60000038147</ele>
        <time>2021-06-20T09:00:03.000Z</time>
      </trkpt>
      <trkpt lat="47.31001" lon="-2.27057">
        <ele>21</ele>
        <time>2021-06-20T09:00:04.000Z</time>
      </trkpt>
      <trkpt lat="47.31001" lon="-2.27066">
        <ele>21.39999961853</ele>
        <time>2021-06-20T09:00:05.000Z</time>
      </trkpt>
      <trkpt lat="47.31001" lon="-2.27075">
        <ele>21.799999237061</ele>
        <time>2021-06-20T09:00:06.000Z</time>
      </trkpt>
      <trkpt lat="47.31001" lon="-2.27083">
        <ele>22.200000762939</ele>
        <time>2021-06-20T09:00:07.000Z</time>
      </trkpt>
      <trkpt lat="47.31001" lon="-2.27107">
        <ele>22.60000038147</ele>
        <time>2021-06-20T09:00:10.000Z</time>
      </trkpt>
      <trkpt lat="47.31001" lon="-2.27115">
        <ele>23.200000762939</ele>
        <time>2021-06-20T09:00:11.000Z</time>
      </trkpt>
      <trkpt lat="47.31002" lon="-2.27124">
        <ele>23.60000038147</ele>
        <time>2021-06-20T09:00:12.000Z</time>
      </trkpt>
      <trkpt lat="47.31002" lon="-2.27132">
        <ele>24</ele>
        <time>2021-06-20T09:00:13.000Z</time>
      </trkpt>
      <trkpt lat="47.31003" lon="-2.2714">
        <ele>24.39999961853</ele>
        <time>2021-06-20T09:00:14.000Z</time>
      </trkpt>
      <trkpt lat="47.31006" lon="-2.27205">
        <ele>24.39999961853</ele>
        <time>2021-06-20T09:00:21.000Z</time>
      </trkpt>
      <trkpt lat="47.31008" lon="-2.27222">
        <ele>24.39999961853</ele>
        <time>2021-06-20T09:00:23.000Z</time>
      </trkpt>
      <trkpt lat="47.31018" lon="-2.27243">
        <ele>24.39999961853</ele>
        <time>2021-06-20T09:00:26.000Z</time>
      </trkpt>
      <trkpt lat="47.31034" lon="-2.27254">
        <ele>24.39999961853</ele>
        <time>2021-06-20T09:00:29.000Z</time>
      </trkpt>
      <trkpt lat="47.31058" lon="-2.27255">
        <ele>24.39999961853</ele>
        <time>2021-06-20T09:00:33.000Z</time>
      </trkpt>
      <trkpt lat="47.31065" lon="-2.27253">
        <ele>24.39999961853</ele>
        <time>2021-06-20T09:00:34.000Z</time>
      </trkpt>
      <trkpt lat="47.31101" lon="-2.2724">
        <ele>24.39999961853</ele>
        <time>2021-06-20T09:00:40.000Z</time>
      </trkpt>
      <trkpt lat="47.31132" lon="-2.27226">
        <ele>24.39999961853</ele>
        <time>2021-06-20T09:00:46.000Z</time>
      </trkpt>
      <trkpt lat="47.31147" lon="-2.27216">
        <ele>24.39999961853</ele>
        <time>2021-06-20T09:00:49.000Z</time>
      </trkpt>
      <trkpt lat="47.31163" lon="-2.27201">
        <ele>24.39999961853</ele>
        <time>2021-06-20T09:00:52.000Z</time>
      </trkpt>
      <trkpt lat="47.31209" lon="-2.27152">
        <ele>24.39999961853</ele>
        <time>2021-06-20T09:01:01.000Z</time>
      </trkpt>
      <trkpt lat="47.31247" lon="-2.2712">
        <ele>24.39999961853</ele>
        <time>2021-06-20T09:01:08.000Z</time>
      </trkpt>
      <trkpt lat="47.31291" lon="-2.27089">
        <ele>24.39999961853</ele>
        <time>2021-06-20T09:01:16.000Z</time>
      </trkpt>
      <trkpt lat="47.31332" lon="-2.27072">
        <ele>24.39999961853</ele>
        <time>2021-06-20T09:01:23.000Z</time>
      </trkpt>
      <trkpt lat="47.31383" lon="-2.27055">
        <ele>24.39999961853</ele>
        <time>2021-06-20T09:01:31.000Z</time>
      </trkpt>
      <trkpt lat="47.31419" lon="-2.27032">
        <ele>24.39999961853</ele>
        <time>2021-06-20T09:01:37.000Z</time>
      </trkpt>
      <trkpt lat="47.31437" lon="-2.2702">
        <ele>24</ele>
        <time>2021-06-20T09:01:40.000Z</time>
      </trkpt>
      <trkpt lat="47.31443" lon="-2.27015">
        <ele>23.60000038147</ele>
        <time>2021-06-20T09:01:41.000Z</time>
      </trkpt>
      <trkpt lat="47.31448" lon="-2.27011">
        <ele>23.200000762939</ele>
        <time>2021-06-20T09:01:42.000Z</time>
      </trkpt>
      <trkpt lat="47.31455" lon="-2.27007">
        <ele>22.799999237061</ele>
        <time>2021-06-20T09:01:43.000Z</time>
      </trkpt>
      <trkpt lat="47.3146" lon="-2.27003">
        <ele>22.39999961853</ele>
        <time>2021-06-20T09:01:44.000Z</time>
      </trkpt>
      <trkpt lat="47.31475" lon="-2.26991">
        <ele>22.39999961853</ele>
        <time>2021-06-20T09:01:47.000Z</time>
      </trkpt>
      <trkpt lat="47.31493" lon="-2.2698">
        <ele>22.39999961853</ele>
        <time>2021-06-20T09:01:51.000Z</time>
      </trkpt>
      <trkpt lat="47.31496" lon="-2.26974">
        <ele>22.39999961853</ele>
        <time>2021-06-20T09:01:52.000Z</time>
      </trkpt>
      <trkpt lat="47.31502" lon="-2.26953">
        <ele>22.39999961853</ele>
        <time>2021-06-20T09:01:55.000Z</time>
      </trkpt>
      <trkpt lat="47.31504" lon="-2.26944">
        <ele>22.39999961853</ele>
        <time>2021-06-20T09:01:56.000Z</time>
      </trkpt>
      <trkpt lat="47.31509" lon="-2.26928">
        <ele>22.39999961853</ele>
        <time>2021-06-20T09:01:58.000Z</time>
      </trkpt>
      <trkpt lat="47.31519" lon="-2.26892">
        <ele>22.39999961853</ele>
        <time>2021-06-20T09:02:02.000Z</time>
      </trkpt>
      <trkpt lat="47.31525" lon="-2.26869">
        <ele>22</ele>
        <time>2021-06-20T09:02:05.000Z</time>
      </trkpt>
      <trkpt lat="47.31528" lon="-2.26861">
        <ele>21.60000038147</ele>
        <time>2021-06-20T09:02:06.000Z</time>
      </trkpt>
      <trkpt lat="47.31531" lon="-2.26854">
        <ele>21.200000762939</ele>
        <time>2021-06-20T09:02:07.000Z</time>
      </trkpt>
      <trkpt lat="47.31534" lon="-2.26846">
        <ele>20.799999237061</ele>
        <time>2021-06-20T09:02:08.000Z</time>
      </trkpt>
      <trkpt lat="47.31537" lon="-2.26839">
        <ele>20.39999961853</ele>
        <time>2021-06-20T09:02:09.000Z</time>
      </trkpt>
      <trkpt lat="47.31543" lon="-2.26823">
        <ele>20.39999961853</ele>
        <time>2021-06-20T09:02:11.000Z</time>
      </trkpt>
      <trkpt lat="47.31548" lon="-2.26808">
        <ele>20.39999961853</ele>
        <time>2021-06-20T09:02:13.000Z</time>
      </trkpt>
      <trkpt lat="47.31566" lon="-2.26763">
        <ele>20.39999961853</ele>
        <time>2021-06-20T09:02:19.000Z</time>
      </trkpt>
      <trkpt lat="47.3158" lon="-2.26757">
        <ele>20.39999961853</ele>
        <time>2021-06-20T09:02:22.000Z</time>
      </trkpt>
      <trkpt lat="47.31599" lon="-2.2676">
        <ele>20.39999961853</ele>
        <time>2021-06-20T09:02:25.000Z</time>
      </trkpt>
      <trkpt lat="47.31606" lon="-2.26759">
        <ele>20.39999961853</ele>
        <time>2021-06-20T09:02:26.000Z</time>
      </trkpt>
      <trkpt lat="47.31629" lon="-2.26748">
        <ele>20.39999961853</ele>
        <time>2021-06-20T09:02:30.000Z</time>
      </trkpt>
      <trkpt lat="47.31634" lon="-2.26744">
        <ele>20.39999961853</ele>
        <time>2021-06-20T09:02:31.000Z</time>
      </trkpt>
      <trkpt lat="47.31649" lon="-2.26733">
        <ele>20.39999961853</ele>
        <time>2021-06-20T09:02:34.000Z</time>
      </trkpt>
      <trkpt lat="47.3166" lon="-2.26728">
        <ele>20.39999961853</ele>
        <time>2021-06-20T09:02:36.000Z</time>
      </trkpt>
      <trkpt lat="47.31695" lon="-2.26723">
        <ele>20.39999961853</ele>
        <time>2021-06-20T09:02:42.000Z</time>
      </trkpt>
      <trkpt lat="47.31735" lon="-2.26715">
        <ele>20.39999961853</ele>
        <time>2021-06-20T09:02:49.000Z</time>
      </trkpt>
      <trkpt lat="47.31757" lon="-2.26708">
        <ele>20.799999237061</ele>
        <time>2021-06-20T09:02:53.000Z</time>
      </trkpt>
      <trkpt lat="47.31763" lon="-2.26706">
        <ele>21.200000762939</ele>
        <time>2021-06-20T09:02:54.000Z</time>
      </trkpt>
      <trkpt lat="47.31768" lon="-2.26706">
        <ele>21.799999237061</ele>
        <time>2021-06-20T09:02:55.000Z</time>
      </trkpt>
      <trkpt lat="47.31774" lon="-2.26704">
        <ele>22.200000762939</ele>
        <time>2021-06-20T09:02:56.000Z</time>
      </trkpt>
      <trkpt lat="47.3178" lon="-2.26702">
        <ele>22.60000038147</ele>
        <time>2021-06-20T09:02:57.000Z</time>
      </trkpt>
      <trkpt lat="47.31797" lon="-2.26694">
        <ele>22.60000038147</ele>
        <time>2021-06-20T09:03:00.000Z</time>
      </trkpt>
      <trkpt lat="47.31802" lon="-2.26695">
        <ele>22.60000038147</ele>
        <time>2021-06-20T09:03:01.000Z</time>
      </trkpt>
      <trkpt lat="47.31807" lon="-2.26698">
        <ele>23.39999961853</ele>
        <time>2021-06-20T09:03:02.000Z</time>
      </trkpt>
      <trkpt lat="47.31811" lon="-2.26702">
        <ele>23.799999237061</ele>
        <time>2021-06-20T09:03:03.000Z</time>
      </trkpt>
      <trkpt lat="47.31815" lon="-2.26707">
        <ele>24.200000762939</ele>
        <time>2021-06-20T09:03:04.000Z</time>
      </trkpt>
      <trkpt lat="47.31819" lon="-2.26712">
        <ele>24.799999237061</ele>
        <time>2021-06-20T09:03:05.000Z</time>
      </trkpt>
      <trkpt lat="47.31825" lon="-2.26725">
        <ele>24.799999237061</ele>
        <time>2021-06-20T09:03:07.000Z</time>
      </trkpt>
      <trkpt lat="47.31833" lon="-2.26735">
        <ele>24.799999237061</ele>
        <time>2021-06-20T09:03:09.000Z</time>
      </trkpt>
      <trkpt lat="47.31841" lon="-2.26739">
        <ele>24.799999237061</ele>
        <time>2021-06-20T09:03:11.000Z</time>
      </trkpt>
      <trkpt lat="47.31857" lon="-2.26737">
        <ele>24.799999237061</ele>
        <time>2021-06-20T09:03:15.000Z</time>
      </trkpt>
      <trkpt lat="47.31875" lon="-2.26723">
        <ele>24.799999237061</ele>
        <time>2021-06-20T09:03:21.000Z</time>
      </trkpt>
      <trkpt lat="47.31903" lon="-2.26699">
        <ele>24.799999237061</ele>
        <time>2021-06-20T09:03:29.000Z</time>
      </trkpt>
      <trkpt lat="47.31914" lon="-2.26688">
        <ele>24.799999237061</ele>
        <time>2021-06-20T09:03:32.000Z</time>
      </trkpt>
      <trkpt lat="47.31921" lon="-2.26682">
        <ele>24.799999237061</ele>
        <time>2021-06-20T09:03:34.000Z</time>
      </trkpt>
      <trkpt lat="47.31929" lon="-2.26674">
        <ele>24.799999237061</ele>
        <time>2021-06-20T09:03:36.000Z</time>
      </trkpt>
      <trkpt lat="47.31961" lon="-2.2665">
        <ele>24.799999237061</ele>
        <time>2021-06-20T09:03:43.000Z</time>
      </trkpt>
      <trkpt lat="47.31992" lon="-2.26628">
        <ele>24.799999237061</ele>
        <time>2021-06-20T09:03:49.000Z</time>
      </trkpt>
      <trkpt lat="47.32034" lon="-2.266">
        <ele>24.799999237061</ele>
        <time>2021-06-20T09:03:57.000Z</time>
      </trkpt>
      <trkpt lat="47.3204" lon="-2.26597">
        <ele>24.799999237061</ele>
        <time>2021-06-20T09:03:58.000Z</time>
      </trkpt>
      <trkpt lat="47.32063" lon="-2.26585">
        <ele>24.799999237061</ele>
        <time>2021-06-20T09:04:02.000Z</time>
      </trkpt>
      <trkpt lat="47.32081" lon="-2.26581">
        <ele>24.799999237061</ele>
        <time>2021-06-20T09:04:05.000Z</time>
      </trkpt>
      <trkpt lat="47.32099" lon="-2.26582">
        <ele>24.799999237061</ele>
        <time>2021-06-20T09:04:08.000Z</time>
      </trkpt>
      <trkpt lat="47.32111" lon="-2.26585">
        <ele>24.799999237061</ele>
        <time>2021-06-20T09:04:10.000Z</time>
      </trkpt>
      <trkpt lat="47.3213" lon="-2.26595">
        <ele>24.799999237061</ele>
        <time>2021-06-20T09:04:13.000Z</time>
      </trkpt>
      <trkpt lat="47.32172" lon="-2.26606">
        <ele>24.799999237061</ele>
        <time>2021-06-20T09:04:20.000Z</time>
      </trkpt>
      <trkpt lat="47.32198" lon="-2.26606">
        <ele>24.200000762939</ele>
        <time>2021-06-20T09:04:24.000Z</time>
      </trkpt>
      <trkpt lat="47.32205" lon="-2.26606">
        <ele>23.799999237061</ele>
        <time>2021-06-20T09:04:25.000Z</time>
      </trkpt>
      <trkpt lat="47.32212" lon="-2.26605">
        <ele>23.39999961853</ele>
        <time>2021-06-20T09:04:26.000Z</time>
      </trkpt>
      <trkpt lat="47.32218" lon="-2.26605">
        <ele>23</ele>
        <time>2021-06-20T09:04:27.000Z</time>
      </trkpt>
      <trkpt lat="47.32224" lon="-2.26604">
        <ele>22.60000038147</ele>
        <time>2021-06-20T09:04:28.000Z</time>
      </trkpt>
      <trkpt lat="47.32251" lon="-2.26603">
        <ele>22.60000038147</ele>
        <time>2021-06-20T09:04:32.000Z</time>
      </trkpt>
      <trkpt lat="47.32286" lon="-2.26599">
        <ele>22.60000038147</ele>
        <time>2021-06-20T09:04:37.000Z</time>
      </trkpt>
      <trkpt lat="47.32293" lon="-2.26595">
        <ele>22.60000038147</ele>
        <time>2021-06-20T09:04:38.000Z</time>
      </trkpt>
      <trkpt lat="47.32313" lon="-2.2657">
        <ele>22.60000038147</ele>
        <time>2021-06-20T09:04:42.000Z</time>
      </trkpt>
      <trkpt lat="47.32332" lon="-2.26546">
        <ele>22.60000038147</ele>
        <time>2021-06-20T09:04:46.000Z</time>
      </trkpt>
      <trkpt lat="47.32344" lon="-2.26538">
        <ele>22.60000038147</ele>
        <time>2021-06-20T09:04:48.000Z</time>
      </trkpt>
      <trkpt lat="47.3235" lon="-2.26534">
        <ele>22.200000762939</ele>
        <time>2021-06-20T09:04:49.000Z</time>
      </trkpt>
      <trkpt lat="47.32356" lon="-2.2653">
        <ele>21.799999237061</ele>
        <time>2021-06-20T09:04:50.000Z</time>
      </trkpt>
      <trkpt lat="47.32362" lon="-2.26528">
        <ele>21.39999961853</ele>
        <time>2021-06-20T09:04:51.000Z</time>
      </trkpt>
      <trkpt lat="47.32368" lon="-2.26525">
        <ele>21</ele>
        <time>2021-06-20T09:04:52.000Z</time>
      </trkpt>
      <trkpt lat="47.32374" lon="-2.26526">
        <ele>20.60000038147</ele>
        <time>2021-06-20T09:04:53.000Z</time>
      </trkpt>
      <trkpt lat="47.32383" lon="-2.26537">
        <ele>20.60000038147</ele>
        <time>2021-06-20T09:04:55.000Z</time>
      </trkpt>
      <trkpt lat="47.32389" lon="-2.26563">
        <ele>20.60000038147</ele>
        <time>2021-06-20T09:04:58.000Z</time>
      </trkpt>
      <trkpt lat="47.32398" lon="-2.266">
        <ele>20.60000038147</ele>
        <time>2021-06-20T09:05:02.000Z</time>
      </trkpt>
      <trkpt lat="47.32406" lon="-2.26622">
        <ele>20.60000038147</ele>
        <time>2021-06-20T09:05:05.000Z</time>
      </trkpt>
      <trkpt lat="47.32417" lon="-2.26658">
        <ele>20.60000038147</ele>
        <time>2021-06-20T09:05:10.000Z</time>
      </trkpt>
      <trkpt lat="47.32418" lon="-2.26665">
        <ele>20.60000038147</ele>
        <time>2021-06-20T09:05:11.000Z</time>
      </trkpt>
      <trkpt lat="47.3242" lon="-2.26679">
        <ele>20.60000038147</ele>
        <time>2021-06-20T09:05:13.000Z</time>
      </trkpt>
      <trkpt lat="47.32421" lon="-2.26694">
        <ele>20.60000038147</ele>
        <time>2021-06-20T09:05:15.000Z</time>
      </trkpt>
      <trkpt lat="47.32421" lon="-2.26751">
        <ele>20.60000038147</ele>
        <time>2021-06-20T09:05:22.000Z</time>
      </trkpt>
      <trkpt lat="47.32424" lon="-2.26804">
        <ele>20.60000038147</ele>
        <time>2021-06-20T09:05:28.000Z</time>
      </trkpt>
      <trkpt lat="47.3243" lon="-2.26862">
        <ele>20.60000038147</ele>
        <time>2021-06-20T09:05:34.000Z</time>
      </trkpt>
      <trkpt lat="47.32441" lon="-2.26927">
        <ele>20.60000038147</ele>
        <time>2021-06-20T09:05:41.000Z</time>
      </trkpt>
      <trkpt lat="47.3245" lon="-2.26992">
        <ele>20.60000038147</ele>
        <time>2021-06-20T09:05:48.000Z</time>
      </trkpt>
      <trkpt lat="47.3245" lon="-2.27015">
        <ele>20.60000038147</ele>
        <time>2021-06-20T09:05:51.000Z</time>
      </trkpt>
      <trkpt lat="47.32447" lon="-2.2702">
        <ele>20.60000038147</ele>
        <time>2021-06-20T09:05:52.000Z</time>
      </trkpt>
      <trkpt lat="47.32433" lon="-2.27023">
        <ele>20.60000038147</ele>
        <time>2021-06-20T09:05:55.000Z</time>
      </trkpt>
      <trkpt lat="47.32424" lon="-2.27022">
        <ele>20.60000038147</ele>
        <time>2021-06-20T09:05:57.000Z</time>
      </trkpt>
      <trkpt lat="47.32412" lon="-2.27022">
        <ele>20.60000038147</ele>
        <time>2021-06-20T09:06:00.000Z</time>
      </trkpt>
      <trkpt lat="47.32393" lon="-2.27022">
        <ele>20.60000038147</ele>
        <time>2021-06-20T09:06:04.000Z</time>
      </trkpt>
      <trkpt lat="47.32386" lon="-2.27029">
        <ele>20.60000038147</ele>
        <time>2021-06-20T09:06:06.000Z</time>
      </trkpt>
      <trkpt lat="47.32385" lon="-2.27051">
        <ele>20.60000038147</ele>
        <time>2021-06-20T09:06:09.000Z</time>
      </trkpt>
      <trkpt lat="47.32385" lon="-2.27059">
        <ele>21</ele>
        <time>2021-06-20T09:06:10.000Z</time>
      </trkpt>
      <trkpt lat="47.32385" lon="-2.27067">
        <ele>21.39999961853</ele>
        <time>2021-06-20T09:06:11.000Z</time>
      </trkpt>
      <trkpt lat="47.32385" lon="-2.27074">
        <ele>21.799999237061</ele>
        <time>2021-06-20T09:06:12.000Z</time>
      </trkpt>
      <trkpt lat="47.32386" lon="-2.27082">
        <ele>22.200000762939</ele>
        <time>2021-06-20T09:06:13.000Z</time>
      </trkpt>
      <trkpt lat="47.32387" lon="-2.27091">
        <ele>22.60000038147</ele>
        <time>2021-06-20T09:06:14.000Z</time>
      </trkpt>
      <trkpt lat="47.32388" lon="-2.27108">
        <ele>22.60000038147</ele>
        <time>2021-06-20T09:06:16.000Z</time>
      </trkpt>
      <trkpt lat="47.32384" lon="-2.27164">
        <ele>22.60000038147</ele>
        <time>2021-06-20T09:06:22.000Z</time>
      </trkpt>
      <trkpt lat="47.32382" lon="-2.27172">
        <ele>22.60000038147</ele>
        <time>2021-06-20T09:06:23.000Z</time>
      </trkpt>
      <trkpt lat="47.32371" lon="-2.27205">
        <ele>22.60000038147</ele>
        <time>2021-06-20T09:06:27.000Z</time>
      </trkpt>
      <trkpt lat="47.32362" lon="-2.27227">
        <ele>22.60000038147</ele>
        <time>2021-06-20T09:06:30.000Z</time>
      </trkpt>
      <trkpt lat="47.32353" lon="-2.27242">
        <ele>22.60000038147</ele>
        <time>2021-06-20T09:06:32.000Z</time>
      </trkpt>
      <trkpt lat="47.32344" lon="-2.27254">
        <ele>22.60000038147</ele>
        <time>2021-06-20T09:06:34.000Z</time>
      </trkpt>
      <trkpt lat="47.32327" lon="-2.27269">
        <ele>22.60000038147</ele>
        <time>2021-06-20T09:06:37.000Z</time>
      </trkpt>
      <trkpt lat="47.3232" lon="-2.27274">
        <ele>22.60000038147</ele>
        <time>2021-06-20T09:06:38.000Z</time>
      </trkpt>
      <trkpt lat="47.3229" lon="-2.27293">
        <ele>22.60000038147</ele>
        <time>2021-06-20T09:06:42.000Z</time>
      </trkpt>
      <trkpt lat="47.32261" lon="-2.27313">
        <ele>22.60000038147</ele>
        <time>2021-06-20T09:06:46.000Z</time>
      </trkpt>
      <trkpt lat="47.32256" lon="-2.2732">
        <ele>22.60000038147</ele>
        <time>2021-06-20T09:06:47.000Z</time>
      </trkpt>
      <trkpt lat="47.32252" lon="-2.27341">
        <ele>22.60000038147</ele>
        <time>2021-06-20T09:06:49.000Z</time>
      </trkpt>
      <trkpt lat="47.32255" lon="-2.27372">
        <ele>22.60000038147</ele>
        <time>2021-06-20T09:06:52.000Z</time>
      </trkpt>
      <trkpt lat="47.32256" lon="-2.27382">
        <ele>22.60000038147</ele>
        <time>2021-06-20T09:06:53.000Z</time>
      </trkpt>
      <trkpt lat="47.32256" lon="-2.27402">
        <ele>22.60000038147</ele>
        <time>2021-06-20T09:06:55.000Z</time>
      </trkpt>
      <trkpt lat="47.32252" lon="-2.2743">
        <ele>22.60000038147</ele>
        <time>2021-06-20T09:06:58.000Z</time>
      </trkpt>
      <trkpt lat="47.3225" lon="-2.27439">
        <ele>22.60000038147</ele>
        <time>2021-06-20T09:06:59.000Z</time>
      </trkpt>
      <trkpt lat="47.32245" lon="-2.27472">
        <ele>22.60000038147</ele>
        <time>2021-06-20T09:07:03.000Z</time>
      </trkpt>
      <trkpt lat="47.32245" lon="-2.27481">
        <ele>22.60000038147</ele>
        <time>2021-06-20T09:07:04.000Z</time>
      </trkpt>
      <trkpt lat="47.32247" lon="-2.27495">
        <ele>22.60000038147</ele>
        <time>2021-06-20T09:07:06.000Z</time>
      </trkpt>
      <trkpt lat="47.32252" lon="-2.27504">
        <ele>22.60000038147</ele>
        <time>2021-06-20T09:07:08.000Z</time>
      </trkpt>
      <trkpt lat="47.32262" lon="-2.27501">
        <ele>22.60000038147</ele>
        <time>2021-06-20T09:07:10.000Z</time>
      </trkpt>
      <trkpt lat="47.32268" lon="-2.275">
        <ele>22.60000038147</ele>
        <time>2021-06-20T09:07:11.000Z</time>
      </trkpt>
      <trkpt lat="47.3228" lon="-2.275">
        <ele>22.60000038147</ele>
        <time>2021-06-20T09:07:13.000Z</time>
      </trkpt>
      <trkpt lat="47.32292" lon="-2.27502">
        <ele>22.60000038147</ele>
        <time>2021-06-20T09:07:15.000Z</time>
      </trkpt>
      <trkpt lat="47.32328" lon="-2.27508">
        <ele>22.200000762939</ele>
        <time>2021-06-20T09:07:22.000Z</time>
      </trkpt>
      <trkpt lat="47.32333" lon="-2.27508">
        <ele>21.799999237061</ele>
        <time>2021-06-20T09:07:23.000Z</time>
      </trkpt>
      <trkpt lat="47.32339" lon="-2.27509">
        <ele>21.39999961853</ele>
        <time>2021-06-20T09:07:24.000Z</time>
      </trkpt>
      <trkpt lat="47.32344" lon="-2.2751">
        <ele>21</ele>
        <time>2021-06-20T09:07:25.000Z</time>
      </trkpt>
      <trkpt lat="47.32349" lon="-2.27511">
        <ele>20.60000038147</ele>
        <time>2021-06-20T09:07:26.000Z</time>
      </trkpt>
      <trkpt lat="47.32358" lon="-2.27516">
        <ele>20.60000038147</ele>
        <time>2021-06-20T09:07:28.000Z</time>
      </trkpt>
      <trkpt lat="47.32362" lon="-2.27523">
        <ele>20.60000038147</ele>
        <time>2021-06-20T09:07:29.000Z</time>
      </trkpt>
      <trkpt lat="47.32367" lon="-2.27549">
        <ele>20.60000038147</ele>
        <time>2021-06-20T09:07:32.000Z</time>
      </trkpt>
      <trkpt lat="47.32365" lon="-2.27597">
        <ele>20.60000038147</ele>
        <time>2021-06-20T09:07:37.000Z</time>
      </trkpt>
      <trkpt lat="47.32363" lon="-2.27606">
        <ele>20.60000038147</ele>
        <time>2021-06-20T09:07:38.000Z</time>
      </trkpt>
      <trkpt lat="47.32362" lon="-2.27616">
        <ele>20.60000038147</ele>
        <time>2021-06-20T09:07:39.000Z</time>
      </trkpt>
      <trkpt lat="47.3236" lon="-2.27643">
        <ele>20.60000038147</ele>
        <time>2021-06-20T09:07:42.000Z</time>
      </trkpt>
      <trkpt lat="47.32353" lon="-2.27682">
        <ele>20.60000038147</ele>
        <time>2021-06-20T09:07:47.000Z</time>
      </trkpt>
      <trkpt lat="47.32345" lon="-2.27743">
        <ele>20.60000038147</ele>
        <time>2021-06-20T09:07:54.000Z</time>
      </trkpt>
      <trkpt lat="47.32335" lon="-2.27788">
        <ele>20.60000038147</ele>
        <time>2021-06-20T09:08:00.000Z</time>
      </trkpt>
      <trkpt lat="47.32326" lon="-2.27816">
        <ele>20.60000038147</ele>
        <time>2021-06-20T09:08:04.000Z</time>
      </trkpt>
      <trkpt lat="47.32323" lon="-2.27827">
        <ele>20.60000038147</ele>
        <time>2021-06-20T09:08:06.000Z</time>
      </trkpt>
      <trkpt lat="47.32332" lon="-2.27837">
        <ele>20.60000038147</ele>
        <time>2021-06-20T09:08:09.000Z</time>
      </trkpt>
      <trkpt lat="47.32343" lon="-2.27835">
        <ele>20.60000038147</ele>
        <time>2021-06-20T09:08:11.000Z</time>
      </trkpt>
      <trkpt lat="47.32349" lon="-2.27835">
        <ele>20.60000038147</ele>
        <time>2021-06-20T09:08:12.000Z</time>
      </trkpt>
      <trkpt lat="47.3239" lon="-2.27833">
        <ele>20.60000038147</ele>
        <time>2021-06-20T09:08:18.000Z</time>
      </trkpt>
      <trkpt lat="47.3245" lon="-2.27829">
        <ele>20.60000038147</ele>
        <time>2021-06-20T09:08:26.000Z</time>
      </trkpt>
      <trkpt lat="47.32499" lon="-2.2783">
        <ele>20.60000038147</ele>
        <time>2021-06-20T09:08:33.000Z</time>
      </trkpt>
      <trkpt lat="47.32505" lon="-2.27833">
        <ele>20.60000038147</ele>
        <time>2021-06-20T09:08:34.000Z</time>
      </trkpt>
      <trkpt lat="47.32517" lon="-2.27845">
        <ele>20.60000038147</ele>
        <time>2021-06-20T09:08:36.000Z</time>
      </trkpt>
      <trkpt lat="47.32526" lon="-2.2787">
        <ele>20.60000038147</ele>
        <time>2021-06-20T09:08:39.000Z</time>
      </trkpt>
      <trkpt lat="47.32531" lon="-2.27889">
        <ele>20.60000038147</ele>
        <time>2021-06-20T09:08:41.000Z</time>
      </trkpt>
      <trkpt lat="47.32536" lon="-2.27924">
        <ele>20.60000038147</ele>
        <time>2021-06-20T09:08:45.000Z</time>
      </trkpt>
      <trkpt lat="47.3255" lon="-2.28002">
        <ele>20.60000038147</ele>
        <time>2021-06-20T09:08:53.000Z</time>
      </trkpt>
      <trkpt lat="47.32562" lon="-2.28058">
        <ele>20.60000038147</ele>
        <time>2021-06-20T09:08:59.000Z</time>
      </trkpt>
      <trkpt lat="47.32576" lon="-2.28122">
        <ele>20.60000038147</ele>
        <time>2021-06-20T09:09:06.000Z</time>
      </trkpt>
      <trkpt lat="47.32594" lon="-2.28202">
        <ele>20.60000038147</ele>
        <time>2021-06-20T09:09:15.000Z</time>
      </trkpt>
      <trkpt lat="47.32596" lon="-2.28211">
        <ele>20.60000038147</ele>
        <time>2021-06-20T09:09:16.000Z</time>
      </trkpt>
      <trkpt lat="47.32611" lon="-2.28283">
        <ele>20.60000038147</ele>
        <time>2021-06-20T09:09:24.000Z</time>
      </trkpt>
      <trkpt lat="47.32624" lon="-2.28332">
        <ele>20.60000038147</ele>
        <time>2021-06-20T09:09:30.000Z</time>
      </trkpt>
      <trkpt lat="47.3263" lon="-2.28346">
        <ele>20.60000038147</ele>
        <time>2021-06-20T09:09:32.000Z</time>
      </trkpt>
      <trkpt lat="47.3264" lon="-2.28354">
        <ele>20.60000038147</ele>
        <time>2021-06-20T09:09:34.000Z</time>
      </trkpt>
      <trkpt lat="47.32657" lon="-2.28351">
        <ele>20.60000038147</ele>
        <time>2021-06-20T09:09:37.000Z</time>
      </trkpt>
      <trkpt lat="47.32669" lon="-2.28339">
        <ele>20.60000038147</ele>
        <time>2021-06-20T09:09:39.000Z</time>
      </trkpt>
      <trkpt lat="47.32675" lon="-2.28334">
        <ele>20.60000038147</ele>
        <time>2021-06-20T09:09:40.000Z</time>
      </trkpt>
      <trkpt lat="47.32708" lon="-2.28304">
        <ele>20.60000038147</ele>
        <time>2021-06-20T09:09:46.000Z</time>
      </trkpt>
      <trkpt lat="47.32738" lon="-2.28261">
        <ele>20.60000038147</ele>
        <time>2021-06-20T09:09:52.000Z</time>
      </trkpt>
      <trkpt lat="47.32763" lon="-2.28222">
        <ele>20.60000038147</ele>
        <time>2021-06-20T09:09:58.000Z</time>
      </trkpt>
      <trkpt lat="47.32763" lon="-2.28216">
        <ele>20.60000038147</ele>
        <time>2021-06-20T09:09:59.000Z</time>
      </trkpt>
      <trkpt lat="47.32761" lon="-2.28204">
        <ele>20.60000038147</ele>
        <time>2021-06-20T09:10:02.000Z</time>
      </trkpt>
      <trkpt lat="47.32759" lon="-2.28202">
        <ele>20.60000038147</ele>
        <time>2021-06-20T09:10:05.000Z</time>
      </trkpt>
      <trkpt lat="47.32758" lon="-2.28201">
        <ele>20.60000038147</ele>
        <time>2021-06-20T09:10:12.000Z</time>
      </trkpt>
      <trkpt lat="47.32759" lon="-2.28184">
        <ele>20.60000038147</ele>
        <time>2021-06-20T09:10:17.000Z</time>
      </trkpt>
      <trkpt lat="47.32761" lon="-2.28181">
        <ele>20.60000038147</ele>
        <time>2021-06-20T09:10:19.000Z</time>
      </trkpt>
      <trkpt lat="47.32763" lon="-2.28174">
        <ele>20.60000038147</ele>
        <time>2021-06-20T09:10:23.000Z</time>
      </trkpt>
      <trkpt lat="47.32772" lon="-2.28164">
        <ele>20.200000762939</ele>
        <time>2021-06-20T09:10:29.000Z</time>
      </trkpt>
      <trkpt lat="47.32775" lon="-2.28163">
        <ele>19.799999237061</ele>
        <time>2021-06-20T09:10:30.000Z</time>
      </trkpt>
      <trkpt lat="47.32776" lon="-2.28163">
        <ele>19.39999961853</ele>
        <time>2021-06-20T09:10:31.000Z</time>
      </trkpt>
      <trkpt lat="47.32779" lon="-2.28161">
        <ele>19</ele>
        <time>2021-06-20T09:10:32.000Z</time>
      </trkpt>
      <trkpt lat="47.32782" lon="-2.2816">
        <ele>18.60000038147</ele>
        <time>2021-06-20T09:10:33.000Z</time>
      </trkpt>
      <trkpt lat="47.32786" lon="-2.28157">
        <ele>18.60000038147</ele>
        <time>2021-06-20T09:10:34.000Z</time>
      </trkpt>
      <trkpt lat="47.32791" lon="-2.28154">
        <ele>18.60000038147</ele>
        <time>2021-06-20T09:10:35.000Z</time>
      </trkpt>
      <trkpt lat="47.32795" lon="-2.28153">
        <ele>18.60000038147</ele>
        <time>2021-06-20T09:10:36.000Z</time>
      </trkpt>
      <trkpt lat="47.32805" lon="-2.28147">
        <ele>18.60000038147</ele>
        <time>2021-06-20T09:10:38.000Z</time>
      </trkpt>
      <trkpt lat="47.32843" lon="-2.28128">
        <ele>18.60000038147</ele>
        <time>2021-06-20T09:10:45.000Z</time>
      </trkpt>
      <trkpt lat="47.32879" lon="-2.28111">
        <ele>18.60000038147</ele>
        <time>2021-06-20T09:10:51.000Z</time>
      </trkpt>
      <trkpt lat="47.32901" lon="-2.281">
        <ele>18.60000038147</ele>
        <time>2021-06-20T09:10:55.000Z</time>
      </trkpt>
      <trkpt lat="47.32919" lon="-2.28093">
        <ele>18.60000038147</ele>
        <time>2021-06-20T09:10:58.000Z</time>
      </trkpt>
      <trkpt lat="47.32935" lon="-2.28087">
        <ele>18.60000038147</ele>
        <time>2021-06-20T09:11:01.000Z</time>
      </trkpt>
      <trkpt lat="47.3294" lon="-2.28085">
        <ele>18.60000038147</ele>
        <time>2021-06-20T09:11:02.000Z</time>
      </trkpt>
      <trkpt lat="47.32965" lon="-2.28073">
        <ele>18.60000038147</ele>
        <time>2021-06-20T09:11:07.000Z</time>
      </trkpt>
      <trkpt lat="47.3297" lon="-2.28071">
        <ele>18.60000038147</ele>
        <time>2021-06-20T09:11:08.000Z</time>
      </trkpt>
      <trkpt lat="47.32985" lon="-2.28075">
        <ele>18.60000038147</ele>
        <time>2021-06-20T09:11:11.000Z</time>
      </trkpt>
      <trkpt lat="47.32996" lon="-2.28077">
        <ele>18.60000038147</ele>
        <time>2021-06-20T09:11:13.000Z</time>
      </trkpt>
      <trkpt lat="47.33004" lon="-2.28077">
        <ele>18.60000038147</ele>
        <time>2021-06-20T09:11:15.000Z</time>
      </trkpt>
      <trkpt lat="47.33014" lon="-2.28064">
        <ele>18.60000038147</ele>
        <time>2021-06-20T09:11:18.000Z</time>
      </trkpt>
      <trkpt lat="47.33016" lon="-2.28058">
        <ele>18.60000038147</ele>
        <time>2021-06-20T09:11:19.000Z</time>
      </trkpt>
      <trkpt lat="47.33022" lon="-2.28047">
        <ele>18.60000038147</ele>
        <time>2021-06-20T09:11:21.000Z</time>
      </trkpt>
      <trkpt lat="47.33028" lon="-2.28032">
        <ele>18.60000038147</ele>
        <time>2021-06-20T09:11:23.000Z</time>
      </trkpt>
      <trkpt lat="47.3304" lon="-2.28009">
        <ele>18.60000038147</ele>
        <time>2021-06-20T09:11:27.000Z</time>
      </trkpt>
      <trkpt lat="47.33042" lon="-2.28005">
        <ele>18.60000038147</ele>
        <time>2021-06-20T09:11:28.000Z</time>
      </trkpt>
      <trkpt lat="47.3305" lon="-2.27996">
        <ele>18.60000038147</ele>
        <time>2021-06-20T09:11:32.000Z</time>
      </trkpt>
      <trkpt lat="47.33055" lon="-2.27987">
        <ele>18.60000038147</ele>
        <time>2021-06-20T09:11:36.000Z</time>
      </trkpt>
      <trkpt lat="47.33066" lon="-2.27975">
        <ele>18.60000038147</ele>
        <time>2021-06-20T09:11:42.000Z</time>
      </trkpt>
      <trkpt lat="47.33074" lon="-2.2796">
        <ele>18.60000038147</ele>
        <time>2021-06-20T09:11:46.000Z</time>
      </trkpt>
      <trkpt lat="47.33084" lon="-2.27942">
        <ele>18.60000038147</ele>
        <time>2021-06-20T09:11:52.000Z</time>
      </trkpt>
      <trkpt lat="47.33093" lon="-2.2793">
        <ele>18.60000038147</ele>
        <time>2021-06-20T09:11:55.000Z</time>
      </trkpt>
      <trkpt lat="47.33098" lon="-2.27925">
        <ele>18.60000038147</ele>
        <time>2021-06-20T09:11:56.000Z</time>
      </trkpt>
      <trkpt lat="47.33101" lon="-2.2792">
        <ele>18.60000038147</ele>
        <time>2021-06-20T09:11:57.000Z</time>
      </trkpt>
      <trkpt lat="47.33109" lon="-2.279">
        <ele>18.60000038147</ele>
        <time>2021-06-20T09:12:00.000Z</time>
      </trkpt>
      <trkpt lat="47.33104" lon="-2.27883">
        <ele>18.60000038147</ele>
        <time>2021-06-20T09:12:03.000Z</time>
      </trkpt>
      <trkpt lat="47.33084" lon="-2.27867">
        <ele>18.60000038147</ele>
        <time>2021-06-20T09:12:07.000Z</time>
      </trkpt>
      <trkpt lat="47.33074" lon="-2.27864">
        <ele>18.60000038147</ele>
        <time>2021-06-20T09:12:09.000Z</time>
      </trkpt>
      <trkpt lat="47.33064" lon="-2.27859">
        <ele>18.60000038147</ele>
        <time>2021-06-20T09:12:11.000Z</time>
      </trkpt>
      <trkpt lat="47.33053" lon="-2.27853">
        <ele>18.60000038147</ele>
        <time>2021-06-20T09:12:13.000Z</time>
      </trkpt>
      <trkpt lat="47.33041" lon="-2.27844">
        <ele>18.60000038147</ele>
        <time>2021-06-20T09:12:15.000Z</time>
      </trkpt>
      <trkpt lat="47.33036" lon="-2.2784">
        <ele>18.60000038147</ele>
        <time>2021-06-20T09:12:16.000Z</time>
      </trkpt>
      <trkpt lat="47.33031" lon="-2.27835">
        <ele>18.60000038147</ele>
        <time>2021-06-20T09:12:17.000Z</time>
      </trkpt>
      <trkpt lat="47.33016" lon="-2.2782">
        <ele>18.60000038147</ele>
        <time>2021-06-20T09:12:20.000Z</time>
      </trkpt>
      <trkpt lat="47.33012" lon="-2.27815">
        <ele>18.60000038147</ele>
        <time>2021-06-20T09:12:21.000Z</time>
      </trkpt>
      <trkpt lat="47.32996" lon="-2.27789">
        <ele>18.60000038147</ele>
        <time>2021-06-20T09:12:26.000Z</time>
      </trkpt>
      <trkpt lat="47.32982" lon="-2.27765">
        <ele>18.60000038147</ele>
        <time>2021-06-20T09:12:30.000Z</time>
      </trkpt>
      <trkpt lat="47.32977" lon="-2.27753">
        <ele>18.60000038147</ele>
        <time>2021-06-20T09:12:32.000Z</time>
      </trkpt>
      <trkpt lat="47.32972" lon="-2.27737">
        <ele>18.60000038147</ele>
        <time>2021-06-20T09:12:34.000Z</time>
      </trkpt>
      <trkpt lat="47.32967" lon="-2.2772">
        <ele>18.60000038147</ele>
        <time>2021-06-20T09:12:36.000Z</time>
      </trkpt>
      <trkpt lat="47.32964" lon="-2.27704">
        <ele>18.60000038147</ele>
        <time>2021-06-20T09:12:38.000Z</time>
      </trkpt>
      <trkpt lat="47.32959" lon="-2.27679">
        <ele>18.60000038147</ele>
        <time>2021-06-20T09:12:41.000Z</time>
      </trkpt>
      <trkpt lat="47.3296" lon="-2.27671">
        <ele>18.60000038147</ele>
        <time>2021-06-20T09:12:42.000Z</time>
      </trkpt>
      <trkpt lat="47.32958" lon="-2.27645">
        <ele>18.60000038147</ele>
        <time>2021-06-20T09:12:45.000Z</time>
      </trkpt>
      <trkpt lat="47.32958" lon="-2.27637">
        <ele>18.60000038147</ele>
        <time>2021-06-20T09:12:46.000Z</time>
      </trkpt>
      <trkpt lat="47.32962" lon="-2.27612">
        <ele>18.60000038147</ele>
        <time>2021-06-20T09:12:49.000Z</time>
      </trkpt>
      <trkpt lat="47.32965" lon="-2.27595">
        <ele>19</ele>
        <time>2021-06-20T09:12:51.000Z</time>
      </trkpt>
      <trkpt lat="47.32967" lon="-2.27587">
        <ele>19.39999961853</ele>
        <time>2021-06-20T09:12:52.000Z</time>
      </trkpt>
      <trkpt lat="47.32969" lon="-2.27578">
        <ele>19.799999237061</ele>
        <time>2021-06-20T09:12:53.000Z</time>
      </trkpt>
      <trkpt lat="47.32971" lon="-2.2757">
        <ele>20.200000762939</ele>
        <time>2021-06-20T09:12:54.000Z</time>
      </trkpt>
      <trkpt lat="47.32973" lon="-2.27561">
        <ele>20.60000038147</ele>
        <time>2021-06-20T09:12:55.000Z</time>
      </trkpt>
      <trkpt lat="47.32976" lon="-2.27553">
        <ele>20.60000038147</ele>
        <time>2021-06-20T09:12:56.000Z</time>
      </trkpt>
      <trkpt lat="47.3298" lon="-2.27535">
        <ele>20.60000038147</ele>
        <time>2021-06-20T09:12:58.000Z</time>
      </trkpt>
      <trkpt lat="47.32983" lon="-2.27528">
        <ele>20.60000038147</ele>
        <time>2021-06-20T09:12:59.000Z</time>
      </trkpt>
      <trkpt lat="47.32994" lon="-2.27508">
        <ele>20.60000038147</ele>
        <time>2021-06-20T09:13:02.000Z</time>
      </trkpt>
      <trkpt lat="47.32999" lon="-2.27495">
        <ele>20.60000038147</ele>
        <time>2021-06-20T09:13:04.000Z</time>
      </trkpt>
      <trkpt lat="47.33003" lon="-2.27479">
        <ele>20.60000038147</ele>
        <time>2021-06-20T09:13:06.000Z</time>
      </trkpt>
      <trkpt lat="47.33017" lon="-2.27433">
        <ele>20.60000038147</ele>
        <time>2021-06-20T09:13:12.000Z</time>
      </trkpt>
      <trkpt lat="47.33026" lon="-2.27402">
        <ele>20.60000038147</ele>
        <time>2021-06-20T09:13:16.000Z</time>
      </trkpt>
      <trkpt lat="47.33029" lon="-2.27394">
        <ele>20.60000038147</ele>
        <time>2021-06-20T09:13:17.000Z</time>
      </trkpt>
      <trkpt lat="47.33032" lon="-2.27387">
        <ele>20.60000038147</ele>
        <time>2021-06-20T09:13:18.000Z</time>
      </trkpt>
      <trkpt lat="47.33044" lon="-2.27356">
        <ele>20.60000038147</ele>
        <time>2021-06-20T09:13:22.000Z</time>
      </trkpt>
      <trkpt lat="47.33064" lon="-2.27315">
        <ele>20.60000038147</ele>
        <time>2021-06-20T09:13:28.000Z</time>
      </trkpt>
      <trkpt lat="47.33086" lon="-2.27269">
        <ele>20.60000038147</ele>
        <time>2021-06-20T09:13:35.000Z</time>
      </trkpt>
      <trkpt lat="47.33093" lon="-2.27256">
        <ele>20.60000038147</ele>
        <time>2021-06-20T09:13:37.000Z</time>
      </trkpt>
      <trkpt lat="47.33099" lon="-2.27241">
        <ele>20.60000038147</ele>
        <time>2021-06-20T09:13:39.000Z</time>
      </trkpt>
      <trkpt lat="47.33106" lon="-2.27229">
        <ele>20.60000038147</ele>
        <time>2021-06-20T09:13:41.000Z</time>
      </trkpt>
      <trkpt lat="47.33112" lon="-2.27216">
        <ele>20.60000038147</ele>
        <time>2021-06-20T09:13:43.000Z</time>
      </trkpt>
      <trkpt lat="47.33118" lon="-2.27201">
        <ele>20.60000038147</ele>
        <time>2021-06-20T09:13:45.000Z</time>
      </trkpt>
      <trkpt lat="47.33142" lon="-2.27146">
        <ele>20.60000038147</ele>
        <time>2021-06-20T09:13:53.000Z</time>
      </trkpt>
      <trkpt lat="47.33147" lon="-2.27129">
        <ele>20.60000038147</ele>
        <time>2021-06-20T09:13:57.000Z</time>
      </trkpt>
      <trkpt lat="47.3315" lon="-2.27118">
        <ele>20.60000038147</ele>
        <time>2021-06-20T09:13:59.000Z</time>
      </trkpt>
      <trkpt lat="47.33154" lon="-2.27104">
        <ele>20.60000038147</ele>
        <time>2021-06-20T09:14:01.000Z</time>
      </trkpt>
      <trkpt lat="47.33157" lon="-2.27098">
        <ele>20.60000038147</ele>
        <time>2021-06-20T09:14:02.000Z</time>
      </trkpt>
      <trkpt lat="47.33168" lon="-2.2707">
        <ele>20.60000038147</ele>
        <time>2021-06-20T09:14:06.000Z</time>
      </trkpt>
      <trkpt lat="47.33188" lon="-2.27031">
        <ele>20.60000038147</ele>
        <time>2021-06-20T09:14:12.000Z</time>
      </trkpt>
      <trkpt lat="47.33212" lon="-2.26998">
        <ele>20.60000038147</ele>
        <time>2021-06-20T09:14:18.000Z</time>
      </trkpt>
      <trkpt lat="47.33222" lon="-2.2699">
        <ele>20.60000038147</ele>
        <time>2021-06-20T09:14:20.000Z</time>
      </trkpt>
      <trkpt lat="47.33232" lon="-2.26986">
        <ele>20.60000038147</ele>
        <time>2021-06-20T09:14:22.000Z</time>
      </trkpt>
      <trkpt lat="47.33253" lon="-2.26987">
        <ele>20.60000038147</ele>
        <time>2021-06-20T09:14:26.000Z</time>
      </trkpt>
      <trkpt lat="47.33269" lon="-2.2699">
        <ele>20.60000038147</ele>
        <time>2021-06-20T09:14:29.000Z</time>
      </trkpt>
      <trkpt lat="47.33286" lon="-2.26994">
        <ele>20.60000038147</ele>
        <time>2021-06-20T09:14:32.000Z</time>
      </trkpt>
      <trkpt lat="47.33295" lon="-2.26998">
        <ele>20.60000038147</ele>
        <time>2021-06-20T09:14:34.000Z</time>
      </trkpt>
      <trkpt lat="47.33305" lon="-2.27004">
        <ele>20.60000038147</ele>
        <time>2021-06-20T09:14:36.000Z</time>
      </trkpt>
      <trkpt lat="47.33325" lon="-2.27009">
        <ele>20.60000038147</ele>
        <time>2021-06-20T09:14:40.000Z</time>
      </trkpt>
      <trkpt lat="47.33336" lon="-2.27007">
        <ele>20.60000038147</ele>
        <time>2021-06-20T09:14:42.000Z</time>
      </trkpt>
      <trkpt lat="47.33342" lon="-2.27004">
        <ele>20.60000038147</ele>
        <time>2021-06-20T09:14:43.000Z</time>
      </trkpt>
      <trkpt lat="47.33353" lon="-2.27">
        <ele>20.60000038147</ele>
        <time>2021-06-20T09:14:45.000Z</time>
      </trkpt>
      <trkpt lat="47.33358" lon="-2.26997">
        <ele>20.60000038147</ele>
        <time>2021-06-20T09:14:46.000Z</time>
      </trkpt>
      <trkpt lat="47.33362" lon="-2.26995">
        <ele>20.60000038147</ele>
        <time>2021-06-20T09:14:48.000Z</time>
      </trkpt>
      <trkpt lat="47.33363" lon="-2.26997">
        <ele>20.60000038147</ele>
        <time>2021-06-20T09:14:49.000Z</time>
      </trkpt>
      <trkpt lat="47.33367" lon="-2.27005">
        <ele>20.60000038147</ele>
        <time>2021-06-20T09:14:52.000Z</time>
      </trkpt>
      <trkpt lat="47.33372" lon="-2.27014">
        <ele>20.60000038147</ele>
        <time>2021-06-20T09:14:55.000Z</time>
      </trkpt>
      <trkpt lat="47.33375" lon="-2.27022">
        <ele>20.60000038147</ele>
        <time>2021-06-20T09:14:57.000Z</time>
      </trkpt>
      <trkpt lat="47.33385" lon="-2.27051">
        <ele>20.60000038147</ele>
        <time>2021-06-20T09:15:04.000Z</time>
      </trkpt>
      <trkpt lat="47.33396" lon="-2.27075">
        <ele>20.60000038147</ele>
        <time>2021-06-20T09:15:11.000Z</time>
      </trkpt>
      <trkpt lat="47.33405" lon="-2.271">
        <ele>20.60000038147</ele>
        <time>2021-06-20T09:15:18.000Z</time>
      </trkpt>
      <trkpt lat="47.33414" lon="-2.27124">
        <ele>20.60000038147</ele>
        <time>2021-06-20T09:15:25.000Z</time>
      </trkpt>
      <trkpt lat="47.33421" lon="-2.27145">
        <ele>20.60000038147</ele>
        <time>2021-06-20T09:15:31.000Z</time>
      </trkpt>
      <trkpt lat="47.33425" lon="-2.27167">
        <ele>20.60000038147</ele>
        <time>2021-06-20T09:15:37.000Z</time>
      </trkpt>
      <trkpt lat="47.3343" lon="-2.27194">
        <ele>20.60000038147</ele>
        <time>2021-06-20T09:15:44.000Z</time>
      </trkpt>
      <trkpt lat="47.33434" lon="-2.27219">
        <ele>20.60000038147</ele>
        <time>2021-06-20T09:15:50.000Z</time>
      </trkpt>
      <trkpt lat="47.33442" lon="-2.2726">
        <ele>20.60000038147</ele>
        <time>2021-06-20T09:15:58.000Z</time>
      </trkpt>
      <trkpt lat="47.3345" lon="-2.27305">
        <ele>20.60000038147</ele>
        <time>2021-06-20T09:16:05.000Z</time>
      </trkpt>
      <trkpt lat="47.33457" lon="-2.27344">
        <ele>20.60000038147</ele>
        <time>2021-06-20T09:16:10.000Z</time>
      </trkpt>
      <trkpt lat="47.33458" lon="-2.27353">
        <ele>20.60000038147</ele>
        <time>2021-06-20T09:16:11.000Z</time>
      </trkpt>
      <trkpt lat="47.3346" lon="-2.27362">
        <ele>20.60000038147</ele>
        <time>2021-06-20T09:16:12.000Z</time>
      </trkpt>
      <trkpt lat="47.33468" lon="-2.27396">
        <ele>20.60000038147</ele>
        <time>2021-06-20T09:16:16.000Z</time>
      </trkpt>
      <trkpt lat="47.33474" lon="-2.27436">
        <ele>20.60000038147</ele>
        <time>2021-06-20T09:16:20.000Z</time>
      </trkpt>
      <trkpt lat="47.33477" lon="-2.27455">
        <ele>20.60000038147</ele>
        <time>2021-06-20T09:16:22.000Z</time>
      </trkpt>
      <trkpt lat="47.33481" lon="-2.27472">
        <ele>20.60000038147</ele>
        <time>2021-06-20T09:16:24.000Z</time>
      </trkpt>
      <trkpt lat="47.33485" lon="-2.275">
        <ele>20.60000038147</ele>
        <time>2021-06-20T09:16:27.000Z</time>
      </trkpt>
      <trkpt lat="47.33493" lon="-2.27535">
        <ele>20.60000038147</ele>
        <time>2021-06-20T09:16:32.000Z</time>
      </trkpt>
      <trkpt lat="47.33495" lon="-2.2754">
        <ele>20.200000762939</ele>
        <time>2021-06-20T09:16:34.000Z</time>
      </trkpt>
      <trkpt lat="47.33496" lon="-2.27542">
        <ele>19.799999237061</ele>
        <time>2021-06-20T09:16:35.000Z</time>
      </trkpt>
      <trkpt lat="47.33497" lon="-2.27545">
        <ele>19.39999961853</ele>
        <time>2021-06-20T09:16:36.000Z</time>
      </trkpt>
      <trkpt lat="47.33497" lon="-2.27547">
        <ele>18.60000038147</ele>
        <time>2021-06-20T09:16:37.000Z</time>
      </trkpt>
      <trkpt lat="47.33497" lon="-2.27549">
        <ele>18.60000038147</ele>
        <time>2021-06-20T09:16:41.000Z</time>
      </trkpt>
      <trkpt lat="47.33496" lon="-2.27549">
        <ele>18.60000038147</ele>
        <time>2021-06-20T09:16:42.000Z</time>
      </trkpt>
      <trkpt lat="47.33492" lon="-2.2755">
        <ele>18.60000038147</ele>
        <time>2021-06-20T09:16:50.000Z</time>
      </trkpt>
      <trkpt lat="47.33489" lon="-2.27549">
        <ele>18.60000038147</ele>
        <time>2021-06-20T09:16:53.000Z</time>
      </trkpt>
      <trkpt lat="47.33485" lon="-2.27552">
        <ele>18.60000038147</ele>
        <time>2021-06-20T09:16:57.000Z</time>
      </trkpt>
      <trkpt lat="47.33482" lon="-2.27554">
        <ele>18.60000038147</ele>
        <time>2021-06-20T09:16:59.000Z</time>
      </trkpt>
      <trkpt lat="47.33476" lon="-2.27559">
        <ele>18.60000038147</ele>
        <time>2021-06-20T09:17:05.000Z</time>
      </trkpt>
      <trkpt lat="47.33475" lon="-2.27561">
        <ele>18.60000038147</ele>
        <time>2021-06-20T09:18:17.000Z</time>
      </trkpt>
      <trkpt lat="47.3347" lon="-2.27566">
        <ele>18.60000038147</ele>
        <time>2021-06-20T09:18:20.000Z</time>
      </trkpt>
      <trkpt lat="47.33455" lon="-2.2758">
        <ele>18.60000038147</ele>
        <time>2021-06-20T09:18:26.000Z</time>
      </trkpt>
      <trkpt lat="47.33444" lon="-2.27591">
        <ele>18.60000038147</ele>
        <time>2021-06-20T09:18:31.000Z</time>
      </trkpt>
      <trkpt lat="47.33428" lon="-2.27608">
        <ele>18.60000038147</ele>
        <time>2021-06-20T09:18:36.000Z</time>
      </trkpt>
      <trkpt lat="47.33408" lon="-2.27645">
        <ele>18.60000038147</ele>
        <time>2021-06-20T09:18:43.000Z</time>
      </trkpt>
      <trkpt lat="47.33407" lon="-2.27652">
        <ele>18.60000038147</ele>
        <time>2021-06-20T09:18:44.000Z</time>
      </trkpt>
      <trkpt lat="47.33406" lon="-2.27674">
        <ele>18.60000038147</ele>
        <time>2021-06-20T09:18:47.000Z</time>
      </trkpt>
      <trkpt lat="47.33405" lon="-2.27682">
        <ele>18.60000038147</ele>
        <time>2021-06-20T09:18:48.000Z</time>
      </trkpt>
      <trkpt lat="47.33405" lon="-2.27708">
        <ele>18.60000038147</ele>
        <time>2021-06-20T09:18:51.000Z</time>
      </trkpt>
      <trkpt lat="47.33406" lon="-2.27725">
        <ele>18.60000038147</ele>
        <time>2021-06-20T09:18:53.000Z</time>
      </trkpt>
      <trkpt lat="47.33415" lon="-2.27796">
        <ele>18.60000038147</ele>
        <time>2021-06-20T09:19:01.000Z</time>
      </trkpt>
      <trkpt lat="47.33422" lon="-2.27842">
        <ele>18.60000038147</ele>
        <time>2021-06-20T09:19:07.000Z</time>
      </trkpt>
      <trkpt lat="47.33423" lon="-2.27851">
        <ele>18.60000038147</ele>
        <time>2021-06-20T09:19:08.000Z</time>
      </trkpt>
      <trkpt lat="47.33426" lon="-2.27871">
        <ele>18.60000038147</ele>
        <time>2021-06-20T09:19:11.000Z</time>
      </trkpt>
      <trkpt lat="47.33427" lon="-2.27878">
        <ele>18.60000038147</ele>
        <time>2021-06-20T09:19:12.000Z</time>
      </trkpt>
      <trkpt lat="47.33428" lon="-2.27919">
        <ele>18.60000038147</ele>
        <time>2021-06-20T09:19:18.000Z</time>
      </trkpt>
      <trkpt lat="47.33429" lon="-2.27926">
        <ele>18.60000038147</ele>
        <time>2021-06-20T09:19:19.000Z</time>
      </trkpt>
      <trkpt lat="47.33432" lon="-2.27947">
        <ele>18.60000038147</ele>
        <time>2021-06-20T09:19:22.000Z</time>
      </trkpt>
      <trkpt lat="47.33433" lon="-2.27955">
        <ele>18.60000038147</ele>
        <time>2021-06-20T09:19:23.000Z</time>
      </trkpt>
      <trkpt lat="47.33439" lon="-2.27997">
        <ele>18.60000038147</ele>
        <time>2021-06-20T09:19:28.000Z</time>
      </trkpt>
      <trkpt lat="47.33446" lon="-2.28054">
        <ele>18.60000038147</ele>
        <time>2021-06-20T09:19:35.000Z</time>
      </trkpt>
      <trkpt lat="47.33451" lon="-2.28089">
        <ele>18.60000038147</ele>
        <time>2021-06-20T09:19:39.000Z</time>
      </trkpt>
      <trkpt lat="47.33452" lon="-2.28098">
        <ele>18.60000038147</ele>
        <time>2021-06-20T09:19:40.000Z</time>
      </trkpt>
      <trkpt lat="47.33454" lon="-2.28123">
        <ele>18.60000038147</ele>
        <time>2021-06-20T09:19:43.000Z</time>
      </trkpt>
      <trkpt lat="47.33455" lon="-2.2813">
        <ele>18.60000038147</ele>
        <time>2021-06-20T09:19:44.000Z</time>
      </trkpt>
      <trkpt lat="47.33455" lon="-2.28153">
        <ele>18.60000038147</ele>
        <time>2021-06-20T09:19:48.000Z</time>
      </trkpt>
      <trkpt lat="47.33458" lon="-2.28164">
        <ele>18.60000038147</ele>
        <time>2021-06-20T09:19:50.000Z</time>
      </trkpt>
      <trkpt lat="47.33461" lon="-2.28182">
        <ele>18.60000038147</ele>
        <time>2021-06-20T09:19:53.000Z</time>
      </trkpt>
      <trkpt lat="47.33464" lon="-2.28203">
        <ele>18.60000038147</ele>
        <time>2021-06-20T09:19:58.000Z</time>
      </trkpt>
      <trkpt lat="47.33468" lon="-2.28217">
        <ele>18.60000038147</ele>
        <time>2021-06-20T09:20:04.000Z</time>
      </trkpt>
      <trkpt lat="47.33469" lon="-2.28226">
        <ele>18.60000038147</ele>
        <time>2021-06-20T09:20:09.000Z</time>
      </trkpt>
      <trkpt lat="47.33475" lon="-2.28239">
        <ele>18.60000038147</ele>
        <time>2021-06-20T09:20:14.000Z</time>
      </trkpt>
      <trkpt lat="47.33489" lon="-2.2825">
        <ele>18.60000038147</ele>
        <time>2021-06-20T09:20:20.000Z</time>
      </trkpt>
      <trkpt lat="47.33502" lon="-2.28244">
        <ele>18.60000038147</ele>
        <time>2021-06-20T09:20:25.000Z</time>
      </trkpt>
      <trkpt lat="47.3351" lon="-2.28238">
        <ele>18.60000038147</ele>
        <time>2021-06-20T09:20:27.000Z</time>
      </trkpt>
      <trkpt lat="47.33524" lon="-2.28234">
        <ele>18.60000038147</ele>
        <time>2021-06-20T09:20:30.000Z</time>
      </trkpt>
      <trkpt lat="47.33537" lon="-2.28243">
        <ele>18.60000038147</ele>
        <time>2021-06-20T09:20:33.000Z</time>
      </trkpt>
      <trkpt lat="47.33549" lon="-2.28258">
        <ele>18.60000038147</ele>
        <time>2021-06-20T09:20:36.000Z</time>
      </trkpt>
      <trkpt lat="47.33556" lon="-2.2827">
        <ele>18.60000038147</ele>
        <time>2021-06-20T09:20:38.000Z</time>
      </trkpt>
      <trkpt lat="47.3358" lon="-2.28313">
        <ele>18.60000038147</ele>
        <time>2021-06-20T09:20:45.000Z</time>
      </trkpt>
      <trkpt lat="47.33597" lon="-2.28336">
        <ele>18.60000038147</ele>
        <time>2021-06-20T09:20:50.000Z</time>
      </trkpt>
      <trkpt lat="47.33601" lon="-2.2834">
        <ele>18.60000038147</ele>
        <time>2021-06-20T09:20:51.000Z</time>
      </trkpt>
      <trkpt lat="47.33619" lon="-2.28361">
        <ele>18.60000038147</ele>
        <time>2021-06-20T09:20:56.000Z</time>
      </trkpt>
      <trkpt lat="47.33626" lon="-2.2837">
        <ele>18.60000038147</ele>
        <time>2021-06-20T09:20:58.000Z</time>
      </trkpt>
      <trkpt lat="47.33638" lon="-2.28387">
        <ele>18.60000038147</ele>
        <time>2021-06-20T09:21:02.000Z</time>
      </trkpt>
      <trkpt lat="47.33664" lon="-2.28427">
        <ele>18.60000038147</ele>
        <time>2021-06-20T09:21:09.000Z</time>
      </trkpt>
      <trkpt lat="47.33678" lon="-2.28457">
        <ele>18.60000038147</ele>
        <time>2021-06-20T09:21:14.000Z</time>
      </trkpt>
      <trkpt lat="47.33681" lon="-2.28465">
        <ele>18.60000038147</ele>
        <time>2021-06-20T09:21:17.000Z</time>
      </trkpt>
      <trkpt lat="47.33682" lon="-2.28471">
        <ele>18.60000038147</ele>
        <time>2021-06-20T09:21:23.000Z</time>
      </trkpt>
      <trkpt lat="47.33682" lon="-2.28476">
        <ele>18.60000038147</ele>
        <time>2021-06-20T09:21:27.000Z</time>
      </trkpt>
      <trkpt lat="47.33685" lon="-2.28486">
        <ele>18.60000038147</ele>
        <time>2021-06-20T09:21:30.000Z</time>
      </trkpt>
      <trkpt lat="47.33688" lon="-2.28496">
        <ele>18.60000038147</ele>
        <time>2021-06-20T09:21:34.000Z</time>
      </trkpt>
      <trkpt lat="47.33689" lon="-2.28501">
        <ele>18.60000038147</ele>
        <time>2021-06-20T09:21:36.000Z</time>
      </trkpt>
      <trkpt lat="47.33697" lon="-2.28522">
        <ele>18.60000038147</ele>
        <time>2021-06-20T09:21:44.000Z</time>
      </trkpt>
      <trkpt lat="47.33707" lon="-2.28542">
        <ele>18.60000038147</ele>
        <time>2021-06-20T09:21:52.000Z</time>
      </trkpt>
      <trkpt lat="47.33714" lon="-2.28539">
        <ele>18.60000038147</ele>
        <time>2021-06-20T09:21:57.000Z</time>
      </trkpt>
      <trkpt lat="47.33715" lon="-2.28542">
        <ele>18.60000038147</ele>
        <time>2021-06-20T09:22:00.000Z</time>
      </trkpt>
      <trkpt lat="47.33707" lon="-2.28549">
        <ele>18.60000038147</ele>
        <time>2021-06-20T09:22:04.000Z</time>
      </trkpt>
      <trkpt lat="47.33695" lon="-2.28563">
        <ele>18.60000038147</ele>
        <time>2021-06-20T09:22:09.000Z</time>
      </trkpt>
      <trkpt lat="47.33674" lon="-2.28586">
        <ele>18.60000038147</ele>
        <time>2021-06-20T09:22:15.000Z</time>
      </trkpt>
      <trkpt lat="47.33658" lon="-2.28607">
        <ele>18.60000038147</ele>
        <time>2021-06-20T09:22:19.000Z</time>
      </trkpt>
      <trkpt lat="47.33649" lon="-2.28617">
        <ele>18.60000038147</ele>
        <time>2021-06-20T09:22:21.000Z</time>
      </trkpt>
      <trkpt lat="47.33614" lon="-2.28642">
        <ele>18.60000038147</ele>
        <time>2021-06-20T09:22:28.000Z</time>
      </trkpt>
      <trkpt lat="47.33588" lon="-2.28655">
        <ele>18.60000038147</ele>
        <time>2021-06-20T09:22:33.000Z</time>
      </trkpt>
      <trkpt lat="47.33546" lon="-2.28676">
        <ele>18.60000038147</ele>
        <time>2021-06-20T09:22:41.000Z</time>
      </trkpt>
      <trkpt lat="47.3351" lon="-2.28697">
        <ele>18.60000038147</ele>
        <time>2021-06-20T09:22:48.000Z</time>
      </trkpt>
      <trkpt lat="47.33506" lon="-2.28702">
        <ele>18.60000038147</ele>
        <time>2021-06-20T09:22:49.000Z</time>
      </trkpt>
      <trkpt lat="47.33496" lon="-2.28716">
        <ele>18.60000038147</ele>
        <time>2021-06-20T09:22:52.000Z</time>
      </trkpt>
      <trkpt lat="47.33487" lon="-2.28733">
        <ele>18.60000038147</ele>
        <time>2021-06-20T09:22:55.000Z</time>
      </trkpt>
      <trkpt lat="47.3348" lon="-2.28749">
        <ele>18.60000038147</ele>
        <time>2021-06-20T09:22:57.000Z</time>
      </trkpt>
      <trkpt lat="47.33477" lon="-2.28756">
        <ele>19</ele>
        <time>2021-06-20T09:22:58.000Z</time>
      </trkpt>
      <trkpt lat="47.33473" lon="-2.28764">
        <ele>19.39999961853</ele>
        <time>2021-06-20T09:22:59.000Z</time>
      </trkpt>
      <trkpt lat="47.3347" lon="-2.28772">
        <ele>19.799999237061</ele>
        <time>2021-06-20T09:23:00.000Z</time>
      </trkpt>
      <trkpt lat="47.33467" lon="-2.28779">
        <ele>20.200000762939</ele>
        <time>2021-06-20T09:23:01.000Z</time>
      </trkpt>
      <trkpt lat="47.33464" lon="-2.28785">
        <ele>20.60000038147</ele>
        <time>2021-06-20T09:23:02.000Z</time>
      </trkpt>
      <trkpt lat="47.33457" lon="-2.28798">
        <ele>20.60000038147</ele>
        <time>2021-06-20T09:23:04.000Z</time>
      </trkpt>
      <trkpt lat="47.33454" lon="-2.28804">
        <ele>20.60000038147</ele>
        <time>2021-06-20T09:23:05.000Z</time>
      </trkpt>
      <trkpt lat="47.33439" lon="-2.28828">
        <ele>20.60000038147</ele>
        <time>2021-06-20T09:23:09.000Z</time>
      </trkpt>
      <trkpt lat="47.3341" lon="-2.28861">
        <ele>20.60000038147</ele>
        <time>2021-06-20T09:23:15.000Z</time>
      </trkpt>
      <trkpt lat="47.33398" lon="-2.2887">
        <ele>20.60000038147</ele>
        <time>2021-06-20T09:23:19.000Z</time>
      </trkpt>
      <trkpt lat="47.3338" lon="-2.2888">
        <ele>20.60000038147</ele>
        <time>2021-06-20T09:23:24.000Z</time>
      </trkpt>
      <trkpt lat="47.33358" lon="-2.2889">
        <ele>21</ele>
        <time>2021-06-20T09:23:28.000Z</time>
      </trkpt>
      <trkpt lat="47.33353" lon="-2.28892">
        <ele>21.39999961853</ele>
        <time>2021-06-20T09:23:29.000Z</time>
      </trkpt>
      <trkpt lat="47.33347" lon="-2.28894">
        <ele>22</ele>
        <time>2021-06-20T09:23:30.000Z</time>
      </trkpt>
      <trkpt lat="47.33341" lon="-2.28896">
        <ele>22.39999961853</ele>
        <time>2021-06-20T09:23:31.000Z</time>
      </trkpt>
      <trkpt lat="47.33336" lon="-2.28899">
        <ele>22.799999237061</ele>
        <time>2021-06-20T09:23:32.000Z</time>
      </trkpt>
      <trkpt lat="47.33319" lon="-2.28908">
        <ele>22.799999237061</ele>
        <time>2021-06-20T09:23:35.000Z</time>
      </trkpt>
      <trkpt lat="47.33287" lon="-2.28931">
        <ele>22.799999237061</ele>
        <time>2021-06-20T09:23:41.000Z</time>
      </trkpt>
      <trkpt lat="47.33257" lon="-2.28952">
        <ele>22.799999237061</ele>
        <time>2021-06-20T09:23:47.000Z</time>
      </trkpt>
      <trkpt lat="47.33253" lon="-2.28957">
        <ele>22.799999237061</ele>
        <time>2021-06-20T09:23:48.000Z</time>
      </trkpt>
      <trkpt lat="47.33244" lon="-2.28977">
        <ele>22.799999237061</ele>
        <time>2021-06-20T09:23:51.000Z</time>
      </trkpt>
      <trkpt lat="47.33242" lon="-2.28984">
        <ele>22.799999237061</ele>
        <time>2021-06-20T09:23:52.000Z</time>
      </trkpt>
      <trkpt lat="47.33238" lon="-2.29026">
        <ele>22.799999237061</ele>
        <time>2021-06-20T09:23:57.000Z</time>
      </trkpt>
      <trkpt lat="47.33238" lon="-2.29034">
        <ele>23.200000762939</ele>
        <time>2021-06-20T09:23:58.000Z</time>
      </trkpt>
      <trkpt lat="47.33237" lon="-2.29042">
        <ele>23.60000038147</ele>
        <time>2021-06-20T09:23:59.000Z</time>
      </trkpt>
      <trkpt lat="47.33237" lon="-2.29049">
        <ele>24</ele>
        <time>2021-06-20T09:24:00.000Z</time>
      </trkpt>
      <trkpt lat="47.33236" lon="-2.29056">
        <ele>24.39999961853</ele>
        <time>2021-06-20T09:24:01.000Z</time>
      </trkpt>
      <trkpt lat="47.33233" lon="-2.29064">
        <ele>24.799999237061</ele>
        <time>2021-06-20T09:24:02.000Z</time>
      </trkpt>
      <trkpt lat="47.3323" lon="-2.2907">
        <ele>24.799999237061</ele>
        <time>2021-06-20T09:24:03.000Z</time>
      </trkpt>
      <trkpt lat="47.33219" lon="-2.29072">
        <ele>24.799999237061</ele>
        <time>2021-06-20T09:24:06.000Z</time>
      </trkpt>
      <trkpt lat="47.33215" lon="-2.29071">
        <ele>24.799999237061</ele>
        <time>2021-06-20T09:24:07.000Z</time>
      </trkpt>
      <trkpt lat="47.33206" lon="-2.29069">
        <ele>24.799999237061</ele>
        <time>2021-06-20T09:24:09.000Z</time>
      </trkpt>
      <trkpt lat="47.33197" lon="-2.29066">
        <ele>24.799999237061</ele>
        <time>2021-06-20T09:24:11.000Z</time>
      </trkpt>
      <trkpt lat="47.33172" lon="-2.29059">
        <ele>24.799999237061</ele>
        <time>2021-06-20T09:24:17.000Z</time>
      </trkpt>
      <trkpt lat="47.33151" lon="-2.29056">
        <ele>24.799999237061</ele>
        <time>2021-06-20T09:24:22.000Z</time>
      </trkpt>
      <trkpt lat="47.33137" lon="-2.29057">
        <ele>24.799999237061</ele>
        <time>2021-06-20T09:24:25.000Z</time>
      </trkpt>
      <trkpt lat="47.33115" lon="-2.29062">
        <ele>25.200000762939</ele>
        <time>2021-06-20T09:24:30.000Z</time>
      </trkpt>
      <trkpt lat="47.3311" lon="-2.29063">
        <ele>25.60000038147</ele>
        <time>2021-06-20T09:24:31.000Z</time>
      </trkpt>
      <trkpt lat="47.33105" lon="-2.29065">
        <ele>26.200000762939</ele>
        <time>2021-06-20T09:24:32.000Z</time>
      </trkpt>
      <trkpt lat="47.331" lon="-2.29066">
        <ele>26.60000038147</ele>
        <time>2021-06-20T09:24:33.000Z</time>
      </trkpt>
      <trkpt lat="47.33095" lon="-2.29068">
        <ele>27</ele>
        <time>2021-06-20T09:24:34.000Z</time>
      </trkpt>
      <trkpt lat="47.33072" lon="-2.29075">
        <ele>27</ele>
        <time>2021-06-20T09:24:38.000Z</time>
      </trkpt>
      <trkpt lat="47.33024" lon="-2.29094">
        <ele>27</ele>
        <time>2021-06-20T09:24:46.000Z</time>
      </trkpt>
      <trkpt lat="47.32975" lon="-2.29111">
        <ele>27</ele>
        <time>2021-06-20T09:24:54.000Z</time>
      </trkpt>
      <trkpt lat="47.32934" lon="-2.29127">
        <ele>27</ele>
        <time>2021-06-20T09:25:01.000Z</time>
      </trkpt>
      <trkpt lat="47.32888" lon="-2.29146">
        <ele>27</ele>
        <time>2021-06-20T09:25:09.000Z</time>
      </trkpt>
      <trkpt lat="47.32852" lon="-2.29157">
        <ele>26.39999961853</ele>
        <time>2021-06-20T09:25:15.000Z</time>
      </trkpt>
      <trkpt lat="47.32846" lon="-2.29159">
        <ele>26</ele>
        <time>2021-06-20T09:25:16.000Z</time>
      </trkpt>
      <trkpt lat="47.3284" lon="-2.29161">
        <ele>25.200000762939</ele>
        <time>2021-06-20T09:25:17.000Z</time>
      </trkpt>
      <trkpt lat="47.32835" lon="-2.29162">
        <ele>24.799999237061</ele>
        <time>2021-06-20T09:25:18.000Z</time>
      </trkpt>
      <trkpt lat="47.32808" lon="-2.29164">
        <ele>24.799999237061</ele>
        <time>2021-06-20T09:25:23.000Z</time>
      </trkpt>
      <trkpt lat="47.32803" lon="-2.29165">
        <ele>24.799999237061</ele>
        <time>2021-06-20T09:25:24.000Z</time>
      </trkpt>
      <trkpt lat="47.32794" lon="-2.29173">
        <ele>24.799999237061</ele>
        <time>2021-06-20T09:25:26.000Z</time>
      </trkpt>
      <trkpt lat="47.32793" lon="-2.29188">
        <ele>24.799999237061</ele>
        <time>2021-06-20T09:25:28.000Z</time>
      </trkpt>
      <trkpt lat="47.32791" lon="-2.29219">
        <ele>24.799999237061</ele>
        <time>2021-06-20T09:25:32.000Z</time>
      </trkpt>
      <trkpt lat="47.32777" lon="-2.29241">
        <ele>24.799999237061</ele>
        <time>2021-06-20T09:25:36.000Z</time>
      </trkpt>
      <trkpt lat="47.32774" lon="-2.29246">
        <ele>24.799999237061</ele>
        <time>2021-06-20T09:25:37.000Z</time>
      </trkpt>
      <trkpt lat="47.32753" lon="-2.29286">
        <ele>24.799999237061</ele>
        <time>2021-06-20T09:25:44.000Z</time>
      </trkpt>
      <trkpt lat="47.3275" lon="-2.29292">
        <ele>24.799999237061</ele>
        <time>2021-06-20T09:25:45.000Z</time>
      </trkpt>
      <trkpt lat="47.3274" lon="-2.29312">
        <ele>24.799999237061</ele>
        <time>2021-06-20T09:25:48.000Z</time>
      </trkpt>
      <trkpt lat="47.32721" lon="-2.29363">
        <ele>24.799999237061</ele>
        <time>2021-06-20T09:25:55.000Z</time>
      </trkpt>
      <trkpt lat="47.32702" lon="-2.29415">
        <ele>24.799999237061</ele>
        <time>2021-06-20T09:26:02.000Z</time>
      </trkpt>
      <trkpt lat="47.3269" lon="-2.29444">
        <ele>25.200000762939</ele>
        <time>2021-06-20T09:26:06.000Z</time>
      </trkpt>
      <trkpt lat="47.32687" lon="-2.29451">
        <ele>26</ele>
        <time>2021-06-20T09:26:07.000Z</time>
      </trkpt>
      <trkpt lat="47.32684" lon="-2.29459">
        <ele>26.39999961853</ele>
        <time>2021-06-20T09:26:08.000Z</time>
      </trkpt>
      <trkpt lat="47.32682" lon="-2.29466">
        <ele>26.799999237061</ele>
        <time>2021-06-20T09:26:09.000Z</time>
      </trkpt>
      <trkpt lat="47.32672" lon="-2.29504">
        <ele>26.799999237061</ele>
        <time>2021-06-20T09:26:14.000Z</time>
      </trkpt>
      <trkpt lat="47.32663" lon="-2.29553">
        <ele>26.799999237061</ele>
        <time>2021-06-20T09:26:21.000Z</time>
      </trkpt>
      <trkpt lat="47.32658" lon="-2.29573">
        <ele>27.200000762939</ele>
        <time>2021-06-20T09:26:24.000Z</time>
      </trkpt>
      <trkpt lat="47.32656" lon="-2.2958">
        <ele>27.799999237061</ele>
        <time>2021-06-20T09:26:25.000Z</time>
      </trkpt>
      <trkpt lat="47.32654" lon="-2.29587">
        <ele>28.200000762939</ele>
        <time>2021-06-20T09:26:26.000Z</time>
      </trkpt>
      <trkpt lat="47.32652" lon="-2.29594">
        <ele>28.60000038147</ele>
        <time>2021-06-20T09:26:27.000Z</time>
      </trkpt>
      <trkpt lat="47.32648" lon="-2.296">
        <ele>29</ele>
        <time>2021-06-20T09:26:28.000Z</time>
      </trkpt>
      <trkpt lat="47.32636" lon="-2.29625">
        <ele>29</ele>
        <time>2021-06-20T09:26:32.000Z</time>
      </trkpt>
      <trkpt lat="47.3263" lon="-2.29637">
        <ele>29.39999961853</ele>
        <time>2021-06-20T09:26:34.000Z</time>
      </trkpt>
      <trkpt lat="47.32626" lon="-2.29642">
        <ele>29.799999237061</ele>
        <time>2021-06-20T09:26:35.000Z</time>
      </trkpt>
      <trkpt lat="47.32623" lon="-2.29648">
        <ele>30.200000762939</ele>
        <time>2021-06-20T09:26:36.000Z</time>
      </trkpt>
      <trkpt lat="47.3262" lon="-2.29653">
        <ele>30.60000038147</ele>
        <time>2021-06-20T09:26:37.000Z</time>
      </trkpt>
      <trkpt lat="47.32617" lon="-2.29659">
        <ele>31</ele>
        <time>2021-06-20T09:26:38.000Z</time>
      </trkpt>
      <trkpt lat="47.3261" lon="-2.2967">
        <ele>31</ele>
        <time>2021-06-20T09:26:40.000Z</time>
      </trkpt>
      <trkpt lat="47.32606" lon="-2.29682">
        <ele>31</ele>
        <time>2021-06-20T09:26:42.000Z</time>
      </trkpt>
      <trkpt lat="47.32603" lon="-2.29687">
        <ele>31</ele>
        <time>2021-06-20T09:26:43.000Z</time>
      </trkpt>
      <trkpt lat="47.326" lon="-2.29693">
        <ele>31.39999961853</ele>
        <time>2021-06-20T09:26:44.000Z</time>
      </trkpt>
      <trkpt lat="47.32597" lon="-2.29698">
        <ele>31.799999237061</ele>
        <time>2021-06-20T09:26:45.000Z</time>
      </trkpt>
      <trkpt lat="47.32594" lon="-2.29704">
        <ele>32.200000762939</ele>
        <time>2021-06-20T09:26:46.000Z</time>
      </trkpt>
      <trkpt lat="47.32591" lon="-2.29709">
        <ele>32.599998474121</ele>
        <time>2021-06-20T09:26:47.000Z</time>
      </trkpt>
      <trkpt lat="47.32588" lon="-2.29714">
        <ele>33</ele>
        <time>2021-06-20T09:26:48.000Z</time>
      </trkpt>
      <trkpt lat="47.32565" lon="-2.29752">
        <ele>33</ele>
        <time>2021-06-20T09:26:55.000Z</time>
      </trkpt>
      <trkpt lat="47.32562" lon="-2.29757">
        <ele>33</ele>
        <time>2021-06-20T09:26:56.000Z</time>
      </trkpt>
      <trkpt lat="47.32548" lon="-2.29774">
        <ele>33</ele>
        <time>2021-06-20T09:27:00.000Z</time>
      </trkpt>
      <trkpt lat="47.32528" lon="-2.29792">
        <ele>33</ele>
        <time>2021-06-20T09:27:05.000Z</time>
      </trkpt>
      <trkpt lat="47.32501" lon="-2.29817">
        <ele>33</ele>
        <time>2021-06-20T09:27:12.000Z</time>
      </trkpt>
      <trkpt lat="47.32484" lon="-2.29835">
        <ele>33</ele>
        <time>2021-06-20T09:27:17.000Z</time>
      </trkpt>
      <trkpt lat="47.32476" lon="-2.2984">
        <ele>33</ele>
        <time>2021-06-20T09:27:19.000Z</time>
      </trkpt>
      <trkpt lat="47.3245" lon="-2.29867">
        <ele>33</ele>
        <time>2021-06-20T09:27:26.000Z</time>
      </trkpt>
      <trkpt lat="47.32447" lon="-2.29892">
        <ele>33</ele>
        <time>2021-06-20T09:27:30.000Z</time>
      </trkpt>
      <trkpt lat="47.32448" lon="-2.29897">
        <ele>33</ele>
        <time>2021-06-20T09:27:31.000Z</time>
      </trkpt>
      <trkpt lat="47.32451" lon="-2.29928">
        <ele>33</ele>
        <time>2021-06-20T09:27:37.000Z</time>
      </trkpt>
      <trkpt lat="47.32445" lon="-2.29949">
        <ele>33</ele>
        <time>2021-06-20T09:27:42.000Z</time>
      </trkpt>
      <trkpt lat="47.32445" lon="-2.29953">
        <ele>33</ele>
        <time>2021-06-20T09:27:43.000Z</time>
      </trkpt>
      <trkpt lat="47.32448" lon="-2.29961">
        <ele>33</ele>
        <time>2021-06-20T09:27:45.000Z</time>
      </trkpt>
      <trkpt lat="47.32452" lon="-2.29967">
        <ele>33</ele>
        <time>2021-06-20T09:27:47.000Z</time>
      </trkpt>
      <trkpt lat="47.32463" lon="-2.29985">
        <ele>33</ele>
        <time>2021-06-20T09:27:52.000Z</time>
      </trkpt>
      <trkpt lat="47.32475" lon="-2.30005">
        <ele>33</ele>
        <time>2021-06-20T09:27:57.000Z</time>
      </trkpt>
      <trkpt lat="47.32486" lon="-2.30049">
        <ele>33</ele>
        <time>2021-06-20T09:28:05.000Z</time>
      </trkpt>
      <trkpt lat="47.32494" lon="-2.3008">
        <ele>33</ele>
        <time>2021-06-20T09:28:11.000Z</time>
      </trkpt>
      <trkpt lat="47.32496" lon="-2.30113">
        <ele>33</ele>
        <time>2021-06-20T09:28:16.000Z</time>
      </trkpt>
      <trkpt lat="47.32498" lon="-2.3012">
        <ele>33</ele>
        <time>2021-06-20T09:28:17.000Z</time>
      </trkpt>
      <trkpt lat="47.32503" lon="-2.30163">
        <ele>33</ele>
        <time>2021-06-20T09:28:23.000Z</time>
      </trkpt>
      <trkpt lat="47.32508" lon="-2.30186">
        <ele>33</ele>
        <time>2021-06-20T09:28:26.000Z</time>
      </trkpt>
      <trkpt lat="47.32509" lon="-2.30194">
        <ele>33</ele>
        <time>2021-06-20T09:28:27.000Z</time>
      </trkpt>
      <trkpt lat="47.32516" lon="-2.30254">
        <ele>33</ele>
        <time>2021-06-20T09:28:34.000Z</time>
      </trkpt>
      <trkpt lat="47.32528" lon="-2.30321">
        <ele>33</ele>
        <time>2021-06-20T09:28:42.000Z</time>
      </trkpt>
      <trkpt lat="47.32538" lon="-2.30365">
        <ele>33</ele>
        <time>2021-06-20T09:28:48.000Z</time>
      </trkpt>
      <trkpt lat="47.32541" lon="-2.30386">
        <ele>33</ele>
        <time>2021-06-20T09:28:51.000Z</time>
      </trkpt>
      <trkpt lat="47.32537" lon="-2.30399">
        <ele>33</ele>
        <time>2021-06-20T09:28:53.000Z</time>
      </trkpt>
      <trkpt lat="47.32525" lon="-2.30407">
        <ele>33</ele>
        <time>2021-06-20T09:28:56.000Z</time>
      </trkpt>
      <trkpt lat="47.32515" lon="-2.30411">
        <ele>33</ele>
        <time>2021-06-20T09:28:58.000Z</time>
      </trkpt>
      <trkpt lat="47.32501" lon="-2.30419">
        <ele>33</ele>
        <time>2021-06-20T09:29:01.000Z</time>
      </trkpt>
      <trkpt lat="47.32498" lon="-2.30425">
        <ele>33</ele>
        <time>2021-06-20T09:29:02.000Z</time>
      </trkpt>
      <trkpt lat="47.325" lon="-2.30438">
        <ele>33</ele>
        <time>2021-06-20T09:29:04.000Z</time>
      </trkpt>
      <trkpt lat="47.32503" lon="-2.30453">
        <ele>33</ele>
        <time>2021-06-20T09:29:06.000Z</time>
      </trkpt>
      <trkpt lat="47.32506" lon="-2.30469">
        <ele>32.599998474121</ele>
        <time>2021-06-20T09:29:08.000Z</time>
      </trkpt>
      <trkpt lat="47.32508" lon="-2.30477">
        <ele>32.200000762939</ele>
        <time>2021-06-20T09:29:09.000Z</time>
      </trkpt>
      <trkpt lat="47.3251" lon="-2.30485">
        <ele>31.799999237061</ele>
        <time>2021-06-20T09:29:10.000Z</time>
      </trkpt>
      <trkpt lat="47.32512" lon="-2.30494">
        <ele>31.39999961853</ele>
        <time>2021-06-20T09:29:11.000Z</time>
      </trkpt>
      <trkpt lat="47.32514" lon="-2.30502">
        <ele>31</ele>
        <time>2021-06-20T09:29:12.000Z</time>
      </trkpt>
      <trkpt lat="47.3252" lon="-2.30536">
        <ele>31</ele>
        <time>2021-06-20T09:29:16.000Z</time>
      </trkpt>
      <trkpt lat="47.32529" lon="-2.30594">
        <ele>31</ele>
        <time>2021-06-20T09:29:23.000Z</time>
      </trkpt>
      <trkpt lat="47.32533" lon="-2.30617">
        <ele>31</ele>
        <time>2021-06-20T09:29:26.000Z</time>
      </trkpt>
      <trkpt lat="47.32539" lon="-2.30648">
        <ele>31</ele>
        <time>2021-06-20T09:29:30.000Z</time>
      </trkpt>
      <trkpt lat="47.32543" lon="-2.30693">
        <ele>30.60000038147</ele>
        <time>2021-06-20T09:29:36.000Z</time>
      </trkpt>
      <trkpt lat="47.32544" lon="-2.30702">
        <ele>30.200000762939</ele>
        <time>2021-06-20T09:29:37.000Z</time>
      </trkpt>
      <trkpt lat="47.32545" lon="-2.3071">
        <ele>29.799999237061</ele>
        <time>2021-06-20T09:29:38.000Z</time>
      </trkpt>
      <trkpt lat="47.32546" lon="-2.30718">
        <ele>29.39999961853</ele>
        <time>2021-06-20T09:29:39.000Z</time>
      </trkpt>
      <trkpt lat="47.32547" lon="-2.30727">
        <ele>28.799999237061</ele>
        <time>2021-06-20T09:29:40.000Z</time>
      </trkpt>
      <trkpt lat="47.3255" lon="-2.30744">
        <ele>28.799999237061</ele>
        <time>2021-06-20T09:29:42.000Z</time>
      </trkpt>
      <trkpt lat="47.32562" lon="-2.30814">
        <ele>28.799999237061</ele>
        <time>2021-06-20T09:29:50.000Z</time>
      </trkpt>
      <trkpt lat="47.32565" lon="-2.30879">
        <ele>28.799999237061</ele>
        <time>2021-06-20T09:29:57.000Z</time>
      </trkpt>
      <trkpt lat="47.32566" lon="-2.30897">
        <ele>28.799999237061</ele>
        <time>2021-06-20T09:29:59.000Z</time>
      </trkpt>
      <trkpt lat="47.32565" lon="-2.30924">
        <ele>28.799999237061</ele>
        <time>2021-06-20T09:30:02.000Z</time>
      </trkpt>
      <trkpt lat="47.32565" lon="-2.30946">
        <ele>28.799999237061</ele>
        <time>2021-06-20T09:30:05.000Z</time>
      </trkpt>
      <trkpt lat="47.32565" lon="-2.30952">
        <ele>28.799999237061</ele>
        <time>2021-06-20T09:30:06.000Z</time>
      </trkpt>
      <trkpt lat="47.32564" lon="-2.30967">
        <ele>28.799999237061</ele>
        <time>2021-06-20T09:30:10.000Z</time>
      </trkpt>
      <trkpt lat="47.32564" lon="-2.30968">
        <ele>28.799999237061</ele>
        <time>2021-06-20T09:30:12.000Z</time>
      </trkpt>
      <trkpt lat="47.32563" lon="-2.30971">
        <ele>28.799999237061</ele>
        <time>2021-06-20T09:30:33.000Z</time>
      </trkpt>
      <trkpt lat="47.32563" lon="-2.30974">
        <ele>28.799999237061</ele>
        <time>2021-06-20T09:30:34.000Z</time>
      </trkpt>
      <trkpt lat="47.32564" lon="-2.30997">
        <ele>28.799999237061</ele>
        <time>2021-06-20T09:30:38.000Z</time>
      </trkpt>
      <trkpt lat="47.32568" lon="-2.31027">
        <ele>28.799999237061</ele>
        <time>2021-06-20T09:30:43.000Z</time>
      </trkpt>
      <trkpt lat="47.32572" lon="-2.31052">
        <ele>28.799999237061</ele>
        <time>2021-06-20T09:30:47.000Z</time>
      </trkpt>
      <trkpt lat="47.32572" lon="-2.31061">
        <ele>28.799999237061</ele>
        <time>2021-06-20T09:30:48.000Z</time>
      </trkpt>
      <trkpt lat="47.32569" lon="-2.31132">
        <ele>28.799999237061</ele>
        <time>2021-06-20T09:30:56.000Z</time>
      </trkpt>
      <trkpt lat="47.32565" lon="-2.31181">
        <ele>28.799999237061</ele>
        <time>2021-06-20T09:31:01.000Z</time>
      </trkpt>
      <trkpt lat="47.32566" lon="-2.3119">
        <ele>28.799999237061</ele>
        <time>2021-06-20T09:31:02.000Z</time>
      </trkpt>
      <trkpt lat="47.32574" lon="-2.31215">
        <ele>28.799999237061</ele>
        <time>2021-06-20T09:31:05.000Z</time>
      </trkpt>
      <trkpt lat="47.32576" lon="-2.31224">
        <ele>28.799999237061</ele>
        <time>2021-06-20T09:31:06.000Z</time>
      </trkpt>
      <trkpt lat="47.32577" lon="-2.31243">
        <ele>28.799999237061</ele>
        <time>2021-06-20T09:31:08.000Z</time>
      </trkpt>
      <trkpt lat="47.32576" lon="-2.31263">
        <ele>28.799999237061</ele>
        <time>2021-06-20T09:31:10.000Z</time>
      </trkpt>
      <trkpt lat="47.32571" lon="-2.31307">
        <ele>28.799999237061</ele>
        <time>2021-06-20T09:31:15.000Z</time>
      </trkpt>
      <trkpt lat="47.3256" lon="-2.31336">
        <ele>28.799999237061</ele>
        <time>2021-06-20T09:31:19.000Z</time>
      </trkpt>
      <trkpt lat="47.32557" lon="-2.31367">
        <ele>28.799999237061</ele>
        <time>2021-06-20T09:31:23.000Z</time>
      </trkpt>
      <trkpt lat="47.32552" lon="-2.314">
        <ele>28.799999237061</ele>
        <time>2021-06-20T09:31:29.000Z</time>
      </trkpt>
      <trkpt lat="47.32553" lon="-2.31418">
        <ele>28.799999237061</ele>
        <time>2021-06-20T09:31:34.000Z</time>
      </trkpt>
      <trkpt lat="47.32556" lon="-2.31439">
        <ele>28.799999237061</ele>
        <time>2021-06-20T09:31:39.000Z</time>
      </trkpt>
      <trkpt lat="47.3256" lon="-2.31467">
        <ele>28.799999237061</ele>
        <time>2021-06-20T09:31:44.000Z</time>
      </trkpt>
      <trkpt lat="47.3256" lon="-2.31474">
        <ele>28.799999237061</ele>
        <time>2021-06-20T09:31:45.000Z</time>
      </trkpt>
      <trkpt lat="47.32558" lon="-2.31517">
        <ele>28.799999237061</ele>
        <time>2021-06-20T09:31:51.000Z</time>
      </trkpt>
      <trkpt lat="47.32559" lon="-2.31559">
        <ele>28.799999237061</ele>
        <time>2021-06-20T09:31:57.000Z</time>
      </trkpt>
      <trkpt lat="47.32556" lon="-2.31582">
        <ele>28.799999237061</ele>
        <time>2021-06-20T09:32:01.000Z</time>
      </trkpt>
      <trkpt lat="47.32553" lon="-2.31587">
        <ele>28.799999237061</ele>
        <time>2021-06-20T09:32:02.000Z</time>
      </trkpt>
      <trkpt lat="47.32533" lon="-2.31617">
        <ele>28.799999237061</ele>
        <time>2021-06-20T09:32:07.000Z</time>
      </trkpt>
      <trkpt lat="47.32525" lon="-2.31629">
        <ele>28.799999237061</ele>
        <time>2021-06-20T09:32:09.000Z</time>
      </trkpt>
      <trkpt lat="47.32516" lon="-2.31641">
        <ele>28.799999237061</ele>
        <time>2021-06-20T09:32:11.000Z</time>
      </trkpt>
      <trkpt lat="47.32512" lon="-2.31649">
        <ele>28.799999237061</ele>
        <time>2021-06-20T09:32:12.000Z</time>
      </trkpt>
      <trkpt lat="47.32509" lon="-2.31674">
        <ele>28.799999237061</ele>
        <time>2021-06-20T09:32:15.000Z</time>
      </trkpt>
      <trkpt lat="47.32509" lon="-2.31684">
        <ele>28.799999237061</ele>
        <time>2021-06-20T09:32:16.000Z</time>
      </trkpt>
      <trkpt lat="47.32512" lon="-2.31729">
        <ele>28.799999237061</ele>
        <time>2021-06-20T09:32:21.000Z</time>
      </trkpt>
      <trkpt lat="47.32515" lon="-2.31773">
        <ele>28.799999237061</ele>
        <time>2021-06-20T09:32:26.000Z</time>
      </trkpt>
      <trkpt lat="47.32515" lon="-2.31783">
        <ele>28.799999237061</ele>
        <time>2021-06-20T09:32:27.000Z</time>
      </trkpt>
      <trkpt lat="47.32518" lon="-2.31862">
        <ele>28.799999237061</ele>
        <time>2021-06-20T09:32:35.000Z</time>
      </trkpt>
      <trkpt lat="47.32513" lon="-2.31912">
        <ele>28.799999237061</ele>
        <time>2021-06-20T09:32:40.000Z</time>
      </trkpt>
      <trkpt lat="47.32511" lon="-2.31931">
        <ele>28.799999237061</ele>
        <time>2021-06-20T09:32:42.000Z</time>
      </trkpt>
      <trkpt lat="47.32506" lon="-2.31968">
        <ele>28.799999237061</ele>
        <time>2021-06-20T09:32:46.000Z</time>
      </trkpt>
      <trkpt lat="47.32504" lon="-2.3202">
        <ele>28.799999237061</ele>
        <time>2021-06-20T09:32:52.000Z</time>
      </trkpt>
      <trkpt lat="47.32501" lon="-2.32067">
        <ele>28.799999237061</ele>
        <time>2021-06-20T09:32:58.000Z</time>
      </trkpt>
      <trkpt lat="47.32497" lon="-2.32088">
        <ele>28.799999237061</ele>
        <time>2021-06-20T09:33:01.000Z</time>
      </trkpt>
      <trkpt lat="47.32489" lon="-2.32099">
        <ele>28.799999237061</ele>
        <time>2021-06-20T09:33:03.000Z</time>
      </trkpt>
      <trkpt lat="47.32473" lon="-2.32101">
        <ele>28.799999237061</ele>
        <time>2021-06-20T09:33:06.000Z</time>
      </trkpt>
      <trkpt lat="47.32447" lon="-2.32101">
        <ele>28.39999961853</ele>
        <time>2021-06-20T09:33:10.000Z</time>
      </trkpt>
      <trkpt lat="47.3244" lon="-2.32101">
        <ele>28</ele>
        <time>2021-06-20T09:33:11.000Z</time>
      </trkpt>
      <trkpt lat="47.32434" lon="-2.32101">
        <ele>27.60000038147</ele>
        <time>2021-06-20T09:33:12.000Z</time>
      </trkpt>
      <trkpt lat="47.32428" lon="-2.32102">
        <ele>27.200000762939</ele>
        <time>2021-06-20T09:33:13.000Z</time>
      </trkpt>
      <trkpt lat="47.32422" lon="-2.32102">
        <ele>26.799999237061</ele>
        <time>2021-06-20T09:33:14.000Z</time>
      </trkpt>
      <trkpt lat="47.32393" lon="-2.32105">
        <ele>26.799999237061</ele>
        <time>2021-06-20T09:33:19.000Z</time>
      </trkpt>
      <trkpt lat="47.32363" lon="-2.32107">
        <ele>26.799999237061</ele>
        <time>2021-06-20T09:33:25.000Z</time>
      </trkpt>
      <trkpt lat="47.32348" lon="-2.32108">
        <ele>26.799999237061</ele>
        <time>2021-06-20T09:33:30.000Z</time>
      </trkpt>
      <trkpt lat="47.32328" lon="-2.32105">
        <ele>26.799999237061</ele>
        <time>2021-06-20T09:33:35.000Z</time>
      </trkpt>
      <trkpt lat="47.32306" lon="-2.32101">
        <ele>26.799999237061</ele>
        <time>2021-06-20T09:33:40.000Z</time>
      </trkpt>
      <trkpt lat="47.32295" lon="-2.32102">
        <ele>26.799999237061</ele>
        <time>2021-06-20T09:33:42.000Z</time>
      </trkpt>
      <trkpt lat="47.32246" lon="-2.32106">
        <ele>26.799999237061</ele>
        <time>2021-06-20T09:33:51.000Z</time>
      </trkpt>
      <trkpt lat="47.32215" lon="-2.32115">
        <ele>26.799999237061</ele>
        <time>2021-06-20T09:33:57.000Z</time>
      </trkpt>
      <trkpt lat="47.32207" lon="-2.32119">
        <ele>26.799999237061</ele>
        <time>2021-06-20T09:34:00.000Z</time>
      </trkpt>
      <trkpt lat="47.32195" lon="-2.32123">
        <ele>26.799999237061</ele>
        <time>2021-06-20T09:34:03.000Z</time>
      </trkpt>
      <trkpt lat="47.3219" lon="-2.32126">
        <ele>26.799999237061</ele>
        <time>2021-06-20T09:34:04.000Z</time>
      </trkpt>
      <trkpt lat="47.32179" lon="-2.32133">
        <ele>26.799999237061</ele>
        <time>2021-06-20T09:34:06.000Z</time>
      </trkpt>
      <trkpt lat="47.32169" lon="-2.32142">
        <ele>26.799999237061</ele>
        <time>2021-06-20T09:34:08.000Z</time>
      </trkpt>
      <trkpt lat="47.32131" lon="-2.32175">
        <ele>26.799999237061</ele>
        <time>2021-06-20T09:34:15.000Z</time>
      </trkpt>
      <trkpt lat="47.32103" lon="-2.32186">
        <ele>26.799999237061</ele>
        <time>2021-06-20T09:34:21.000Z</time>
      </trkpt>
      <trkpt lat="47.32097" lon="-2.32186">
        <ele>26.799999237061</ele>
        <time>2021-06-20T09:34:22.000Z</time>
      </trkpt>
      <trkpt lat="47.32073" lon="-2.32188">
        <ele>26.799999237061</ele>
        <time>2021-06-20T09:34:26.000Z</time>
      </trkpt>
      <trkpt lat="47.32023" lon="-2.32193">
        <ele>26.799999237061</ele>
        <time>2021-06-20T09:34:35.000Z</time>
      </trkpt>
      <trkpt lat="47.32011" lon="-2.32199">
        <ele>26.799999237061</ele>
        <time>2021-06-20T09:34:37.000Z</time>
      </trkpt>
      <trkpt lat="47.31995" lon="-2.3221">
        <ele>26.799999237061</ele>
        <time>2021-06-20T09:34:40.000Z</time>
      </trkpt>
      <trkpt lat="47.31971" lon="-2.32233">
        <ele>27.60000038147</ele>
        <time>2021-06-20T09:34:45.000Z</time>
      </trkpt>
      <trkpt lat="47.31967" lon="-2.32238">
        <ele>28.200000762939</ele>
        <time>2021-06-20T09:34:46.000Z</time>
      </trkpt>
      <trkpt lat="47.31965" lon="-2.32242">
        <ele>29</ele>
        <time>2021-06-20T09:34:47.000Z</time>
      </trkpt>
      <trkpt lat="47.31957" lon="-2.32257">
        <ele>29.39999961853</ele>
        <time>2021-06-20T09:34:50.000Z</time>
      </trkpt>
      <trkpt lat="47.31955" lon="-2.32261">
        <ele>29.799999237061</ele>
        <time>2021-06-20T09:34:51.000Z</time>
      </trkpt>
      <trkpt lat="47.31951" lon="-2.32262">
        <ele>30.200000762939</ele>
        <time>2021-06-20T09:34:52.000Z</time>
      </trkpt>
      <trkpt lat="47.31949" lon="-2.3226">
        <ele>30.799999237061</ele>
        <time>2021-06-20T09:34:53.000Z</time>
      </trkpt>
      <trkpt lat="47.31949" lon="-2.32256">
        <ele>31.200000762939</ele>
        <time>2021-06-20T09:34:54.000Z</time>
      </trkpt>
      <trkpt lat="47.3195" lon="-2.32248">
        <ele>31.60000038147</ele>
        <time>2021-06-20T09:34:56.000Z</time>
      </trkpt>
      <trkpt lat="47.31951" lon="-2.32243">
        <ele>32</ele>
        <time>2021-06-20T09:34:57.000Z</time>
      </trkpt>
      <trkpt lat="47.31953" lon="-2.32237">
        <ele>32.599998474121</ele>
        <time>2021-06-20T09:34:58.000Z</time>
      </trkpt>
      <trkpt lat="47.31954" lon="-2.32232">
        <ele>33</ele>
        <time>2021-06-20T09:34:59.000Z</time>
      </trkpt>
      <trkpt lat="47.31954" lon="-2.32226">
        <ele>33.400001525879</ele>
        <time>2021-06-20T09:35:00.000Z</time>
      </trkpt>
      <trkpt lat="47.31952" lon="-2.32216">
        <ele>33.400001525879</ele>
        <time>2021-06-20T09:35:02.000Z</time>
      </trkpt>
      <trkpt lat="47.31941" lon="-2.32211">
        <ele>33.400001525879</ele>
        <time>2021-06-20T09:35:05.000Z</time>
      </trkpt>
      <trkpt lat="47.3193" lon="-2.3221">
        <ele>33.400001525879</ele>
        <time>2021-06-20T09:35:08.000Z</time>
      </trkpt>
      <trkpt lat="47.31926" lon="-2.32209">
        <ele>34</ele>
        <time>2021-06-20T09:35:09.000Z</time>
      </trkpt>
      <trkpt lat="47.31922" lon="-2.32208">
        <ele>34.400001525879</ele>
        <time>2021-06-20T09:35:10.000Z</time>
      </trkpt>
      <trkpt lat="47.31918" lon="-2.32208">
        <ele>35.200000762939</ele>
        <time>2021-06-20T09:35:11.000Z</time>
      </trkpt>
      <trkpt lat="47.31915" lon="-2.32207">
        <ele>35.599998474121</ele>
        <time>2021-06-20T09:35:12.000Z</time>
      </trkpt>
      <trkpt lat="47.31908" lon="-2.32205">
        <ele>36</ele>
        <time>2021-06-20T09:35:14.000Z</time>
      </trkpt>
      <trkpt lat="47.31905" lon="-2.32205">
        <ele>36.400001525879</ele>
        <time>2021-06-20T09:35:15.000Z</time>
      </trkpt>
      <trkpt lat="47.31901" lon="-2.32205">
        <ele>36.799999237061</ele>
        <time>2021-06-20T09:35:16.000Z</time>
      </trkpt>
      <trkpt lat="47.31898" lon="-2.32205">
        <ele>37.200000762939</ele>
        <time>2021-06-20T09:35:17.000Z</time>
      </trkpt>
      <trkpt lat="47.31895" lon="-2.32206">
        <ele>37.599998474121</ele>
        <time>2021-06-20T09:35:18.000Z</time>
      </trkpt>
      <trkpt lat="47.31876" lon="-2.32211">
        <ele>37.599998474121</ele>
        <time>2021-06-20T09:35:23.000Z</time>
      </trkpt>
      <trkpt lat="47.31873" lon="-2.32211">
        <ele>38</ele>
        <time>2021-06-20T09:35:24.000Z</time>
      </trkpt>
      <trkpt lat="47.31869" lon="-2.32213">
        <ele>38.599998474121</ele>
        <time>2021-06-20T09:35:25.000Z</time>
      </trkpt>
      <trkpt lat="47.31865" lon="-2.32214">
        <ele>39</ele>
        <time>2021-06-20T09:35:26.000Z</time>
      </trkpt>
      <trkpt lat="47.31862" lon="-2.32215">
        <ele>39.400001525879</ele>
        <time>2021-06-20T09:35:27.000Z</time>
      </trkpt>
      <trkpt lat="47.31858" lon="-2.32216">
        <ele>39.799999237061</ele>
        <time>2021-06-20T09:35:28.000Z</time>
      </trkpt>
      <trkpt lat="47.3185" lon="-2.32218">
        <ele>39.799999237061</ele>
        <time>2021-06-20T09:35:30.000Z</time>
      </trkpt>
      <trkpt lat="47.31841" lon="-2.32221">
        <ele>40.200000762939</ele>
        <time>2021-06-20T09:35:33.000Z</time>
      </trkpt>
      <trkpt lat="47.31837" lon="-2.32222">
        <ele>40.799999237061</ele>
        <time>2021-06-20T09:35:34.000Z</time>
      </trkpt>
      <trkpt lat="47.31834" lon="-2.32223">
        <ele>41.200000762939</ele>
        <time>2021-06-20T09:35:35.000Z</time>
      </trkpt>
      <trkpt lat="47.31831" lon="-2.32224">
        <ele>42.200000762939</ele>
        <time>2021-06-20T09:35:36.000Z</time>
      </trkpt>
      <trkpt lat="47.3181" lon="-2.32227">
        <ele>42.599998474121</ele>
        <time>2021-06-20T09:35:42.000Z</time>
      </trkpt>
      <trkpt lat="47.31807" lon="-2.32227">
        <ele>43</ele>
        <time>2021-06-20T09:35:43.000Z</time>
      </trkpt>
      <trkpt lat="47.31803" lon="-2.32228">
        <ele>43.400001525879</ele>
        <time>2021-06-20T09:35:44.000Z</time>
      </trkpt>
      <trkpt lat="47.318" lon="-2.32228">
        <ele>43.799999237061</ele>
        <time>2021-06-20T09:35:45.000Z</time>
      </trkpt>
      <trkpt lat="47.31796" lon="-2.32229">
        <ele>44.400001525879</ele>
        <time>2021-06-20T09:35:46.000Z</time>
      </trkpt>
      <trkpt lat="47.3178" lon="-2.32231">
        <ele>44.400001525879</ele>
        <time>2021-06-20T09:35:50.000Z</time>
      </trkpt>
      <trkpt lat="47.31756" lon="-2.3224">
        <ele>44.400001525879</ele>
        <time>2021-06-20T09:35:57.000Z</time>
      </trkpt>
      <trkpt lat="47.31755" lon="-2.32244">
        <ele>44.799999237061</ele>
        <time>2021-06-20T09:35:58.000Z</time>
      </trkpt>
      <trkpt lat="47.31755" lon="-2.3225">
        <ele>45.200000762939</ele>
        <time>2021-06-20T09:35:59.000Z</time>
      </trkpt>
      <trkpt lat="47.31756" lon="-2.32256">
        <ele>45.599998474121</ele>
        <time>2021-06-20T09:36:00.000Z</time>
      </trkpt>
      <trkpt lat="47.31757" lon="-2.32261">
        <ele>46.400001525879</ele>
        <time>2021-06-20T09:36:01.000Z</time>
      </trkpt>
      <trkpt lat="47.31759" lon="-2.32267">
        <ele>46.400001525879</ele>
        <time>2021-06-20T09:36:02.000Z</time>
      </trkpt>
      <trkpt lat="47.31764" lon="-2.32291">
        <ele>46.400001525879</ele>
        <time>2021-06-20T09:36:06.000Z</time>
      </trkpt>
      <trkpt lat="47.31775" lon="-2.32338">
        <ele>46.400001525879</ele>
        <time>2021-06-20T09:36:13.000Z</time>
      </trkpt>
      <trkpt lat="47.31783" lon="-2.32397">
        <ele>46.400001525879</ele>
        <time>2021-06-20T09:36:20.000Z</time>
      </trkpt>
      <trkpt lat="47.31786" lon="-2.32417">
        <ele>46.400001525879</ele>
        <time>2021-06-20T09:36:22.000Z</time>
      </trkpt>
      <trkpt lat="47.31787" lon="-2.32428">
        <ele>46</ele>
        <time>2021-06-20T09:36:23.000Z</time>
      </trkpt>
      <trkpt lat="47.31788" lon="-2.32438">
        <ele>45.599998474121</ele>
        <time>2021-06-20T09:36:24.000Z</time>
      </trkpt>
      <trkpt lat="47.31789" lon="-2.32447">
        <ele>44.799999237061</ele>
        <time>2021-06-20T09:36:25.000Z</time>
      </trkpt>
      <trkpt lat="47.31791" lon="-2.32457">
        <ele>44.400001525879</ele>
        <time>2021-06-20T09:36:26.000Z</time>
      </trkpt>
      <trkpt lat="47.31799" lon="-2.32488">
        <ele>44.400001525879</ele>
        <time>2021-06-20T09:36:29.000Z</time>
      </trkpt>
      <trkpt lat="47.31802" lon="-2.32498">
        <ele>44</ele>
        <time>2021-06-20T09:36:30.000Z</time>
      </trkpt>
      <trkpt lat="47.31804" lon="-2.32509">
        <ele>43.400001525879</ele>
        <time>2021-06-20T09:36:31.000Z</time>
      </trkpt>
      <trkpt lat="47.31807" lon="-2.32518">
        <ele>43</ele>
        <time>2021-06-20T09:36:32.000Z</time>
      </trkpt>
      <trkpt lat="47.3181" lon="-2.32527">
        <ele>42.599998474121</ele>
        <time>2021-06-20T09:36:33.000Z</time>
      </trkpt>
      <trkpt lat="47.31813" lon="-2.32536">
        <ele>42.200000762939</ele>
        <time>2021-06-20T09:36:34.000Z</time>
      </trkpt>
      <trkpt lat="47.31816" lon="-2.32546">
        <ele>41.599998474121</ele>
        <time>2021-06-20T09:36:35.000Z</time>
      </trkpt>
      <trkpt lat="47.31819" lon="-2.32556">
        <ele>41.200000762939</ele>
        <time>2021-06-20T09:36:36.000Z</time>
      </trkpt>
      <trkpt lat="47.31822" lon="-2.32567">
        <ele>40.599998474121</ele>
        <time>2021-06-20T09:36:37.000Z</time>
      </trkpt>
      <trkpt lat="47.31824" lon="-2.32577">
        <ele>40.200000762939</ele>
        <time>2021-06-20T09:36:38.000Z</time>
      </trkpt>
      <trkpt lat="47.3183" lon="-2.3261">
        <ele>40.200000762939</ele>
        <time>2021-06-20T09:36:41.000Z</time>
      </trkpt>
      <trkpt lat="47.3184" lon="-2.32653">
        <ele>39.799999237061</ele>
        <time>2021-06-20T09:36:45.000Z</time>
      </trkpt>
      <trkpt lat="47.31844" lon="-2.32662">
        <ele>39.200000762939</ele>
        <time>2021-06-20T09:36:46.000Z</time>
      </trkpt>
      <trkpt lat="47.31848" lon="-2.32672">
        <ele>38.799999237061</ele>
        <time>2021-06-20T09:36:47.000Z</time>
      </trkpt>
      <trkpt lat="47.31852" lon="-2.32681">
        <ele>38.400001525879</ele>
        <time>2021-06-20T09:36:48.000Z</time>
      </trkpt>
      <trkpt lat="47.31856" lon="-2.3269">
        <ele>38</ele>
        <time>2021-06-20T09:36:49.000Z</time>
      </trkpt>
      <trkpt lat="47.31873" lon="-2.32739">
        <ele>38</ele>
        <time>2021-06-20T09:36:54.000Z</time>
      </trkpt>
      <trkpt lat="47.31879" lon="-2.32762">
        <ele>37.599998474121</ele>
        <time>2021-06-20T09:36:56.000Z</time>
      </trkpt>
      <trkpt lat="47.31881" lon="-2.32774">
        <ele>37.200000762939</ele>
        <time>2021-06-20T09:36:57.000Z</time>
      </trkpt>
      <trkpt lat="47.31884" lon="-2.32787">
        <ele>36.599998474121</ele>
        <time>2021-06-20T09:36:58.000Z</time>
      </trkpt>
      <trkpt lat="47.31885" lon="-2.32799">
        <ele>36.200000762939</ele>
        <time>2021-06-20T09:36:59.000Z</time>
      </trkpt>
      <trkpt lat="47.31886" lon="-2.3281">
        <ele>35.799999237061</ele>
        <time>2021-06-20T09:37:00.000Z</time>
      </trkpt>
      <trkpt lat="47.3189" lon="-2.32858">
        <ele>35.799999237061</ele>
        <time>2021-06-20T09:37:04.000Z</time>
      </trkpt>
      <trkpt lat="47.3189" lon="-2.32934">
        <ele>35.799999237061</ele>
        <time>2021-06-20T09:37:11.000Z</time>
      </trkpt>
      <trkpt lat="47.31884" lon="-2.32985">
        <ele>35.400001525879</ele>
        <time>2021-06-20T09:37:16.000Z</time>
      </trkpt>
      <trkpt lat="47.31884" lon="-2.32997">
        <ele>35</ele>
        <time>2021-06-20T09:37:17.000Z</time>
      </trkpt>
      <trkpt lat="47.31884" lon="-2.33008">
        <ele>34.599998474121</ele>
        <time>2021-06-20T09:37:18.000Z</time>
      </trkpt>
      <trkpt lat="47.31884" lon="-2.3302">
        <ele>34.200000762939</ele>
        <time>2021-06-20T09:37:19.000Z</time>
      </trkpt>
      <trkpt lat="47.31884" lon="-2.33031">
        <ele>33.799999237061</ele>
        <time>2021-06-20T09:37:20.000Z</time>
      </trkpt>
      <trkpt lat="47.31883" lon="-2.33043">
        <ele>33.799999237061</ele>
        <time>2021-06-20T09:37:21.000Z</time>
      </trkpt>
      <trkpt lat="47.3188" lon="-2.33072">
        <ele>33.799999237061</ele>
        <time>2021-06-20T09:37:24.000Z</time>
      </trkpt>
      <trkpt lat="47.31877" lon="-2.33121">
        <ele>33.799999237061</ele>
        <time>2021-06-20T09:37:30.000Z</time>
      </trkpt>
      <trkpt lat="47.31876" lon="-2.33128">
        <ele>33.799999237061</ele>
        <time>2021-06-20T09:37:31.000Z</time>
      </trkpt>
      <trkpt lat="47.31873" lon="-2.33148">
        <ele>33.799999237061</ele>
        <time>2021-06-20T09:37:34.000Z</time>
      </trkpt>
      <trkpt lat="47.31872" lon="-2.33155">
        <ele>33.799999237061</ele>
        <time>2021-06-20T09:37:35.000Z</time>
      </trkpt>
      <trkpt lat="47.3187" lon="-2.33169">
        <ele>34.200000762939</ele>
        <time>2021-06-20T09:37:37.000Z</time>
      </trkpt>
      <trkpt lat="47.31869" lon="-2.33176">
        <ele>34.599998474121</ele>
        <time>2021-06-20T09:37:38.000Z</time>
      </trkpt>
      <trkpt lat="47.31869" lon="-2.33183">
        <ele>35</ele>
        <time>2021-06-20T09:37:39.000Z</time>
      </trkpt>
      <trkpt lat="47.31868" lon="-2.3319">
        <ele>35.799999237061</ele>
        <time>2021-06-20T09:37:40.000Z</time>
      </trkpt>
      <trkpt lat="47.31867" lon="-2.33206">
        <ele>35.799999237061</ele>
        <time>2021-06-20T09:37:42.000Z</time>
      </trkpt>
      <trkpt lat="47.31866" lon="-2.33229">
        <ele>35.799999237061</ele>
        <time>2021-06-20T09:37:45.000Z</time>
      </trkpt>
      <trkpt lat="47.31861" lon="-2.33244">
        <ele>35.799999237061</ele>
        <time>2021-06-20T09:37:47.000Z</time>
      </trkpt>
      <trkpt lat="47.31855" lon="-2.33257">
        <ele>35.799999237061</ele>
        <time>2021-06-20T09:37:49.000Z</time>
      </trkpt>
      <trkpt lat="47.31853" lon="-2.33263">
        <ele>36.200000762939</ele>
        <time>2021-06-20T09:37:50.000Z</time>
      </trkpt>
      <trkpt lat="47.3185" lon="-2.33268">
        <ele>36.599998474121</ele>
        <time>2021-06-20T09:37:51.000Z</time>
      </trkpt>
      <trkpt lat="47.31847" lon="-2.33274">
        <ele>37.200000762939</ele>
        <time>2021-06-20T09:37:52.000Z</time>
      </trkpt>
      <trkpt lat="47.31845" lon="-2.33279">
        <ele>37.599998474121</ele>
        <time>2021-06-20T09:37:53.000Z</time>
      </trkpt>
      <trkpt lat="47.31842" lon="-2.33282">
        <ele>38</ele>
        <time>2021-06-20T09:37:54.000Z</time>
      </trkpt>
      <trkpt lat="47.3182" lon="-2.33301">
        <ele>38</ele>
        <time>2021-06-20T09:38:00.000Z</time>
      </trkpt>
      <trkpt lat="47.31812" lon="-2.33307">
        <ele>38.400001525879</ele>
        <time>2021-06-20T09:38:02.000Z</time>
      </trkpt>
      <trkpt lat="47.31809" lon="-2.33309">
        <ele>38.799999237061</ele>
        <time>2021-06-20T09:38:03.000Z</time>
      </trkpt>
      <trkpt lat="47.31805" lon="-2.33312">
        <ele>39.599998474121</ele>
        <time>2021-06-20T09:38:04.000Z</time>
      </trkpt>
      <trkpt lat="47.31802" lon="-2.33314">
        <ele>40.200000762939</ele>
        <time>2021-06-20T09:38:05.000Z</time>
      </trkpt>
      <trkpt lat="47.31799" lon="-2.33316">
        <ele>40.200000762939</ele>
        <time>2021-06-20T09:38:06.000Z</time>
      </trkpt>
      <trkpt lat="47.31794" lon="-2.33319">
        <ele>40.599998474121</ele>
        <time>2021-06-20T09:38:08.000Z</time>
      </trkpt>
      <trkpt lat="47.31792" lon="-2.3332">
        <ele>41</ele>
        <time>2021-06-20T09:38:09.000Z</time>
      </trkpt>
      <trkpt lat="47.31788" lon="-2.33322">
        <ele>41.400001525879</ele>
        <time>2021-06-20T09:38:10.000Z</time>
      </trkpt>
      <trkpt lat="47.31784" lon="-2.33322">
        <ele>41.799999237061</ele>
        <time>2021-06-20T09:38:11.000Z</time>
      </trkpt>
      <trkpt lat="47.31781" lon="-2.33321">
        <ele>42.200000762939</ele>
        <time>2021-06-20T09:38:12.000Z</time>
      </trkpt>
      <trkpt lat="47.31768" lon="-2.33311">
        <ele>42.599998474121</ele>
        <time>2021-06-20T09:38:16.000Z</time>
      </trkpt>
      <trkpt lat="47.31765" lon="-2.33307">
        <ele>43</ele>
        <time>2021-06-20T09:38:17.000Z</time>
      </trkpt>
      <trkpt lat="47.31763" lon="-2.33303">
        <ele>43.400001525879</ele>
        <time>2021-06-20T09:38:18.000Z</time>
      </trkpt>
      <trkpt lat="47.3176" lon="-2.333">
        <ele>43.799999237061</ele>
        <time>2021-06-20T09:38:19.000Z</time>
      </trkpt>
      <trkpt lat="47.31758" lon="-2.33296">
        <ele>44.200000762939</ele>
        <time>2021-06-20T09:38:20.000Z</time>
      </trkpt>
      <trkpt lat="47.31756" lon="-2.33286">
        <ele>44.200000762939</ele>
        <time>2021-06-20T09:38:22.000Z</time>
      </trkpt>
      <trkpt lat="47.3175" lon="-2.33258">
        <ele>44.200000762939</ele>
        <time>2021-06-20T09:38:27.000Z</time>
      </trkpt>
      <trkpt lat="47.31747" lon="-2.33256">
        <ele>44.200000762939</ele>
        <time>2021-06-20T09:38:28.000Z</time>
      </trkpt>
      <trkpt lat="47.31735" lon="-2.33256">
        <ele>44.200000762939</ele>
        <time>2021-06-20T09:38:31.000Z</time>
      </trkpt>
      <trkpt lat="47.31718" lon="-2.33259">
        <ele>44.599998474121</ele>
        <time>2021-06-20T09:38:36.000Z</time>
      </trkpt>
      <trkpt lat="47.31714" lon="-2.3326">
        <ele>45</ele>
        <time>2021-06-20T09:38:37.000Z</time>
      </trkpt>
      <trkpt lat="47.3171" lon="-2.33261">
        <ele>45.599998474121</ele>
        <time>2021-06-20T09:38:38.000Z</time>
      </trkpt>
      <trkpt lat="47.31707" lon="-2.33263">
        <ele>46</ele>
        <time>2021-06-20T09:38:39.000Z</time>
      </trkpt>
      <trkpt lat="47.31703" lon="-2.33265">
        <ele>46.400001525879</ele>
        <time>2021-06-20T09:38:40.000Z</time>
      </trkpt>
      <trkpt lat="47.31695" lon="-2.33268">
        <ele>46.400001525879</ele>
        <time>2021-06-20T09:38:42.000Z</time>
      </trkpt>
      <trkpt lat="47.31677" lon="-2.33274">
        <ele>46.799999237061</ele>
        <time>2021-06-20T09:38:46.000Z</time>
      </trkpt>
      <trkpt lat="47.31673" lon="-2.33277">
        <ele>47.200000762939</ele>
        <time>2021-06-20T09:38:47.000Z</time>
      </trkpt>
      <trkpt lat="47.31668" lon="-2.33279">
        <ele>47.599998474121</ele>
        <time>2021-06-20T09:38:48.000Z</time>
      </trkpt>
      <trkpt lat="47.31663" lon="-2.33281">
        <ele>48.200000762939</ele>
        <time>2021-06-20T09:38:49.000Z</time>
      </trkpt>
      <trkpt lat="47.31659" lon="-2.33282">
        <ele>48.599998474121</ele>
        <time>2021-06-20T09:38:50.000Z</time>
      </trkpt>
      <trkpt lat="47.31655" lon="-2.33285">
        <ele>48.599998474121</ele>
        <time>2021-06-20T09:38:51.000Z</time>
      </trkpt>
      <trkpt lat="47.31639" lon="-2.33293">
        <ele>48.599998474121</ele>
        <time>2021-06-20T09:38:55.000Z</time>
      </trkpt>
      <trkpt lat="47.31607" lon="-2.33312">
        <ele>48.599998474121</ele>
        <time>2021-06-20T09:39:03.000Z</time>
      </trkpt>
      <trkpt lat="47.31587" lon="-2.33324">
        <ele>49</ele>
        <time>2021-06-20T09:39:08.000Z</time>
      </trkpt>
      <trkpt lat="47.31583" lon="-2.33325">
        <ele>49.400001525879</ele>
        <time>2021-06-20T09:39:09.000Z</time>
      </trkpt>
      <trkpt lat="47.31579" lon="-2.33328">
        <ele>49.799999237061</ele>
        <time>2021-06-20T09:39:10.000Z</time>
      </trkpt>
      <trkpt lat="47.31574" lon="-2.33329">
        <ele>50.200000762939</ele>
        <time>2021-06-20T09:39:11.000Z</time>
      </trkpt>
      <trkpt lat="47.31569" lon="-2.3333">
        <ele>50.599998474121</ele>
        <time>2021-06-20T09:39:12.000Z</time>
      </trkpt>
      <trkpt lat="47.3156" lon="-2.33334">
        <ele>50.599998474121</ele>
        <time>2021-06-20T09:39:14.000Z</time>
      </trkpt>
      <trkpt lat="47.3155" lon="-2.33337">
        <ele>50.599998474121</ele>
        <time>2021-06-20T09:39:16.000Z</time>
      </trkpt>
      <trkpt lat="47.31526" lon="-2.33347">
        <ele>50.599998474121</ele>
        <time>2021-06-20T09:39:22.000Z</time>
      </trkpt>
      <trkpt lat="47.31503" lon="-2.3336">
        <ele>50.599998474121</ele>
        <time>2021-06-20T09:39:28.000Z</time>
      </trkpt>
      <trkpt lat="47.31496" lon="-2.33365">
        <ele>50.599998474121</ele>
        <time>2021-06-20T09:39:30.000Z</time>
      </trkpt>
      <trkpt lat="47.31485" lon="-2.33372">
        <ele>50.599998474121</ele>
        <time>2021-06-20T09:39:34.000Z</time>
      </trkpt>
      <trkpt lat="47.31485" lon="-2.33371">
        <ele>50.599998474121</ele>
        <time>2021-06-20T09:39:35.000Z</time>
      </trkpt>
      <trkpt lat="47.31485" lon="-2.3337">
        <ele>50.599998474121</ele>
        <time>2021-06-20T09:39:39.000Z</time>
      </trkpt>
      <trkpt lat="47.31483" lon="-2.33366">
        <ele>50.599998474121</ele>
        <time>2021-06-20T09:42:42.000Z</time>
      </trkpt>
      <trkpt lat="47.31473" lon="-2.33351">
        <ele>50.599998474121</ele>
        <time>2021-06-20T09:42:48.000Z</time>
      </trkpt>
      <trkpt lat="47.31461" lon="-2.33329">
        <ele>50.599998474121</ele>
        <time>2021-06-20T09:42:52.000Z</time>
      </trkpt>
      <trkpt lat="47.31451" lon="-2.33309">
        <ele>50.599998474121</ele>
        <time>2021-06-20T09:42:55.000Z</time>
      </trkpt>
      <trkpt lat="47.3144" lon="-2.33291">
        <ele>50.599998474121</ele>
        <time>2021-06-20T09:42:58.000Z</time>
      </trkpt>
      <trkpt lat="47.31417" lon="-2.33269">
        <ele>50.599998474121</ele>
        <time>2021-06-20T09:43:03.000Z</time>
      </trkpt>
      <trkpt lat="47.31381" lon="-2.33246">
        <ele>50.599998474121</ele>
        <time>2021-06-20T09:43:10.000Z</time>
      </trkpt>
      <trkpt lat="47.31378" lon="-2.33243">
        <ele>50.200000762939</ele>
        <time>2021-06-20T09:43:11.000Z</time>
      </trkpt>
      <trkpt lat="47.31374" lon="-2.33241">
        <ele>49.799999237061</ele>
        <time>2021-06-20T09:43:12.000Z</time>
      </trkpt>
      <trkpt lat="47.31371" lon="-2.33239">
        <ele>49.400001525879</ele>
        <time>2021-06-20T09:43:13.000Z</time>
      </trkpt>
      <trkpt lat="47.31367" lon="-2.33237">
        <ele>49</ele>
        <time>2021-06-20T09:43:14.000Z</time>
      </trkpt>
      <trkpt lat="47.31364" lon="-2.33235">
        <ele>48.599998474121</ele>
        <time>2021-06-20T09:43:15.000Z</time>
      </trkpt>
      <trkpt lat="47.31343" lon="-2.33221">
        <ele>48.599998474121</ele>
        <time>2021-06-20T09:43:21.000Z</time>
      </trkpt>
      <trkpt lat="47.31329" lon="-2.33207">
        <ele>48.599998474121</ele>
        <time>2021-06-20T09:43:25.000Z</time>
      </trkpt>
      <trkpt lat="47.31324" lon="-2.33203">
        <ele>48.599998474121</ele>
        <time>2021-06-20T09:43:26.000Z</time>
      </trkpt>
      <trkpt lat="47.31304" lon="-2.33184">
        <ele>48.599998474121</ele>
        <time>2021-06-20T09:43:30.000Z</time>
      </trkpt>
      <trkpt lat="47.31299" lon="-2.3318">
        <ele>48.599998474121</ele>
        <time>2021-06-20T09:43:31.000Z</time>
      </trkpt>
      <trkpt lat="47.31271" lon="-2.33162">
        <ele>48.599998474121</ele>
        <time>2021-06-20T09:43:36.000Z</time>
      </trkpt>
      <trkpt lat="47.3126" lon="-2.33157">
        <ele>48.599998474121</ele>
        <time>2021-06-20T09:43:38.000Z</time>
      </trkpt>
      <trkpt lat="47.3123" lon="-2.33152">
        <ele>48.599998474121</ele>
        <time>2021-06-20T09:43:44.000Z</time>
      </trkpt>
      <trkpt lat="47.31206" lon="-2.33154">
        <ele>48.599998474121</ele>
        <time>2021-06-20T09:43:48.000Z</time>
      </trkpt>
      <trkpt lat="47.312" lon="-2.33156">
        <ele>48.599998474121</ele>
        <time>2021-06-20T09:43:49.000Z</time>
      </trkpt>
      <trkpt lat="47.31169" lon="-2.33174">
        <ele>48.599998474121</ele>
        <time>2021-06-20T09:43:54.000Z</time>
      </trkpt>
      <trkpt lat="47.31137" lon="-2.33195">
        <ele>48.599998474121</ele>
        <time>2021-06-20T09:44:00.000Z</time>
      </trkpt>
      <trkpt lat="47.31111" lon="-2.33212">
        <ele>48.599998474121</ele>
        <time>2021-06-20T09:44:05.000Z</time>
      </trkpt>
      <trkpt lat="47.31108" lon="-2.33219">
        <ele>48.599998474121</ele>
        <time>2021-06-20T09:44:06.000Z</time>
      </trkpt>
      <trkpt lat="47.31104" lon="-2.33244">
        <ele>48.599998474121</ele>
        <time>2021-06-20T09:44:09.000Z</time>
      </trkpt>
      <trkpt lat="47.31102" lon="-2.33261">
        <ele>48.599998474121</ele>
        <time>2021-06-20T09:44:11.000Z</time>
      </trkpt>
      <trkpt lat="47.31102" lon="-2.33298">
        <ele>48.599998474121</ele>
        <time>2021-06-20T09:44:15.000Z</time>
      </trkpt>
      <trkpt lat="47.31099" lon="-2.33358">
        <ele>48.599998474121</ele>
        <time>2021-06-20T09:44:21.000Z</time>
      </trkpt>
      <trkpt lat="47.31099" lon="-2.33378">
        <ele>49</ele>
        <time>2021-06-20T09:44:23.000Z</time>
      </trkpt>
      <trkpt lat="47.31099" lon="-2.33388">
        <ele>49.400001525879</ele>
        <time>2021-06-20T09:44:24.000Z</time>
      </trkpt>
      <trkpt lat="47.31099" lon="-2.33398">
        <ele>49.799999237061</ele>
        <time>2021-06-20T09:44:25.000Z</time>
      </trkpt>
      <trkpt lat="47.31099" lon="-2.33408">
        <ele>50.200000762939</ele>
        <time>2021-06-20T09:44:26.000Z</time>
      </trkpt>
      <trkpt lat="47.31099" lon="-2.33417">
        <ele>50.599998474121</ele>
        <time>2021-06-20T09:44:27.000Z</time>
      </trkpt>
      <trkpt lat="47.31099" lon="-2.33435">
        <ele>50.599998474121</ele>
        <time>2021-06-20T09:44:29.000Z</time>
      </trkpt>
      <trkpt lat="47.31102" lon="-2.33485">
        <ele>50.599998474121</ele>
        <time>2021-06-20T09:44:35.000Z</time>
      </trkpt>
      <trkpt lat="47.3111" lon="-2.33539">
        <ele>50.599998474121</ele>
        <time>2021-06-20T09:44:42.000Z</time>
      </trkpt>
      <trkpt lat="47.31116" lon="-2.33571">
        <ele>51</ele>
        <time>2021-06-20T09:44:46.000Z</time>
      </trkpt>
      <trkpt lat="47.31116" lon="-2.3358">
        <ele>51.400001525879</ele>
        <time>2021-06-20T09:44:47.000Z</time>
      </trkpt>
      <trkpt lat="47.31117" lon="-2.33589">
        <ele>51.799999237061</ele>
        <time>2021-06-20T09:44:48.000Z</time>
      </trkpt>
      <trkpt lat="47.31117" lon="-2.33598">
        <ele>52.200000762939</ele>
        <time>2021-06-20T09:44:49.000Z</time>
      </trkpt>
      <trkpt lat="47.31117" lon="-2.33606">
        <ele>52.799999237061</ele>
        <time>2021-06-20T09:44:50.000Z</time>
      </trkpt>
      <trkpt lat="47.31114" lon="-2.33644">
        <ele>52.799999237061</ele>
        <time>2021-06-20T09:44:54.000Z</time>
      </trkpt>
      <trkpt lat="47.31111" lon="-2.33661">
        <ele>52.799999237061</ele>
        <time>2021-06-20T09:44:56.000Z</time>
      </trkpt>
      <trkpt lat="47.31103" lon="-2.33695">
        <ele>52.799999237061</ele>
        <time>2021-06-20T09:45:00.000Z</time>
      </trkpt>
      <trkpt lat="47.31093" lon="-2.33757">
        <ele>52.799999237061</ele>
        <time>2021-06-20T09:45:07.000Z</time>
      </trkpt>
      <trkpt lat="47.31076" lon="-2.33797">
        <ele>52.799999237061</ele>
        <time>2021-06-20T09:45:12.000Z</time>
      </trkpt>
      <trkpt lat="47.31066" lon="-2.33842">
        <ele>52.799999237061</ele>
        <time>2021-06-20T09:45:17.000Z</time>
      </trkpt>
      <trkpt lat="47.31063" lon="-2.33902">
        <ele>52.799999237061</ele>
        <time>2021-06-20T09:45:24.000Z</time>
      </trkpt>
      <trkpt lat="47.31062" lon="-2.33936">
        <ele>52.799999237061</ele>
        <time>2021-06-20T09:45:28.000Z</time>
      </trkpt>
      <trkpt lat="47.31058" lon="-2.33943">
        <ele>52.799999237061</ele>
        <time>2021-06-20T09:45:29.000Z</time>
      </trkpt>
      <trkpt lat="47.3104" lon="-2.33953">
        <ele>52.799999237061</ele>
        <time>2021-06-20T09:45:32.000Z</time>
      </trkpt>
      <trkpt lat="47.31034" lon="-2.33954">
        <ele>52.799999237061</ele>
        <time>2021-06-20T09:45:33.000Z</time>
      </trkpt>
      <trkpt lat="47.30997" lon="-2.33957">
        <ele>52.799999237061</ele>
        <time>2021-06-20T09:45:39.000Z</time>
      </trkpt>
      <trkpt lat="47.30962" lon="-2.33957">
        <ele>52.799999237061</ele>
        <time>2021-06-20T09:45:45.000Z</time>
      </trkpt>
      <trkpt lat="47.30956" lon="-2.33956">
        <ele>53.200000762939</ele>
        <time>2021-06-20T09:45:46.000Z</time>
      </trkpt>
      <trkpt lat="47.30951" lon="-2.33955">
        <ele>53.599998474121</ele>
        <time>2021-06-20T09:45:47.000Z</time>
      </trkpt>
      <trkpt lat="47.30945" lon="-2.33954">
        <ele>54</ele>
        <time>2021-06-20T09:45:48.000Z</time>
      </trkpt>
      <trkpt lat="47.30939" lon="-2.33952">
        <ele>54.400001525879</ele>
        <time>2021-06-20T09:45:49.000Z</time>
      </trkpt>
      <trkpt lat="47.30933" lon="-2.33951">
        <ele>54.799999237061</ele>
        <time>2021-06-20T09:45:50.000Z</time>
      </trkpt>
      <trkpt lat="47.30927" lon="-2.33949">
        <ele>54.799999237061</ele>
        <time>2021-06-20T09:45:51.000Z</time>
      </trkpt>
      <trkpt lat="47.30889" lon="-2.3395">
        <ele>54.799999237061</ele>
        <time>2021-06-20T09:45:57.000Z</time>
      </trkpt>
      <trkpt lat="47.30833" lon="-2.33958">
        <ele>54.799999237061</ele>
        <time>2021-06-20T09:46:06.000Z</time>
      </trkpt>
      <trkpt lat="47.30793" lon="-2.33968">
        <ele>54.799999237061</ele>
        <time>2021-06-20T09:46:13.000Z</time>
      </trkpt>
      <trkpt lat="47.30782" lon="-2.33972">
        <ele>54.799999237061</ele>
        <time>2021-06-20T09:46:15.000Z</time>
      </trkpt>
      <trkpt lat="47.30777" lon="-2.33984">
        <ele>54.799999237061</ele>
        <time>2021-06-20T09:46:17.000Z</time>
      </trkpt>
      <trkpt lat="47.30773" lon="-2.34013">
        <ele>54.799999237061</ele>
        <time>2021-06-20T09:46:21.000Z</time>
      </trkpt>
      <trkpt lat="47.30774" lon="-2.34048">
        <ele>54.799999237061</ele>
        <time>2021-06-20T09:46:25.000Z</time>
      </trkpt>
      <trkpt lat="47.30775" lon="-2.34056">
        <ele>54.799999237061</ele>
        <time>2021-06-20T09:46:26.000Z</time>
      </trkpt>
      <trkpt lat="47.30774" lon="-2.34108">
        <ele>54.799999237061</ele>
        <time>2021-06-20T09:46:32.000Z</time>
      </trkpt>
      <trkpt lat="47.3077" lon="-2.34159">
        <ele>54.799999237061</ele>
        <time>2021-06-20T09:46:38.000Z</time>
      </trkpt>
      <trkpt lat="47.30768" lon="-2.34196">
        <ele>55.200000762939</ele>
        <time>2021-06-20T09:46:42.000Z</time>
      </trkpt>
      <trkpt lat="47.30767" lon="-2.34204">
        <ele>55.599998474121</ele>
        <time>2021-06-20T09:46:43.000Z</time>
      </trkpt>
      <trkpt lat="47.30765" lon="-2.34213">
        <ele>56</ele>
        <time>2021-06-20T09:46:44.000Z</time>
      </trkpt>
      <trkpt lat="47.3076" lon="-2.34216">
        <ele>56.400001525879</ele>
        <time>2021-06-20T09:46:45.000Z</time>
      </trkpt>
      <trkpt lat="47.30754" lon="-2.34217">
        <ele>57</ele>
        <time>2021-06-20T09:46:46.000Z</time>
      </trkpt>
      <trkpt lat="47.30737" lon="-2.34221">
        <ele>57</ele>
        <time>2021-06-20T09:46:49.000Z</time>
      </trkpt>
      <trkpt lat="47.30733" lon="-2.34224">
        <ele>57</ele>
        <time>2021-06-20T09:46:50.000Z</time>
      </trkpt>
      <trkpt lat="47.30729" lon="-2.34237">
        <ele>57</ele>
        <time>2021-06-20T09:46:53.000Z</time>
      </trkpt>
      <trkpt lat="47.30729" lon="-2.34264">
        <ele>57</ele>
        <time>2021-06-20T09:46:57.000Z</time>
      </trkpt>
      <trkpt lat="47.30727" lon="-2.34271">
        <ele>57</ele>
        <time>2021-06-20T09:46:58.000Z</time>
      </trkpt>
      <trkpt lat="47.30718" lon="-2.3429">
        <ele>57</ele>
        <time>2021-06-20T09:47:01.000Z</time>
      </trkpt>
      <trkpt lat="47.30698" lon="-2.34334">
        <ele>57</ele>
        <time>2021-06-20T09:47:07.000Z</time>
      </trkpt>
      <trkpt lat="47.30678" lon="-2.34375">
        <ele>57</ele>
        <time>2021-06-20T09:47:13.000Z</time>
      </trkpt>
      <trkpt lat="47.3065" lon="-2.34414">
        <ele>57</ele>
        <time>2021-06-20T09:47:19.000Z</time>
      </trkpt>
      <trkpt lat="47.30626" lon="-2.34443">
        <ele>57.400001525879</ele>
        <time>2021-06-20T09:47:24.000Z</time>
      </trkpt>
      <trkpt lat="47.30622" lon="-2.34451">
        <ele>57.799999237061</ele>
        <time>2021-06-20T09:47:25.000Z</time>
      </trkpt>
      <trkpt lat="47.30617" lon="-2.34459">
        <ele>58.200000762939</ele>
        <time>2021-06-20T09:47:26.000Z</time>
      </trkpt>
      <trkpt lat="47.30612" lon="-2.34468">
        <ele>58.599998474121</ele>
        <time>2021-06-20T09:47:27.000Z</time>
      </trkpt>
      <trkpt lat="47.30607" lon="-2.34476">
        <ele>59</ele>
        <time>2021-06-20T09:47:28.000Z</time>
      </trkpt>
      <trkpt lat="47.30603" lon="-2.34486">
        <ele>59</ele>
        <time>2021-06-20T09:47:29.000Z</time>
      </trkpt>
      <trkpt lat="47.30593" lon="-2.34504">
        <ele>59</ele>
        <time>2021-06-20T09:47:31.000Z</time>
      </trkpt>
      <trkpt lat="47.30563" lon="-2.34554">
        <ele>59</ele>
        <time>2021-06-20T09:47:36.000Z</time>
      </trkpt>
      <trkpt lat="47.30527" lon="-2.34608">
        <ele>59</ele>
        <time>2021-06-20T09:47:42.000Z</time>
      </trkpt>
      <trkpt lat="47.30522" lon="-2.34617">
        <ele>58.599998474121</ele>
        <time>2021-06-20T09:47:43.000Z</time>
      </trkpt>
      <trkpt lat="47.30517" lon="-2.34625">
        <ele>58.200000762939</ele>
        <time>2021-06-20T09:47:44.000Z</time>
      </trkpt>
      <trkpt lat="47.30512" lon="-2.34633">
        <ele>57.799999237061</ele>
        <time>2021-06-20T09:47:45.000Z</time>
      </trkpt>
      <trkpt lat="47.30508" lon="-2.34641">
        <ele>57.200000762939</ele>
        <time>2021-06-20T09:47:46.000Z</time>
      </trkpt>
      <trkpt lat="47.30503" lon="-2.34649">
        <ele>56.799999237061</ele>
        <time>2021-06-20T09:47:47.000Z</time>
      </trkpt>
      <trkpt lat="47.30498" lon="-2.34656">
        <ele>56.799999237061</ele>
        <time>2021-06-20T09:47:48.000Z</time>
      </trkpt>
      <trkpt lat="47.30486" lon="-2.34668">
        <ele>56.799999237061</ele>
        <time>2021-06-20T09:47:50.000Z</time>
      </trkpt>
      <trkpt lat="47.3045" lon="-2.34703">
        <ele>56.799999237061</ele>
        <time>2021-06-20T09:47:56.000Z</time>
      </trkpt>
      <trkpt lat="47.30444" lon="-2.34709">
        <ele>56.799999237061</ele>
        <time>2021-06-20T09:47:57.000Z</time>
      </trkpt>
      <trkpt lat="47.30427" lon="-2.34724">
        <ele>56.799999237061</ele>
        <time>2021-06-20T09:48:00.000Z</time>
      </trkpt>
      <trkpt lat="47.30421" lon="-2.34729">
        <ele>56.799999237061</ele>
        <time>2021-06-20T09:48:01.000Z</time>
      </trkpt>
      <trkpt lat="47.30377" lon="-2.34758">
        <ele>56.799999237061</ele>
        <time>2021-06-20T09:48:08.000Z</time>
      </trkpt>
      <trkpt lat="47.30346" lon="-2.34779">
        <ele>56.799999237061</ele>
        <time>2021-06-20T09:48:13.000Z</time>
      </trkpt>
      <trkpt lat="47.30341" lon="-2.34786">
        <ele>56.799999237061</ele>
        <time>2021-06-20T09:48:14.000Z</time>
      </trkpt>
      <trkpt lat="47.30323" lon="-2.34819">
        <ele>56.799999237061</ele>
        <time>2021-06-20T09:48:18.000Z</time>
      </trkpt>
      <trkpt lat="47.30319" lon="-2.34826">
        <ele>56.799999237061</ele>
        <time>2021-06-20T09:48:19.000Z</time>
      </trkpt>
      <trkpt lat="47.30303" lon="-2.34844">
        <ele>56.799999237061</ele>
        <time>2021-06-20T09:48:22.000Z</time>
      </trkpt>
      <trkpt lat="47.30298" lon="-2.34849">
        <ele>56.799999237061</ele>
        <time>2021-06-20T09:48:23.000Z</time>
      </trkpt>
      <trkpt lat="47.3028" lon="-2.3486">
        <ele>56.799999237061</ele>
        <time>2021-06-20T09:48:26.000Z</time>
      </trkpt>
      <trkpt lat="47.3024" lon="-2.34884">
        <ele>56.799999237061</ele>
        <time>2021-06-20T09:48:32.000Z</time>
      </trkpt>
      <trkpt lat="47.30212" lon="-2.34915">
        <ele>56.799999237061</ele>
        <time>2021-06-20T09:48:37.000Z</time>
      </trkpt>
      <trkpt lat="47.30209" lon="-2.34947">
        <ele>56.799999237061</ele>
        <time>2021-06-20T09:48:40.000Z</time>
      </trkpt>
      <trkpt lat="47.30209" lon="-2.34958">
        <ele>56.799999237061</ele>
        <time>2021-06-20T09:48:41.000Z</time>
      </trkpt>
      <trkpt lat="47.30208" lon="-2.3498">
        <ele>56.400001525879</ele>
        <time>2021-06-20T09:48:43.000Z</time>
      </trkpt>
      <trkpt lat="47.30207" lon="-2.34991">
        <ele>56</ele>
        <time>2021-06-20T09:48:44.000Z</time>
      </trkpt>
      <trkpt lat="47.30207" lon="-2.35003">
        <ele>55.200000762939</ele>
        <time>2021-06-20T09:48:45.000Z</time>
      </trkpt>
      <trkpt lat="47.30208" lon="-2.35014">
        <ele>54.799999237061</ele>
        <time>2021-06-20T09:48:46.000Z</time>
      </trkpt>
      <trkpt lat="47.30209" lon="-2.3507">
        <ele>54.799999237061</ele>
        <time>2021-06-20T09:48:51.000Z</time>
      </trkpt>
      <trkpt lat="47.30209" lon="-2.351">
        <ele>54.400001525879</ele>
        <time>2021-06-20T09:48:54.000Z</time>
      </trkpt>
      <trkpt lat="47.30209" lon="-2.3511">
        <ele>54</ele>
        <time>2021-06-20T09:48:55.000Z</time>
      </trkpt>
      <trkpt lat="47.30208" lon="-2.35119">
        <ele>53.599998474121</ele>
        <time>2021-06-20T09:48:56.000Z</time>
      </trkpt>
      <trkpt lat="47.30207" lon="-2.35128">
        <ele>53</ele>
        <time>2021-06-20T09:48:57.000Z</time>
      </trkpt>
      <trkpt lat="47.30207" lon="-2.35138">
        <ele>52.599998474121</ele>
        <time>2021-06-20T09:48:58.000Z</time>
      </trkpt>
      <trkpt lat="47.30205" lon="-2.35165">
        <ele>52.599998474121</ele>
        <time>2021-06-20T09:49:01.000Z</time>
      </trkpt>
      <trkpt lat="47.302" lon="-2.35169">
        <ele>52.200000762939</ele>
        <time>2021-06-20T09:49:02.000Z</time>
      </trkpt>
      <trkpt lat="47.30195" lon="-2.35169">
        <ele>51.799999237061</ele>
        <time>2021-06-20T09:49:03.000Z</time>
      </trkpt>
      <trkpt lat="47.30191" lon="-2.3517">
        <ele>51.200000762939</ele>
        <time>2021-06-20T09:49:04.000Z</time>
      </trkpt>
      <trkpt lat="47.30187" lon="-2.35171">
        <ele>50.799999237061</ele>
        <time>2021-06-20T09:49:05.000Z</time>
      </trkpt>
      <trkpt lat="47.30183" lon="-2.35173">
        <ele>50.400001525879</ele>
        <time>2021-06-20T09:49:06.000Z</time>
      </trkpt>
      <trkpt lat="47.30166" lon="-2.35182">
        <ele>50.400001525879</ele>
        <time>2021-06-20T09:49:11.000Z</time>
      </trkpt>
      <trkpt lat="47.3016" lon="-2.35188">
        <ele>50.400001525879</ele>
        <time>2021-06-20T09:49:15.000Z</time>
      </trkpt>
      <trkpt lat="47.30151" lon="-2.35193">
        <ele>50.400001525879</ele>
        <time>2021-06-20T09:49:20.000Z</time>
      </trkpt>
      <trkpt lat="47.30136" lon="-2.35196">
        <ele>50.400001525879</ele>
        <time>2021-06-20T09:49:25.000Z</time>
      </trkpt>
      <trkpt lat="47.30125" lon="-2.35199">
        <ele>50.400001525879</ele>
        <time>2021-06-20T09:49:27.000Z</time>
      </trkpt>
      <trkpt lat="47.30113" lon="-2.35205">
        <ele>50.400001525879</ele>
        <time>2021-06-20T09:49:29.000Z</time>
      </trkpt>
      <trkpt lat="47.30088" lon="-2.35214">
        <ele>50.400001525879</ele>
        <time>2021-06-20T09:49:33.000Z</time>
      </trkpt>
      <trkpt lat="47.30075" lon="-2.35219">
        <ele>50.400001525879</ele>
        <time>2021-06-20T09:49:35.000Z</time>
      </trkpt>
      <trkpt lat="47.30065" lon="-2.35226">
        <ele>50.400001525879</ele>
        <time>2021-06-20T09:49:37.000Z</time>
      </trkpt>
      <trkpt lat="47.30033" lon="-2.35244">
        <ele>50.400001525879</ele>
        <time>2021-06-20T09:49:43.000Z</time>
      </trkpt>
      <trkpt lat="47.30029" lon="-2.35245">
        <ele>50.400001525879</ele>
        <time>2021-06-20T09:49:45.000Z</time>
      </trkpt>
      <trkpt lat="47.30026" lon="-2.35247">
        <ele>50</ele>
        <time>2021-06-20T09:49:46.000Z</time>
      </trkpt>
      <trkpt lat="47.30023" lon="-2.35249">
        <ele>49.599998474121</ele>
        <time>2021-06-20T09:49:47.000Z</time>
      </trkpt>
      <trkpt lat="47.3002" lon="-2.35252">
        <ele>49.200000762939</ele>
        <time>2021-06-20T09:49:48.000Z</time>
      </trkpt>
      <trkpt lat="47.30016" lon="-2.35255">
        <ele>48.799999237061</ele>
        <time>2021-06-20T09:49:49.000Z</time>
      </trkpt>
      <trkpt lat="47.30013" lon="-2.35257">
        <ele>48.400001525879</ele>
        <time>2021-06-20T09:49:50.000Z</time>
      </trkpt>
      <trkpt lat="47.30002" lon="-2.35259">
        <ele>48.400001525879</ele>
        <time>2021-06-20T09:49:55.000Z</time>
      </trkpt>
      <trkpt lat="47.30003" lon="-2.35259">
        <ele>48.400001525879</ele>
        <time>2021-06-20T09:49:56.000Z</time>
      </trkpt>
      <trkpt lat="47.3" lon="-2.35261">
        <ele>48.400001525879</ele>
        <time>2021-06-20T09:51:55.000Z</time>
      </trkpt>
      <trkpt lat="47.29995" lon="-2.35267">
        <ele>48.400001525879</ele>
        <time>2021-06-20T09:51:57.000Z</time>
      </trkpt>
      <trkpt lat="47.29977" lon="-2.35285">
        <ele>48.400001525879</ele>
        <time>2021-06-20T09:52:02.000Z</time>
      </trkpt>
      <trkpt lat="47.29949" lon="-2.35322">
        <ele>48.400001525879</ele>
        <time>2021-06-20T09:52:10.000Z</time>
      </trkpt>
      <trkpt lat="47.29926" lon="-2.35351">
        <ele>48.400001525879</ele>
        <time>2021-06-20T09:52:16.000Z</time>
      </trkpt>
      <trkpt lat="47.29893" lon="-2.35387">
        <ele>48.400001525879</ele>
        <time>2021-06-20T09:52:24.000Z</time>
      </trkpt>
      <trkpt lat="47.29889" lon="-2.35392">
        <ele>48.400001525879</ele>
        <time>2021-06-20T09:52:25.000Z</time>
      </trkpt>
      <trkpt lat="47.29868" lon="-2.35412">
        <ele>48.400001525879</ele>
        <time>2021-06-20T09:52:30.000Z</time>
      </trkpt>
      <trkpt lat="47.29852" lon="-2.35428">
        <ele>48.799999237061</ele>
        <time>2021-06-20T09:52:34.000Z</time>
      </trkpt>
      <trkpt lat="47.29848" lon="-2.35433">
        <ele>49.200000762939</ele>
        <time>2021-06-20T09:52:35.000Z</time>
      </trkpt>
      <trkpt lat="47.29844" lon="-2.35437">
        <ele>49.599998474121</ele>
        <time>2021-06-20T09:52:36.000Z</time>
      </trkpt>
      <trkpt lat="47.29839" lon="-2.35442">
        <ele>50</ele>
        <time>2021-06-20T09:52:37.000Z</time>
      </trkpt>
      <trkpt lat="47.29836" lon="-2.35446">
        <ele>50.400001525879</ele>
        <time>2021-06-20T09:52:38.000Z</time>
      </trkpt>
      <trkpt lat="47.29832" lon="-2.35452">
        <ele>50.400001525879</ele>
        <time>2021-06-20T09:52:39.000Z</time>
      </trkpt>
      <trkpt lat="47.29826" lon="-2.35471">
        <ele>50.400001525879</ele>
        <time>2021-06-20T09:52:42.000Z</time>
      </trkpt>
      <trkpt lat="47.29826" lon="-2.35478">
        <ele>50.400001525879</ele>
        <time>2021-06-20T09:52:43.000Z</time>
      </trkpt>
      <trkpt lat="47.29828" lon="-2.3549">
        <ele>50.400001525879</ele>
        <time>2021-06-20T09:52:45.000Z</time>
      </trkpt>
      <trkpt lat="47.2983" lon="-2.35495">
        <ele>50.400001525879</ele>
        <time>2021-06-20T09:52:46.000Z</time>
      </trkpt>
      <trkpt lat="47.29833" lon="-2.35507">
        <ele>50.400001525879</ele>
        <time>2021-06-20T09:52:48.000Z</time>
      </trkpt>
      <trkpt lat="47.29841" lon="-2.35535">
        <ele>50.400001525879</ele>
        <time>2021-06-20T09:52:52.000Z</time>
      </trkpt>
      <trkpt lat="47.29856" lon="-2.35582">
        <ele>50.799999237061</ele>
        <time>2021-06-20T09:52:59.000Z</time>
      </trkpt>
      <trkpt lat="47.29858" lon="-2.35589">
        <ele>51.200000762939</ele>
        <time>2021-06-20T09:53:00.000Z</time>
      </trkpt>
      <trkpt lat="47.2986" lon="-2.35596">
        <ele>51.599998474121</ele>
        <time>2021-06-20T09:53:01.000Z</time>
      </trkpt>
      <trkpt lat="47.29862" lon="-2.35603">
        <ele>52</ele>
        <time>2021-06-20T09:53:02.000Z</time>
      </trkpt>
      <trkpt lat="47.29864" lon="-2.35611">
        <ele>52.400001525879</ele>
        <time>2021-06-20T09:53:03.000Z</time>
      </trkpt>
      <trkpt lat="47.29873" lon="-2.35641">
        <ele>52.400001525879</ele>
        <time>2021-06-20T09:53:08.000Z</time>
      </trkpt>
      <trkpt lat="47.29875" lon="-2.35654">
        <ele>52.400001525879</ele>
        <time>2021-06-20T09:53:10.000Z</time>
      </trkpt>
      <trkpt lat="47.29879" lon="-2.35681">
        <ele>52.400001525879</ele>
        <time>2021-06-20T09:53:14.000Z</time>
      </trkpt>
      <trkpt lat="47.29892" lon="-2.35737">
        <ele>52.400001525879</ele>
        <time>2021-06-20T09:53:23.000Z</time>
      </trkpt>
      <trkpt lat="47.29893" lon="-2.35749">
        <ele>52.400001525879</ele>
        <time>2021-06-20T09:53:25.000Z</time>
      </trkpt>
      <trkpt lat="47.29889" lon="-2.35757">
        <ele>52.400001525879</ele>
        <time>2021-06-20T09:53:27.000Z</time>
      </trkpt>
      <trkpt lat="47.29879" lon="-2.35768">
        <ele>52.400001525879</ele>
        <time>2021-06-20T09:53:30.000Z</time>
      </trkpt>
      <trkpt lat="47.29874" lon="-2.3577">
        <ele>52.400001525879</ele>
        <time>2021-06-20T09:53:31.000Z</time>
      </trkpt>
      <trkpt lat="47.29839" lon="-2.35782">
        <ele>52.400001525879</ele>
        <time>2021-06-20T09:53:37.000Z</time>
      </trkpt>
      <trkpt lat="47.29834" lon="-2.35784">
        <ele>52.799999237061</ele>
        <time>2021-06-20T09:53:38.000Z</time>
      </trkpt>
      <trkpt lat="47.29828" lon="-2.35786">
        <ele>53.200000762939</ele>
        <time>2021-06-20T09:53:39.000Z</time>
      </trkpt>
      <trkpt lat="47.29823" lon="-2.35788">
        <ele>53.799999237061</ele>
        <time>2021-06-20T09:53:40.000Z</time>
      </trkpt>
      <trkpt lat="47.29818" lon="-2.3579">
        <ele>54.599998474121</ele>
        <time>2021-06-20T09:53:41.000Z</time>
      </trkpt>
      <trkpt lat="47.29802" lon="-2.35795">
        <ele>54.599998474121</ele>
        <time>2021-06-20T09:53:44.000Z</time>
      </trkpt>
      <trkpt lat="47.29791" lon="-2.35798">
        <ele>55</ele>
        <time>2021-06-20T09:53:46.000Z</time>
      </trkpt>
      <trkpt lat="47.29786" lon="-2.358">
        <ele>55.400001525879</ele>
        <time>2021-06-20T09:53:47.000Z</time>
      </trkpt>
      <trkpt lat="47.2978" lon="-2.35802">
        <ele>56</ele>
        <time>2021-06-20T09:53:48.000Z</time>
      </trkpt>
      <trkpt lat="47.29775" lon="-2.35804">
        <ele>56.400001525879</ele>
        <time>2021-06-20T09:53:49.000Z</time>
      </trkpt>
      <trkpt lat="47.2977" lon="-2.35806">
        <ele>56.799999237061</ele>
        <time>2021-06-20T09:53:50.000Z</time>
      </trkpt>
      <trkpt lat="47.29748" lon="-2.35815">
        <ele>56.799999237061</ele>
        <time>2021-06-20T09:53:54.000Z</time>
      </trkpt>
      <trkpt lat="47.29716" lon="-2.35832">
        <ele>56.799999237061</ele>
        <time>2021-06-20T09:53:59.000Z</time>
      </trkpt>
      <trkpt lat="47.29708" lon="-2.35836">
        <ele>56.400001525879</ele>
        <time>2021-06-20T09:54:00.000Z</time>
      </trkpt>
      <trkpt lat="47.29702" lon="-2.35839">
        <ele>55.799999237061</ele>
        <time>2021-06-20T09:54:01.000Z</time>
      </trkpt>
      <trkpt lat="47.29695" lon="-2.35842">
        <ele>55.400001525879</ele>
        <time>2021-06-20T09:54:02.000Z</time>
      </trkpt>
      <trkpt lat="47.29689" lon="-2.35845">
        <ele>55</ele>
        <time>2021-06-20T09:54:03.000Z</time>
      </trkpt>
      <trkpt lat="47.29683" lon="-2.35846">
        <ele>54.400001525879</ele>
        <time>2021-06-20T09:54:04.000Z</time>
      </trkpt>
      <trkpt lat="47.29672" lon="-2.35851">
        <ele>54.400001525879</ele>
        <time>2021-06-20T09:54:06.000Z</time>
      </trkpt>
      <trkpt lat="47.29669" lon="-2.35855">
        <ele>54.400001525879</ele>
        <time>2021-06-20T09:54:07.000Z</time>
      </trkpt>
      <trkpt lat="47.29654" lon="-2.35868">
        <ele>54.400001525879</ele>
        <time>2021-06-20T09:54:11.000Z</time>
      </trkpt>
      <trkpt lat="47.29633" lon="-2.35878">
        <ele>54.400001525879</ele>
        <time>2021-06-20T09:54:15.000Z</time>
      </trkpt>
      <trkpt lat="47.29628" lon="-2.35881">
        <ele>54.400001525879</ele>
        <time>2021-06-20T09:54:16.000Z</time>
      </trkpt>
      <trkpt lat="47.29592" lon="-2.35902">
        <ele>54.400001525879</ele>
        <time>2021-06-20T09:54:23.000Z</time>
      </trkpt>
      <trkpt lat="47.29554" lon="-2.35924">
        <ele>54.400001525879</ele>
        <time>2021-06-20T09:54:30.000Z</time>
      </trkpt>
      <trkpt lat="47.29532" lon="-2.35936">
        <ele>54</ele>
        <time>2021-06-20T09:54:34.000Z</time>
      </trkpt>
      <trkpt lat="47.29527" lon="-2.35938">
        <ele>53.599998474121</ele>
        <time>2021-06-20T09:54:35.000Z</time>
      </trkpt>
      <trkpt lat="47.29522" lon="-2.3594">
        <ele>53.200000762939</ele>
        <time>2021-06-20T09:54:36.000Z</time>
      </trkpt>
      <trkpt lat="47.29517" lon="-2.35942">
        <ele>52.799999237061</ele>
        <time>2021-06-20T09:54:37.000Z</time>
      </trkpt>
      <trkpt lat="47.29514" lon="-2.35942">
        <ele>52.400001525879</ele>
        <time>2021-06-20T09:54:38.000Z</time>
      </trkpt>
      <trkpt lat="47.29507" lon="-2.35933">
        <ele>52.400001525879</ele>
        <time>2021-06-20T09:54:40.000Z</time>
      </trkpt>
      <trkpt lat="47.29504" lon="-2.35921">
        <ele>52.400001525879</ele>
        <time>2021-06-20T09:54:42.000Z</time>
      </trkpt>
      <trkpt lat="47.29502" lon="-2.35914">
        <ele>52.400001525879</ele>
        <time>2021-06-20T09:54:43.000Z</time>
      </trkpt>
      <trkpt lat="47.29496" lon="-2.35904">
        <ele>52.400001525879</ele>
        <time>2021-06-20T09:54:45.000Z</time>
      </trkpt>
      <trkpt lat="47.29486" lon="-2.35898">
        <ele>52.400001525879</ele>
        <time>2021-06-20T09:54:48.000Z</time>
      </trkpt>
      <trkpt lat="47.29477" lon="-2.35898">
        <ele>52.400001525879</ele>
        <time>2021-06-20T09:54:50.000Z</time>
      </trkpt>
      <trkpt lat="47.29464" lon="-2.359">
        <ele>52.400001525879</ele>
        <time>2021-06-20T09:54:53.000Z</time>
      </trkpt>
      <trkpt lat="47.29445" lon="-2.35913">
        <ele>52.400001525879</ele>
        <time>2021-06-20T09:54:59.000Z</time>
      </trkpt>
      <trkpt lat="47.2944" lon="-2.35915">
        <ele>52.400001525879</ele>
        <time>2021-06-20T09:55:01.000Z</time>
      </trkpt>
      <trkpt lat="47.29434" lon="-2.3591">
        <ele>52.400001525879</ele>
        <time>2021-06-20T09:55:03.000Z</time>
      </trkpt>
      <trkpt lat="47.29427" lon="-2.35894">
        <ele>52.400001525879</ele>
        <time>2021-06-20T09:55:07.000Z</time>
      </trkpt>
      <trkpt lat="47.29422" lon="-2.35888">
        <ele>52.400001525879</ele>
        <time>2021-06-20T09:55:09.000Z</time>
      </trkpt>
      <trkpt lat="47.29406" lon="-2.3587">
        <ele>52.400001525879</ele>
        <time>2021-06-20T09:55:14.000Z</time>
      </trkpt>
      <trkpt lat="47.29382" lon="-2.35845">
        <ele>52.400001525879</ele>
        <time>2021-06-20T09:55:20.000Z</time>
      </trkpt>
      <trkpt lat="47.29378" lon="-2.3584">
        <ele>52.400001525879</ele>
        <time>2021-06-20T09:55:21.000Z</time>
      </trkpt>
      <trkpt lat="47.29363" lon="-2.35825">
        <ele>52.400001525879</ele>
        <time>2021-06-20T09:55:24.000Z</time>
      </trkpt>
      <trkpt lat="47.29331" lon="-2.35798">
        <ele>52.400001525879</ele>
        <time>2021-06-20T09:55:30.000Z</time>
      </trkpt>
      <trkpt lat="47.29293" lon="-2.35765">
        <ele>52.400001525879</ele>
        <time>2021-06-20T09:55:37.000Z</time>
      </trkpt>
      <trkpt lat="47.29258" lon="-2.35734">
        <ele>52.400001525879</ele>
        <time>2021-06-20T09:55:44.000Z</time>
      </trkpt>
      <trkpt lat="47.29215" lon="-2.35695">
        <ele>52.400001525879</ele>
        <time>2021-06-20T09:55:52.000Z</time>
      </trkpt>
      <trkpt lat="47.29176" lon="-2.35657">
        <ele>52.400001525879</ele>
        <time>2021-06-20T09:56:00.000Z</time>
      </trkpt>
      <trkpt lat="47.29156" lon="-2.35649">
        <ele>52.400001525879</ele>
        <time>2021-06-20T09:56:04.000Z</time>
      </trkpt>
      <trkpt lat="47.29145" lon="-2.3565">
        <ele>52.400001525879</ele>
        <time>2021-06-20T09:56:06.000Z</time>
      </trkpt>
      <trkpt lat="47.29135" lon="-2.35656">
        <ele>52.400001525879</ele>
        <time>2021-06-20T09:56:08.000Z</time>
      </trkpt>
      <trkpt lat="47.29119" lon="-2.35659">
        <ele>52.400001525879</ele>
        <time>2021-06-20T09:56:11.000Z</time>
      </trkpt>
      <trkpt lat="47.29113" lon="-2.35657">
        <ele>52.400001525879</ele>
        <time>2021-06-20T09:56:12.000Z</time>
      </trkpt>
      <trkpt lat="47.29107" lon="-2.35657">
        <ele>52.400001525879</ele>
        <time>2021-06-20T09:56:13.000Z</time>
      </trkpt>
      <trkpt lat="47.29096" lon="-2.3566">
        <ele>52.400001525879</ele>
        <time>2021-06-20T09:56:15.000Z</time>
      </trkpt>
      <trkpt lat="47.29092" lon="-2.35658">
        <ele>52.400001525879</ele>
        <time>2021-06-20T09:56:16.000Z</time>
      </trkpt>
      <trkpt lat="47.29088" lon="-2.35654">
        <ele>52.400001525879</ele>
        <time>2021-06-20T09:56:17.000Z</time>
      </trkpt>
      <trkpt lat="47.29079" lon="-2.35642">
        <ele>52.400001525879</ele>
        <time>2021-06-20T09:56:20.000Z</time>
      </trkpt>
      <trkpt lat="47.29067" lon="-2.35651">
        <ele>52.400001525879</ele>
        <time>2021-06-20T09:56:23.000Z</time>
      </trkpt>
      <trkpt lat="47.2903" lon="-2.35691">
        <ele>52.400001525879</ele>
        <time>2021-06-20T09:56:32.000Z</time>
      </trkpt>
      <trkpt lat="47.29017" lon="-2.35701">
        <ele>52.400001525879</ele>
        <time>2021-06-20T09:56:35.000Z</time>
      </trkpt>
      <trkpt lat="47.29008" lon="-2.35702">
        <ele>52.400001525879</ele>
        <time>2021-06-20T09:56:37.000Z</time>
      </trkpt>
      <trkpt lat="47.28984" lon="-2.35691">
        <ele>52.400001525879</ele>
        <time>2021-06-20T09:56:42.000Z</time>
      </trkpt>
      <trkpt lat="47.28973" lon="-2.35673">
        <ele>52.400001525879</ele>
        <time>2021-06-20T09:56:45.000Z</time>
      </trkpt>
      <trkpt lat="47.28969" lon="-2.35667">
        <ele>52.400001525879</ele>
        <time>2021-06-20T09:56:46.000Z</time>
      </trkpt>
      <trkpt lat="47.28966" lon="-2.3566">
        <ele>52.799999237061</ele>
        <time>2021-06-20T09:56:47.000Z</time>
      </trkpt>
      <trkpt lat="47.28963" lon="-2.35653">
        <ele>53.200000762939</ele>
        <time>2021-06-20T09:56:48.000Z</time>
      </trkpt>
      <trkpt lat="47.2896" lon="-2.35645">
        <ele>53.599998474121</ele>
        <time>2021-06-20T09:56:49.000Z</time>
      </trkpt>
      <trkpt lat="47.28957" lon="-2.35638">
        <ele>54</ele>
        <time>2021-06-20T09:56:50.000Z</time>
      </trkpt>
      <trkpt lat="47.28954" lon="-2.35631">
        <ele>54.400001525879</ele>
        <time>2021-06-20T09:56:51.000Z</time>
      </trkpt>
      <trkpt lat="47.28949" lon="-2.35617">
        <ele>54.400001525879</ele>
        <time>2021-06-20T09:56:53.000Z</time>
      </trkpt>
      <trkpt lat="47.28931" lon="-2.35573">
        <ele>54</ele>
        <time>2021-06-20T09:56:59.000Z</time>
      </trkpt>
      <trkpt lat="47.28928" lon="-2.35565">
        <ele>53.599998474121</ele>
        <time>2021-06-20T09:57:00.000Z</time>
      </trkpt>
      <trkpt lat="47.28926" lon="-2.3556">
        <ele>53.200000762939</ele>
        <time>2021-06-20T09:57:01.000Z</time>
      </trkpt>
      <trkpt lat="47.28923" lon="-2.35556">
        <ele>52.799999237061</ele>
        <time>2021-06-20T09:57:02.000Z</time>
      </trkpt>
      <trkpt lat="47.28919" lon="-2.35556">
        <ele>52.400001525879</ele>
        <time>2021-06-20T09:57:03.000Z</time>
      </trkpt>
      <trkpt lat="47.28916" lon="-2.35558">
        <ele>52</ele>
        <time>2021-06-20T09:57:04.000Z</time>
      </trkpt>
      <trkpt lat="47.28912" lon="-2.35562">
        <ele>51.599998474121</ele>
        <time>2021-06-20T09:57:05.000Z</time>
      </trkpt>
      <trkpt lat="47.28909" lon="-2.35566">
        <ele>51.200000762939</ele>
        <time>2021-06-20T09:57:06.000Z</time>
      </trkpt>
      <trkpt lat="47.28906" lon="-2.35571">
        <ele>50.599998474121</ele>
        <time>2021-06-20T09:57:07.000Z</time>
      </trkpt>
      <trkpt lat="47.28903" lon="-2.35576">
        <ele>50.200000762939</ele>
        <time>2021-06-20T09:57:08.000Z</time>
      </trkpt>
      <trkpt lat="47.28899" lon="-2.35581">
        <ele>50.200000762939</ele>
        <time>2021-06-20T09:57:09.000Z</time>
      </trkpt>
      <trkpt lat="47.28874" lon="-2.3561">
        <ele>50.200000762939</ele>
        <time>2021-06-20T09:57:15.000Z</time>
      </trkpt>
      <trkpt lat="47.28834" lon="-2.35653">
        <ele>50.200000762939</ele>
        <time>2021-06-20T09:57:24.000Z</time>
      </trkpt>
      <trkpt lat="47.28809" lon="-2.35685">
        <ele>50.200000762939</ele>
        <time>2021-06-20T09:57:30.000Z</time>
      </trkpt>
      <trkpt lat="47.28806" lon="-2.35692">
        <ele>50.200000762939</ele>
        <time>2021-06-20T09:57:31.000Z</time>
      </trkpt>
      <trkpt lat="47.28781" lon="-2.3574">
        <ele>50.200000762939</ele>
        <time>2021-06-20T09:57:38.000Z</time>
      </trkpt>
      <trkpt lat="47.28764" lon="-2.35775">
        <ele>50.200000762939</ele>
        <time>2021-06-20T09:57:43.000Z</time>
      </trkpt>
      <trkpt lat="47.28756" lon="-2.35789">
        <ele>50.200000762939</ele>
        <time>2021-06-20T09:57:45.000Z</time>
      </trkpt>
      <trkpt lat="47.28749" lon="-2.35803">
        <ele>50.200000762939</ele>
        <time>2021-06-20T09:57:47.000Z</time>
      </trkpt>
      <trkpt lat="47.28739" lon="-2.35824">
        <ele>50.200000762939</ele>
        <time>2021-06-20T09:57:50.000Z</time>
      </trkpt>
      <trkpt lat="47.28712" lon="-2.35871">
        <ele>50.200000762939</ele>
        <time>2021-06-20T09:57:57.000Z</time>
      </trkpt>
      <trkpt lat="47.28677" lon="-2.35919">
        <ele>50.200000762939</ele>
        <time>2021-06-20T09:58:05.000Z</time>
      </trkpt>
      <trkpt lat="47.28663" lon="-2.35942">
        <ele>50.200000762939</ele>
        <time>2021-06-20T09:58:10.000Z</time>
      </trkpt>
      <trkpt lat="47.28663" lon="-2.3595">
        <ele>50.200000762939</ele>
        <time>2021-06-20T09:58:14.000Z</time>
      </trkpt>
      <trkpt lat="47.28663" lon="-2.35953">
        <ele>50.200000762939</ele>
        <time>2021-06-20T09:58:16.000Z</time>
      </trkpt>
      <trkpt lat="47.28664" lon="-2.35953">
        <ele>50.200000762939</ele>
        <time>2021-06-20T09:58:17.000Z</time>
      </trkpt>
      <trkpt lat="47.28663" lon="-2.35955">
        <ele>50.200000762939</ele>
        <time>2021-06-20T09:58:23.000Z</time>
      </trkpt>
      <trkpt lat="47.28657" lon="-2.35963">
        <ele>50.200000762939</ele>
        <time>2021-06-20T09:58:26.000Z</time>
      </trkpt>
      <trkpt lat="47.28653" lon="-2.35964">
        <ele>50.200000762939</ele>
        <time>2021-06-20T09:58:27.000Z</time>
      </trkpt>
      <trkpt lat="47.2863" lon="-2.35961">
        <ele>50.200000762939</ele>
        <time>2021-06-20T09:58:31.000Z</time>
      </trkpt>
      <trkpt lat="47.28618" lon="-2.35956">
        <ele>50.200000762939</ele>
        <time>2021-06-20T09:58:33.000Z</time>
      </trkpt>
      <trkpt lat="47.28612" lon="-2.35952">
        <ele>50.599998474121</ele>
        <time>2021-06-20T09:58:34.000Z</time>
      </trkpt>
      <trkpt lat="47.28607" lon="-2.35948">
        <ele>51</ele>
        <time>2021-06-20T09:58:35.000Z</time>
      </trkpt>
      <trkpt lat="47.28602" lon="-2.35942">
        <ele>51.599998474121</ele>
        <time>2021-06-20T09:58:36.000Z</time>
      </trkpt>
      <trkpt lat="47.28597" lon="-2.35936">
        <ele>52</ele>
        <time>2021-06-20T09:58:37.000Z</time>
      </trkpt>
      <trkpt lat="47.28592" lon="-2.35929">
        <ele>52.400001525879</ele>
        <time>2021-06-20T09:58:38.000Z</time>
      </trkpt>
      <trkpt lat="47.28583" lon="-2.35913">
        <ele>52.400001525879</ele>
        <time>2021-06-20T09:58:40.000Z</time>
      </trkpt>
      <trkpt lat="47.28576" lon="-2.35895">
        <ele>52.400001525879</ele>
        <time>2021-06-20T09:58:42.000Z</time>
      </trkpt>
      <trkpt lat="47.28557" lon="-2.35852">
        <ele>52</ele>
        <time>2021-06-20T09:58:47.000Z</time>
      </trkpt>
      <trkpt lat="47.28552" lon="-2.35846">
        <ele>51.400001525879</ele>
        <time>2021-06-20T09:58:48.000Z</time>
      </trkpt>
      <trkpt lat="47.28546" lon="-2.35841">
        <ele>51</ele>
        <time>2021-06-20T09:58:49.000Z</time>
      </trkpt>
      <trkpt lat="47.2854" lon="-2.35836">
        <ele>50.599998474121</ele>
        <time>2021-06-20T09:58:50.000Z</time>
      </trkpt>
      <trkpt lat="47.28534" lon="-2.35833">
        <ele>50</ele>
        <time>2021-06-20T09:58:51.000Z</time>
      </trkpt>
      <trkpt lat="47.28513" lon="-2.35824">
        <ele>50</ele>
        <time>2021-06-20T09:58:54.000Z</time>
      </trkpt>
      <trkpt lat="47.28468" lon="-2.3581">
        <ele>50</ele>
        <time>2021-06-20T09:59:01.000Z</time>
      </trkpt>
      <trkpt lat="47.28458" lon="-2.35805">
        <ele>49.599998474121</ele>
        <time>2021-06-20T09:59:03.000Z</time>
      </trkpt>
      <trkpt lat="47.28453" lon="-2.35803">
        <ele>49.200000762939</ele>
        <time>2021-06-20T09:59:04.000Z</time>
      </trkpt>
      <trkpt lat="47.28448" lon="-2.35801">
        <ele>48.799999237061</ele>
        <time>2021-06-20T09:59:05.000Z</time>
      </trkpt>
      <trkpt lat="47.28443" lon="-2.35799">
        <ele>48.400001525879</ele>
        <time>2021-06-20T09:59:06.000Z</time>
      </trkpt>
      <trkpt lat="47.28435" lon="-2.35798">
        <ele>48</ele>
        <time>2021-06-20T09:59:07.000Z</time>
      </trkpt>
      <trkpt lat="47.28417" lon="-2.3579">
        <ele>48</ele>
        <time>2021-06-20T09:59:10.000Z</time>
      </trkpt>
      <trkpt lat="47.28382" lon="-2.35776">
        <ele>48</ele>
        <time>2021-06-20T09:59:16.000Z</time>
      </trkpt>
      <trkpt lat="47.28345" lon="-2.35757">
        <ele>48</ele>
        <time>2021-06-20T09:59:22.000Z</time>
      </trkpt>
      <trkpt lat="47.28306" lon="-2.3573">
        <ele>48</ele>
        <time>2021-06-20T09:59:28.000Z</time>
      </trkpt>
      <trkpt lat="47.28269" lon="-2.35694">
        <ele>47.599998474121</ele>
        <time>2021-06-20T09:59:34.000Z</time>
      </trkpt>
      <trkpt lat="47.28263" lon="-2.35687">
        <ele>47.200000762939</ele>
        <time>2021-06-20T09:59:35.000Z</time>
      </trkpt>
      <trkpt lat="47.28257" lon="-2.3568">
        <ele>46.799999237061</ele>
        <time>2021-06-20T09:59:36.000Z</time>
      </trkpt>
      <trkpt lat="47.28251" lon="-2.35672">
        <ele>46.400001525879</ele>
        <time>2021-06-20T09:59:37.000Z</time>
      </trkpt>
      <trkpt lat="47.28246" lon="-2.35665">
        <ele>46</ele>
        <time>2021-06-20T09:59:38.000Z</time>
      </trkpt>
      <trkpt lat="47.28229" lon="-2.35644">
        <ele>46</ele>
        <time>2021-06-20T09:59:41.000Z</time>
      </trkpt>
      <trkpt lat="47.28213" lon="-2.35622">
        <ele>45.599998474121</ele>
        <time>2021-06-20T09:59:44.000Z</time>
      </trkpt>
      <trkpt lat="47.28208" lon="-2.35614">
        <ele>45</ele>
        <time>2021-06-20T09:59:45.000Z</time>
      </trkpt>
      <trkpt lat="47.28203" lon="-2.35607">
        <ele>44.599998474121</ele>
        <time>2021-06-20T09:59:46.000Z</time>
      </trkpt>
      <trkpt lat="47.28197" lon="-2.356">
        <ele>44.200000762939</ele>
        <time>2021-06-20T09:59:47.000Z</time>
      </trkpt>
      <trkpt lat="47.28192" lon="-2.35593">
        <ele>43.799999237061</ele>
        <time>2021-06-20T09:59:48.000Z</time>
      </trkpt>
      <trkpt lat="47.28171" lon="-2.35572">
        <ele>43.799999237061</ele>
        <time>2021-06-20T09:59:52.000Z</time>
      </trkpt>
      <trkpt lat="47.28161" lon="-2.35565">
        <ele>43.799999237061</ele>
        <time>2021-06-20T09:59:54.000Z</time>
      </trkpt>
      <trkpt lat="47.28143" lon="-2.3556">
        <ele>43.400001525879</ele>
        <time>2021-06-20T09:59:57.000Z</time>
      </trkpt>
      <trkpt lat="47.28137" lon="-2.35559">
        <ele>43</ele>
        <time>2021-06-20T09:59:58.000Z</time>
      </trkpt>
      <trkpt lat="47.2813" lon="-2.35558">
        <ele>42.599998474121</ele>
        <time>2021-06-20T09:59:59.000Z</time>
      </trkpt>
      <trkpt lat="47.28124" lon="-2.35557">
        <ele>42.200000762939</ele>
        <time>2021-06-20T10:00:00.000Z</time>
      </trkpt>
      <trkpt lat="47.28118" lon="-2.35557">
        <ele>41.799999237061</ele>
        <time>2021-06-20T10:00:01.000Z</time>
      </trkpt>
      <trkpt lat="47.28105" lon="-2.35556">
        <ele>41.799999237061</ele>
        <time>2021-06-20T10:00:03.000Z</time>
      </trkpt>
      <trkpt lat="47.28077" lon="-2.35554">
        <ele>41.400001525879</ele>
        <time>2021-06-20T10:00:07.000Z</time>
      </trkpt>
      <trkpt lat="47.28069" lon="-2.35554">
        <ele>41</ele>
        <time>2021-06-20T10:00:08.000Z</time>
      </trkpt>
      <trkpt lat="47.28061" lon="-2.35554">
        <ele>40.599998474121</ele>
        <time>2021-06-20T10:00:09.000Z</time>
      </trkpt>
      <trkpt lat="47.28054" lon="-2.35554">
        <ele>40.200000762939</ele>
        <time>2021-06-20T10:00:10.000Z</time>
      </trkpt>
      <trkpt lat="47.28046" lon="-2.35554">
        <ele>39.799999237061</ele>
        <time>2021-06-20T10:00:11.000Z</time>
      </trkpt>
      <trkpt lat="47.28008" lon="-2.35553">
        <ele>39.799999237061</ele>
        <time>2021-06-20T10:00:16.000Z</time>
      </trkpt>
      <trkpt lat="47.27981" lon="-2.35564">
        <ele>39.400001525879</ele>
        <time>2021-06-20T10:00:20.000Z</time>
      </trkpt>
      <trkpt lat="47.27974" lon="-2.35567">
        <ele>39</ele>
        <time>2021-06-20T10:00:21.000Z</time>
      </trkpt>
      <trkpt lat="47.27968" lon="-2.3557">
        <ele>38.599998474121</ele>
        <time>2021-06-20T10:00:22.000Z</time>
      </trkpt>
      <trkpt lat="47.27962" lon="-2.35572">
        <ele>38</ele>
        <time>2021-06-20T10:00:23.000Z</time>
      </trkpt>
      <trkpt lat="47.27956" lon="-2.35574">
        <ele>37.599998474121</ele>
        <time>2021-06-20T10:00:24.000Z</time>
      </trkpt>
      <trkpt lat="47.27938" lon="-2.35581">
        <ele>37.599998474121</ele>
        <time>2021-06-20T10:00:27.000Z</time>
      </trkpt>
      <trkpt lat="47.27891" lon="-2.35593">
        <ele>37.599998474121</ele>
        <time>2021-06-20T10:00:34.000Z</time>
      </trkpt>
      <trkpt lat="47.27868" lon="-2.35599">
        <ele>37.200000762939</ele>
        <time>2021-06-20T10:00:37.000Z</time>
      </trkpt>
      <trkpt lat="47.2786" lon="-2.35601">
        <ele>36.799999237061</ele>
        <time>2021-06-20T10:00:38.000Z</time>
      </trkpt>
      <trkpt lat="47.27852" lon="-2.35603">
        <ele>36.400001525879</ele>
        <time>2021-06-20T10:00:39.000Z</time>
      </trkpt>
      <trkpt lat="47.27844" lon="-2.35606">
        <ele>36</ele>
        <time>2021-06-20T10:00:40.000Z</time>
      </trkpt>
      <trkpt lat="47.27836" lon="-2.35608">
        <ele>35.599998474121</ele>
        <time>2021-06-20T10:00:41.000Z</time>
      </trkpt>
      <trkpt lat="47.27797" lon="-2.3562">
        <ele>35.599998474121</ele>
        <time>2021-06-20T10:00:46.000Z</time>
      </trkpt>
      <trkpt lat="47.27789" lon="-2.35624">
        <ele>35.200000762939</ele>
        <time>2021-06-20T10:00:47.000Z</time>
      </trkpt>
      <trkpt lat="47.27782" lon="-2.35629">
        <ele>34.799999237061</ele>
        <time>2021-06-20T10:00:48.000Z</time>
      </trkpt>
      <trkpt lat="47.27775" lon="-2.35634">
        <ele>34.200000762939</ele>
        <time>2021-06-20T10:00:49.000Z</time>
      </trkpt>
      <trkpt lat="47.27769" lon="-2.3564">
        <ele>33.799999237061</ele>
        <time>2021-06-20T10:00:50.000Z</time>
      </trkpt>
      <trkpt lat="47.27763" lon="-2.35646">
        <ele>33.400001525879</ele>
        <time>2021-06-20T10:00:51.000Z</time>
      </trkpt>
      <trkpt lat="47.27748" lon="-2.35667">
        <ele>33</ele>
        <time>2021-06-20T10:00:54.000Z</time>
      </trkpt>
      <trkpt lat="47.27742" lon="-2.35675">
        <ele>32.599998474121</ele>
        <time>2021-06-20T10:00:55.000Z</time>
      </trkpt>
      <trkpt lat="47.27738" lon="-2.35683">
        <ele>32.200000762939</ele>
        <time>2021-06-20T10:00:56.000Z</time>
      </trkpt>
      <trkpt lat="47.27733" lon="-2.3569">
        <ele>31.799999237061</ele>
        <time>2021-06-20T10:00:57.000Z</time>
      </trkpt>
      <trkpt lat="47.27728" lon="-2.35698">
        <ele>31.39999961853</ele>
        <time>2021-06-20T10:00:58.000Z</time>
      </trkpt>
      <trkpt lat="47.27704" lon="-2.35724">
        <ele>31.39999961853</ele>
        <time>2021-06-20T10:01:02.000Z</time>
      </trkpt>
      <trkpt lat="47.27686" lon="-2.3574">
        <ele>31.39999961853</ele>
        <time>2021-06-20T10:01:05.000Z</time>
      </trkpt>
      <trkpt lat="47.27681" lon="-2.35745">
        <ele>30.60000038147</ele>
        <time>2021-06-20T10:01:06.000Z</time>
      </trkpt>
      <trkpt lat="47.27676" lon="-2.35746">
        <ele>30</ele>
        <time>2021-06-20T10:01:07.000Z</time>
      </trkpt>
      <trkpt lat="47.2767" lon="-2.35744">
        <ele>29.60000038147</ele>
        <time>2021-06-20T10:01:08.000Z</time>
      </trkpt>
      <trkpt lat="47.27665" lon="-2.35739">
        <ele>29.200000762939</ele>
        <time>2021-06-20T10:01:09.000Z</time>
      </trkpt>
      <trkpt lat="47.27659" lon="-2.35732">
        <ele>29.200000762939</ele>
        <time>2021-06-20T10:01:10.000Z</time>
      </trkpt>
      <trkpt lat="47.27654" lon="-2.35726">
        <ele>29.200000762939</ele>
        <time>2021-06-20T10:01:11.000Z</time>
      </trkpt>
      <trkpt lat="47.27649" lon="-2.35721">
        <ele>29.200000762939</ele>
        <time>2021-06-20T10:01:12.000Z</time>
      </trkpt>
      <trkpt lat="47.2763" lon="-2.35713">
        <ele>29.200000762939</ele>
        <time>2021-06-20T10:01:15.000Z</time>
      </trkpt>
      <trkpt lat="47.27587" lon="-2.35704">
        <ele>29.200000762939</ele>
        <time>2021-06-20T10:01:20.000Z</time>
      </trkpt>
      <trkpt lat="47.27534" lon="-2.35693">
        <ele>28.799999237061</ele>
        <time>2021-06-20T10:01:27.000Z</time>
      </trkpt>
      <trkpt lat="47.27527" lon="-2.35691">
        <ele>28.39999961853</ele>
        <time>2021-06-20T10:01:28.000Z</time>
      </trkpt>
      <trkpt lat="47.2752" lon="-2.35689">
        <ele>28</ele>
        <time>2021-06-20T10:01:29.000Z</time>
      </trkpt>
      <trkpt lat="47.27512" lon="-2.35687">
        <ele>27.200000762939</ele>
        <time>2021-06-20T10:01:30.000Z</time>
      </trkpt>
      <trkpt lat="47.27484" lon="-2.35679">
        <ele>27.200000762939</ele>
        <time>2021-06-20T10:01:34.000Z</time>
      </trkpt>
      <trkpt lat="47.27477" lon="-2.35677">
        <ele>26.799999237061</ele>
        <time>2021-06-20T10:01:35.000Z</time>
      </trkpt>
      <trkpt lat="47.2747" lon="-2.35676">
        <ele>26.39999961853</ele>
        <time>2021-06-20T10:01:36.000Z</time>
      </trkpt>
      <trkpt lat="47.27463" lon="-2.35674">
        <ele>26</ele>
        <time>2021-06-20T10:01:37.000Z</time>
      </trkpt>
      <trkpt lat="47.27457" lon="-2.35673">
        <ele>25.60000038147</ele>
        <time>2021-06-20T10:01:38.000Z</time>
      </trkpt>
      <trkpt lat="47.2745" lon="-2.35671">
        <ele>25.200000762939</ele>
        <time>2021-06-20T10:01:39.000Z</time>
      </trkpt>
      <trkpt lat="47.2743" lon="-2.35666">
        <ele>25.200000762939</ele>
        <time>2021-06-20T10:01:42.000Z</time>
      </trkpt>
      <trkpt lat="47.27417" lon="-2.35664">
        <ele>25.200000762939</ele>
        <time>2021-06-20T10:01:44.000Z</time>
      </trkpt>
      <trkpt lat="47.27397" lon="-2.35668">
        <ele>25.200000762939</ele>
        <time>2021-06-20T10:01:47.000Z</time>
      </trkpt>
      <trkpt lat="47.27368" lon="-2.35687">
        <ele>25.200000762939</ele>
        <time>2021-06-20T10:01:52.000Z</time>
      </trkpt>
      <trkpt lat="47.27363" lon="-2.35691">
        <ele>24.799999237061</ele>
        <time>2021-06-20T10:01:53.000Z</time>
      </trkpt>
      <trkpt lat="47.27357" lon="-2.35696">
        <ele>24.200000762939</ele>
        <time>2021-06-20T10:01:54.000Z</time>
      </trkpt>
      <trkpt lat="47.27352" lon="-2.357">
        <ele>23.39999961853</ele>
        <time>2021-06-20T10:01:55.000Z</time>
      </trkpt>
      <trkpt lat="47.27348" lon="-2.35704">
        <ele>23</ele>
        <time>2021-06-20T10:01:56.000Z</time>
      </trkpt>
      <trkpt lat="47.27339" lon="-2.3571">
        <ele>23</ele>
        <time>2021-06-20T10:01:58.000Z</time>
      </trkpt>
      <trkpt lat="47.27334" lon="-2.35714">
        <ele>23</ele>
        <time>2021-06-20T10:01:59.000Z</time>
      </trkpt>
      <trkpt lat="47.27326" lon="-2.35725">
        <ele>23</ele>
        <time>2021-06-20T10:02:02.000Z</time>
      </trkpt>
      <trkpt lat="47.27324" lon="-2.35727">
        <ele>23</ele>
        <time>2021-06-20T10:02:05.000Z</time>
      </trkpt>
      <trkpt lat="47.27324" lon="-2.35728">
        <ele>23</ele>
        <time>2021-06-20T10:02:08.000Z</time>
      </trkpt>
      <trkpt lat="47.27315" lon="-2.35739">
        <ele>23</ele>
        <time>2021-06-20T10:02:13.000Z</time>
      </trkpt>
      <trkpt lat="47.27306" lon="-2.3573">
        <ele>23</ele>
        <time>2021-06-20T10:02:16.000Z</time>
      </trkpt>
      <trkpt lat="47.27295" lon="-2.35704">
        <ele>23</ele>
        <time>2021-06-20T10:02:20.000Z</time>
      </trkpt>
      <trkpt lat="47.27292" lon="-2.35697">
        <ele>23</ele>
        <time>2021-06-20T10:02:21.000Z</time>
      </trkpt>
      <trkpt lat="47.27284" lon="-2.35683">
        <ele>23.39999961853</ele>
        <time>2021-06-20T10:02:23.000Z</time>
      </trkpt>
      <trkpt lat="47.2728" lon="-2.35676">
        <ele>24</ele>
        <time>2021-06-20T10:02:24.000Z</time>
      </trkpt>
      <trkpt lat="47.27276" lon="-2.35668">
        <ele>24.39999961853</ele>
        <time>2021-06-20T10:02:25.000Z</time>
      </trkpt>
      <trkpt lat="47.27273" lon="-2.3566">
        <ele>24.799999237061</ele>
        <time>2021-06-20T10:02:26.000Z</time>
      </trkpt>
      <trkpt lat="47.2727" lon="-2.35652">
        <ele>25.200000762939</ele>
        <time>2021-06-20T10:02:27.000Z</time>
      </trkpt>
      <trkpt lat="47.27241" lon="-2.35591">
        <ele>25.200000762939</ele>
        <time>2021-06-20T10:02:35.000Z</time>
      </trkpt>
      <trkpt lat="47.27212" lon="-2.35524">
        <ele>25.60000038147</ele>
        <time>2021-06-20T10:02:44.000Z</time>
      </trkpt>
      <trkpt lat="47.27208" lon="-2.35517">
        <ele>26</ele>
        <time>2021-06-20T10:02:45.000Z</time>
      </trkpt>
      <trkpt lat="47.27205" lon="-2.3551">
        <ele>26.39999961853</ele>
        <time>2021-06-20T10:02:46.000Z</time>
      </trkpt>
      <trkpt lat="47.27202" lon="-2.35502">
        <ele>26.799999237061</ele>
        <time>2021-06-20T10:02:47.000Z</time>
      </trkpt>
      <trkpt lat="47.27198" lon="-2.35495">
        <ele>27.200000762939</ele>
        <time>2021-06-20T10:02:48.000Z</time>
      </trkpt>
      <trkpt lat="47.27183" lon="-2.35465">
        <ele>27.200000762939</ele>
        <time>2021-06-20T10:02:52.000Z</time>
      </trkpt>
      <trkpt lat="47.27147" lon="-2.35398">
        <ele>27.200000762939</ele>
        <time>2021-06-20T10:03:01.000Z</time>
      </trkpt>
      <trkpt lat="47.27143" lon="-2.35391">
        <ele>27.200000762939</ele>
        <time>2021-06-20T10:03:02.000Z</time>
      </trkpt>
      <trkpt lat="47.27108" lon="-2.35331">
        <ele>27.200000762939</ele>
        <time>2021-06-20T10:03:10.000Z</time>
      </trkpt>
      <trkpt lat="47.27071" lon="-2.35272">
        <ele>27.200000762939</ele>
        <time>2021-06-20T10:03:18.000Z</time>
      </trkpt>
      <trkpt lat="47.27033" lon="-2.35215">
        <ele>27.200000762939</ele>
        <time>2021-06-20T10:03:26.000Z</time>
      </trkpt>
      <trkpt lat="47.27023" lon="-2.352">
        <ele>27.200000762939</ele>
        <time>2021-06-20T10:03:28.000Z</time>
      </trkpt>
      <trkpt lat="47.26986" lon="-2.35146">
        <ele>27.200000762939</ele>
        <time>2021-06-20T10:03:36.000Z</time>
      </trkpt>
      <trkpt lat="47.26954" lon="-2.35098">
        <ele>27.200000762939</ele>
        <time>2021-06-20T10:03:43.000Z</time>
      </trkpt>
      <trkpt lat="47.26917" lon="-2.3504">
        <ele>27.200000762939</ele>
        <time>2021-06-20T10:03:51.000Z</time>
      </trkpt>
      <trkpt lat="47.26883" lon="-2.3499">
        <ele>27.200000762939</ele>
        <time>2021-06-20T10:03:58.000Z</time>
      </trkpt>
      <trkpt lat="47.26845" lon="-2.34931">
        <ele>27.200000762939</ele>
        <time>2021-06-20T10:04:06.000Z</time>
      </trkpt>
      <trkpt lat="47.26811" lon="-2.3488">
        <ele>27.200000762939</ele>
        <time>2021-06-20T10:04:13.000Z</time>
      </trkpt>
      <trkpt lat="47.26771" lon="-2.34824">
        <ele>27.200000762939</ele>
        <time>2021-06-20T10:04:21.000Z</time>
      </trkpt>
      <trkpt lat="47.26766" lon="-2.34818">
        <ele>27.200000762939</ele>
        <time>2021-06-20T10:04:22.000Z</time>
      </trkpt>
      <trkpt lat="47.26738" lon="-2.34781">
        <ele>27.200000762939</ele>
        <time>2021-06-20T10:04:28.000Z</time>
      </trkpt>
      <trkpt lat="47.26693" lon="-2.34727">
        <ele>27.200000762939</ele>
        <time>2021-06-20T10:04:37.000Z</time>
      </trkpt>
      <trkpt lat="47.26688" lon="-2.3472">
        <ele>27.200000762939</ele>
        <time>2021-06-20T10:04:38.000Z</time>
      </trkpt>
      <trkpt lat="47.2665" lon="-2.34674">
        <ele>27.200000762939</ele>
        <time>2021-06-20T10:04:45.000Z</time>
      </trkpt>
      <trkpt lat="47.26613" lon="-2.34628">
        <ele>27.200000762939</ele>
        <time>2021-06-20T10:04:52.000Z</time>
      </trkpt>
      <trkpt lat="47.26568" lon="-2.34576">
        <ele>27.200000762939</ele>
        <time>2021-06-20T10:05:00.000Z</time>
      </trkpt>
      <trkpt lat="47.26529" lon="-2.34534">
        <ele>27.200000762939</ele>
        <time>2021-06-20T10:05:07.000Z</time>
      </trkpt>
      <trkpt lat="47.2652" lon="-2.34525">
        <ele>27.200000762939</ele>
        <time>2021-06-20T10:05:10.000Z</time>
      </trkpt>
      <trkpt lat="47.26517" lon="-2.34522">
        <ele>26.799999237061</ele>
        <time>2021-06-20T10:05:11.000Z</time>
      </trkpt>
      <trkpt lat="47.26514" lon="-2.34518">
        <ele>25.799999237061</ele>
        <time>2021-06-20T10:05:12.000Z</time>
      </trkpt>
      <trkpt lat="47.26511" lon="-2.34515">
        <ele>25.39999961853</ele>
        <time>2021-06-20T10:05:13.000Z</time>
      </trkpt>
      <trkpt lat="47.26506" lon="-2.34513">
        <ele>24.799999237061</ele>
        <time>2021-06-20T10:05:14.000Z</time>
      </trkpt>
      <trkpt lat="47.26502" lon="-2.34509">
        <ele>24.799999237061</ele>
        <time>2021-06-20T10:05:15.000Z</time>
      </trkpt>
      <trkpt lat="47.26472" lon="-2.3449">
        <ele>24.799999237061</ele>
        <time>2021-06-20T10:05:20.000Z</time>
      </trkpt>
      <trkpt lat="47.26428" lon="-2.34459">
        <ele>24.799999237061</ele>
        <time>2021-06-20T10:05:27.000Z</time>
      </trkpt>
      <trkpt lat="47.26385" lon="-2.34425">
        <ele>24.799999237061</ele>
        <time>2021-06-20T10:05:34.000Z</time>
      </trkpt>
      <trkpt lat="47.26342" lon="-2.34387">
        <ele>24.799999237061</ele>
        <time>2021-06-20T10:05:41.000Z</time>
      </trkpt>
      <trkpt lat="47.2633" lon="-2.3438">
        <ele>24.799999237061</ele>
        <time>2021-06-20T10:05:43.000Z</time>
      </trkpt>
      <trkpt lat="47.26318" lon="-2.34373">
        <ele>24.799999237061</ele>
        <time>2021-06-20T10:05:45.000Z</time>
      </trkpt>
      <trkpt lat="47.26307" lon="-2.34352">
        <ele>24.799999237061</ele>
        <time>2021-06-20T10:05:48.000Z</time>
      </trkpt>
      <trkpt lat="47.26302" lon="-2.34346">
        <ele>24.799999237061</ele>
        <time>2021-06-20T10:05:49.000Z</time>
      </trkpt>
      <trkpt lat="47.2629" lon="-2.34335">
        <ele>24.799999237061</ele>
        <time>2021-06-20T10:05:51.000Z</time>
      </trkpt>
      <trkpt lat="47.26249" lon="-2.34294">
        <ele>24.799999237061</ele>
        <time>2021-06-20T10:05:58.000Z</time>
      </trkpt>
      <trkpt lat="47.262" lon="-2.34245">
        <ele>24.799999237061</ele>
        <time>2021-06-20T10:06:06.000Z</time>
      </trkpt>
      <trkpt lat="47.26153" lon="-2.34195">
        <ele>24.799999237061</ele>
        <time>2021-06-20T10:06:14.000Z</time>
      </trkpt>
      <trkpt lat="47.26146" lon="-2.3419">
        <ele>24.799999237061</ele>
        <time>2021-06-20T10:06:15.000Z</time>
      </trkpt>
      <trkpt lat="47.26127" lon="-2.34179">
        <ele>24.799999237061</ele>
        <time>2021-06-20T10:06:18.000Z</time>
      </trkpt>
      <trkpt lat="47.26115" lon="-2.34168">
        <ele>24.799999237061</ele>
        <time>2021-06-20T10:06:20.000Z</time>
      </trkpt>
      <trkpt lat="47.26109" lon="-2.34163">
        <ele>24.799999237061</ele>
        <time>2021-06-20T10:06:21.000Z</time>
      </trkpt>
      <trkpt lat="47.26102" lon="-2.34158">
        <ele>24.799999237061</ele>
        <time>2021-06-20T10:06:22.000Z</time>
      </trkpt>
      <trkpt lat="47.26059" lon="-2.34137">
        <ele>24.799999237061</ele>
        <time>2021-06-20T10:06:28.000Z</time>
      </trkpt>
      <trkpt lat="47.26009" lon="-2.34112">
        <ele>24.799999237061</ele>
        <time>2021-06-20T10:06:35.000Z</time>
      </trkpt>
      <trkpt lat="47.25954" lon="-2.34087">
        <ele>24.799999237061</ele>
        <time>2021-06-20T10:06:43.000Z</time>
      </trkpt>
      <trkpt lat="47.25922" lon="-2.34073">
        <ele>24.799999237061</ele>
        <time>2021-06-20T10:06:48.000Z</time>
      </trkpt>
      <trkpt lat="47.25915" lon="-2.34074">
        <ele>24.799999237061</ele>
        <time>2021-06-20T10:06:49.000Z</time>
      </trkpt>
      <trkpt lat="47.25898" lon="-2.34088">
        <ele>24.799999237061</ele>
        <time>2021-06-20T10:06:52.000Z</time>
      </trkpt>
      <trkpt lat="47.25887" lon="-2.34116">
        <ele>24.799999237061</ele>
        <time>2021-06-20T10:06:55.000Z</time>
      </trkpt>
      <trkpt lat="47.25884" lon="-2.34125">
        <ele>24.799999237061</ele>
        <time>2021-06-20T10:06:56.000Z</time>
      </trkpt>
      <trkpt lat="47.2588" lon="-2.34133">
        <ele>24.39999961853</ele>
        <time>2021-06-20T10:06:57.000Z</time>
      </trkpt>
      <trkpt lat="47.25877" lon="-2.34142">
        <ele>24</ele>
        <time>2021-06-20T10:06:58.000Z</time>
      </trkpt>
      <trkpt lat="47.25873" lon="-2.3415">
        <ele>23.60000038147</ele>
        <time>2021-06-20T10:06:59.000Z</time>
      </trkpt>
      <trkpt lat="47.2587" lon="-2.34156">
        <ele>23.200000762939</ele>
        <time>2021-06-20T10:07:00.000Z</time>
      </trkpt>
      <trkpt lat="47.25867" lon="-2.34161">
        <ele>22.799999237061</ele>
        <time>2021-06-20T10:07:01.000Z</time>
      </trkpt>
      <trkpt lat="47.25863" lon="-2.34163">
        <ele>22.799999237061</ele>
        <time>2021-06-20T10:07:02.000Z</time>
      </trkpt>
      <trkpt lat="47.25857" lon="-2.3416">
        <ele>22.799999237061</ele>
        <time>2021-06-20T10:07:04.000Z</time>
      </trkpt>
      <trkpt lat="47.25833" lon="-2.34156">
        <ele>22.799999237061</ele>
        <time>2021-06-20T10:07:11.000Z</time>
      </trkpt>
      <trkpt lat="47.25826" lon="-2.34174">
        <ele>22.799999237061</ele>
        <time>2021-06-20T10:07:15.000Z</time>
      </trkpt>
      <trkpt lat="47.25819" lon="-2.34174">
        <ele>22.799999237061</ele>
        <time>2021-06-20T10:07:18.000Z</time>
      </trkpt>
      <trkpt lat="47.25814" lon="-2.34176">
        <ele>22.799999237061</ele>
        <time>2021-06-20T10:07:20.000Z</time>
      </trkpt>
      <trkpt lat="47.25809" lon="-2.34177">
        <ele>22.799999237061</ele>
        <time>2021-06-20T10:07:21.000Z</time>
      </trkpt>
      <trkpt lat="47.25804" lon="-2.34177">
        <ele>22.799999237061</ele>
        <time>2021-06-20T10:07:22.000Z</time>
      </trkpt>
      <trkpt lat="47.25791" lon="-2.34175">
        <ele>22.799999237061</ele>
        <time>2021-06-20T10:07:25.000Z</time>
      </trkpt>
      <trkpt lat="47.25786" lon="-2.34176">
        <ele>22.799999237061</ele>
        <time>2021-06-20T10:07:26.000Z</time>
      </trkpt>
      <trkpt lat="47.25769" lon="-2.34179">
        <ele>22.799999237061</ele>
        <time>2021-06-20T10:07:29.000Z</time>
      </trkpt>
      <trkpt lat="47.25762" lon="-2.3418">
        <ele>22.799999237061</ele>
        <time>2021-06-20T10:07:30.000Z</time>
      </trkpt>
      <trkpt lat="47.25736" lon="-2.34184">
        <ele>22.799999237061</ele>
        <time>2021-06-20T10:07:34.000Z</time>
      </trkpt>
      <trkpt lat="47.25723" lon="-2.34186">
        <ele>22.799999237061</ele>
        <time>2021-06-20T10:07:36.000Z</time>
      </trkpt>
      <trkpt lat="47.25717" lon="-2.34188">
        <ele>22.799999237061</ele>
        <time>2021-06-20T10:07:37.000Z</time>
      </trkpt>
      <trkpt lat="47.257" lon="-2.34192">
        <ele>22.799999237061</ele>
        <time>2021-06-20T10:07:40.000Z</time>
      </trkpt>
      <trkpt lat="47.25684" lon="-2.34193">
        <ele>22.799999237061</ele>
        <time>2021-06-20T10:07:43.000Z</time>
      </trkpt>
      <trkpt lat="47.25675" lon="-2.34189">
        <ele>22.799999237061</ele>
        <time>2021-06-20T10:07:45.000Z</time>
      </trkpt>
      <trkpt lat="47.25663" lon="-2.34173">
        <ele>22.799999237061</ele>
        <time>2021-06-20T10:07:48.000Z</time>
      </trkpt>
      <trkpt lat="47.25659" lon="-2.34167">
        <ele>23.200000762939</ele>
        <time>2021-06-20T10:07:49.000Z</time>
      </trkpt>
      <trkpt lat="47.25656" lon="-2.34162">
        <ele>23.60000038147</ele>
        <time>2021-06-20T10:07:50.000Z</time>
      </trkpt>
      <trkpt lat="47.25652" lon="-2.34156">
        <ele>24</ele>
        <time>2021-06-20T10:07:51.000Z</time>
      </trkpt>
      <trkpt lat="47.25649" lon="-2.3415">
        <ele>24.60000038147</ele>
        <time>2021-06-20T10:07:52.000Z</time>
      </trkpt>
      <trkpt lat="47.25646" lon="-2.34144">
        <ele>25</ele>
        <time>2021-06-20T10:07:53.000Z</time>
      </trkpt>
      <trkpt lat="47.25642" lon="-2.34129">
        <ele>25</ele>
        <time>2021-06-20T10:07:55.000Z</time>
      </trkpt>
      <trkpt lat="47.2564" lon="-2.34113">
        <ele>25</ele>
        <time>2021-06-20T10:07:57.000Z</time>
      </trkpt>
      <trkpt lat="47.25639" lon="-2.34081">
        <ele>25</ele>
        <time>2021-06-20T10:08:01.000Z</time>
      </trkpt>
      <trkpt lat="47.25645" lon="-2.34039">
        <ele>25</ele>
        <time>2021-06-20T10:08:06.000Z</time>
      </trkpt>
      <trkpt lat="47.25655" lon="-2.33983">
        <ele>25</ele>
        <time>2021-06-20T10:08:13.000Z</time>
      </trkpt>
      <trkpt lat="47.2566" lon="-2.33946">
        <ele>25</ele>
        <time>2021-06-20T10:08:18.000Z</time>
      </trkpt>
      <trkpt lat="47.25652" lon="-2.33902">
        <ele>25</ele>
        <time>2021-06-20T10:08:24.000Z</time>
      </trkpt>
      <trkpt lat="47.25641" lon="-2.33839">
        <ele>25</ele>
        <time>2021-06-20T10:08:32.000Z</time>
      </trkpt>
      <trkpt lat="47.25636" lon="-2.33816">
        <ele>25.39999961853</ele>
        <time>2021-06-20T10:08:35.000Z</time>
      </trkpt>
      <trkpt lat="47.25634" lon="-2.33807">
        <ele>25.799999237061</ele>
        <time>2021-06-20T10:08:36.000Z</time>
      </trkpt>
      <trkpt lat="47.25632" lon="-2.33799">
        <ele>26.200000762939</ele>
        <time>2021-06-20T10:08:37.000Z</time>
      </trkpt>
      <trkpt lat="47.25629" lon="-2.33792">
        <ele>26.60000038147</ele>
        <time>2021-06-20T10:08:38.000Z</time>
      </trkpt>
      <trkpt lat="47.25627" lon="-2.33785">
        <ele>27.200000762939</ele>
        <time>2021-06-20T10:08:39.000Z</time>
      </trkpt>
      <trkpt lat="47.25625" lon="-2.33779">
        <ele>27.200000762939</ele>
        <time>2021-06-20T10:08:40.000Z</time>
      </trkpt>
      <trkpt lat="47.25614" lon="-2.33765">
        <ele>27.200000762939</ele>
        <time>2021-06-20T10:08:43.000Z</time>
      </trkpt>
      <trkpt lat="47.25594" lon="-2.33759">
        <ele>27.200000762939</ele>
        <time>2021-06-20T10:08:47.000Z</time>
      </trkpt>
      <trkpt lat="47.25588" lon="-2.33758">
        <ele>27.200000762939</ele>
        <time>2021-06-20T10:08:48.000Z</time>
      </trkpt>
      <trkpt lat="47.25554" lon="-2.33759">
        <ele>27.200000762939</ele>
        <time>2021-06-20T10:08:54.000Z</time>
      </trkpt>
      <trkpt lat="47.25498" lon="-2.3376">
        <ele>26.799999237061</ele>
        <time>2021-06-20T10:09:03.000Z</time>
      </trkpt>
      <trkpt lat="47.25491" lon="-2.3376">
        <ele>26.200000762939</ele>
        <time>2021-06-20T10:09:04.000Z</time>
      </trkpt>
      <trkpt lat="47.25485" lon="-2.33758">
        <ele>25.799999237061</ele>
        <time>2021-06-20T10:09:05.000Z</time>
      </trkpt>
      <trkpt lat="47.25479" lon="-2.33756">
        <ele>25.39999961853</ele>
        <time>2021-06-20T10:09:06.000Z</time>
      </trkpt>
      <trkpt lat="47.25472" lon="-2.33754">
        <ele>25</ele>
        <time>2021-06-20T10:09:07.000Z</time>
      </trkpt>
      <trkpt lat="47.25465" lon="-2.33752">
        <ele>25</ele>
        <time>2021-06-20T10:09:08.000Z</time>
      </trkpt>
      <trkpt lat="47.25459" lon="-2.33748">
        <ele>25</ele>
        <time>2021-06-20T10:09:09.000Z</time>
      </trkpt>
      <trkpt lat="47.2545" lon="-2.33735">
        <ele>25</ele>
        <time>2021-06-20T10:09:11.000Z</time>
      </trkpt>
      <trkpt lat="47.25446" lon="-2.33708">
        <ele>25</ele>
        <time>2021-06-20T10:09:14.000Z</time>
      </trkpt>
      <trkpt lat="47.2544" lon="-2.33652">
        <ele>25</ele>
        <time>2021-06-20T10:09:21.000Z</time>
      </trkpt>
      <trkpt lat="47.25435" lon="-2.33617">
        <ele>25</ele>
        <time>2021-06-20T10:09:26.000Z</time>
      </trkpt>
      <trkpt lat="47.25434" lon="-2.3361">
        <ele>25</ele>
        <time>2021-06-20T10:09:27.000Z</time>
      </trkpt>
      <trkpt lat="47.25436" lon="-2.33582">
        <ele>25</ele>
        <time>2021-06-20T10:09:32.000Z</time>
      </trkpt>
      <trkpt lat="47.25439" lon="-2.33579">
        <ele>25</ele>
        <time>2021-06-20T10:09:33.000Z</time>
      </trkpt>
      <trkpt lat="47.25447" lon="-2.33576">
        <ele>25</ele>
        <time>2021-06-20T10:09:35.000Z</time>
      </trkpt>
      <trkpt lat="47.25448" lon="-2.33565">
        <ele>25</ele>
        <time>2021-06-20T10:09:38.000Z</time>
      </trkpt>
      <trkpt lat="47.25447" lon="-2.3356">
        <ele>25</ele>
        <time>2021-06-20T10:09:39.000Z</time>
      </trkpt>
      <trkpt lat="47.25443" lon="-2.33531">
        <ele>25</ele>
        <time>2021-06-20T10:09:44.000Z</time>
      </trkpt>
      <trkpt lat="47.25442" lon="-2.33525">
        <ele>25</ele>
        <time>2021-06-20T10:09:45.000Z</time>
      </trkpt>
      <trkpt lat="47.25438" lon="-2.335">
        <ele>25</ele>
        <time>2021-06-20T10:09:49.000Z</time>
      </trkpt>
      <trkpt lat="47.25432" lon="-2.33467">
        <ele>25</ele>
        <time>2021-06-20T10:09:54.000Z</time>
      </trkpt>
      <trkpt lat="47.2543" lon="-2.33455">
        <ele>25</ele>
        <time>2021-06-20T10:09:56.000Z</time>
      </trkpt>
      <trkpt lat="47.25428" lon="-2.33442">
        <ele>25</ele>
        <time>2021-06-20T10:09:58.000Z</time>
      </trkpt>
      <trkpt lat="47.25428" lon="-2.3342">
        <ele>25</ele>
        <time>2021-06-20T10:10:01.000Z</time>
      </trkpt>
      <trkpt lat="47.25427" lon="-2.33361">
        <ele>25</ele>
        <time>2021-06-20T10:10:09.000Z</time>
      </trkpt>
      <trkpt lat="47.25429" lon="-2.33347">
        <ele>25</ele>
        <time>2021-06-20T10:10:11.000Z</time>
      </trkpt>
      <trkpt lat="47.25436" lon="-2.33327">
        <ele>25</ele>
        <time>2021-06-20T10:10:14.000Z</time>
      </trkpt>
      <trkpt lat="47.25448" lon="-2.33294">
        <ele>25</ele>
        <time>2021-06-20T10:10:19.000Z</time>
      </trkpt>
      <trkpt lat="47.25448" lon="-2.33287">
        <ele>25</ele>
        <time>2021-06-20T10:10:20.000Z</time>
      </trkpt>
      <trkpt lat="47.25442" lon="-2.33265">
        <ele>25</ele>
        <time>2021-06-20T10:10:23.000Z</time>
      </trkpt>
      <trkpt lat="47.25439" lon="-2.33259">
        <ele>25</ele>
        <time>2021-06-20T10:10:24.000Z</time>
      </trkpt>
      <trkpt lat="47.25416" lon="-2.33204">
        <ele>25</ele>
        <time>2021-06-20T10:10:33.000Z</time>
      </trkpt>
      <trkpt lat="47.25396" lon="-2.33158">
        <ele>25</ele>
        <time>2021-06-20T10:10:40.000Z</time>
      </trkpt>
      <trkpt lat="47.2539" lon="-2.33148">
        <ele>25</ele>
        <time>2021-06-20T10:10:42.000Z</time>
      </trkpt>
      <trkpt lat="47.25383" lon="-2.33141">
        <ele>25</ele>
        <time>2021-06-20T10:10:44.000Z</time>
      </trkpt>
      <trkpt lat="47.25374" lon="-2.33122">
        <ele>25</ele>
        <time>2021-06-20T10:10:48.000Z</time>
      </trkpt>
      <trkpt lat="47.25373" lon="-2.33118">
        <ele>25</ele>
        <time>2021-06-20T10:10:49.000Z</time>
      </trkpt>
      <trkpt lat="47.25366" lon="-2.33104">
        <ele>25</ele>
        <time>2021-06-20T10:10:54.000Z</time>
      </trkpt>
      <trkpt lat="47.25366" lon="-2.33104">
        <ele>25</ele>
        <time>2021-06-20T10:10:55.000Z</time>
      </trkpt>
      <trkpt lat="47.25366" lon="-2.33099">
        <ele>25</ele>
        <time>2021-06-20T10:20:58.000Z</time>
      </trkpt>
      <trkpt lat="47.25364" lon="-2.33095">
        <ele>25</ele>
        <time>2021-06-20T10:21:00.000Z</time>
      </trkpt>
      <trkpt lat="47.2536" lon="-2.33082">
        <ele>25</ele>
        <time>2021-06-20T10:21:03.000Z</time>
      </trkpt>
      <trkpt lat="47.25357" lon="-2.33074">
        <ele>25</ele>
        <time>2021-06-20T10:21:05.000Z</time>
      </trkpt>
      <trkpt lat="47.25348" lon="-2.33045">
        <ele>25</ele>
        <time>2021-06-20T10:21:11.000Z</time>
      </trkpt>
      <trkpt lat="47.25335" lon="-2.33009">
        <ele>25</ele>
        <time>2021-06-20T10:21:18.000Z</time>
      </trkpt>
      <trkpt lat="47.25321" lon="-2.32973">
        <ele>25</ele>
        <time>2021-06-20T10:21:25.000Z</time>
      </trkpt>
      <trkpt lat="47.25309" lon="-2.3294">
        <ele>25</ele>
        <time>2021-06-20T10:21:31.000Z</time>
      </trkpt>
      <trkpt lat="47.25308" lon="-2.32928">
        <ele>25</ele>
        <time>2021-06-20T10:21:33.000Z</time>
      </trkpt>
      <trkpt lat="47.25316" lon="-2.32909">
        <ele>25</ele>
        <time>2021-06-20T10:21:37.000Z</time>
      </trkpt>
      <trkpt lat="47.25324" lon="-2.32903">
        <ele>25</ele>
        <time>2021-06-20T10:21:39.000Z</time>
      </trkpt>
      <trkpt lat="47.25331" lon="-2.32896">
        <ele>25.39999961853</ele>
        <time>2021-06-20T10:21:41.000Z</time>
      </trkpt>
      <trkpt lat="47.25335" lon="-2.32893">
        <ele>26.200000762939</ele>
        <time>2021-06-20T10:21:42.000Z</time>
      </trkpt>
      <trkpt lat="47.25338" lon="-2.32889">
        <ele>26.60000038147</ele>
        <time>2021-06-20T10:21:43.000Z</time>
      </trkpt>
      <trkpt lat="47.25342" lon="-2.32886">
        <ele>27</ele>
        <time>2021-06-20T10:21:44.000Z</time>
      </trkpt>
      <trkpt lat="47.25345" lon="-2.32883">
        <ele>27</ele>
        <time>2021-06-20T10:21:45.000Z</time>
      </trkpt>
      <trkpt lat="47.25376" lon="-2.32856">
        <ele>27</ele>
        <time>2021-06-20T10:21:53.000Z</time>
      </trkpt>
      <trkpt lat="47.25383" lon="-2.32847">
        <ele>27</ele>
        <time>2021-06-20T10:21:55.000Z</time>
      </trkpt>
      <trkpt lat="47.25396" lon="-2.32827">
        <ele>27</ele>
        <time>2021-06-20T10:21:59.000Z</time>
      </trkpt>
      <trkpt lat="47.2542" lon="-2.32794">
        <ele>27</ele>
        <time>2021-06-20T10:22:06.000Z</time>
      </trkpt>
      <trkpt lat="47.25426" lon="-2.32784">
        <ele>27</ele>
        <time>2021-06-20T10:22:08.000Z</time>
      </trkpt>
      <trkpt lat="47.25437" lon="-2.32765">
        <ele>27</ele>
        <time>2021-06-20T10:22:12.000Z</time>
      </trkpt>
      <trkpt lat="47.25457" lon="-2.32737">
        <ele>27</ele>
        <time>2021-06-20T10:22:18.000Z</time>
      </trkpt>
      <trkpt lat="47.25486" lon="-2.32695">
        <ele>27</ele>
        <time>2021-06-20T10:22:27.000Z</time>
      </trkpt>
      <trkpt lat="47.25488" lon="-2.32689">
        <ele>27.39999961853</ele>
        <time>2021-06-20T10:22:28.000Z</time>
      </trkpt>
      <trkpt lat="47.25489" lon="-2.32683">
        <ele>27.799999237061</ele>
        <time>2021-06-20T10:22:29.000Z</time>
      </trkpt>
      <trkpt lat="47.2549" lon="-2.32676">
        <ele>28.200000762939</ele>
        <time>2021-06-20T10:22:30.000Z</time>
      </trkpt>
      <trkpt lat="47.2549" lon="-2.3267">
        <ele>29</ele>
        <time>2021-06-20T10:22:31.000Z</time>
      </trkpt>
      <trkpt lat="47.25485" lon="-2.32643">
        <ele>29</ele>
        <time>2021-06-20T10:22:35.000Z</time>
      </trkpt>
      <trkpt lat="47.25475" lon="-2.32586">
        <ele>29</ele>
        <time>2021-06-20T10:22:44.000Z</time>
      </trkpt>
      <trkpt lat="47.2548" lon="-2.32565">
        <ele>29</ele>
        <time>2021-06-20T10:22:48.000Z</time>
      </trkpt>
      <trkpt lat="47.25487" lon="-2.32557">
        <ele>29</ele>
        <time>2021-06-20T10:22:50.000Z</time>
      </trkpt>
      <trkpt lat="47.25498" lon="-2.32545">
        <ele>29</ele>
        <time>2021-06-20T10:22:53.000Z</time>
      </trkpt>
      <trkpt lat="47.25517" lon="-2.32524">
        <ele>29</ele>
        <time>2021-06-20T10:22:58.000Z</time>
      </trkpt>
      <trkpt lat="47.25526" lon="-2.32517">
        <ele>29</ele>
        <time>2021-06-20T10:23:00.000Z</time>
      </trkpt>
      <trkpt lat="47.25556" lon="-2.3249">
        <ele>29</ele>
        <time>2021-06-20T10:23:06.000Z</time>
      </trkpt>
      <trkpt lat="47.25584" lon="-2.32463">
        <ele>28.60000038147</ele>
        <time>2021-06-20T10:23:11.000Z</time>
      </trkpt>
      <trkpt lat="47.2559" lon="-2.32458">
        <ele>28.200000762939</ele>
        <time>2021-06-20T10:23:12.000Z</time>
      </trkpt>
      <trkpt lat="47.25595" lon="-2.32452">
        <ele>27.60000038147</ele>
        <time>2021-06-20T10:23:13.000Z</time>
      </trkpt>
      <trkpt lat="47.25601" lon="-2.32446">
        <ele>27.200000762939</ele>
        <time>2021-06-20T10:23:14.000Z</time>
      </trkpt>
      <trkpt lat="47.25606" lon="-2.3244">
        <ele>26.799999237061</ele>
        <time>2021-06-20T10:23:15.000Z</time>
      </trkpt>
      <trkpt lat="47.2562" lon="-2.32423">
        <ele>26.39999961853</ele>
        <time>2021-06-20T10:23:18.000Z</time>
      </trkpt>
      <trkpt lat="47.25624" lon="-2.32418">
        <ele>25.799999237061</ele>
        <time>2021-06-20T10:23:19.000Z</time>
      </trkpt>
      <trkpt lat="47.25628" lon="-2.32413">
        <ele>24.799999237061</ele>
        <time>2021-06-20T10:23:20.000Z</time>
      </trkpt>
      <trkpt lat="47.25633" lon="-2.3241">
        <ele>24.39999961853</ele>
        <time>2021-06-20T10:23:21.000Z</time>
      </trkpt>
      <trkpt lat="47.25643" lon="-2.32404">
        <ele>24.39999961853</ele>
        <time>2021-06-20T10:23:23.000Z</time>
      </trkpt>
      <trkpt lat="47.25648" lon="-2.32403">
        <ele>24.39999961853</ele>
        <time>2021-06-20T10:23:24.000Z</time>
      </trkpt>
      <trkpt lat="47.25666" lon="-2.32408">
        <ele>24</ele>
        <time>2021-06-20T10:23:28.000Z</time>
      </trkpt>
      <trkpt lat="47.2567" lon="-2.32411">
        <ele>23.60000038147</ele>
        <time>2021-06-20T10:23:29.000Z</time>
      </trkpt>
      <trkpt lat="47.25674" lon="-2.32415">
        <ele>23.200000762939</ele>
        <time>2021-06-20T10:23:30.000Z</time>
      </trkpt>
      <trkpt lat="47.25679" lon="-2.32418">
        <ele>22.799999237061</ele>
        <time>2021-06-20T10:23:31.000Z</time>
      </trkpt>
      <trkpt lat="47.25685" lon="-2.3242">
        <ele>22.39999961853</ele>
        <time>2021-06-20T10:23:32.000Z</time>
      </trkpt>
      <trkpt lat="47.25691" lon="-2.32421">
        <ele>22.39999961853</ele>
        <time>2021-06-20T10:23:33.000Z</time>
      </trkpt>
      <trkpt lat="47.25732" lon="-2.32424">
        <ele>22.39999961853</ele>
        <time>2021-06-20T10:23:40.000Z</time>
      </trkpt>
      <trkpt lat="47.25761" lon="-2.32421">
        <ele>22.39999961853</ele>
        <time>2021-06-20T10:23:46.000Z</time>
      </trkpt>
      <trkpt lat="47.25775" lon="-2.32414">
        <ele>22.39999961853</ele>
        <time>2021-06-20T10:23:51.000Z</time>
      </trkpt>
      <trkpt lat="47.25783" lon="-2.32418">
        <ele>22.39999961853</ele>
        <time>2021-06-20T10:23:53.000Z</time>
      </trkpt>
      <trkpt lat="47.25786" lon="-2.32423">
        <ele>22.39999961853</ele>
        <time>2021-06-20T10:23:54.000Z</time>
      </trkpt>
      <trkpt lat="47.25799" lon="-2.32447">
        <ele>22.39999961853</ele>
        <time>2021-06-20T10:23:58.000Z</time>
      </trkpt>
      <trkpt lat="47.25818" lon="-2.32461">
        <ele>22.39999961853</ele>
        <time>2021-06-20T10:24:02.000Z</time>
      </trkpt>
      <trkpt lat="47.25854" lon="-2.32474">
        <ele>22.39999961853</ele>
        <time>2021-06-20T10:24:09.000Z</time>
      </trkpt>
      <trkpt lat="47.25885" lon="-2.32469">
        <ele>22.39999961853</ele>
        <time>2021-06-20T10:24:15.000Z</time>
      </trkpt>
      <trkpt lat="47.25895" lon="-2.32463">
        <ele>22.39999961853</ele>
        <time>2021-06-20T10:24:17.000Z</time>
      </trkpt>
      <trkpt lat="47.25905" lon="-2.32452">
        <ele>22.39999961853</ele>
        <time>2021-06-20T10:24:19.000Z</time>
      </trkpt>
      <trkpt lat="47.25939" lon="-2.32409">
        <ele>22.39999961853</ele>
        <time>2021-06-20T10:24:27.000Z</time>
      </trkpt>
      <trkpt lat="47.25971" lon="-2.32366">
        <ele>22.39999961853</ele>
        <time>2021-06-20T10:24:35.000Z</time>
      </trkpt>
      <trkpt lat="47.25995" lon="-2.32335">
        <ele>22</ele>
        <time>2021-06-20T10:24:41.000Z</time>
      </trkpt>
      <trkpt lat="47.25999" lon="-2.32329">
        <ele>21.60000038147</ele>
        <time>2021-06-20T10:24:42.000Z</time>
      </trkpt>
      <trkpt lat="47.26003" lon="-2.32324">
        <ele>21</ele>
        <time>2021-06-20T10:24:43.000Z</time>
      </trkpt>
      <trkpt lat="47.26007" lon="-2.32319">
        <ele>20.60000038147</ele>
        <time>2021-06-20T10:24:44.000Z</time>
      </trkpt>
      <trkpt lat="47.26011" lon="-2.32315">
        <ele>20.200000762939</ele>
        <time>2021-06-20T10:24:45.000Z</time>
      </trkpt>
      <trkpt lat="47.26035" lon="-2.32286">
        <ele>20.200000762939</ele>
        <time>2021-06-20T10:24:51.000Z</time>
      </trkpt>
      <trkpt lat="47.2606" lon="-2.32257">
        <ele>20.200000762939</ele>
        <time>2021-06-20T10:24:57.000Z</time>
      </trkpt>
      <trkpt lat="47.26072" lon="-2.32244">
        <ele>20.200000762939</ele>
        <time>2021-06-20T10:25:00.000Z</time>
      </trkpt>
      <trkpt lat="47.2608" lon="-2.32235">
        <ele>20.200000762939</ele>
        <time>2021-06-20T10:25:02.000Z</time>
      </trkpt>
      <trkpt lat="47.26101" lon="-2.322">
        <ele>20.200000762939</ele>
        <time>2021-06-20T10:25:08.000Z</time>
      </trkpt>
      <trkpt lat="47.26107" lon="-2.32187">
        <ele>20.200000762939</ele>
        <time>2021-06-20T10:25:10.000Z</time>
      </trkpt>
      <trkpt lat="47.26121" lon="-2.32155">
        <ele>20.200000762939</ele>
        <time>2021-06-20T10:25:15.000Z</time>
      </trkpt>
      <trkpt lat="47.26134" lon="-2.32111">
        <ele>20.200000762939</ele>
        <time>2021-06-20T10:25:21.000Z</time>
      </trkpt>
      <trkpt lat="47.26136" lon="-2.32104">
        <ele>20.200000762939</ele>
        <time>2021-06-20T10:25:22.000Z</time>
      </trkpt>
      <trkpt lat="47.26154" lon="-2.3205">
        <ele>20.200000762939</ele>
        <time>2021-06-20T10:25:30.000Z</time>
      </trkpt>
      <trkpt lat="47.26161" lon="-2.32027">
        <ele>20.200000762939</ele>
        <time>2021-06-20T10:25:34.000Z</time>
      </trkpt>
      <trkpt lat="47.26163" lon="-2.32023">
        <ele>20.200000762939</ele>
        <time>2021-06-20T10:25:35.000Z</time>
      </trkpt>
      <trkpt lat="47.26174" lon="-2.32019">
        <ele>20.200000762939</ele>
        <time>2021-06-20T10:25:38.000Z</time>
      </trkpt>
      <trkpt lat="47.26188" lon="-2.32023">
        <ele>20.200000762939</ele>
        <time>2021-06-20T10:25:43.000Z</time>
      </trkpt>
      <trkpt lat="47.26197" lon="-2.32021">
        <ele>20.200000762939</ele>
        <time>2021-06-20T10:25:47.000Z</time>
      </trkpt>
      <trkpt lat="47.26198" lon="-2.32016">
        <ele>20.200000762939</ele>
        <time>2021-06-20T10:25:48.000Z</time>
      </trkpt>
      <trkpt lat="47.26201" lon="-2.32004">
        <ele>20.200000762939</ele>
        <time>2021-06-20T10:25:51.000Z</time>
      </trkpt>
      <trkpt lat="47.26202" lon="-2.32003">
        <ele>20.200000762939</ele>
        <time>2021-06-20T10:25:52.000Z</time>
      </trkpt>
      <trkpt lat="47.26216" lon="-2.31992">
        <ele>20.200000762939</ele>
        <time>2021-06-20T10:25:58.000Z</time>
      </trkpt>
      <trkpt lat="47.26225" lon="-2.31984">
        <ele>20.200000762939</ele>
        <time>2021-06-20T10:26:01.000Z</time>
      </trkpt>
      <trkpt lat="47.26228" lon="-2.31984">
        <ele>20.200000762939</ele>
        <time>2021-06-20T10:26:02.000Z</time>
      </trkpt>
      <trkpt lat="47.26239" lon="-2.3197">
        <ele>20.200000762939</ele>
        <time>2021-06-20T10:26:06.000Z</time>
      </trkpt>
      <trkpt lat="47.26243" lon="-2.3196">
        <ele>20.200000762939</ele>
        <time>2021-06-20T10:26:08.000Z</time>
      </trkpt>
      <trkpt lat="47.26246" lon="-2.31951">
        <ele>20.200000762939</ele>
        <time>2021-06-20T10:26:10.000Z</time>
      </trkpt>
      <trkpt lat="47.26259" lon="-2.31927">
        <ele>20.200000762939</ele>
        <time>2021-06-20T10:26:16.000Z</time>
      </trkpt>
      <trkpt lat="47.26281" lon="-2.31907">
        <ele>20.200000762939</ele>
        <time>2021-06-20T10:26:21.000Z</time>
      </trkpt>
      <trkpt lat="47.26297" lon="-2.31885">
        <ele>20.200000762939</ele>
        <time>2021-06-20T10:26:26.000Z</time>
      </trkpt>
      <trkpt lat="47.26299" lon="-2.31846">
        <ele>20.200000762939</ele>
        <time>2021-06-20T10:26:32.000Z</time>
      </trkpt>
      <trkpt lat="47.26303" lon="-2.31812">
        <ele>20.200000762939</ele>
        <time>2021-06-20T10:26:38.000Z</time>
      </trkpt>
      <trkpt lat="47.26302" lon="-2.31788">
        <ele>20.200000762939</ele>
        <time>2021-06-20T10:26:42.000Z</time>
      </trkpt>
      <trkpt lat="47.26297" lon="-2.3174">
        <ele>20.200000762939</ele>
        <time>2021-06-20T10:26:49.000Z</time>
      </trkpt>
      <trkpt lat="47.26299" lon="-2.31721">
        <ele>20.200000762939</ele>
        <time>2021-06-20T10:26:52.000Z</time>
      </trkpt>
      <trkpt lat="47.26303" lon="-2.31717">
        <ele>20.200000762939</ele>
        <time>2021-06-20T10:26:53.000Z</time>
      </trkpt>
      <trkpt lat="47.2632" lon="-2.31708">
        <ele>20.200000762939</ele>
        <time>2021-06-20T10:26:57.000Z</time>
      </trkpt>
      <trkpt lat="47.26329" lon="-2.31699">
        <ele>20.200000762939</ele>
        <time>2021-06-20T10:27:00.000Z</time>
      </trkpt>
      <trkpt lat="47.2633" lon="-2.31694">
        <ele>20.200000762939</ele>
        <time>2021-06-20T10:27:01.000Z</time>
      </trkpt>
      <trkpt lat="47.2634" lon="-2.31686">
        <ele>20.60000038147</ele>
        <time>2021-06-20T10:27:05.000Z</time>
      </trkpt>
      <trkpt lat="47.26343" lon="-2.31685">
        <ele>21.200000762939</ele>
        <time>2021-06-20T10:27:06.000Z</time>
      </trkpt>
      <trkpt lat="47.26346" lon="-2.31683">
        <ele>21.60000038147</ele>
        <time>2021-06-20T10:27:07.000Z</time>
      </trkpt>
      <trkpt lat="47.26348" lon="-2.31682">
        <ele>22</ele>
        <time>2021-06-20T10:27:08.000Z</time>
      </trkpt>
      <trkpt lat="47.26351" lon="-2.3168">
        <ele>22.39999961853</ele>
        <time>2021-06-20T10:27:09.000Z</time>
      </trkpt>
      <trkpt lat="47.26358" lon="-2.31676">
        <ele>22.39999961853</ele>
        <time>2021-06-20T10:27:12.000Z</time>
      </trkpt>
      <trkpt lat="47.26377" lon="-2.31666">
        <ele>22.39999961853</ele>
        <time>2021-06-20T10:27:18.000Z</time>
      </trkpt>
      <trkpt lat="47.26394" lon="-2.31657">
        <ele>22.39999961853</ele>
        <time>2021-06-20T10:27:24.000Z</time>
      </trkpt>
      <trkpt lat="47.26404" lon="-2.31651">
        <ele>22.39999961853</ele>
        <time>2021-06-20T10:27:28.000Z</time>
      </trkpt>
      <trkpt lat="47.26405" lon="-2.31645">
        <ele>22.39999961853</ele>
        <time>2021-06-20T10:27:29.000Z</time>
      </trkpt>
      <trkpt lat="47.26405" lon="-2.3164">
        <ele>22.799999237061</ele>
        <time>2021-06-20T10:27:30.000Z</time>
      </trkpt>
      <trkpt lat="47.26405" lon="-2.31636">
        <ele>23.200000762939</ele>
        <time>2021-06-20T10:27:31.000Z</time>
      </trkpt>
      <trkpt lat="47.26405" lon="-2.31631">
        <ele>23.60000038147</ele>
        <time>2021-06-20T10:27:32.000Z</time>
      </trkpt>
      <trkpt lat="47.26405" lon="-2.31626">
        <ele>24.200000762939</ele>
        <time>2021-06-20T10:27:33.000Z</time>
      </trkpt>
      <trkpt lat="47.26404" lon="-2.31621">
        <ele>24.60000038147</ele>
        <time>2021-06-20T10:27:34.000Z</time>
      </trkpt>
      <trkpt lat="47.26405" lon="-2.3161">
        <ele>24.60000038147</ele>
        <time>2021-06-20T10:27:36.000Z</time>
      </trkpt>
      <trkpt lat="47.26406" lon="-2.31581">
        <ele>24.60000038147</ele>
        <time>2021-06-20T10:27:42.000Z</time>
      </trkpt>
      <trkpt lat="47.26408" lon="-2.31552">
        <ele>24.60000038147</ele>
        <time>2021-06-20T10:27:49.000Z</time>
      </trkpt>
      <trkpt lat="47.26411" lon="-2.31551">
        <ele>24.60000038147</ele>
        <time>2021-06-20T10:27:50.000Z</time>
      </trkpt>
      <trkpt lat="47.26414" lon="-2.31552">
        <ele>24.60000038147</ele>
        <time>2021-06-20T10:27:52.000Z</time>
      </trkpt>
      <trkpt lat="47.26414" lon="-2.31553">
        <ele>24.60000038147</ele>
        <time>2021-06-20T10:27:54.000Z</time>
      </trkpt>
    </trkseg>
  </trk>
</gpx>